<?xml version='1.0' encoding='UTF-8'?><gpx version="1.1" creator="JPX - https://github.com/jenetics/jpx" xmlns="http://www.topografix.com/GPX/1/1"><trk><trkseg><trkpt lat="43.8515835" lon="11.1819928"><ele>78.0</ele><time>2026-04-12T03:50:10.153Z</time></trkpt><trkpt lat="43.8515497" lon="11.1821258"><ele>78.0</ele><time>2026-04-12T03:50:13.158Z</time></trkpt><trkpt lat="43.8515328" lon="11.1822355"><ele>78.0</ele><time>2026-04-12T03:50:15.155Z</time></trkpt><trkpt lat="43.8515229" lon="11.1823516"><ele>78.0</ele><time>2026-04-12T03:50:17.172Z</time></trkpt><trkpt lat="43.8515766" lon="11.1824391"><ele>78.0</ele><time>2026-04-12T03:50:19.157Z</time></trkpt><trkpt lat="43.8516629" lon="11.1824236"><ele>78.0</ele><time>2026-04-12T03:50:22.159Z</time></trkpt><trkpt lat="43.8517049" lon="11.182337"><ele>78.0</ele><time>2026-04-12T03:50:24.152Z</time></trkpt><trkpt lat="43.8517393" lon="11.1822183"><ele>78.0</ele><time>2026-04-12T03:50:26.158Z</time></trkpt><trkpt lat="43.8517855" lon="11.1820956"><ele>78.0</ele><time>2026-04-12T03:50:28.159Z</time></trkpt><trkpt lat="43.8518596" lon="11.1819935"><ele>78.0</ele><time>2026-04-12T03:50:30.159Z</time></trkpt><trkpt lat="43.8519406" lon="11.1819996"><ele>78.0</ele><time>2026-04-12T03:50:32.155Z</time></trkpt><trkpt lat="43.8520325" lon="11.182115"><ele>79.6</ele><time>2026-04-12T03:50:34.162Z</time></trkpt><trkpt lat="43.8521176" lon="11.182249"><ele>81.19999999999999</ele><time>2026-04-12T03:50:36.159Z</time></trkpt><trkpt lat="43.8521981" lon="11.182325"><ele>82.8</ele><time>2026-04-12T03:50:38.168Z</time></trkpt><trkpt lat="43.8522797" lon="11.1823375"><ele>84.39999999999999</ele><time>2026-04-12T03:50:40.159Z</time></trkpt><trkpt lat="43.8523537" lon="11.1822804"><ele>86.0</ele><time>2026-04-12T03:50:42.156Z</time></trkpt><trkpt lat="43.8524229" lon="11.1822471"><ele>86.0</ele><time>2026-04-12T03:50:44.159Z</time></trkpt><trkpt lat="43.8524971" lon="11.1822176"><ele>86.0</ele><time>2026-04-12T03:50:46.156Z</time></trkpt><trkpt lat="43.8525954" lon="11.1821635"><ele>86.0</ele><time>2026-04-12T03:50:48.149Z</time></trkpt><trkpt lat="43.8526537" lon="11.1821304"><ele>86.0</ele><time>2026-04-12T03:50:49.15Z</time></trkpt><trkpt lat="43.8527583" lon="11.1820487"><ele>86.0</ele><time>2026-04-12T03:50:51.185Z</time></trkpt><trkpt lat="43.8528369" lon="11.1819926"><ele>86.16666666666667</ele><time>2026-04-12T03:50:53.202Z</time></trkpt><trkpt lat="43.8529032" lon="11.1818672"><ele>86.33333333333334</ele><time>2026-04-12T03:50:55.161Z</time></trkpt><trkpt lat="43.8529406" lon="11.1817689"><ele>86.5</ele><time>2026-04-12T03:50:56.18Z</time></trkpt><trkpt lat="43.8529887" lon="11.1816805"><ele>86.66666666666667</ele><time>2026-04-12T03:50:57.169Z</time></trkpt><trkpt lat="43.8530455" lon="11.1815888"><ele>86.83333333333333</ele><time>2026-04-12T03:50:58.182Z</time></trkpt><trkpt lat="43.8531107" lon="11.1815054"><ele>87.0</ele><time>2026-04-12T03:50:59.175Z</time></trkpt><trkpt lat="43.8531686" lon="11.1814159"><ele>87.0</ele><time>2026-04-12T03:51:00.163Z</time></trkpt><trkpt lat="43.8532301" lon="11.181334"><ele>87.0</ele><time>2026-04-12T03:51:01.176Z</time></trkpt><trkpt lat="43.8532916" lon="11.1812414"><ele>87.0</ele><time>2026-04-12T03:51:02.168Z</time></trkpt><trkpt lat="43.8533558" lon="11.1811227"><ele>87.0</ele><time>2026-04-12T03:51:03.168Z</time></trkpt><trkpt lat="43.8534032" lon="11.1809889"><ele>87.0</ele><time>2026-04-12T03:51:04.185Z</time></trkpt><trkpt lat="43.8534656" lon="11.1808613"><ele>86.19999999999999</ele><time>2026-04-12T03:51:05.175Z</time></trkpt><trkpt lat="43.8535317" lon="11.18073"><ele>85.4</ele><time>2026-04-12T03:51:06.166Z</time></trkpt><trkpt lat="43.8535972" lon="11.1806118"><ele>84.6</ele><time>2026-04-12T03:51:07.176Z</time></trkpt><trkpt lat="43.8536574" lon="11.1805009"><ele>83.80000000000001</ele><time>2026-04-12T03:51:08.18Z</time></trkpt><trkpt lat="43.8537218" lon="11.1803956"><ele>83.0</ele><time>2026-04-12T03:51:09.178Z</time></trkpt><trkpt lat="43.853781" lon="11.1803087"><ele>83.0</ele><time>2026-04-12T03:51:10.162Z</time></trkpt><trkpt lat="43.853825" lon="11.1802328"><ele>83.0</ele><time>2026-04-12T03:51:11.193Z</time></trkpt><trkpt lat="43.8539043" lon="11.1801207"><ele>83.0</ele><time>2026-04-12T03:51:13.173Z</time></trkpt><trkpt lat="43.8540025" lon="11.1800357"><ele>83.0</ele><time>2026-04-12T03:51:15.183Z</time></trkpt><trkpt lat="43.8540696" lon="11.1799788"><ele>83.0</ele><time>2026-04-12T03:51:16.183Z</time></trkpt><trkpt lat="43.8541418" lon="11.1799165"><ele>83.0</ele><time>2026-04-12T03:51:17.178Z</time></trkpt><trkpt lat="43.8542162" lon="11.1798508"><ele>83.0</ele><time>2026-04-12T03:51:18.174Z</time></trkpt><trkpt lat="43.8542832" lon="11.1797815"><ele>83.0</ele><time>2026-04-12T03:51:19.193Z</time></trkpt><trkpt lat="43.8543429" lon="11.1797113"><ele>83.0</ele><time>2026-04-12T03:51:20.176Z</time></trkpt><trkpt lat="43.8544027" lon="11.1796431"><ele>83.0</ele><time>2026-04-12T03:51:21.184Z</time></trkpt><trkpt lat="43.8544564" lon="11.179582"><ele>83.0</ele><time>2026-04-12T03:51:22.195Z</time></trkpt><trkpt lat="43.8544986" lon="11.1795091"><ele>81.33333333333334</ele><time>2026-04-12T03:51:23.181Z</time></trkpt><trkpt lat="43.8545472" lon="11.1794036"><ele>79.66666666666667</ele><time>2026-04-12T03:51:25.186Z</time></trkpt><trkpt lat="43.8545747" lon="11.1793233"><ele>78.0</ele><time>2026-04-12T03:51:27.168Z</time></trkpt><trkpt lat="43.8545265" lon="11.1792355"><ele>76.33333333333333</ele><time>2026-04-12T03:51:30.188Z</time></trkpt><trkpt lat="43.8546244" lon="11.1792034"><ele>74.66666666666666</ele><time>2026-04-12T03:51:33.191Z</time></trkpt><trkpt lat="43.8547301" lon="11.179244"><ele>73.0</ele><time>2026-04-12T03:51:35.182Z</time></trkpt><trkpt lat="43.8547862" lon="11.1792896"><ele>73.0</ele><time>2026-04-12T03:51:36.183Z</time></trkpt><trkpt lat="43.8548494" lon="11.1793104"><ele>73.0</ele><time>2026-04-12T03:51:37.186Z</time></trkpt><trkpt lat="43.8549201" lon="11.1792996"><ele>73.0</ele><time>2026-04-12T03:51:38.187Z</time></trkpt><trkpt lat="43.8549998" lon="11.1792679"><ele>73.0</ele><time>2026-04-12T03:51:39.171Z</time></trkpt><trkpt lat="43.855085" lon="11.179242"><ele>73.0</ele><time>2026-04-12T03:51:40.181Z</time></trkpt><trkpt lat="43.8551897" lon="11.1792175"><ele>73.0</ele><time>2026-04-12T03:51:41.185Z</time></trkpt><trkpt lat="43.8552922" lon="11.1791965"><ele>73.2</ele><time>2026-04-12T03:51:42.166Z</time></trkpt><trkpt lat="43.8553868" lon="11.1791714"><ele>73.4</ele><time>2026-04-12T03:51:43.17Z</time></trkpt><trkpt lat="43.8554888" lon="11.1791441"><ele>73.60000000000001</ele><time>2026-04-12T03:51:44.175Z</time></trkpt><trkpt lat="43.8555864" lon="11.1791184"><ele>73.8</ele><time>2026-04-12T03:51:45.17Z</time></trkpt><trkpt lat="43.8556859" lon="11.1790805"><ele>74.0</ele><time>2026-04-12T03:51:46.194Z</time></trkpt><trkpt lat="43.8557873" lon="11.1790437"><ele>74.0</ele><time>2026-04-12T03:51:47.191Z</time></trkpt><trkpt lat="43.8558899" lon="11.179007"><ele>74.0</ele><time>2026-04-12T03:51:48.183Z</time></trkpt><trkpt lat="43.8559963" lon="11.1789711"><ele>74.0</ele><time>2026-04-12T03:51:49.162Z</time></trkpt><trkpt lat="43.8561113" lon="11.1789373"><ele>74.0</ele><time>2026-04-12T03:51:50.194Z</time></trkpt><trkpt lat="43.8562333" lon="11.1789008"><ele>74.0</ele><time>2026-04-12T03:51:51.18Z</time></trkpt><trkpt lat="43.8563378" lon="11.1788685"><ele>74.0</ele><time>2026-04-12T03:51:52.187Z</time></trkpt><trkpt lat="43.8564491" lon="11.178836"><ele>74.0</ele><time>2026-04-12T03:51:53.19Z</time></trkpt><trkpt lat="43.8565536" lon="11.1788012"><ele>74.0</ele><time>2026-04-12T03:51:54.181Z</time></trkpt><trkpt lat="43.8566569" lon="11.1787705"><ele>74.0</ele><time>2026-04-12T03:51:55.184Z</time></trkpt><trkpt lat="43.8567585" lon="11.1787366"><ele>74.4</ele><time>2026-04-12T03:51:56.178Z</time></trkpt><trkpt lat="43.8568644" lon="11.1786992"><ele>74.80000000000001</ele><time>2026-04-12T03:51:57.18Z</time></trkpt><trkpt lat="43.85697" lon="11.1786632"><ele>75.19999999999999</ele><time>2026-04-12T03:51:58.178Z</time></trkpt><trkpt lat="43.8570806" lon="11.1786273"><ele>75.6</ele><time>2026-04-12T03:51:59.179Z</time></trkpt><trkpt lat="43.8571903" lon="11.1785939"><ele>76.0</ele><time>2026-04-12T03:52:00.193Z</time></trkpt><trkpt lat="43.8573016" lon="11.1785492"><ele>76.0</ele><time>2026-04-12T03:52:01.188Z</time></trkpt><trkpt lat="43.8574118" lon="11.1784962"><ele>76.0</ele><time>2026-04-12T03:52:02.184Z</time></trkpt><trkpt lat="43.8575196" lon="11.1784382"><ele>76.0</ele><time>2026-04-12T03:52:03.181Z</time></trkpt><trkpt lat="43.8576253" lon="11.178368"><ele>76.0</ele><time>2026-04-12T03:52:04.183Z</time></trkpt><trkpt lat="43.8577212" lon="11.1782642"><ele>76.25</ele><time>2026-04-12T03:52:05.156Z</time></trkpt><trkpt lat="43.8578057" lon="11.1781471"><ele>76.5</ele><time>2026-04-12T03:52:06.182Z</time></trkpt><trkpt lat="43.8578957" lon="11.1780228"><ele>76.75</ele><time>2026-04-12T03:52:07.175Z</time></trkpt><trkpt lat="43.8579735" lon="11.1778868"><ele>77.0</ele><time>2026-04-12T03:52:08.187Z</time></trkpt><trkpt lat="43.8580375" lon="11.1777369"><ele>77.0</ele><time>2026-04-12T03:52:09.195Z</time></trkpt><trkpt lat="43.8580993" lon="11.1775868"><ele>77.0</ele><time>2026-04-12T03:52:10.191Z</time></trkpt><trkpt lat="43.8581591" lon="11.1774279"><ele>77.0</ele><time>2026-04-12T03:52:11.183Z</time></trkpt><trkpt lat="43.8582214" lon="11.1772592"><ele>77.0</ele><time>2026-04-12T03:52:12.175Z</time></trkpt><trkpt lat="43.8582874" lon="11.1770861"><ele>77.0</ele><time>2026-04-12T03:52:13.159Z</time></trkpt><trkpt lat="43.8583555" lon="11.1769077"><ele>77.0</ele><time>2026-04-12T03:52:14.173Z</time></trkpt><trkpt lat="43.8584189" lon="11.1767326"><ele>77.0</ele><time>2026-04-12T03:52:15.172Z</time></trkpt><trkpt lat="43.8584825" lon="11.1765695"><ele>77.0</ele><time>2026-04-12T03:52:16.172Z</time></trkpt><trkpt lat="43.8585454" lon="11.1764102"><ele>77.0</ele><time>2026-04-12T03:52:17.174Z</time></trkpt><trkpt lat="43.8585998" lon="11.1762566"><ele>77.0</ele><time>2026-04-12T03:52:18.182Z</time></trkpt><trkpt lat="43.8586561" lon="11.1761173"><ele>77.0</ele><time>2026-04-12T03:52:19.168Z</time></trkpt><trkpt lat="43.858709" lon="11.1760212"><ele>77.0</ele><time>2026-04-12T03:52:20.172Z</time></trkpt><trkpt lat="43.8587672" lon="11.1759405"><ele>77.0</ele><time>2026-04-12T03:52:21.19Z</time></trkpt><trkpt lat="43.858828" lon="11.1758581"><ele>77.0</ele><time>2026-04-12T03:52:22.177Z</time></trkpt><trkpt lat="43.8588595" lon="11.1757528"><ele>77.0</ele><time>2026-04-12T03:52:23.179Z</time></trkpt><trkpt lat="43.8588834" lon="11.1756182"><ele>77.0</ele><time>2026-04-12T03:52:24.18Z</time></trkpt><trkpt lat="43.8589148" lon="11.1754672"><ele>77.0</ele><time>2026-04-12T03:52:25.178Z</time></trkpt><trkpt lat="43.858961" lon="11.1753117"><ele>77.0</ele><time>2026-04-12T03:52:26.176Z</time></trkpt><trkpt lat="43.8590118" lon="11.1751581"><ele>76.75</ele><time>2026-04-12T03:52:27.173Z</time></trkpt><trkpt lat="43.8590723" lon="11.1750014"><ele>76.5</ele><time>2026-04-12T03:52:28.189Z</time></trkpt><trkpt lat="43.8591357" lon="11.174838"><ele>76.25</ele><time>2026-04-12T03:52:29.175Z</time></trkpt><trkpt lat="43.8591963" lon="11.1746837"><ele>76.0</ele><time>2026-04-12T03:52:30.175Z</time></trkpt><trkpt lat="43.8592599" lon="11.1745192"><ele>75.75</ele><time>2026-04-12T03:52:31.191Z</time></trkpt><trkpt lat="43.859329" lon="11.1743592"><ele>75.5</ele><time>2026-04-12T03:52:32.158Z</time></trkpt><trkpt lat="43.8594011" lon="11.1741955"><ele>75.25</ele><time>2026-04-12T03:52:33.195Z</time></trkpt><trkpt lat="43.8594801" lon="11.1740335"><ele>75.0</ele><time>2026-04-12T03:52:34.169Z</time></trkpt><trkpt lat="43.8595537" lon="11.1738701"><ele>74.5</ele><time>2026-04-12T03:52:35.171Z</time></trkpt><trkpt lat="43.8596363" lon="11.1737085"><ele>74.0</ele><time>2026-04-12T03:52:36.182Z</time></trkpt><trkpt lat="43.8597164" lon="11.1735425"><ele>73.5</ele><time>2026-04-12T03:52:37.182Z</time></trkpt><trkpt lat="43.8597989" lon="11.173383"><ele>73.0</ele><time>2026-04-12T03:52:38.19Z</time></trkpt><trkpt lat="43.8598831" lon="11.1732252"><ele>73.0</ele><time>2026-04-12T03:52:39.183Z</time></trkpt><trkpt lat="43.8599705" lon="11.1730659"><ele>73.0</ele><time>2026-04-12T03:52:40.178Z</time></trkpt><trkpt lat="43.8600539" lon="11.172909"><ele>73.0</ele><time>2026-04-12T03:52:41.175Z</time></trkpt><trkpt lat="43.8601327" lon="11.1727471"><ele>73.0</ele><time>2026-04-12T03:52:43.028Z</time></trkpt><trkpt lat="43.8602102" lon="11.1725774"><ele>73.0</ele><time>2026-04-12T03:52:43.977Z</time></trkpt><trkpt lat="43.8602936" lon="11.1724077"><ele>73.0</ele><time>2026-04-12T03:52:44.974Z</time></trkpt><trkpt lat="43.8603769" lon="11.1722425"><ele>73.0</ele><time>2026-04-12T03:52:46.034Z</time></trkpt><trkpt lat="43.8604647" lon="11.172081"><ele>73.0</ele><time>2026-04-12T03:52:47.03Z</time></trkpt><trkpt lat="43.8605551" lon="11.171907"><ele>72.75</ele><time>2026-04-12T03:52:48.034Z</time></trkpt><trkpt lat="43.8606502" lon="11.1717378"><ele>72.5</ele><time>2026-04-12T03:52:48.96Z</time></trkpt><trkpt lat="43.8607369" lon="11.1715798"><ele>72.25</ele><time>2026-04-12T03:52:49.966Z</time></trkpt><trkpt lat="43.8608348" lon="11.1714475"><ele>72.0</ele><time>2026-04-12T03:52:50.969Z</time></trkpt><trkpt lat="43.8609468" lon="11.1713322"><ele>71.25</ele><time>2026-04-12T03:52:52.039Z</time></trkpt><trkpt lat="43.8610665" lon="11.1712324"><ele>70.5</ele><time>2026-04-12T03:52:53.029Z</time></trkpt><trkpt lat="43.8611851" lon="11.1711395"><ele>69.75</ele><time>2026-04-12T03:52:53.98Z</time></trkpt><trkpt lat="43.8613073" lon="11.1710464"><ele>69.0</ele><time>2026-04-12T03:52:54.975Z</time></trkpt><trkpt lat="43.861431" lon="11.1709462"><ele>69.0</ele><time>2026-04-12T03:52:55.993Z</time></trkpt><trkpt lat="43.8615529" lon="11.1708345"><ele>69.0</ele><time>2026-04-12T03:52:56.986Z</time></trkpt><trkpt lat="43.8616716" lon="11.1707307"><ele>69.0</ele><time>2026-04-12T03:52:58.011Z</time></trkpt><trkpt lat="43.8617976" lon="11.1706189"><ele>69.0</ele><time>2026-04-12T03:52:58.96Z</time></trkpt><trkpt lat="43.8619257" lon="11.1705164"><ele>68.60000000000001</ele><time>2026-04-12T03:53:00.035Z</time></trkpt><trkpt lat="43.8620406" lon="11.1704142"><ele>68.2</ele><time>2026-04-12T03:53:01.028Z</time></trkpt><trkpt lat="43.8621405" lon="11.170326"><ele>67.80000000000001</ele><time>2026-04-12T03:53:01.964Z</time></trkpt><trkpt lat="43.8622293" lon="11.1702682"><ele>67.4</ele><time>2026-04-12T03:53:03.031Z</time></trkpt><trkpt lat="43.8623219" lon="11.1702562"><ele>67.0</ele><time>2026-04-12T03:53:03.978Z</time></trkpt><trkpt lat="43.8624221" lon="11.1702323"><ele>67.0</ele><time>2026-04-12T03:53:04.97Z</time></trkpt><trkpt lat="43.8625095" lon="11.1701735"><ele>67.0</ele><time>2026-04-12T03:53:05.962Z</time></trkpt><trkpt lat="43.8625839" lon="11.1700977"><ele>67.0</ele><time>2026-04-12T03:53:06.972Z</time></trkpt><trkpt lat="43.8626138" lon="11.1699864"><ele>67.0</ele><time>2026-04-12T03:53:07.974Z</time></trkpt><trkpt lat="43.862638" lon="11.1698393"><ele>67.0</ele><time>2026-04-12T03:53:08.964Z</time></trkpt><trkpt lat="43.8626806" lon="11.1696895"><ele>67.75</ele><time>2026-04-12T03:53:09.981Z</time></trkpt><trkpt lat="43.8627676" lon="11.1695745"><ele>68.5</ele><time>2026-04-12T03:53:10.983Z</time></trkpt><trkpt lat="43.8628764" lon="11.1694744"><ele>69.25</ele><time>2026-04-12T03:53:11.984Z</time></trkpt><trkpt lat="43.8629878" lon="11.1693784"><ele>70.0</ele><time>2026-04-12T03:53:12.967Z</time></trkpt><trkpt lat="43.863102" lon="11.1693094"><ele>70.0</ele><time>2026-04-12T03:53:13.967Z</time></trkpt><trkpt lat="43.8632099" lon="11.1692391"><ele>70.0</ele><time>2026-04-12T03:53:14.96Z</time></trkpt><trkpt lat="43.8633167" lon="11.1691758"><ele>70.0</ele><time>2026-04-12T03:53:15.966Z</time></trkpt><trkpt lat="43.8634372" lon="11.1691268"><ele>70.0</ele><time>2026-04-12T03:53:17.035Z</time></trkpt><trkpt lat="43.8635751" lon="11.1690871"><ele>70.0</ele><time>2026-04-12T03:53:18.032Z</time></trkpt><trkpt lat="43.8637085" lon="11.1690396"><ele>70.0</ele><time>2026-04-12T03:53:18.985Z</time></trkpt><trkpt lat="43.863844" lon="11.1689996"><ele>70.0</ele><time>2026-04-12T03:53:19.966Z</time></trkpt><trkpt lat="43.86398" lon="11.1689583"><ele>70.0</ele><time>2026-04-12T03:53:20.979Z</time></trkpt><trkpt lat="43.8641134" lon="11.1689085"><ele>69.75</ele><time>2026-04-12T03:53:21.95Z</time></trkpt><trkpt lat="43.8642403" lon="11.168854"><ele>69.5</ele><time>2026-04-12T03:53:22.978Z</time></trkpt><trkpt lat="43.8643738" lon="11.1687804"><ele>69.25</ele><time>2026-04-12T03:53:23.97Z</time></trkpt><trkpt lat="43.8645031" lon="11.1687084"><ele>69.0</ele><time>2026-04-12T03:53:24.975Z</time></trkpt><trkpt lat="43.8646233" lon="11.1686465"><ele>69.0</ele><time>2026-04-12T03:53:26.031Z</time></trkpt><trkpt lat="43.8647226" lon="11.1686162"><ele>69.0</ele><time>2026-04-12T03:53:27.002Z</time></trkpt><trkpt lat="43.8648101" lon="11.1685931"><ele>69.0</ele><time>2026-04-12T03:53:28.045Z</time></trkpt><trkpt lat="43.8648962" lon="11.1685655"><ele>69.0</ele><time>2026-04-12T03:53:28.965Z</time></trkpt><trkpt lat="43.8649928" lon="11.1685106"><ele>69.0</ele><time>2026-04-12T03:53:29.967Z</time></trkpt><trkpt lat="43.8650971" lon="11.1684402"><ele>69.25</ele><time>2026-04-12T03:53:30.972Z</time></trkpt><trkpt lat="43.8651957" lon="11.1683519"><ele>69.5</ele><time>2026-04-12T03:53:31.967Z</time></trkpt><trkpt lat="43.8652846" lon="11.1682503"><ele>69.75</ele><time>2026-04-12T03:53:32.97Z</time></trkpt><trkpt lat="43.865374" lon="11.1681514"><ele>70.0</ele><time>2026-04-12T03:53:33.957Z</time></trkpt><trkpt lat="43.8654585" lon="11.1680487"><ele>70.0</ele><time>2026-04-12T03:53:34.959Z</time></trkpt><trkpt lat="43.8655365" lon="11.1679502"><ele>70.0</ele><time>2026-04-12T03:53:36.017Z</time></trkpt><trkpt lat="43.8656021" lon="11.1678572"><ele>70.0</ele><time>2026-04-12T03:53:36.964Z</time></trkpt><trkpt lat="43.8656625" lon="11.1677682"><ele>70.0</ele><time>2026-04-12T03:53:37.961Z</time></trkpt><trkpt lat="43.8657331" lon="11.1676856"><ele>70.0</ele><time>2026-04-12T03:53:38.964Z</time></trkpt><trkpt lat="43.8658066" lon="11.1675959"><ele>70.0</ele><time>2026-04-12T03:53:40.041Z</time></trkpt><trkpt lat="43.865879" lon="11.1675098"><ele>70.0</ele><time>2026-04-12T03:53:41.031Z</time></trkpt><trkpt lat="43.865943" lon="11.1674248"><ele>70.0</ele><time>2026-04-12T03:53:42.032Z</time></trkpt><trkpt lat="43.8660053" lon="11.1673481"><ele>70.0</ele><time>2026-04-12T03:53:43.033Z</time></trkpt><trkpt lat="43.8661295" lon="11.1672926"><ele>70.0</ele><time>2026-04-12T03:53:44.973Z</time></trkpt><trkpt lat="43.8662165" lon="11.1673046"><ele>69.8</ele><time>2026-04-12T03:53:45.995Z</time></trkpt><trkpt lat="43.8663203" lon="11.1672979"><ele>69.6</ele><time>2026-04-12T03:53:46.977Z</time></trkpt><trkpt lat="43.8664248" lon="11.1673059"><ele>69.4</ele><time>2026-04-12T03:53:47.968Z</time></trkpt><trkpt lat="43.8665187" lon="11.1673138"><ele>69.2</ele><time>2026-04-12T03:53:48.975Z</time></trkpt><trkpt lat="43.8666017" lon="11.167315"><ele>69.0</ele><time>2026-04-12T03:53:49.969Z</time></trkpt><trkpt lat="43.86671" lon="11.1672497"><ele>68.75</ele><time>2026-04-12T03:53:50.95Z</time></trkpt><trkpt lat="43.8668178" lon="11.1671564"><ele>68.5</ele><time>2026-04-12T03:53:51.968Z</time></trkpt><trkpt lat="43.8669192" lon="11.1670581"><ele>68.25</ele><time>2026-04-12T03:53:52.965Z</time></trkpt><trkpt lat="43.867015" lon="11.1669302"><ele>68.0</ele><time>2026-04-12T03:53:53.974Z</time></trkpt><trkpt lat="43.8671044" lon="11.1667835"><ele>68.0</ele><time>2026-04-12T03:53:54.973Z</time></trkpt><trkpt lat="43.8671858" lon="11.1666197"><ele>68.0</ele><time>2026-04-12T03:53:55.971Z</time></trkpt><trkpt lat="43.8672521" lon="11.1664522"><ele>68.0</ele><time>2026-04-12T03:53:56.973Z</time></trkpt><trkpt lat="43.8673049" lon="11.1662855"><ele>68.0</ele><time>2026-04-12T03:53:58.07Z</time></trkpt><trkpt lat="43.8673425" lon="11.1661114"><ele>67.75</ele><time>2026-04-12T03:53:58.977Z</time></trkpt><trkpt lat="43.8673741" lon="11.1659288"><ele>67.5</ele><time>2026-04-12T03:53:59.973Z</time></trkpt><trkpt lat="43.8673983" lon="11.1657387"><ele>67.25</ele><time>2026-04-12T03:54:00.963Z</time></trkpt><trkpt lat="43.8674374" lon="11.1655584"><ele>67.0</ele><time>2026-04-12T03:54:01.975Z</time></trkpt><trkpt lat="43.8674715" lon="11.1653981"><ele>66.8</ele><time>2026-04-12T03:54:02.966Z</time></trkpt><trkpt lat="43.8674984" lon="11.1652529"><ele>66.6</ele><time>2026-04-12T03:54:03.979Z</time></trkpt><trkpt lat="43.8675076" lon="11.1651555"><ele>66.39999999999999</ele><time>2026-04-12T03:54:04.981Z</time></trkpt><trkpt lat="43.8675293" lon="11.1650399"><ele>66.2</ele><time>2026-04-12T03:54:06.965Z</time></trkpt><trkpt lat="43.8676005" lon="11.1649669"><ele>66.0</ele><time>2026-04-12T03:54:08.973Z</time></trkpt><trkpt lat="43.8676542" lon="11.164843"><ele>65.8</ele><time>2026-04-12T03:54:10.975Z</time></trkpt><trkpt lat="43.8676968" lon="11.164752"><ele>65.6</ele><time>2026-04-12T03:54:12.961Z</time></trkpt><trkpt lat="43.8677815" lon="11.1646139"><ele>65.4</ele><time>2026-04-12T03:54:15.083Z</time></trkpt><trkpt lat="43.8678338" lon="11.1645207"><ele>65.2</ele><time>2026-04-12T03:54:16.026Z</time></trkpt><trkpt lat="43.8678935" lon="11.1644153"><ele>65.0</ele><time>2026-04-12T03:54:17.02Z</time></trkpt><trkpt lat="43.8679563" lon="11.1643023"><ele>65.0</ele><time>2026-04-12T03:54:17.971Z</time></trkpt><trkpt lat="43.8680218" lon="11.1641866"><ele>65.0</ele><time>2026-04-12T03:54:18.968Z</time></trkpt><trkpt lat="43.8680861" lon="11.1640677"><ele>65.0</ele><time>2026-04-12T03:54:19.975Z</time></trkpt><trkpt lat="43.8681466" lon="11.1639629"><ele>65.0</ele><time>2026-04-12T03:54:21.068Z</time></trkpt><trkpt lat="43.8682065" lon="11.1638554"><ele>65.0</ele><time>2026-04-12T03:54:21.984Z</time></trkpt><trkpt lat="43.8682593" lon="11.1637453"><ele>64.75</ele><time>2026-04-12T03:54:22.964Z</time></trkpt><trkpt lat="43.8683204" lon="11.1636296"><ele>64.5</ele><time>2026-04-12T03:54:23.971Z</time></trkpt><trkpt lat="43.8684024" lon="11.1635205"><ele>64.25</ele><time>2026-04-12T03:54:25.036Z</time></trkpt><trkpt lat="43.8684947" lon="11.1634167"><ele>64.0</ele><time>2026-04-12T03:54:26.035Z</time></trkpt><trkpt lat="43.8685825" lon="11.163305"><ele>64.0</ele><time>2026-04-12T03:54:26.979Z</time></trkpt><trkpt lat="43.8687425" lon="11.1630624"><ele>64.0</ele><time>2026-04-12T03:54:28.884Z</time></trkpt><trkpt lat="43.8688192" lon="11.1629424"><ele>64.0</ele><time>2026-04-12T03:54:29.889Z</time></trkpt><trkpt lat="43.8689057" lon="11.1628053"><ele>64.0</ele><time>2026-04-12T03:54:30.886Z</time></trkpt><trkpt lat="43.868986" lon="11.1626732"><ele>64.0</ele><time>2026-04-12T03:54:31.883Z</time></trkpt><trkpt lat="43.8690661" lon="11.1625376"><ele>64.0</ele><time>2026-04-12T03:54:33.037Z</time></trkpt><trkpt lat="43.8691332" lon="11.1624037"><ele>64.0</ele><time>2026-04-12T03:54:33.972Z</time></trkpt><trkpt lat="43.8691824" lon="11.1622802"><ele>64.0</ele><time>2026-04-12T03:54:35.031Z</time></trkpt><trkpt lat="43.8692282" lon="11.1621473"><ele>64.0</ele><time>2026-04-12T03:54:35.966Z</time></trkpt><trkpt lat="43.8692946" lon="11.1620053"><ele>64.0</ele><time>2026-04-12T03:54:37.033Z</time></trkpt><trkpt lat="43.8693612" lon="11.1618725"><ele>64.0</ele><time>2026-04-12T03:54:38.031Z</time></trkpt><trkpt lat="43.8694267" lon="11.1617405"><ele>64.0</ele><time>2026-04-12T03:54:38.97Z</time></trkpt><trkpt lat="43.869505" lon="11.161606"><ele>64.0</ele><time>2026-04-12T03:54:39.968Z</time></trkpt><trkpt lat="43.8695858" lon="11.1614787"><ele>64.0</ele><time>2026-04-12T03:54:40.986Z</time></trkpt><trkpt lat="43.8696653" lon="11.1613457"><ele>64.0</ele><time>2026-04-12T03:54:42.03Z</time></trkpt><trkpt lat="43.8697385" lon="11.1612166"><ele>64.2</ele><time>2026-04-12T03:54:42.978Z</time></trkpt><trkpt lat="43.8698027" lon="11.1610941"><ele>64.4</ele><time>2026-04-12T03:54:43.976Z</time></trkpt><trkpt lat="43.869866" lon="11.1609771"><ele>64.6</ele><time>2026-04-12T03:54:44.962Z</time></trkpt><trkpt lat="43.8699329" lon="11.1608661"><ele>64.8</ele><time>2026-04-12T03:54:45.969Z</time></trkpt><trkpt lat="43.8700149" lon="11.1607619"><ele>65.0</ele><time>2026-04-12T03:54:46.987Z</time></trkpt><trkpt lat="43.870093" lon="11.1606572"><ele>64.75</ele><time>2026-04-12T03:54:48.048Z</time></trkpt><trkpt lat="43.8701866" lon="11.1605544"><ele>64.5</ele><time>2026-04-12T03:54:48.98Z</time></trkpt><trkpt lat="43.8702757" lon="11.1604527"><ele>64.25</ele><time>2026-04-12T03:54:50.03Z</time></trkpt><trkpt lat="43.870362" lon="11.1603454"><ele>64.0</ele><time>2026-04-12T03:54:50.985Z</time></trkpt><trkpt lat="43.8704199" lon="11.1602308"><ele>63.99999999999999</ele><time>2026-04-12T03:54:51.983Z</time></trkpt><trkpt lat="43.8704628" lon="11.1601437"><ele>64.0</ele><time>2026-04-12T03:54:52.98Z</time></trkpt><trkpt lat="43.8705057" lon="11.1600725"><ele>64.0</ele><time>2026-04-12T03:54:53.982Z</time></trkpt><trkpt lat="43.8705802" lon="11.1599789"><ele>64.0</ele><time>2026-04-12T03:54:55.985Z</time></trkpt><trkpt lat="43.8706777" lon="11.1598752"><ele>63.99999999999999</ele><time>2026-04-12T03:54:57.981Z</time></trkpt><trkpt lat="43.8707319" lon="11.1598165"><ele>64.0</ele><time>2026-04-12T03:54:58.977Z</time></trkpt><trkpt lat="43.8708019" lon="11.1597502"><ele>64.33333333333333</ele><time>2026-04-12T03:54:59.975Z</time></trkpt><trkpt lat="43.870876" lon="11.159676"><ele>64.66666666666666</ele><time>2026-04-12T03:55:00.968Z</time></trkpt><trkpt lat="43.8709496" lon="11.1596027"><ele>65.0</ele><time>2026-04-12T03:55:01.956Z</time></trkpt><trkpt lat="43.8710091" lon="11.1595443"><ele>65.33333333333333</ele><time>2026-04-12T03:55:02.962Z</time></trkpt><trkpt lat="43.8710783" lon="11.1594526"><ele>65.66666666666667</ele><time>2026-04-12T03:55:05.043Z</time></trkpt><trkpt lat="43.8711321" lon="11.1593682"><ele>66.0</ele><time>2026-04-12T03:55:06.973Z</time></trkpt><trkpt lat="43.8712126" lon="11.1593539"><ele>66.0</ele><time>2026-04-12T03:55:08.974Z</time></trkpt><trkpt lat="43.871295" lon="11.1594133"><ele>66.0</ele><time>2026-04-12T03:55:10.987Z</time></trkpt><trkpt lat="43.8713573" lon="11.1594804"><ele>66.0</ele><time>2026-04-12T03:55:11.969Z</time></trkpt><trkpt lat="43.8714173" lon="11.1595652"><ele>66.0</ele><time>2026-04-12T03:55:12.96Z</time></trkpt><trkpt lat="43.8714878" lon="11.1596476"><ele>66.0</ele><time>2026-04-12T03:55:13.966Z</time></trkpt><trkpt lat="43.8715722" lon="11.1597422"><ele>66.0</ele><time>2026-04-12T03:55:14.968Z</time></trkpt><trkpt lat="43.8716607" lon="11.1598382"><ele>66.0</ele><time>2026-04-12T03:55:15.976Z</time></trkpt><trkpt lat="43.8717473" lon="11.1599449"><ele>66.0</ele><time>2026-04-12T03:55:16.985Z</time></trkpt><trkpt lat="43.8718453" lon="11.1600568"><ele>66.0</ele><time>2026-04-12T03:55:17.971Z</time></trkpt><trkpt lat="43.8719543" lon="11.1601663"><ele>66.5</ele><time>2026-04-12T03:55:18.973Z</time></trkpt><trkpt lat="43.8720734" lon="11.1602586"><ele>67.0</ele><time>2026-04-12T03:55:19.972Z</time></trkpt><trkpt lat="43.8721942" lon="11.1603467"><ele>67.5</ele><time>2026-04-12T03:55:20.974Z</time></trkpt><trkpt lat="43.8723223" lon="11.1604231"><ele>68.0</ele><time>2026-04-12T03:55:21.982Z</time></trkpt><trkpt lat="43.8724456" lon="11.160492"><ele>68.0</ele><time>2026-04-12T03:55:22.975Z</time></trkpt><trkpt lat="43.8725731" lon="11.1605592"><ele>68.0</ele><time>2026-04-12T03:55:23.99Z</time></trkpt><trkpt lat="43.8727048" lon="11.1606194"><ele>68.0</ele><time>2026-04-12T03:55:24.968Z</time></trkpt><trkpt lat="43.8728353" lon="11.1606658"><ele>68.0</ele><time>2026-04-12T03:55:25.973Z</time></trkpt><trkpt lat="43.8729565" lon="11.1607101"><ele>67.75</ele><time>2026-04-12T03:55:26.974Z</time></trkpt><trkpt lat="43.8730642" lon="11.1607642"><ele>67.5</ele><time>2026-04-12T03:55:28.03Z</time></trkpt><trkpt lat="43.87317" lon="11.1608376"><ele>67.25</ele><time>2026-04-12T03:55:28.968Z</time></trkpt><trkpt lat="43.8732624" lon="11.1609365"><ele>67.0</ele><time>2026-04-12T03:55:29.985Z</time></trkpt><trkpt lat="43.8733609" lon="11.1610575"><ele>67.0</ele><time>2026-04-12T03:55:30.969Z</time></trkpt><trkpt lat="43.8734591" lon="11.1611769"><ele>67.0</ele><time>2026-04-12T03:55:31.979Z</time></trkpt><trkpt lat="43.873565" lon="11.1612968"><ele>67.0</ele><time>2026-04-12T03:55:32.976Z</time></trkpt><trkpt lat="43.8736599" lon="11.1614071"><ele>67.0</ele><time>2026-04-12T03:55:33.973Z</time></trkpt><trkpt lat="43.8737386" lon="11.1615003"><ele>67.0</ele><time>2026-04-12T03:55:35.028Z</time></trkpt><trkpt lat="43.8738111" lon="11.1615701"><ele>67.0</ele><time>2026-04-12T03:55:36.037Z</time></trkpt><trkpt lat="43.8738805" lon="11.1615899"><ele>67.0</ele><time>2026-04-12T03:55:37.031Z</time></trkpt><trkpt lat="43.8739472" lon="11.1615476"><ele>67.0</ele><time>2026-04-12T03:55:37.969Z</time></trkpt><trkpt lat="43.8740144" lon="11.1614772"><ele>67.0</ele><time>2026-04-12T03:55:38.961Z</time></trkpt><trkpt lat="43.8740935" lon="11.1613869"><ele>67.0</ele><time>2026-04-12T03:55:39.981Z</time></trkpt><trkpt lat="43.8741712" lon="11.1612889"><ele>67.0</ele><time>2026-04-12T03:55:40.969Z</time></trkpt><trkpt lat="43.874269" lon="11.1611766"><ele>67.0</ele><time>2026-04-12T03:55:41.981Z</time></trkpt><trkpt lat="43.8743626" lon="11.1610594"><ele>67.0</ele><time>2026-04-12T03:55:43.017Z</time></trkpt><trkpt lat="43.874463" lon="11.1609499"><ele>67.0</ele><time>2026-04-12T03:55:43.971Z</time></trkpt><trkpt lat="43.874575" lon="11.160844"><ele>67.0</ele><time>2026-04-12T03:55:45.032Z</time></trkpt><trkpt lat="43.8746927" lon="11.1607336"><ele>67.0</ele><time>2026-04-12T03:55:45.969Z</time></trkpt><trkpt lat="43.8748064" lon="11.1606254"><ele>67.0</ele><time>2026-04-12T03:55:46.974Z</time></trkpt><trkpt lat="43.8749077" lon="11.1605164"><ele>67.0</ele><time>2026-04-12T03:55:47.963Z</time></trkpt><trkpt lat="43.8750063" lon="11.1604031"><ele>67.0</ele><time>2026-04-12T03:55:48.971Z</time></trkpt><trkpt lat="43.8750912" lon="11.1603105"><ele>67.0</ele><time>2026-04-12T03:55:49.973Z</time></trkpt><trkpt lat="43.8751646" lon="11.1602462"><ele>67.0</ele><time>2026-04-12T03:55:50.975Z</time></trkpt><trkpt lat="43.8752341" lon="11.1602273"><ele>67.0</ele><time>2026-04-12T03:55:52.036Z</time></trkpt><trkpt lat="43.8753075" lon="11.1602511"><ele>67.0</ele><time>2026-04-12T03:55:52.951Z</time></trkpt><trkpt lat="43.8753665" lon="11.1603143"><ele>67.0</ele><time>2026-04-12T03:55:53.969Z</time></trkpt><trkpt lat="43.875431" lon="11.1603906"><ele>67.0</ele><time>2026-04-12T03:55:54.971Z</time></trkpt><trkpt lat="43.8755163" lon="11.1604819"><ele>67.0</ele><time>2026-04-12T03:55:55.986Z</time></trkpt><trkpt lat="43.8755871" lon="11.1605744"><ele>67.0</ele><time>2026-04-12T03:55:57.041Z</time></trkpt><trkpt lat="43.8756565" lon="11.1606688"><ele>67.0</ele><time>2026-04-12T03:55:58.035Z</time></trkpt><trkpt lat="43.8757335" lon="11.1607567"><ele>67.0</ele><time>2026-04-12T03:55:58.958Z</time></trkpt><trkpt lat="43.8758053" lon="11.1607795"><ele>67.5</ele><time>2026-04-12T03:55:59.972Z</time></trkpt><trkpt lat="43.8758807" lon="11.1607705"><ele>68.0</ele><time>2026-04-12T03:56:00.986Z</time></trkpt><trkpt lat="43.8759436" lon="11.1606956"><ele>68.5</ele><time>2026-04-12T03:56:02.036Z</time></trkpt><trkpt lat="43.8759842" lon="11.1605904"><ele>69.0</ele><time>2026-04-12T03:56:03.037Z</time></trkpt><trkpt lat="43.8760211" lon="11.160481"><ele>69.5</ele><time>2026-04-12T03:56:03.97Z</time></trkpt><trkpt lat="43.8760799" lon="11.1603675"><ele>70.0</ele><time>2026-04-12T03:56:04.984Z</time></trkpt><trkpt lat="43.8761641" lon="11.1602418"><ele>70.0</ele><time>2026-04-12T03:56:05.984Z</time></trkpt><trkpt lat="43.8762584" lon="11.1601283"><ele>70.0</ele><time>2026-04-12T03:56:06.969Z</time></trkpt><trkpt lat="43.8763606" lon="11.1600118"><ele>70.0</ele><time>2026-04-12T03:56:08.038Z</time></trkpt><trkpt lat="43.8764756" lon="11.1598957"><ele>70.0</ele><time>2026-04-12T03:56:08.969Z</time></trkpt><trkpt lat="43.8765909" lon="11.1597964"><ele>70.25</ele><time>2026-04-12T03:56:09.964Z</time></trkpt><trkpt lat="43.876717" lon="11.1596923"><ele>70.5</ele><time>2026-04-12T03:56:11.004Z</time></trkpt><trkpt lat="43.8768409" lon="11.1595827"><ele>70.75</ele><time>2026-04-12T03:56:12.035Z</time></trkpt><trkpt lat="43.8769531" lon="11.1594749"><ele>71.0</ele><time>2026-04-12T03:56:13.041Z</time></trkpt><trkpt lat="43.877059" lon="11.159381"><ele>71.0</ele><time>2026-04-12T03:56:13.958Z</time></trkpt><trkpt lat="43.8771597" lon="11.1592922"><ele>71.0</ele><time>2026-04-12T03:56:14.973Z</time></trkpt><trkpt lat="43.8772548" lon="11.1592147"><ele>71.0</ele><time>2026-04-12T03:56:15.976Z</time></trkpt><trkpt lat="43.877354" lon="11.1591439"><ele>71.0</ele><time>2026-04-12T03:56:17.032Z</time></trkpt><trkpt lat="43.8774591" lon="11.1590807"><ele>71.0</ele><time>2026-04-12T03:56:18.034Z</time></trkpt><trkpt lat="43.8775703" lon="11.1590206"><ele>71.0</ele><time>2026-04-12T03:56:18.965Z</time></trkpt><trkpt lat="43.8776862" lon="11.1589704"><ele>71.0</ele><time>2026-04-12T03:56:19.987Z</time></trkpt><trkpt lat="43.8778109" lon="11.1589197"><ele>71.0</ele><time>2026-04-12T03:56:20.969Z</time></trkpt><trkpt lat="43.8779482" lon="11.1588718"><ele>71.0</ele><time>2026-04-12T03:56:21.977Z</time></trkpt><trkpt lat="43.8780895" lon="11.1588189"><ele>71.0</ele><time>2026-04-12T03:56:22.967Z</time></trkpt><trkpt lat="43.8782355" lon="11.1587621"><ele>71.0</ele><time>2026-04-12T03:56:23.977Z</time></trkpt><trkpt lat="43.8783888" lon="11.1587059"><ele>70.75</ele><time>2026-04-12T03:56:25.033Z</time></trkpt><trkpt lat="43.8785399" lon="11.1586576"><ele>70.5</ele><time>2026-04-12T03:56:25.983Z</time></trkpt><trkpt lat="43.8786854" lon="11.1586032"><ele>70.25</ele><time>2026-04-12T03:56:26.971Z</time></trkpt><trkpt lat="43.8788181" lon="11.158547"><ele>70.0</ele><time>2026-04-12T03:56:27.974Z</time></trkpt><trkpt lat="43.8789323" lon="11.158501"><ele>70.0</ele><time>2026-04-12T03:56:28.971Z</time></trkpt><trkpt lat="43.8790391" lon="11.1584691"><ele>70.0</ele><time>2026-04-12T03:56:29.973Z</time></trkpt><trkpt lat="43.8791452" lon="11.1584563"><ele>70.0</ele><time>2026-04-12T03:56:30.968Z</time></trkpt><trkpt lat="43.8792577" lon="11.1584505"><ele>70.0</ele><time>2026-04-12T03:56:31.979Z</time></trkpt><trkpt lat="43.8793819" lon="11.1584349"><ele>70.5</ele><time>2026-04-12T03:56:33.03Z</time></trkpt><trkpt lat="43.8795142" lon="11.1583706"><ele>71.0</ele><time>2026-04-12T03:56:33.981Z</time></trkpt><trkpt lat="43.879642" lon="11.1582791"><ele>71.5</ele><time>2026-04-12T03:56:34.989Z</time></trkpt><trkpt lat="43.879773" lon="11.1581984"><ele>72.0</ele><time>2026-04-12T03:56:35.966Z</time></trkpt><trkpt lat="43.8799061" lon="11.158126"><ele>72.0</ele><time>2026-04-12T03:56:36.986Z</time></trkpt><trkpt lat="43.880039" lon="11.1580496"><ele>72.0</ele><time>2026-04-12T03:56:37.985Z</time></trkpt><trkpt lat="43.8801701" lon="11.1579548"><ele>72.0</ele><time>2026-04-12T03:56:38.98Z</time></trkpt><trkpt lat="43.8803039" lon="11.1578453"><ele>72.0</ele><time>2026-04-12T03:56:39.984Z</time></trkpt><trkpt lat="43.8804209" lon="11.1577428"><ele>72.75</ele><time>2026-04-12T03:56:41.035Z</time></trkpt><trkpt lat="43.8805293" lon="11.1576406"><ele>73.5</ele><time>2026-04-12T03:56:42.034Z</time></trkpt><trkpt lat="43.8806237" lon="11.1575309"><ele>74.25</ele><time>2026-04-12T03:56:42.977Z</time></trkpt><trkpt lat="43.8807067" lon="11.1574008"><ele>75.0</ele><time>2026-04-12T03:56:43.974Z</time></trkpt><trkpt lat="43.8807752" lon="11.1572536"><ele>75.4</ele><time>2026-04-12T03:56:44.972Z</time></trkpt><trkpt lat="43.8808412" lon="11.1571107"><ele>75.8</ele><time>2026-04-12T03:56:45.996Z</time></trkpt><trkpt lat="43.8809038" lon="11.1569828"><ele>76.2</ele><time>2026-04-12T03:56:46.987Z</time></trkpt><trkpt lat="43.8809438" lon="11.1568884"><ele>76.6</ele><time>2026-04-12T03:56:47.971Z</time></trkpt><trkpt lat="43.8809821" lon="11.1568143"><ele>77.0</ele><time>2026-04-12T03:56:48.967Z</time></trkpt><trkpt lat="43.8810793" lon="11.1567787"><ele>77.4</ele><time>2026-04-12T03:56:50.974Z</time></trkpt><trkpt lat="43.8811505" lon="11.156811"><ele>77.80000000000001</ele><time>2026-04-12T03:56:51.964Z</time></trkpt><trkpt lat="43.8812392" lon="11.1568399"><ele>78.2</ele><time>2026-04-12T03:56:53.034Z</time></trkpt><trkpt lat="43.8813282" lon="11.1568646"><ele>78.60000000000001</ele><time>2026-04-12T03:56:53.964Z</time></trkpt><trkpt lat="43.8814204" lon="11.1568947"><ele>79.0</ele><time>2026-04-12T03:56:54.971Z</time></trkpt><trkpt lat="43.8815186" lon="11.1569441"><ele>79.0</ele><time>2026-04-12T03:56:55.996Z</time></trkpt><trkpt lat="43.881605" lon="11.1569853"><ele>79.0</ele><time>2026-04-12T03:56:57.023Z</time></trkpt><trkpt lat="43.8816742" lon="11.1570279"><ele>79.0</ele><time>2026-04-12T03:56:58.03Z</time></trkpt><trkpt lat="43.8816669" lon="11.1571206"><ele>79.0</ele><time>2026-04-12T03:56:59.986Z</time></trkpt><trkpt lat="43.8815825" lon="11.1572117"><ele>79.0</ele><time>2026-04-12T03:57:01.98Z</time></trkpt><trkpt lat="43.8814949" lon="11.1573232"><ele>79.4</ele><time>2026-04-12T03:57:03.979Z</time></trkpt><trkpt lat="43.8814619" lon="11.1574769"><ele>79.80000000000001</ele><time>2026-04-12T03:57:06.026Z</time></trkpt><trkpt lat="43.8814338" lon="11.1576422"><ele>80.19999999999999</ele><time>2026-04-12T03:57:07.966Z</time></trkpt><trkpt lat="43.8814419" lon="11.1577748"><ele>80.6</ele><time>2026-04-12T03:57:09.968Z</time></trkpt><trkpt lat="43.8815119" lon="11.1578561"><ele>81.0</ele><time>2026-04-12T03:57:11.969Z</time></trkpt><trkpt lat="43.8816089" lon="11.1579069"><ele>81.0</ele><time>2026-04-12T03:57:13.963Z</time></trkpt><trkpt lat="43.881709" lon="11.15798"><ele>81.0</ele><time>2026-04-12T03:57:16.034Z</time></trkpt><trkpt lat="43.8817879" lon="11.158069"><ele>81.0</ele><time>2026-04-12T03:57:17.97Z</time></trkpt><trkpt lat="43.8818668" lon="11.1581577"><ele>81.0</ele><time>2026-04-12T03:57:19.974Z</time></trkpt><trkpt lat="43.8819433" lon="11.1582462"><ele>81.0</ele><time>2026-04-12T03:57:21.968Z</time></trkpt><trkpt lat="43.8820303" lon="11.1583351"><ele>83.19999999999999</ele><time>2026-04-12T03:57:23.967Z</time></trkpt><trkpt lat="43.8821288" lon="11.1584414"><ele>85.39999999999999</ele><time>2026-04-12T03:57:25.978Z</time></trkpt><trkpt lat="43.8821728" lon="11.1585137"><ele>87.6</ele><time>2026-04-12T03:57:26.956Z</time></trkpt><trkpt lat="43.8822574" lon="11.1586446"><ele>89.8</ele><time>2026-04-12T03:57:28.966Z</time></trkpt><trkpt lat="43.8823268" lon="11.1587495"><ele>92.0</ele><time>2026-04-12T03:57:30.958Z</time></trkpt><trkpt lat="43.8823791" lon="11.1588225"><ele>92.0</ele><time>2026-04-12T03:57:32.962Z</time></trkpt><trkpt lat="43.8824358" lon="11.1589122"><ele>92.0</ele><time>2026-04-12T03:57:35.027Z</time></trkpt><trkpt lat="43.8824983" lon="11.159004"><ele>92.0</ele><time>2026-04-12T03:57:36.965Z</time></trkpt><trkpt lat="43.8825671" lon="11.1591043"><ele>92.0</ele><time>2026-04-12T03:57:38.968Z</time></trkpt><trkpt lat="43.8826418" lon="11.1591974"><ele>92.0</ele><time>2026-04-12T03:57:40.964Z</time></trkpt><trkpt lat="43.8827363" lon="11.1593015"><ele>96.0</ele><time>2026-04-12T03:57:42.969Z</time></trkpt><trkpt lat="43.8828373" lon="11.1593964"><ele>100.0</ele><time>2026-04-12T03:57:44.963Z</time></trkpt><trkpt lat="43.8829336" lon="11.1594874"><ele>103.99999999999999</ele><time>2026-04-12T03:57:46.968Z</time></trkpt><trkpt lat="43.8830257" lon="11.1595793"><ele>108.0</ele><time>2026-04-12T03:57:48.966Z</time></trkpt><trkpt lat="43.8830725" lon="11.1596402"><ele>112.0</ele><time>2026-04-12T03:57:49.967Z</time></trkpt><trkpt lat="43.8831193" lon="11.1597044"><ele>112.0</ele><time>2026-04-12T03:57:50.968Z</time></trkpt><trkpt lat="43.8831666" lon="11.1597634"><ele>112.0</ele><time>2026-04-12T03:57:51.949Z</time></trkpt><trkpt lat="43.8832187" lon="11.1598203"><ele>112.0</ele><time>2026-04-12T03:57:52.971Z</time></trkpt><trkpt lat="43.8832707" lon="11.159878"><ele>112.0</ele><time>2026-04-12T03:57:53.976Z</time></trkpt><trkpt lat="43.8833264" lon="11.1599228"><ele>112.0</ele><time>2026-04-12T03:57:54.975Z</time></trkpt><trkpt lat="43.8833869" lon="11.1599533"><ele>112.0</ele><time>2026-04-12T03:57:56.039Z</time></trkpt><trkpt lat="43.8835057" lon="11.1599957"><ele>112.0</ele><time>2026-04-12T03:57:58.033Z</time></trkpt><trkpt lat="43.8836003" lon="11.1600509"><ele>113.33333333333334</ele><time>2026-04-12T03:57:59.987Z</time></trkpt><trkpt lat="43.8836913" lon="11.1600994"><ele>114.66666666666667</ele><time>2026-04-12T03:58:02.034Z</time></trkpt><trkpt lat="43.8837701" lon="11.1600998"><ele>116.0</ele><time>2026-04-12T03:58:03.973Z</time></trkpt><trkpt lat="43.883835" lon="11.1600418"><ele>117.33333333333334</ele><time>2026-04-12T03:58:05.986Z</time></trkpt><trkpt lat="43.8839065" lon="11.1599586"><ele>118.66666666666667</ele><time>2026-04-12T03:58:07.978Z</time></trkpt><trkpt lat="43.8839703" lon="11.1598712"><ele>120.0</ele><time>2026-04-12T03:58:09.98Z</time></trkpt><trkpt lat="43.8840361" lon="11.159778"><ele>120.0</ele><time>2026-04-12T03:58:11.978Z</time></trkpt><trkpt lat="43.884104" lon="11.1596743"><ele>120.0</ele><time>2026-04-12T03:58:13.984Z</time></trkpt><trkpt lat="43.8841618" lon="11.1596244"><ele>120.0</ele><time>2026-04-12T03:58:15.964Z</time></trkpt><trkpt lat="43.8842503" lon="11.1596513"><ele>120.0</ele><time>2026-04-12T03:58:17.972Z</time></trkpt><trkpt lat="43.884331" lon="11.1597292"><ele>120.0</ele><time>2026-04-12T03:58:19.96Z</time></trkpt><trkpt lat="43.8844421" lon="11.1598158"><ele>120.5</ele><time>2026-04-12T03:58:21.957Z</time></trkpt><trkpt lat="43.884508" lon="11.1598712"><ele>121.0</ele><time>2026-04-12T03:58:22.966Z</time></trkpt><trkpt lat="43.8845843" lon="11.159926"><ele>121.5</ele><time>2026-04-12T03:58:23.977Z</time></trkpt><trkpt lat="43.8846534" lon="11.15999"><ele>122.0</ele><time>2026-04-12T03:58:24.959Z</time></trkpt><trkpt lat="43.8847215" lon="11.1600626"><ele>122.5</ele><time>2026-04-12T03:58:26.034Z</time></trkpt><trkpt lat="43.8847883" lon="11.1601256"><ele>123.0</ele><time>2026-04-12T03:58:27.003Z</time></trkpt><trkpt lat="43.8848569" lon="11.1601952"><ele>123.0</ele><time>2026-04-12T03:58:27.968Z</time></trkpt><trkpt lat="43.8849267" lon="11.1602648"><ele>123.0</ele><time>2026-04-12T03:58:28.966Z</time></trkpt><trkpt lat="43.885001" lon="11.1603229"><ele>123.0</ele><time>2026-04-12T03:58:29.97Z</time></trkpt><trkpt lat="43.8850679" lon="11.1603896"><ele>123.0</ele><time>2026-04-12T03:58:30.971Z</time></trkpt><trkpt lat="43.8851318" lon="11.1604574"><ele>123.0</ele><time>2026-04-12T03:58:31.971Z</time></trkpt><trkpt lat="43.8851941" lon="11.1605166"><ele>123.0</ele><time>2026-04-12T03:58:32.954Z</time></trkpt><trkpt lat="43.8852551" lon="11.1605767"><ele>123.16666666666667</ele><time>2026-04-12T03:58:33.959Z</time></trkpt><trkpt lat="43.8853143" lon="11.1606316"><ele>123.33333333333334</ele><time>2026-04-12T03:58:35.027Z</time></trkpt><trkpt lat="43.8853804" lon="11.1606861"><ele>123.5</ele><time>2026-04-12T03:58:35.966Z</time></trkpt><trkpt lat="43.8854456" lon="11.160743"><ele>123.66666666666667</ele><time>2026-04-12T03:58:36.967Z</time></trkpt><trkpt lat="43.885507" lon="11.1608013"><ele>123.83333333333334</ele><time>2026-04-12T03:58:37.972Z</time></trkpt><trkpt lat="43.8855929" lon="11.1608733"><ele>124.0</ele><time>2026-04-12T03:58:39.967Z</time></trkpt><trkpt lat="43.8856736" lon="11.1609247"><ele>125.00000000000001</ele><time>2026-04-12T03:58:41.966Z</time></trkpt><trkpt lat="43.8857688" lon="11.1610351"><ele>126.0</ele><time>2026-04-12T03:58:43.952Z</time></trkpt><trkpt lat="43.8858241" lon="11.1611015"><ele>127.0</ele><time>2026-04-12T03:58:44.966Z</time></trkpt><trkpt lat="43.8858835" lon="11.1611648"><ele>128.0</ele><time>2026-04-12T03:58:45.97Z</time></trkpt><trkpt lat="43.8859478" lon="11.1612175"><ele>129.0</ele><time>2026-04-12T03:58:46.973Z</time></trkpt><trkpt lat="43.8860226" lon="11.1612789"><ele>130.0</ele><time>2026-04-12T03:58:47.967Z</time></trkpt><trkpt lat="43.8860998" lon="11.1613364"><ele>130.0</ele><time>2026-04-12T03:58:48.965Z</time></trkpt><trkpt lat="43.8861788" lon="11.1614037"><ele>130.0</ele><time>2026-04-12T03:58:49.975Z</time></trkpt><trkpt lat="43.8862535" lon="11.1614741"><ele>130.0</ele><time>2026-04-12T03:58:50.966Z</time></trkpt><trkpt lat="43.8863279" lon="11.1615473"><ele>130.0</ele><time>2026-04-12T03:58:51.971Z</time></trkpt><trkpt lat="43.8864001" lon="11.1616059"><ele>130.0</ele><time>2026-04-12T03:58:52.953Z</time></trkpt><trkpt lat="43.8864651" lon="11.1616587"><ele>130.0</ele><time>2026-04-12T03:58:53.972Z</time></trkpt><trkpt lat="43.8865235" lon="11.1617175"><ele>131.5</ele><time>2026-04-12T03:58:54.97Z</time></trkpt><trkpt lat="43.8865785" lon="11.1617668"><ele>133.0</ele><time>2026-04-12T03:58:55.966Z</time></trkpt><trkpt lat="43.8866354" lon="11.1618173"><ele>134.5</ele><time>2026-04-12T03:58:56.98Z</time></trkpt><trkpt lat="43.8866934" lon="11.1618643"><ele>136.0</ele><time>2026-04-12T03:58:57.958Z</time></trkpt><trkpt lat="43.8867471" lon="11.1619106"><ele>137.5</ele><time>2026-04-12T03:58:58.968Z</time></trkpt><trkpt lat="43.8868578" lon="11.1619972"><ele>139.0</ele><time>2026-04-12T03:59:00.966Z</time></trkpt><trkpt lat="43.8869162" lon="11.1620382"><ele>139.4</ele><time>2026-04-12T03:59:01.966Z</time></trkpt><trkpt lat="43.8870152" lon="11.1621128"><ele>139.8</ele><time>2026-04-12T03:59:03.968Z</time></trkpt><trkpt lat="43.8871039" lon="11.1621877"><ele>140.2</ele><time>2026-04-12T03:59:05.968Z</time></trkpt><trkpt lat="43.8871917" lon="11.1622545"><ele>140.6</ele><time>2026-04-12T03:59:07.972Z</time></trkpt><trkpt lat="43.8872859" lon="11.1623117"><ele>141.0</ele><time>2026-04-12T03:59:09.958Z</time></trkpt><trkpt lat="43.8873781" lon="11.1623535"><ele>141.16666666666666</ele><time>2026-04-12T03:59:11.971Z</time></trkpt><trkpt lat="43.8874434" lon="11.1624113"><ele>141.33333333333334</ele><time>2026-04-12T03:59:13.958Z</time></trkpt><trkpt lat="43.8875131" lon="11.1624388"><ele>141.5</ele><time>2026-04-12T03:59:16.017Z</time></trkpt><trkpt lat="43.8875817" lon="11.1624586"><ele>141.66666666666669</ele><time>2026-04-12T03:59:17.981Z</time></trkpt><trkpt lat="43.8876557" lon="11.1625096"><ele>141.83333333333334</ele><time>2026-04-12T03:59:19.979Z</time></trkpt><trkpt lat="43.8877222" lon="11.1626045"><ele>142.0</ele><time>2026-04-12T03:59:21.955Z</time></trkpt><trkpt lat="43.887753" lon="11.1626938"><ele>142.0</ele><time>2026-04-12T03:59:22.971Z</time></trkpt><trkpt lat="43.8878167" lon="11.1628363"><ele>142.0</ele><time>2026-04-12T03:59:25.044Z</time></trkpt><trkpt lat="43.8878661" lon="11.1629454"><ele>142.0</ele><time>2026-04-12T03:59:27.026Z</time></trkpt><trkpt lat="43.8879206" lon="11.1630683"><ele>142.0</ele><time>2026-04-12T03:59:28.972Z</time></trkpt><trkpt lat="43.8879644" lon="11.1632102"><ele>142.0</ele><time>2026-04-12T03:59:30.976Z</time></trkpt><trkpt lat="43.887996" lon="11.1633641"><ele>144.33333333333334</ele><time>2026-04-12T03:59:32.981Z</time></trkpt><trkpt lat="43.8880356" lon="11.1634942"><ele>146.66666666666669</ele><time>2026-04-12T03:59:35.036Z</time></trkpt><trkpt lat="43.8880637" lon="11.1635771"><ele>149.0</ele><time>2026-04-12T03:59:36.972Z</time></trkpt><trkpt lat="43.8881108" lon="11.1636901"><ele>151.33333333333334</ele><time>2026-04-12T03:59:40.053Z</time></trkpt><trkpt lat="43.8881614" lon="11.1637668"><ele>153.66666666666666</ele><time>2026-04-12T03:59:41.981Z</time></trkpt><trkpt lat="43.8882198" lon="11.163836"><ele>156.0</ele><time>2026-04-12T03:59:43.975Z</time></trkpt><trkpt lat="43.8882796" lon="11.1639049"><ele>156.0</ele><time>2026-04-12T03:59:45.982Z</time></trkpt><trkpt lat="43.8883361" lon="11.163968"><ele>156.0</ele><time>2026-04-12T03:59:48.971Z</time></trkpt><trkpt lat="43.8883936" lon="11.1640277"><ele>156.0</ele><time>2026-04-12T03:59:52.033Z</time></trkpt><trkpt lat="43.8884549" lon="11.1641121"><ele>156.0</ele><time>2026-04-12T03:59:54.958Z</time></trkpt><trkpt lat="43.8885079" lon="11.1641841"><ele>156.0</ele><time>2026-04-12T03:59:57.961Z</time></trkpt><trkpt lat="43.8885635" lon="11.1643024"><ele>156.0</ele><time>2026-04-12T04:00:00.959Z</time></trkpt><trkpt lat="43.8886165" lon="11.1644302"><ele>157.8</ele><time>2026-04-12T04:00:02.969Z</time></trkpt><trkpt lat="43.8886787" lon="11.1645556"><ele>159.6</ele><time>2026-04-12T04:00:04.948Z</time></trkpt><trkpt lat="43.8887282" lon="11.1646895"><ele>161.4</ele><time>2026-04-12T04:00:06.966Z</time></trkpt><trkpt lat="43.8887722" lon="11.1647991"><ele>163.2</ele><time>2026-04-12T04:00:08.97Z</time></trkpt><trkpt lat="43.8888229" lon="11.1648882"><ele>165.0</ele><time>2026-04-12T04:00:11.036Z</time></trkpt><trkpt lat="43.8888677" lon="11.164999"><ele>166.83333333333334</ele><time>2026-04-12T04:00:13.014Z</time></trkpt><trkpt lat="43.8888888" lon="11.1651016"><ele>168.66666666666666</ele><time>2026-04-12T04:00:14.977Z</time></trkpt><trkpt lat="43.8889057" lon="11.165201"><ele>170.5</ele><time>2026-04-12T04:00:16.966Z</time></trkpt><trkpt lat="43.8889459" lon="11.1652994"><ele>172.33333333333331</ele><time>2026-04-12T04:00:20.025Z</time></trkpt><trkpt lat="43.8889907" lon="11.1653921"><ele>174.16666666666666</ele><time>2026-04-12T04:00:22.978Z</time></trkpt><trkpt lat="43.8890276" lon="11.1654755"><ele>176.0</ele><time>2026-04-12T04:00:24.971Z</time></trkpt><trkpt lat="43.8890703" lon="11.1655476"><ele>176.0</ele><time>2026-04-12T04:00:26.959Z</time></trkpt><trkpt lat="43.8891128" lon="11.1656356"><ele>176.0</ele><time>2026-04-12T04:00:28.966Z</time></trkpt><trkpt lat="43.8891486" lon="11.1657152"><ele>176.0</ele><time>2026-04-12T04:00:31.034Z</time></trkpt><trkpt lat="43.8892058" lon="11.1657691"><ele>176.0</ele><time>2026-04-12T04:00:33.054Z</time></trkpt><trkpt lat="43.8892665" lon="11.1658406"><ele>176.0</ele><time>2026-04-12T04:00:34.97Z</time></trkpt><trkpt lat="43.8893356" lon="11.1659006"><ele>176.0</ele><time>2026-04-12T04:00:37.963Z</time></trkpt><trkpt lat="43.8894079" lon="11.1659741"><ele>178.66666666666666</ele><time>2026-04-12T04:00:41.022Z</time></trkpt><trkpt lat="43.8894581" lon="11.1660355"><ele>181.33333333333331</ele><time>2026-04-12T04:00:42.974Z</time></trkpt><trkpt lat="43.8895068" lon="11.1661019"><ele>184.0</ele><time>2026-04-12T04:00:44.97Z</time></trkpt><trkpt lat="43.8895509" lon="11.1661806"><ele>186.66666666666666</ele><time>2026-04-12T04:00:46.974Z</time></trkpt><trkpt lat="43.8896007" lon="11.1662651"><ele>189.33333333333334</ele><time>2026-04-12T04:00:48.964Z</time></trkpt><trkpt lat="43.8896531" lon="11.1663516"><ele>192.0</ele><time>2026-04-12T04:00:50.968Z</time></trkpt><trkpt lat="43.8897085" lon="11.1664432"><ele>193.5</ele><time>2026-04-12T04:00:53.984Z</time></trkpt><trkpt lat="43.8897453" lon="11.1665464"><ele>195.0</ele><time>2026-04-12T04:00:56.973Z</time></trkpt><trkpt lat="43.8897899" lon="11.1666167"><ele>196.5</ele><time>2026-04-12T04:00:58.968Z</time></trkpt><trkpt lat="43.889842" lon="11.1666996"><ele>198.0</ele><time>2026-04-12T04:01:01.066Z</time></trkpt><trkpt lat="43.8898895" lon="11.1668224"><ele>199.5</ele><time>2026-04-12T04:01:02.975Z</time></trkpt><trkpt lat="43.8899477" lon="11.166932"><ele>201.0</ele><time>2026-04-12T04:01:04.979Z</time></trkpt><trkpt lat="43.8900276" lon="11.1670428"><ele>201.8</ele><time>2026-04-12T04:01:06.982Z</time></trkpt><trkpt lat="43.8901242" lon="11.1671363"><ele>202.60000000000002</ele><time>2026-04-12T04:01:08.98Z</time></trkpt><trkpt lat="43.8902011" lon="11.1672373"><ele>203.4</ele><time>2026-04-12T04:01:10.969Z</time></trkpt><trkpt lat="43.890274" lon="11.1673426"><ele>204.2</ele><time>2026-04-12T04:01:12.971Z</time></trkpt><trkpt lat="43.8903508" lon="11.1674528"><ele>205.0</ele><time>2026-04-12T04:01:14.974Z</time></trkpt><trkpt lat="43.8904277" lon="11.1675502"><ele>204.99999999999997</ele><time>2026-04-12T04:01:16.965Z</time></trkpt><trkpt lat="43.890509" lon="11.1676353"><ele>205.0</ele><time>2026-04-12T04:01:18.971Z</time></trkpt><trkpt lat="43.8905951" lon="11.1677073"><ele>205.0</ele><time>2026-04-12T04:01:20.958Z</time></trkpt><trkpt lat="43.8906979" lon="11.1677788"><ele>205.0</ele><time>2026-04-12T04:01:23.014Z</time></trkpt><trkpt lat="43.8907549" lon="11.1678217"><ele>204.99999999999997</ele><time>2026-04-12T04:01:23.975Z</time></trkpt><trkpt lat="43.8908114" lon="11.1678628"><ele>205.0</ele><time>2026-04-12T04:01:24.977Z</time></trkpt><trkpt lat="43.8908954" lon="11.1679577"><ele>205.0</ele><time>2026-04-12T04:01:27.016Z</time></trkpt><trkpt lat="43.8910014" lon="11.1680085"><ele>205.0</ele><time>2026-04-12T04:01:28.96Z</time></trkpt><trkpt lat="43.8911135" lon="11.1680852"><ele>205.0</ele><time>2026-04-12T04:01:31.022Z</time></trkpt><trkpt lat="43.8911718" lon="11.1681289"><ele>205.0</ele><time>2026-04-12T04:01:31.966Z</time></trkpt><trkpt lat="43.8912315" lon="11.1681705"><ele>205.0</ele><time>2026-04-12T04:01:32.985Z</time></trkpt><trkpt lat="43.8913301" lon="11.1682158"><ele>204.99999999999997</ele><time>2026-04-12T04:01:35.048Z</time></trkpt><trkpt lat="43.8914374" lon="11.1682837"><ele>205.0</ele><time>2026-04-12T04:01:36.979Z</time></trkpt><trkpt lat="43.8915007" lon="11.1683051"><ele>205.0</ele><time>2026-04-12T04:01:37.969Z</time></trkpt><trkpt lat="43.8916117" lon="11.1683383"><ele>205.0</ele><time>2026-04-12T04:01:39.983Z</time></trkpt><trkpt lat="43.8916797" lon="11.1683518"><ele>204.99999999999997</ele><time>2026-04-12T04:01:41.037Z</time></trkpt><trkpt lat="43.8917556" lon="11.1683706"><ele>205.0</ele><time>2026-04-12T04:01:42.031Z</time></trkpt><trkpt lat="43.8918261" lon="11.1683917"><ele>204.6</ele><time>2026-04-12T04:01:43.039Z</time></trkpt><trkpt lat="43.8919361" lon="11.1684567"><ele>204.2</ele><time>2026-04-12T04:01:44.98Z</time></trkpt><trkpt lat="43.8920219" lon="11.1685446"><ele>203.8</ele><time>2026-04-12T04:01:46.959Z</time></trkpt><trkpt lat="43.8921074" lon="11.1685899"><ele>203.4</ele><time>2026-04-12T04:01:48.978Z</time></trkpt><trkpt lat="43.892181" lon="11.1685759"><ele>203.0</ele><time>2026-04-12T04:01:51.022Z</time></trkpt><trkpt lat="43.8922491" lon="11.1685778"><ele>203.00000000000003</ele><time>2026-04-12T04:01:52.032Z</time></trkpt><trkpt lat="43.8923141" lon="11.16858"><ele>203.0</ele><time>2026-04-12T04:01:52.963Z</time></trkpt><trkpt lat="43.8923867" lon="11.1685689"><ele>203.0</ele><time>2026-04-12T04:01:53.947Z</time></trkpt><trkpt lat="43.8924545" lon="11.168553"><ele>203.0</ele><time>2026-04-12T04:01:54.963Z</time></trkpt><trkpt lat="43.892537" lon="11.1685298"><ele>203.00000000000003</ele><time>2026-04-12T04:01:55.949Z</time></trkpt><trkpt lat="43.8926208" lon="11.1685061"><ele>203.0</ele><time>2026-04-12T04:01:56.976Z</time></trkpt><trkpt lat="43.8926928" lon="11.1684748"><ele>203.83333333333334</ele><time>2026-04-12T04:01:58.039Z</time></trkpt><trkpt lat="43.8927707" lon="11.1684466"><ele>204.66666666666669</ele><time>2026-04-12T04:01:58.967Z</time></trkpt><trkpt lat="43.8928463" lon="11.1684201"><ele>205.5</ele><time>2026-04-12T04:01:59.962Z</time></trkpt><trkpt lat="43.8929201" lon="11.1683984"><ele>206.33333333333331</ele><time>2026-04-12T04:02:00.996Z</time></trkpt><trkpt lat="43.8929943" lon="11.1683693"><ele>207.16666666666666</ele><time>2026-04-12T04:02:01.968Z</time></trkpt><trkpt lat="43.8930655" lon="11.1683428"><ele>208.0</ele><time>2026-04-12T04:02:03.034Z</time></trkpt><trkpt lat="43.8931277" lon="11.1683145"><ele>208.0</ele><time>2026-04-12T04:02:03.972Z</time></trkpt><trkpt lat="43.893257" lon="11.1682494"><ele>208.0</ele><time>2026-04-12T04:02:05.967Z</time></trkpt><trkpt lat="43.8933245" lon="11.1682307"><ele>208.0</ele><time>2026-04-12T04:02:07.032Z</time></trkpt><trkpt lat="43.8933878" lon="11.1682109"><ele>208.0</ele><time>2026-04-12T04:02:08.038Z</time></trkpt><trkpt lat="43.8934852" lon="11.1681492"><ele>208.0</ele><time>2026-04-12T04:02:09.989Z</time></trkpt><trkpt lat="43.8935736" lon="11.1680821"><ele>209.4</ele><time>2026-04-12T04:02:11.981Z</time></trkpt><trkpt lat="43.8936625" lon="11.1680174"><ele>210.8</ele><time>2026-04-12T04:02:13.991Z</time></trkpt><trkpt lat="43.8937543" lon="11.1679643"><ele>212.2</ele><time>2026-04-12T04:02:16.032Z</time></trkpt><trkpt lat="43.8938549" lon="11.1679327"><ele>213.6</ele><time>2026-04-12T04:02:18.03Z</time></trkpt><trkpt lat="43.8939543" lon="11.1679183"><ele>215.0</ele><time>2026-04-12T04:02:19.976Z</time></trkpt><trkpt lat="43.8940479" lon="11.1678943"><ele>215.00000000000003</ele><time>2026-04-12T04:02:22.031Z</time></trkpt><trkpt lat="43.8941494" lon="11.1678581"><ele>215.0</ele><time>2026-04-12T04:02:23.977Z</time></trkpt><trkpt lat="43.8942668" lon="11.1678306"><ele>215.0</ele><time>2026-04-12T04:02:25.982Z</time></trkpt><trkpt lat="43.8943377" lon="11.1678177"><ele>215.0</ele><time>2026-04-12T04:02:26.962Z</time></trkpt><trkpt lat="43.8944135" lon="11.1678096"><ele>215.00000000000003</ele><time>2026-04-12T04:02:27.978Z</time></trkpt><trkpt lat="43.894487" lon="11.1678035"><ele>215.0</ele><time>2026-04-12T04:02:28.973Z</time></trkpt><trkpt lat="43.8945607" lon="11.1677973"><ele>215.28571428571428</ele><time>2026-04-12T04:02:29.974Z</time></trkpt><trkpt lat="43.8946292" lon="11.1677894"><ele>215.57142857142858</ele><time>2026-04-12T04:02:30.969Z</time></trkpt><trkpt lat="43.8946951" lon="11.167782"><ele>215.85714285714286</ele><time>2026-04-12T04:02:31.978Z</time></trkpt><trkpt lat="43.8947594" lon="11.1677679"><ele>216.14285714285714</ele><time>2026-04-12T04:02:32.975Z</time></trkpt><trkpt lat="43.8948274" lon="11.1677614"><ele>216.42857142857144</ele><time>2026-04-12T04:02:33.972Z</time></trkpt><trkpt lat="43.8948984" lon="11.1677648"><ele>216.71428571428572</ele><time>2026-04-12T04:02:34.972Z</time></trkpt><trkpt lat="43.8949694" lon="11.1677733"><ele>217.0</ele><time>2026-04-12T04:02:35.975Z</time></trkpt><trkpt lat="43.8950326" lon="11.1677897"><ele>217.57142857142858</ele><time>2026-04-12T04:02:36.95Z</time></trkpt><trkpt lat="43.8951043" lon="11.1677897"><ele>218.14285714285714</ele><time>2026-04-12T04:02:37.966Z</time></trkpt><trkpt lat="43.8951766" lon="11.1677821"><ele>218.71428571428572</ele><time>2026-04-12T04:02:38.976Z</time></trkpt><trkpt lat="43.8952499" lon="11.1677771"><ele>219.28571428571428</ele><time>2026-04-12T04:02:39.975Z</time></trkpt><trkpt lat="43.8953152" lon="11.1677713"><ele>219.85714285714286</ele><time>2026-04-12T04:02:40.974Z</time></trkpt><trkpt lat="43.8953847" lon="11.1677651"><ele>220.42857142857144</ele><time>2026-04-12T04:02:41.967Z</time></trkpt><trkpt lat="43.8954537" lon="11.1677605"><ele>221.0</ele><time>2026-04-12T04:02:42.976Z</time></trkpt><trkpt lat="43.8955487" lon="11.1677843"><ele>221.00000000000003</ele><time>2026-04-12T04:02:44.973Z</time></trkpt><trkpt lat="43.8955908" lon="11.1678774"><ele>221.0</ele><time>2026-04-12T04:02:46.975Z</time></trkpt><trkpt lat="43.8955859" lon="11.168031"><ele>221.0</ele><time>2026-04-12T04:02:48.964Z</time></trkpt><trkpt lat="43.8955464" lon="11.1681123"><ele>221.0</ele><time>2026-04-12T04:02:49.965Z</time></trkpt><trkpt lat="43.8955045" lon="11.1682024"><ele>221.00000000000003</ele><time>2026-04-12T04:02:50.966Z</time></trkpt><trkpt lat="43.895461" lon="11.1683207"><ele>221.0</ele><time>2026-04-12T04:02:51.982Z</time></trkpt><trkpt lat="43.895414" lon="11.1684521"><ele>220.75</ele><time>2026-04-12T04:02:52.972Z</time></trkpt><trkpt lat="43.8953625" lon="11.168593"><ele>220.5</ele><time>2026-04-12T04:02:53.973Z</time></trkpt><trkpt lat="43.8953071" lon="11.1687452"><ele>220.25</ele><time>2026-04-12T04:02:54.973Z</time></trkpt><trkpt lat="43.8952523" lon="11.1688891"><ele>220.0</ele><time>2026-04-12T04:02:55.978Z</time></trkpt><trkpt lat="43.8951932" lon="11.1690291"><ele>220.25</ele><time>2026-04-12T04:02:56.972Z</time></trkpt><trkpt lat="43.8951353" lon="11.1691571"><ele>220.5</ele><time>2026-04-12T04:02:57.98Z</time></trkpt><trkpt lat="43.8950719" lon="11.1692973"><ele>220.75</ele><time>2026-04-12T04:02:58.959Z</time></trkpt><trkpt lat="43.8950181" lon="11.1694393"><ele>221.0</ele><time>2026-04-12T04:02:59.97Z</time></trkpt><trkpt lat="43.8949803" lon="11.1695968"><ele>221.0</ele><time>2026-04-12T04:03:00.972Z</time></trkpt><trkpt lat="43.8949579" lon="11.1697517"><ele>221.00000000000003</ele><time>2026-04-12T04:03:01.979Z</time></trkpt><trkpt lat="43.8949458" lon="11.1698956"><ele>221.00000000000003</ele><time>2026-04-12T04:03:02.972Z</time></trkpt><trkpt lat="43.8949557" lon="11.1700373"><ele>221.0</ele><time>2026-04-12T04:03:03.997Z</time></trkpt><trkpt lat="43.8949699" lon="11.1701782"><ele>221.0</ele><time>2026-04-12T04:03:04.97Z</time></trkpt><trkpt lat="43.8949615" lon="11.1703463"><ele>219.0</ele><time>2026-04-12T04:03:05.964Z</time></trkpt><trkpt lat="43.8949215" lon="11.1705098"><ele>217.0</ele><time>2026-04-12T04:03:06.973Z</time></trkpt><trkpt lat="43.894874" lon="11.1706852"><ele>215.0</ele><time>2026-04-12T04:03:07.974Z</time></trkpt><trkpt lat="43.8948295" lon="11.1708696"><ele>213.0</ele><time>2026-04-12T04:03:08.973Z</time></trkpt><trkpt lat="43.8948004" lon="11.1710531"><ele>211.0</ele><time>2026-04-12T04:03:09.969Z</time></trkpt><trkpt lat="43.8947761" lon="11.1712283"><ele>209.0</ele><time>2026-04-12T04:03:10.98Z</time></trkpt><trkpt lat="43.8947674" lon="11.1713899"><ele>207.0</ele><time>2026-04-12T04:03:11.974Z</time></trkpt><trkpt lat="43.8947698" lon="11.1715422"><ele>205.0</ele><time>2026-04-12T04:03:12.969Z</time></trkpt><trkpt lat="43.8947818" lon="11.1716958"><ele>203.6</ele><time>2026-04-12T04:03:13.952Z</time></trkpt><trkpt lat="43.8947998" lon="11.1718642"><ele>202.2</ele><time>2026-04-12T04:03:14.98Z</time></trkpt><trkpt lat="43.8948242" lon="11.1720338"><ele>200.8</ele><time>2026-04-12T04:03:15.969Z</time></trkpt><trkpt lat="43.8948415" lon="11.172178"><ele>199.4</ele><time>2026-04-12T04:03:16.971Z</time></trkpt><trkpt lat="43.8948573" lon="11.1722899"><ele>198.0</ele><time>2026-04-12T04:03:17.987Z</time></trkpt><trkpt lat="43.8949623" lon="11.1723523"><ele>198.0</ele><time>2026-04-12T04:03:19.972Z</time></trkpt><trkpt lat="43.8950414" lon="11.1723226"><ele>198.0</ele><time>2026-04-12T04:03:20.978Z</time></trkpt><trkpt lat="43.895122" lon="11.172253"><ele>198.0</ele><time>2026-04-12T04:03:21.985Z</time></trkpt><trkpt lat="43.895215" lon="11.1721779"><ele>198.0</ele><time>2026-04-12T04:03:22.98Z</time></trkpt><trkpt lat="43.8953193" lon="11.1720846"><ele>198.0</ele><time>2026-04-12T04:03:23.979Z</time></trkpt><trkpt lat="43.8954266" lon="11.1719854"><ele>195.60000000000002</ele><time>2026-04-12T04:03:24.983Z</time></trkpt><trkpt lat="43.8955252" lon="11.1718833"><ele>193.20000000000002</ele><time>2026-04-12T04:03:25.974Z</time></trkpt><trkpt lat="43.8956105" lon="11.1717949"><ele>190.8</ele><time>2026-04-12T04:03:26.97Z</time></trkpt><trkpt lat="43.8956871" lon="11.1717309"><ele>188.4</ele><time>2026-04-12T04:03:27.971Z</time></trkpt><trkpt lat="43.8957695" lon="11.1717129"><ele>186.0</ele><time>2026-04-12T04:03:28.974Z</time></trkpt><trkpt lat="43.8958245" lon="11.1717566"><ele>186.0</ele><time>2026-04-12T04:03:29.971Z</time></trkpt><trkpt lat="43.8958526" lon="11.1718434"><ele>186.0</ele><time>2026-04-12T04:03:30.975Z</time></trkpt><trkpt lat="43.8958475" lon="11.1719533"><ele>186.0</ele><time>2026-04-12T04:03:31.972Z</time></trkpt><trkpt lat="43.8958365" lon="11.1720783"><ele>186.0</ele><time>2026-04-12T04:03:32.978Z</time></trkpt><trkpt lat="43.8958074" lon="11.1722305"><ele>186.0</ele><time>2026-04-12T04:03:33.975Z</time></trkpt><trkpt lat="43.8957677" lon="11.1723827"><ele>183.5</ele><time>2026-04-12T04:03:34.976Z</time></trkpt><trkpt lat="43.8957342" lon="11.172544"><ele>181.0</ele><time>2026-04-12T04:03:35.967Z</time></trkpt><trkpt lat="43.8957132" lon="11.1727179"><ele>178.5</ele><time>2026-04-12T04:03:36.962Z</time></trkpt><trkpt lat="43.8957073" lon="11.1729028"><ele>176.0</ele><time>2026-04-12T04:03:37.979Z</time></trkpt><trkpt lat="43.8957117" lon="11.1730879"><ele>173.25</ele><time>2026-04-12T04:03:38.972Z</time></trkpt><trkpt lat="43.8957181" lon="11.1732754"><ele>170.5</ele><time>2026-04-12T04:03:39.969Z</time></trkpt><trkpt lat="43.8957216" lon="11.1734462"><ele>167.75</ele><time>2026-04-12T04:03:40.982Z</time></trkpt><trkpt lat="43.8957324" lon="11.1736196"><ele>165.0</ele><time>2026-04-12T04:03:41.977Z</time></trkpt><trkpt lat="43.8957468" lon="11.1737886"><ele>165.0</ele><time>2026-04-12T04:03:42.949Z</time></trkpt><trkpt lat="43.8957548" lon="11.1739432"><ele>165.0</ele><time>2026-04-12T04:03:43.971Z</time></trkpt><trkpt lat="43.8957572" lon="11.1740952"><ele>165.0</ele><time>2026-04-12T04:03:44.963Z</time></trkpt><trkpt lat="43.895747" lon="11.1742468"><ele>165.0</ele><time>2026-04-12T04:03:45.98Z</time></trkpt><trkpt lat="43.8957455" lon="11.1743992"><ele>165.0</ele><time>2026-04-12T04:03:46.971Z</time></trkpt><trkpt lat="43.8957566" lon="11.1745541"><ele>161.5</ele><time>2026-04-12T04:03:47.975Z</time></trkpt><trkpt lat="43.8957833" lon="11.174714"><ele>158.0</ele><time>2026-04-12T04:03:48.976Z</time></trkpt><trkpt lat="43.8958249" lon="11.1748683"><ele>154.5</ele><time>2026-04-12T04:03:49.973Z</time></trkpt><trkpt lat="43.8958612" lon="11.1750214"><ele>151.0</ele><time>2026-04-12T04:03:50.976Z</time></trkpt><trkpt lat="43.8958974" lon="11.1751724"><ele>148.6</ele><time>2026-04-12T04:03:51.972Z</time></trkpt><trkpt lat="43.8959191" lon="11.1752994"><ele>146.2</ele><time>2026-04-12T04:03:52.973Z</time></trkpt><trkpt lat="43.8959191" lon="11.1754231"><ele>143.8</ele><time>2026-04-12T04:03:53.979Z</time></trkpt><trkpt lat="43.8958923" lon="11.1755467"><ele>141.4</ele><time>2026-04-12T04:03:54.959Z</time></trkpt><trkpt lat="43.8958445" lon="11.1756638"><ele>139.0</ele><time>2026-04-12T04:03:55.976Z</time></trkpt><trkpt lat="43.8957936" lon="11.175776"><ele>136.4</ele><time>2026-04-12T04:03:56.981Z</time></trkpt><trkpt lat="43.8957367" lon="11.1758808"><ele>133.8</ele><time>2026-04-12T04:03:57.981Z</time></trkpt><trkpt lat="43.8956817" lon="11.1759357"><ele>131.2</ele><time>2026-04-12T04:03:58.972Z</time></trkpt><trkpt lat="43.895571" lon="11.1759782"><ele>128.6</ele><time>2026-04-12T04:04:00.952Z</time></trkpt><trkpt lat="43.8955289" lon="11.1761056"><ele>126.0</ele><time>2026-04-12T04:04:02.98Z</time></trkpt><trkpt lat="43.895544" lon="11.176228"><ele>126.0</ele><time>2026-04-12T04:04:03.978Z</time></trkpt><trkpt lat="43.8955562" lon="11.1763936"><ele>126.0</ele><time>2026-04-12T04:04:04.979Z</time></trkpt><trkpt lat="43.8955411" lon="11.1765454"><ele>126.0</ele><time>2026-04-12T04:04:05.963Z</time></trkpt><trkpt lat="43.8955009" lon="11.176705"><ele>126.0</ele><time>2026-04-12T04:04:06.98Z</time></trkpt><trkpt lat="43.8954482" lon="11.1768476"><ele>123.75</ele><time>2026-04-12T04:04:07.972Z</time></trkpt><trkpt lat="43.8953813" lon="11.1769872"><ele>121.5</ele><time>2026-04-12T04:04:08.971Z</time></trkpt><trkpt lat="43.8953143" lon="11.177121"><ele>119.25</ele><time>2026-04-12T04:04:09.967Z</time></trkpt><trkpt lat="43.8952396" lon="11.1772452"><ele>117.0</ele><time>2026-04-12T04:04:10.972Z</time></trkpt><trkpt lat="43.8951476" lon="11.1773723"><ele>117.25</ele><time>2026-04-12T04:04:11.978Z</time></trkpt><trkpt lat="43.8950572" lon="11.1775021"><ele>117.5</ele><time>2026-04-12T04:04:12.974Z</time></trkpt><trkpt lat="43.894965" lon="11.1776302"><ele>117.75</ele><time>2026-04-12T04:04:13.977Z</time></trkpt><trkpt lat="43.8948691" lon="11.17775"><ele>118.0</ele><time>2026-04-12T04:04:14.976Z</time></trkpt><trkpt lat="43.8947649" lon="11.1778788"><ele>118.0</ele><time>2026-04-12T04:04:15.977Z</time></trkpt><trkpt lat="43.8946698" lon="11.178"><ele>118.0</ele><time>2026-04-12T04:04:16.973Z</time></trkpt><trkpt lat="43.8945782" lon="11.1781243"><ele>118.0</ele><time>2026-04-12T04:04:17.966Z</time></trkpt><trkpt lat="43.8945027" lon="11.1782541"><ele>118.0</ele><time>2026-04-12T04:04:18.968Z</time></trkpt><trkpt lat="43.8944333" lon="11.1783778"><ele>116.75</ele><time>2026-04-12T04:04:19.971Z</time></trkpt><trkpt lat="43.8943697" lon="11.178508"><ele>115.5</ele><time>2026-04-12T04:04:20.972Z</time></trkpt><trkpt lat="43.8943131" lon="11.1786585"><ele>114.25</ele><time>2026-04-12T04:04:22.026Z</time></trkpt><trkpt lat="43.8942592" lon="11.1788259"><ele>113.0</ele><time>2026-04-12T04:04:23.031Z</time></trkpt><trkpt lat="43.8942132" lon="11.1789775"><ele>112.33333333333333</ele><time>2026-04-12T04:04:23.966Z</time></trkpt><trkpt lat="43.8941755" lon="11.179112"><ele>111.66666666666666</ele><time>2026-04-12T04:04:24.968Z</time></trkpt><trkpt lat="43.8941744" lon="11.1792214"><ele>111.0</ele><time>2026-04-12T04:04:25.967Z</time></trkpt><trkpt lat="43.8942044" lon="11.1793032"><ele>110.33333333333334</ele><time>2026-04-12T04:04:26.96Z</time></trkpt><trkpt lat="43.8942518" lon="11.1793738"><ele>109.66666666666667</ele><time>2026-04-12T04:04:27.965Z</time></trkpt><trkpt lat="43.8943157" lon="11.179432"><ele>109.0</ele><time>2026-04-12T04:04:28.959Z</time></trkpt><trkpt lat="43.8943758" lon="11.1794838"><ele>109.0</ele><time>2026-04-12T04:04:29.949Z</time></trkpt><trkpt lat="43.894428" lon="11.1796235"><ele>109.0</ele><time>2026-04-12T04:04:32.03Z</time></trkpt><trkpt lat="43.8943555" lon="11.1798115"><ele>109.0</ele><time>2026-04-12T04:04:33.973Z</time></trkpt><trkpt lat="43.8942931" lon="11.1799334"><ele>109.0</ele><time>2026-04-12T04:04:34.97Z</time></trkpt><trkpt lat="43.8942342" lon="11.1800579"><ele>108.0</ele><time>2026-04-12T04:04:35.973Z</time></trkpt><trkpt lat="43.8941996" lon="11.1801787"><ele>107.0</ele><time>2026-04-12T04:04:36.969Z</time></trkpt><trkpt lat="43.8941683" lon="11.1802899"><ele>106.0</ele><time>2026-04-12T04:04:37.974Z</time></trkpt><trkpt lat="43.894129" lon="11.1803953"><ele>105.0</ele><time>2026-04-12T04:04:38.967Z</time></trkpt><trkpt lat="43.8940815" lon="11.1805173"><ele>104.0</ele><time>2026-04-12T04:04:39.975Z</time></trkpt><trkpt lat="43.8940209" lon="11.1806085"><ele>104.33333333333333</ele><time>2026-04-12T04:04:40.986Z</time></trkpt><trkpt lat="43.8939614" lon="11.1806949"><ele>104.66666666666666</ele><time>2026-04-12T04:04:41.977Z</time></trkpt><trkpt lat="43.8939205" lon="11.180808"><ele>105.0</ele><time>2026-04-12T04:04:42.965Z</time></trkpt><trkpt lat="43.8938949" lon="11.1809424"><ele>105.33333333333334</ele><time>2026-04-12T04:04:43.951Z</time></trkpt><trkpt lat="43.8938686" lon="11.1810718"><ele>105.66666666666667</ele><time>2026-04-12T04:04:44.969Z</time></trkpt><trkpt lat="43.8938469" lon="11.1811676"><ele>106.0</ele><time>2026-04-12T04:04:45.974Z</time></trkpt><trkpt lat="43.8938827" lon="11.1812822"><ele>106.0</ele><time>2026-04-12T04:04:47.969Z</time></trkpt><trkpt lat="43.8940093" lon="11.1813523"><ele>106.0</ele><time>2026-04-12T04:04:49.963Z</time></trkpt><trkpt lat="43.8940866" lon="11.1814036"><ele>106.0</ele><time>2026-04-12T04:04:50.978Z</time></trkpt><trkpt lat="43.8941672" lon="11.1814665"><ele>106.0</ele><time>2026-04-12T04:04:51.972Z</time></trkpt><trkpt lat="43.8942539" lon="11.181532"><ele>106.0</ele><time>2026-04-12T04:04:52.969Z</time></trkpt><trkpt lat="43.8943463" lon="11.1816061"><ele>106.25</ele><time>2026-04-12T04:04:53.97Z</time></trkpt><trkpt lat="43.894448" lon="11.1816894"><ele>106.5</ele><time>2026-04-12T04:04:55.016Z</time></trkpt><trkpt lat="43.8945522" lon="11.1817874"><ele>106.75</ele><time>2026-04-12T04:04:56.028Z</time></trkpt><trkpt lat="43.8946377" lon="11.1819031"><ele>107.0</ele><time>2026-04-12T04:04:56.966Z</time></trkpt><trkpt lat="43.8947177" lon="11.1820446"><ele>107.0</ele><time>2026-04-12T04:04:58.03Z</time></trkpt><trkpt lat="43.8947924" lon="11.1821904"><ele>107.0</ele><time>2026-04-12T04:04:58.957Z</time></trkpt><trkpt lat="43.8948667" lon="11.1823386"><ele>107.0</ele><time>2026-04-12T04:04:59.961Z</time></trkpt><trkpt lat="43.8949485" lon="11.1824906"><ele>107.0</ele><time>2026-04-12T04:05:00.954Z</time></trkpt><trkpt lat="43.8950337" lon="11.1826357"><ele>107.75</ele><time>2026-04-12T04:05:01.967Z</time></trkpt><trkpt lat="43.895138" lon="11.1827506"><ele>108.5</ele><time>2026-04-12T04:05:03.029Z</time></trkpt><trkpt lat="43.8952577" lon="11.1828281"><ele>109.25</ele><time>2026-04-12T04:05:03.966Z</time></trkpt><trkpt lat="43.8953778" lon="11.1829025"><ele>110.0</ele><time>2026-04-12T04:05:05.024Z</time></trkpt><trkpt lat="43.8954872" lon="11.1829793"><ele>110.0</ele><time>2026-04-12T04:05:05.957Z</time></trkpt><trkpt lat="43.8956002" lon="11.1830583"><ele>110.0</ele><time>2026-04-12T04:05:06.971Z</time></trkpt><trkpt lat="43.8957133" lon="11.1831433"><ele>110.0</ele><time>2026-04-12T04:05:07.965Z</time></trkpt><trkpt lat="43.8958296" lon="11.1832387"><ele>110.0</ele><time>2026-04-12T04:05:08.969Z</time></trkpt><trkpt lat="43.8959588" lon="11.1833415"><ele>110.33333333333333</ele><time>2026-04-12T04:05:09.979Z</time></trkpt><trkpt lat="43.8960938" lon="11.1834496"><ele>110.66666666666666</ele><time>2026-04-12T04:05:10.965Z</time></trkpt><trkpt lat="43.8962271" lon="11.1835492"><ele>111.0</ele><time>2026-04-12T04:05:11.977Z</time></trkpt><trkpt lat="43.8963621" lon="11.1836551"><ele>111.0</ele><time>2026-04-12T04:05:12.984Z</time></trkpt><trkpt lat="43.8964946" lon="11.1837622"><ele>111.0</ele><time>2026-04-12T04:05:13.968Z</time></trkpt><trkpt lat="43.8966244" lon="11.1838789"><ele>111.0</ele><time>2026-04-12T04:05:14.986Z</time></trkpt><trkpt lat="43.8967557" lon="11.183999"><ele>111.0</ele><time>2026-04-12T04:05:15.964Z</time></trkpt><trkpt lat="43.8968826" lon="11.1841136"><ele>111.0</ele><time>2026-04-12T04:05:16.972Z</time></trkpt><trkpt lat="43.897" lon="11.1842124"><ele>111.0</ele><time>2026-04-12T04:05:17.975Z</time></trkpt><trkpt lat="43.8970988" lon="11.1842885"><ele>111.0</ele><time>2026-04-12T04:05:18.971Z</time></trkpt><trkpt lat="43.8971764" lon="11.1843542"><ele>111.0</ele><time>2026-04-12T04:05:20.034Z</time></trkpt><trkpt lat="43.8972447" lon="11.1844249"><ele>111.0</ele><time>2026-04-12T04:05:21.03Z</time></trkpt><trkpt lat="43.8973108" lon="11.184528"><ele>111.0</ele><time>2026-04-12T04:05:22.032Z</time></trkpt><trkpt lat="43.8973516" lon="11.1846704"><ele>111.0</ele><time>2026-04-12T04:05:23.029Z</time></trkpt><trkpt lat="43.8973712" lon="11.1848381"><ele>111.0</ele><time>2026-04-12T04:05:23.96Z</time></trkpt><trkpt lat="43.8973824" lon="11.1850126"><ele>111.0</ele><time>2026-04-12T04:05:24.97Z</time></trkpt><trkpt lat="43.8973933" lon="11.1851873"><ele>111.0</ele><time>2026-04-12T04:05:25.951Z</time></trkpt><trkpt lat="43.8974033" lon="11.1853713"><ele>111.0</ele><time>2026-04-12T04:05:27.02Z</time></trkpt><trkpt lat="43.897409" lon="11.1855633"><ele>111.0</ele><time>2026-04-12T04:05:28.046Z</time></trkpt><trkpt lat="43.8974171" lon="11.1857571"><ele>111.19999999999999</ele><time>2026-04-12T04:05:28.958Z</time></trkpt><trkpt lat="43.8974013" lon="11.1859359"><ele>111.39999999999999</ele><time>2026-04-12T04:05:29.975Z</time></trkpt><trkpt lat="43.8973786" lon="11.1860805"><ele>111.6</ele><time>2026-04-12T04:05:30.987Z</time></trkpt><trkpt lat="43.897351" lon="11.1862279"><ele>111.8</ele><time>2026-04-12T04:05:31.969Z</time></trkpt><trkpt lat="43.8973273" lon="11.186359"><ele>112.0</ele><time>2026-04-12T04:05:33.005Z</time></trkpt><trkpt lat="43.8973013" lon="11.1864748"><ele>112.33333333333334</ele><time>2026-04-12T04:05:33.977Z</time></trkpt><trkpt lat="43.8972757" lon="11.1865861"><ele>112.66666666666667</ele><time>2026-04-12T04:05:35.032Z</time></trkpt><trkpt lat="43.8972948" lon="11.1866808"><ele>113.0</ele><time>2026-04-12T04:05:36.032Z</time></trkpt><trkpt lat="43.8973707" lon="11.1868163"><ele>113.33333333333334</ele><time>2026-04-12T04:05:38.033Z</time></trkpt><trkpt lat="43.8974344" lon="11.1868656"><ele>113.66666666666667</ele><time>2026-04-12T04:05:38.981Z</time></trkpt><trkpt lat="43.8975228" lon="11.1869185"><ele>114.0</ele><time>2026-04-12T04:05:39.975Z</time></trkpt><trkpt lat="43.8976318" lon="11.1869828"><ele>114.25</ele><time>2026-04-12T04:05:41.046Z</time></trkpt><trkpt lat="43.897747" lon="11.1870404"><ele>114.5</ele><time>2026-04-12T04:05:41.972Z</time></trkpt><trkpt lat="43.8978617" lon="11.1871067"><ele>114.75</ele><time>2026-04-12T04:05:43.05Z</time></trkpt><trkpt lat="43.8979817" lon="11.1871724"><ele>115.0</ele><time>2026-04-12T04:05:43.974Z</time></trkpt><trkpt lat="43.8981141" lon="11.1872408"><ele>115.0</ele><time>2026-04-12T04:05:44.972Z</time></trkpt><trkpt lat="43.8982507" lon="11.1873146"><ele>115.0</ele><time>2026-04-12T04:05:45.985Z</time></trkpt><trkpt lat="43.898389" lon="11.1873867"><ele>115.0</ele><time>2026-04-12T04:05:46.998Z</time></trkpt><trkpt lat="43.8985221" lon="11.1874579"><ele>115.0</ele><time>2026-04-12T04:05:47.974Z</time></trkpt><trkpt lat="43.8986352" lon="11.1875192"><ele>115.16666666666667</ele><time>2026-04-12T04:05:48.968Z</time></trkpt><trkpt lat="43.8987158" lon="11.1875859"><ele>115.33333333333334</ele><time>2026-04-12T04:05:49.98Z</time></trkpt><trkpt lat="43.8987548" lon="11.1876743"><ele>115.5</ele><time>2026-04-12T04:05:50.98Z</time></trkpt><trkpt lat="43.8987677" lon="11.187773"><ele>115.66666666666666</ele><time>2026-04-12T04:05:51.965Z</time></trkpt><trkpt lat="43.8987701" lon="11.1878829"><ele>115.83333333333333</ele><time>2026-04-12T04:05:52.976Z</time></trkpt><trkpt lat="43.8987903" lon="11.1879824"><ele>116.0</ele><time>2026-04-12T04:05:53.977Z</time></trkpt><trkpt lat="43.8988387" lon="11.1880499"><ele>115.99999999999999</ele><time>2026-04-12T04:05:54.979Z</time></trkpt><trkpt lat="43.8989114" lon="11.1880766"><ele>116.0</ele><time>2026-04-12T04:05:55.986Z</time></trkpt><trkpt lat="43.899004" lon="11.1880444"><ele>116.0</ele><time>2026-04-12T04:05:56.986Z</time></trkpt><trkpt lat="43.8990829" lon="11.1879743"><ele>116.0</ele><time>2026-04-12T04:05:57.984Z</time></trkpt><trkpt lat="43.8991648" lon="11.1879226"><ele>115.99999999999999</ele><time>2026-04-12T04:05:58.984Z</time></trkpt><trkpt lat="43.8992496" lon="11.1879323"><ele>116.0</ele><time>2026-04-12T04:05:59.981Z</time></trkpt><trkpt lat="43.8993479" lon="11.1879831"><ele>116.5</ele><time>2026-04-12T04:06:01.033Z</time></trkpt><trkpt lat="43.8994448" lon="11.1880677"><ele>117.0</ele><time>2026-04-12T04:06:02.043Z</time></trkpt><trkpt lat="43.8995451" lon="11.1881624"><ele>117.5</ele><time>2026-04-12T04:06:02.955Z</time></trkpt><trkpt lat="43.8996566" lon="11.1882483"><ele>118.0</ele><time>2026-04-12T04:06:03.96Z</time></trkpt><trkpt lat="43.8997723" lon="11.1883426"><ele>118.5</ele><time>2026-04-12T04:06:04.974Z</time></trkpt><trkpt lat="43.8998928" lon="11.1884335"><ele>119.0</ele><time>2026-04-12T04:06:05.959Z</time></trkpt><trkpt lat="43.9000135" lon="11.1885296"><ele>119.5</ele><time>2026-04-12T04:06:06.96Z</time></trkpt><trkpt lat="43.9001369" lon="11.1886281"><ele>120.0</ele><time>2026-04-12T04:06:07.967Z</time></trkpt><trkpt lat="43.9002713" lon="11.1887325"><ele>120.33333333333334</ele><time>2026-04-12T04:06:08.959Z</time></trkpt><trkpt lat="43.9004148" lon="11.1888383"><ele>120.66666666666667</ele><time>2026-04-12T04:06:09.962Z</time></trkpt><trkpt lat="43.900567" lon="11.1889237"><ele>121.0</ele><time>2026-04-12T04:06:11.048Z</time></trkpt><trkpt lat="43.9007297" lon="11.1889872"><ele>121.33333333333334</ele><time>2026-04-12T04:06:12.028Z</time></trkpt><trkpt lat="43.9008929" lon="11.1890337"><ele>121.66666666666666</ele><time>2026-04-12T04:06:13.033Z</time></trkpt><trkpt lat="43.9010665" lon="11.1890691"><ele>122.0</ele><time>2026-04-12T04:06:13.955Z</time></trkpt><trkpt lat="43.9012479" lon="11.1890972"><ele>122.0</ele><time>2026-04-12T04:06:15.032Z</time></trkpt><trkpt lat="43.9014327" lon="11.1891128"><ele>122.0</ele><time>2026-04-12T04:06:16.041Z</time></trkpt><trkpt lat="43.9016172" lon="11.1891274"><ele>122.0</ele><time>2026-04-12T04:06:16.944Z</time></trkpt><trkpt lat="43.9018048" lon="11.1891322"><ele>122.33333333333333</ele><time>2026-04-12T04:06:18.019Z</time></trkpt><trkpt lat="43.9019962" lon="11.1891388"><ele>122.66666666666666</ele><time>2026-04-12T04:06:18.961Z</time></trkpt><trkpt lat="43.902196" lon="11.1891346"><ele>123.0</ele><time>2026-04-12T04:06:19.97Z</time></trkpt><trkpt lat="43.9023946" lon="11.1891315"><ele>123.66666666666666</ele><time>2026-04-12T04:06:20.964Z</time></trkpt><trkpt lat="43.9025984" lon="11.1891334"><ele>124.33333333333333</ele><time>2026-04-12T04:06:22.035Z</time></trkpt><trkpt lat="43.9028112" lon="11.1891355"><ele>125.0</ele><time>2026-04-12T04:06:23.035Z</time></trkpt><trkpt lat="43.9030302" lon="11.1891462"><ele>125.0</ele><time>2026-04-12T04:06:23.965Z</time></trkpt><trkpt lat="43.9032485" lon="11.1891574"><ele>125.0</ele><time>2026-04-12T04:06:24.965Z</time></trkpt><trkpt lat="43.903466" lon="11.1891721"><ele>125.0</ele><time>2026-04-12T04:06:25.956Z</time></trkpt><trkpt lat="43.9036656" lon="11.1891841"><ele>126.0</ele><time>2026-04-12T04:06:27.03Z</time></trkpt><trkpt lat="43.903846" lon="11.1891974"><ele>127.0</ele><time>2026-04-12T04:06:28.032Z</time></trkpt><trkpt lat="43.9040122" lon="11.189216"><ele>128.0</ele><time>2026-04-12T04:06:28.959Z</time></trkpt><trkpt lat="43.9041768" lon="11.1892376"><ele>128.0</ele><time>2026-04-12T04:06:29.968Z</time></trkpt><trkpt lat="43.9043383" lon="11.1892601"><ele>128.0</ele><time>2026-04-12T04:06:30.956Z</time></trkpt><trkpt lat="43.9044975" lon="11.1893132"><ele>128.0</ele><time>2026-04-12T04:06:32.047Z</time></trkpt><trkpt lat="43.9046487" lon="11.1894055"><ele>128.0</ele><time>2026-04-12T04:06:33.035Z</time></trkpt><trkpt lat="43.9047992" lon="11.1895283"><ele>128.0</ele><time>2026-04-12T04:06:33.978Z</time></trkpt><trkpt lat="43.9049484" lon="11.1896547"><ele>128.0</ele><time>2026-04-12T04:06:34.967Z</time></trkpt><trkpt lat="43.9051017" lon="11.1897816"><ele>129.0</ele><time>2026-04-12T04:06:35.986Z</time></trkpt><trkpt lat="43.90526" lon="11.1899132"><ele>130.0</ele><time>2026-04-12T04:06:36.975Z</time></trkpt><trkpt lat="43.9054198" lon="11.1900473"><ele>131.0</ele><time>2026-04-12T04:06:37.978Z</time></trkpt><trkpt lat="43.9055824" lon="11.1901815"><ele>131.0</ele><time>2026-04-12T04:06:38.975Z</time></trkpt><trkpt lat="43.9057503" lon="11.1903188"><ele>131.0</ele><time>2026-04-12T04:06:39.977Z</time></trkpt><trkpt lat="43.905926" lon="11.1904648"><ele>131.0</ele><time>2026-04-12T04:06:40.972Z</time></trkpt><trkpt lat="43.9060991" lon="11.1906113"><ele>132.33333333333331</ele><time>2026-04-12T04:06:42.027Z</time></trkpt><trkpt lat="43.9062486" lon="11.1907353"><ele>133.66666666666666</ele><time>2026-04-12T04:06:43.032Z</time></trkpt><trkpt lat="43.9063954" lon="11.1908382"><ele>135.0</ele><time>2026-04-12T04:06:43.963Z</time></trkpt><trkpt lat="43.9065486" lon="11.1909163"><ele>135.0</ele><time>2026-04-12T04:06:44.969Z</time></trkpt><trkpt lat="43.9067047" lon="11.1909912"><ele>135.0</ele><time>2026-04-12T04:06:45.995Z</time></trkpt><trkpt lat="43.9068634" lon="11.1910765"><ele>135.0</ele><time>2026-04-12T04:06:46.972Z</time></trkpt><trkpt lat="43.9070202" lon="11.1911926"><ele>135.66666666666666</ele><time>2026-04-12T04:06:47.968Z</time></trkpt><trkpt lat="43.9071736" lon="11.191321"><ele>136.33333333333331</ele><time>2026-04-12T04:06:48.965Z</time></trkpt><trkpt lat="43.9073299" lon="11.1914606"><ele>137.0</ele><time>2026-04-12T04:06:49.979Z</time></trkpt><trkpt lat="43.9074855" lon="11.1915979"><ele>138.33333333333331</ele><time>2026-04-12T04:06:51.029Z</time></trkpt><trkpt lat="43.9076415" lon="11.1917291"><ele>139.66666666666666</ele><time>2026-04-12T04:06:51.962Z</time></trkpt><trkpt lat="43.9077973" lon="11.1918477"><ele>141.0</ele><time>2026-04-12T04:06:52.957Z</time></trkpt><trkpt lat="43.9079518" lon="11.1919513"><ele>141.0</ele><time>2026-04-12T04:06:53.96Z</time></trkpt><trkpt lat="43.9081273" lon="11.1920387"><ele>141.0</ele><time>2026-04-12T04:06:54.966Z</time></trkpt><trkpt lat="43.9083116" lon="11.1921082"><ele>141.0</ele><time>2026-04-12T04:06:55.96Z</time></trkpt><trkpt lat="43.9085012" lon="11.1921612"><ele>141.33333333333334</ele><time>2026-04-12T04:06:56.941Z</time></trkpt><trkpt lat="43.9086929" lon="11.1922143"><ele>141.66666666666669</ele><time>2026-04-12T04:06:57.965Z</time></trkpt><trkpt lat="43.9088811" lon="11.1922714"><ele>142.0</ele><time>2026-04-12T04:06:58.964Z</time></trkpt><trkpt lat="43.9090616" lon="11.1923259"><ele>142.66666666666669</ele><time>2026-04-12T04:06:59.965Z</time></trkpt><trkpt lat="43.9092269" lon="11.1923842"><ele>143.33333333333334</ele><time>2026-04-12T04:07:00.945Z</time></trkpt><trkpt lat="43.9093787" lon="11.192455"><ele>144.0</ele><time>2026-04-12T04:07:01.954Z</time></trkpt><trkpt lat="43.9095205" lon="11.1925384"><ele>144.0</ele><time>2026-04-12T04:07:02.962Z</time></trkpt><trkpt lat="43.9096649" lon="11.1926328"><ele>144.0</ele><time>2026-04-12T04:07:03.965Z</time></trkpt><trkpt lat="43.9098215" lon="11.1927432"><ele>144.0</ele><time>2026-04-12T04:07:04.956Z</time></trkpt><trkpt lat="43.9099829" lon="11.1928477"><ele>145.0</ele><time>2026-04-12T04:07:05.963Z</time></trkpt><trkpt lat="43.9101448" lon="11.1929592"><ele>146.0</ele><time>2026-04-12T04:07:06.953Z</time></trkpt><trkpt lat="43.9103089" lon="11.1930768"><ele>147.0</ele><time>2026-04-12T04:07:08.035Z</time></trkpt><trkpt lat="43.910469" lon="11.1931907"><ele>148.0</ele><time>2026-04-12T04:07:08.957Z</time></trkpt><trkpt lat="43.9106312" lon="11.1932999"><ele>149.0</ele><time>2026-04-12T04:07:09.953Z</time></trkpt><trkpt lat="43.9107997" lon="11.1934131"><ele>150.0</ele><time>2026-04-12T04:07:10.967Z</time></trkpt><trkpt lat="43.9109678" lon="11.1935286"><ele>150.0</ele><time>2026-04-12T04:07:12.028Z</time></trkpt><trkpt lat="43.9111378" lon="11.1936474"><ele>150.0</ele><time>2026-04-12T04:07:13.034Z</time></trkpt><trkpt lat="43.9113075" lon="11.1937606"><ele>150.0</ele><time>2026-04-12T04:07:13.953Z</time></trkpt><trkpt lat="43.9114818" lon="11.1938805"><ele>150.0</ele><time>2026-04-12T04:07:14.962Z</time></trkpt><trkpt lat="43.9116561" lon="11.1939997"><ele>150.0</ele><time>2026-04-12T04:07:15.984Z</time></trkpt><trkpt lat="43.911831" lon="11.1941123"><ele>150.0</ele><time>2026-04-12T04:07:17.025Z</time></trkpt><trkpt lat="43.9120018" lon="11.1942308"><ele>150.66666666666666</ele><time>2026-04-12T04:07:18.034Z</time></trkpt><trkpt lat="43.9121681" lon="11.194321"><ele>151.33333333333331</ele><time>2026-04-12T04:07:18.959Z</time></trkpt><trkpt lat="43.9123238" lon="11.1944081"><ele>152.0</ele><time>2026-04-12T04:07:19.96Z</time></trkpt><trkpt lat="43.9124566" lon="11.1944919"><ele>152.0</ele><time>2026-04-12T04:07:20.939Z</time></trkpt><trkpt lat="43.9125676" lon="11.1945822"><ele>152.0</ele><time>2026-04-12T04:07:22.027Z</time></trkpt><trkpt lat="43.9126806" lon="11.1946695"><ele>152.0</ele><time>2026-04-12T04:07:23.028Z</time></trkpt><trkpt lat="43.9127951" lon="11.1947511"><ele>152.0</ele><time>2026-04-12T04:07:23.961Z</time></trkpt><trkpt lat="43.9129092" lon="11.1948121"><ele>153.2</ele><time>2026-04-12T04:07:24.962Z</time></trkpt><trkpt lat="43.9130056" lon="11.1948696"><ele>154.39999999999998</ele><time>2026-04-12T04:07:25.974Z</time></trkpt><trkpt lat="43.9130966" lon="11.1949235"><ele>155.60000000000002</ele><time>2026-04-12T04:07:26.965Z</time></trkpt><trkpt lat="43.913184" lon="11.194974"><ele>156.8</ele><time>2026-04-12T04:07:27.946Z</time></trkpt><trkpt lat="43.913277" lon="11.1950432"><ele>158.0</ele><time>2026-04-12T04:07:28.958Z</time></trkpt><trkpt lat="43.9133726" lon="11.1951076"><ele>157.4</ele><time>2026-04-12T04:07:29.956Z</time></trkpt><trkpt lat="43.9134629" lon="11.1951772"><ele>156.8</ele><time>2026-04-12T04:07:30.964Z</time></trkpt><trkpt lat="43.9135365" lon="11.1952175"><ele>156.2</ele><time>2026-04-12T04:07:32.031Z</time></trkpt><trkpt lat="43.9136323" lon="11.1952363"><ele>155.6</ele><time>2026-04-12T04:07:33.032Z</time></trkpt><trkpt lat="43.9137321" lon="11.1952467"><ele>155.0</ele><time>2026-04-12T04:07:33.963Z</time></trkpt><trkpt lat="43.9138339" lon="11.1952269"><ele>155.0</ele><time>2026-04-12T04:07:34.967Z</time></trkpt><trkpt lat="43.9139302" lon="11.1951984"><ele>155.0</ele><time>2026-04-12T04:07:35.956Z</time></trkpt><trkpt lat="43.9140086" lon="11.1951594"><ele>155.0</ele><time>2026-04-12T04:07:36.96Z</time></trkpt><trkpt lat="43.9140737" lon="11.1951007"><ele>155.0</ele><time>2026-04-12T04:07:37.956Z</time></trkpt><trkpt lat="43.9141368" lon="11.1950171"><ele>155.0</ele><time>2026-04-12T04:07:38.954Z</time></trkpt><trkpt lat="43.9141815" lon="11.1949132"><ele>155.0</ele><time>2026-04-12T04:07:39.978Z</time></trkpt><trkpt lat="43.9142236" lon="11.1948069"><ele>155.16666666666666</ele><time>2026-04-12T04:07:40.98Z</time></trkpt><trkpt lat="43.9142405" lon="11.1947038"><ele>155.33333333333331</ele><time>2026-04-12T04:07:41.96Z</time></trkpt><trkpt lat="43.9142358" lon="11.1946024"><ele>155.5</ele><time>2026-04-12T04:07:42.988Z</time></trkpt><trkpt lat="43.9142192" lon="11.1944947"><ele>155.66666666666666</ele><time>2026-04-12T04:07:43.937Z</time></trkpt><trkpt lat="43.9142065" lon="11.1943801"><ele>155.83333333333334</ele><time>2026-04-12T04:07:44.963Z</time></trkpt><trkpt lat="43.9141974" lon="11.1942569"><ele>156.0</ele><time>2026-04-12T04:07:45.964Z</time></trkpt><trkpt lat="43.9142003" lon="11.1941438"><ele>156.0</ele><time>2026-04-12T04:07:46.958Z</time></trkpt><trkpt lat="43.9142303" lon="11.1940413"><ele>156.0</ele><time>2026-04-12T04:07:47.965Z</time></trkpt><trkpt lat="43.9143277" lon="11.1939382"><ele>156.0</ele><time>2026-04-12T04:07:48.962Z</time></trkpt><trkpt lat="43.9144317" lon="11.1938416"><ele>156.0</ele><time>2026-04-12T04:07:49.958Z</time></trkpt><trkpt lat="43.9145155" lon="11.1937459"><ele>156.0</ele><time>2026-04-12T04:07:50.965Z</time></trkpt><trkpt lat="43.9146029" lon="11.1936564"><ele>157.75</ele><time>2026-04-12T04:07:51.965Z</time></trkpt><trkpt lat="43.9147023" lon="11.1935617"><ele>159.5</ele><time>2026-04-12T04:07:52.959Z</time></trkpt><trkpt lat="43.914797" lon="11.1934558"><ele>161.25</ele><time>2026-04-12T04:07:53.958Z</time></trkpt><trkpt lat="43.9148952" lon="11.1933669"><ele>163.0</ele><time>2026-04-12T04:07:54.968Z</time></trkpt><trkpt lat="43.9149988" lon="11.1933075"><ele>164.60000000000002</ele><time>2026-04-12T04:07:56.041Z</time></trkpt><trkpt lat="43.9151001" lon="11.1932574"><ele>166.20000000000002</ele><time>2026-04-12T04:07:57.032Z</time></trkpt><trkpt lat="43.9152002" lon="11.1932326"><ele>167.8</ele><time>2026-04-12T04:07:58.027Z</time></trkpt><trkpt lat="43.9153003" lon="11.193217"><ele>169.4</ele><time>2026-04-12T04:07:58.961Z</time></trkpt><trkpt lat="43.9154164" lon="11.1932317"><ele>171.0</ele><time>2026-04-12T04:07:59.96Z</time></trkpt><trkpt lat="43.9155302" lon="11.19326"><ele>171.0</ele><time>2026-04-12T04:08:00.975Z</time></trkpt><trkpt lat="43.9156477" lon="11.193298"><ele>171.0</ele><time>2026-04-12T04:08:01.959Z</time></trkpt><trkpt lat="43.915766" lon="11.1933241"><ele>171.0</ele><time>2026-04-12T04:08:02.959Z</time></trkpt><trkpt lat="43.9158832" lon="11.1933328"><ele>171.0</ele><time>2026-04-12T04:08:03.961Z</time></trkpt><trkpt lat="43.9159995" lon="11.1933308"><ele>173.0</ele><time>2026-04-12T04:08:05.032Z</time></trkpt><trkpt lat="43.9161182" lon="11.193304"><ele>175.0</ele><time>2026-04-12T04:08:06.034Z</time></trkpt><trkpt lat="43.9162372" lon="11.1932684"><ele>177.0</ele><time>2026-04-12T04:08:07.03Z</time></trkpt><trkpt lat="43.9163724" lon="11.1932332"><ele>179.0</ele><time>2026-04-12T04:08:08.034Z</time></trkpt><trkpt lat="43.9165096" lon="11.1932058"><ele>179.0</ele><time>2026-04-12T04:08:08.97Z</time></trkpt><trkpt lat="43.9166508" lon="11.1931991"><ele>179.0</ele><time>2026-04-12T04:08:09.972Z</time></trkpt><trkpt lat="43.9168012" lon="11.1931849"><ele>179.0</ele><time>2026-04-12T04:08:10.983Z</time></trkpt><trkpt lat="43.916946" lon="11.1931676"><ele>179.0</ele><time>2026-04-12T04:08:12.028Z</time></trkpt><trkpt lat="43.9170986" lon="11.1931458"><ele>178.25</ele><time>2026-04-12T04:08:13.03Z</time></trkpt><trkpt lat="43.9172345" lon="11.1931209"><ele>177.5</ele><time>2026-04-12T04:08:13.962Z</time></trkpt><trkpt lat="43.9173602" lon="11.1931088"><ele>176.75</ele><time>2026-04-12T04:08:14.966Z</time></trkpt><trkpt lat="43.9174857" lon="11.1931157"><ele>176.0</ele><time>2026-04-12T04:08:15.972Z</time></trkpt><trkpt lat="43.9176037" lon="11.1931462"><ele>177.4</ele><time>2026-04-12T04:08:16.956Z</time></trkpt><trkpt lat="43.9177092" lon="11.1931483"><ele>178.8</ele><time>2026-04-12T04:08:17.956Z</time></trkpt><trkpt lat="43.9178144" lon="11.1931356"><ele>180.20000000000002</ele><time>2026-04-12T04:08:18.957Z</time></trkpt><trkpt lat="43.9179164" lon="11.1931132"><ele>181.60000000000002</ele><time>2026-04-12T04:08:19.963Z</time></trkpt><trkpt lat="43.9180274" lon="11.1930813"><ele>183.0</ele><time>2026-04-12T04:08:20.96Z</time></trkpt><trkpt lat="43.9181454" lon="11.193057"><ele>183.0</ele><time>2026-04-12T04:08:21.976Z</time></trkpt><trkpt lat="43.918272" lon="11.1930396"><ele>183.0</ele><time>2026-04-12T04:08:22.966Z</time></trkpt><trkpt lat="43.9184052" lon="11.1930021"><ele>183.0</ele><time>2026-04-12T04:08:23.966Z</time></trkpt><trkpt lat="43.9185518" lon="11.192953"><ele>183.0</ele><time>2026-04-12T04:08:24.965Z</time></trkpt><trkpt lat="43.9186979" lon="11.1929034"><ele>186.25</ele><time>2026-04-12T04:08:25.959Z</time></trkpt><trkpt lat="43.9188357" lon="11.192856"><ele>189.5</ele><time>2026-04-12T04:08:26.968Z</time></trkpt><trkpt lat="43.9189531" lon="11.1928064"><ele>192.75</ele><time>2026-04-12T04:08:27.975Z</time></trkpt><trkpt lat="43.9190717" lon="11.1927316"><ele>196.0</ele><time>2026-04-12T04:08:28.947Z</time></trkpt><trkpt lat="43.9191944" lon="11.1926401"><ele>200.0</ele><time>2026-04-12T04:08:29.952Z</time></trkpt><trkpt lat="43.9193112" lon="11.1925557"><ele>204.0</ele><time>2026-04-12T04:08:31.024Z</time></trkpt><trkpt lat="43.9194237" lon="11.1924704"><ele>208.0</ele><time>2026-04-12T04:08:31.998Z</time></trkpt><trkpt lat="43.9195198" lon="11.1923735"><ele>212.0</ele><time>2026-04-12T04:08:32.955Z</time></trkpt><trkpt lat="43.9196028" lon="11.192284"><ele>212.0</ele><time>2026-04-12T04:08:33.945Z</time></trkpt><trkpt lat="43.9196774" lon="11.1921887"><ele>212.0</ele><time>2026-04-12T04:08:34.969Z</time></trkpt><trkpt lat="43.9197536" lon="11.1921036"><ele>212.0</ele><time>2026-04-12T04:08:36.027Z</time></trkpt><trkpt lat="43.919827" lon="11.1920308"><ele>212.0</ele><time>2026-04-12T04:08:37.015Z</time></trkpt><trkpt lat="43.9199031" lon="11.1919546"><ele>212.0</ele><time>2026-04-12T04:08:38.015Z</time></trkpt><trkpt lat="43.9199756" lon="11.191879"><ele>212.0</ele><time>2026-04-12T04:08:38.962Z</time></trkpt><trkpt lat="43.9200595" lon="11.1917927"><ele>212.0</ele><time>2026-04-12T04:08:39.965Z</time></trkpt><trkpt lat="43.9201449" lon="11.1917076"><ele>212.0</ele><time>2026-04-12T04:08:40.994Z</time></trkpt><trkpt lat="43.9202211" lon="11.1916088"><ele>212.0</ele><time>2026-04-12T04:08:42.014Z</time></trkpt><trkpt lat="43.9203017" lon="11.1915129"><ele>212.0</ele><time>2026-04-12T04:08:43.02Z</time></trkpt><trkpt lat="43.9203877" lon="11.1914338"><ele>214.2</ele><time>2026-04-12T04:08:43.965Z</time></trkpt><trkpt lat="43.9204761" lon="11.1913486"><ele>216.39999999999998</ele><time>2026-04-12T04:08:44.957Z</time></trkpt><trkpt lat="43.9205638" lon="11.1912712"><ele>218.60000000000002</ele><time>2026-04-12T04:08:45.974Z</time></trkpt><trkpt lat="43.9206499" lon="11.191188"><ele>220.8</ele><time>2026-04-12T04:08:47.015Z</time></trkpt><trkpt lat="43.9207291" lon="11.1910977"><ele>223.0</ele><time>2026-04-12T04:08:48.013Z</time></trkpt><trkpt lat="43.9208205" lon="11.1910155"><ele>225.2</ele><time>2026-04-12T04:08:48.956Z</time></trkpt><trkpt lat="43.9209122" lon="11.1909694"><ele>227.4</ele><time>2026-04-12T04:08:49.971Z</time></trkpt><trkpt lat="43.921007" lon="11.1909917"><ele>229.59999999999997</ele><time>2026-04-12T04:08:50.988Z</time></trkpt><trkpt lat="43.9211048" lon="11.1910351"><ele>231.79999999999998</ele><time>2026-04-12T04:08:52.013Z</time></trkpt><trkpt lat="43.9212041" lon="11.1910891"><ele>234.0</ele><time>2026-04-12T04:08:53.02Z</time></trkpt><trkpt lat="43.9212968" lon="11.1911492"><ele>234.0</ele><time>2026-04-12T04:08:53.943Z</time></trkpt><trkpt lat="43.9213862" lon="11.1911815"><ele>233.99999999999997</ele><time>2026-04-12T04:08:54.964Z</time></trkpt><trkpt lat="43.92148" lon="11.1911998"><ele>233.99999999999997</ele><time>2026-04-12T04:08:55.966Z</time></trkpt><trkpt lat="43.921579" lon="11.1912404"><ele>234.0</ele><time>2026-04-12T04:08:56.964Z</time></trkpt><trkpt lat="43.9217044" lon="11.1912688"><ele>234.0</ele><time>2026-04-12T04:08:57.964Z</time></trkpt><trkpt lat="43.9218088" lon="11.1912661"><ele>237.16666666666666</ele><time>2026-04-12T04:08:58.946Z</time></trkpt><trkpt lat="43.9218914" lon="11.1912351"><ele>240.33333333333331</ele><time>2026-04-12T04:08:59.945Z</time></trkpt><trkpt lat="43.9219742" lon="11.1911829"><ele>243.5</ele><time>2026-04-12T04:09:00.956Z</time></trkpt><trkpt lat="43.9220534" lon="11.1911356"><ele>246.66666666666666</ele><time>2026-04-12T04:09:01.948Z</time></trkpt><trkpt lat="43.9221377" lon="11.1910957"><ele>249.83333333333331</ele><time>2026-04-12T04:09:02.96Z</time></trkpt><trkpt lat="43.9222232" lon="11.1910502"><ele>253.0</ele><time>2026-04-12T04:09:03.971Z</time></trkpt><trkpt lat="43.9222915" lon="11.1909953"><ele>253.0</ele><time>2026-04-12T04:09:04.965Z</time></trkpt><trkpt lat="43.9223586" lon="11.1909238"><ele>253.0</ele><time>2026-04-12T04:09:05.969Z</time></trkpt><trkpt lat="43.9224254" lon="11.1908403"><ele>253.0</ele><time>2026-04-12T04:09:06.963Z</time></trkpt><trkpt lat="43.9224965" lon="11.1907685"><ele>253.0</ele><time>2026-04-12T04:09:07.975Z</time></trkpt><trkpt lat="43.9225747" lon="11.1906958"><ele>253.0</ele><time>2026-04-12T04:09:08.965Z</time></trkpt><trkpt lat="43.9226579" lon="11.1906199"><ele>258.4</ele><time>2026-04-12T04:09:09.974Z</time></trkpt><trkpt lat="43.9227418" lon="11.1905368"><ele>263.8</ele><time>2026-04-12T04:09:10.961Z</time></trkpt><trkpt lat="43.9228348" lon="11.190455"><ele>269.2</ele><time>2026-04-12T04:09:11.97Z</time></trkpt><trkpt lat="43.9229147" lon="11.1903686"><ele>274.6</ele><time>2026-04-12T04:09:12.959Z</time></trkpt><trkpt lat="43.9229752" lon="11.190263"><ele>280.0</ele><time>2026-04-12T04:09:13.959Z</time></trkpt><trkpt lat="43.9230357" lon="11.1901579"><ele>280.0</ele><time>2026-04-12T04:09:14.967Z</time></trkpt><trkpt lat="43.9230746" lon="11.1900354"><ele>280.0</ele><time>2026-04-12T04:09:15.971Z</time></trkpt><trkpt lat="43.9230798" lon="11.189914"><ele>280.0</ele><time>2026-04-12T04:09:16.973Z</time></trkpt><trkpt lat="43.9230833" lon="11.1897773"><ele>280.0</ele><time>2026-04-12T04:09:17.969Z</time></trkpt><trkpt lat="43.9231019" lon="11.1896454"><ele>280.0</ele><time>2026-04-12T04:09:18.949Z</time></trkpt><trkpt lat="43.9231222" lon="11.1895221"><ele>280.8</ele><time>2026-04-12T04:09:19.956Z</time></trkpt><trkpt lat="43.9231629" lon="11.1894174"><ele>281.6</ele><time>2026-04-12T04:09:20.966Z</time></trkpt><trkpt lat="43.9232208" lon="11.1893244"><ele>282.4</ele><time>2026-04-12T04:09:21.973Z</time></trkpt><trkpt lat="43.9232845" lon="11.1892341"><ele>283.2</ele><time>2026-04-12T04:09:22.964Z</time></trkpt><trkpt lat="43.9233566" lon="11.1891305"><ele>284.0</ele><time>2026-04-12T04:09:23.966Z</time></trkpt><trkpt lat="43.9234336" lon="11.1890126"><ele>292.25</ele><time>2026-04-12T04:09:24.959Z</time></trkpt><trkpt lat="43.923493" lon="11.1888799"><ele>300.5</ele><time>2026-04-12T04:09:25.963Z</time></trkpt><trkpt lat="43.9235439" lon="11.1887469"><ele>308.75</ele><time>2026-04-12T04:09:26.965Z</time></trkpt><trkpt lat="43.9235887" lon="11.1886026"><ele>317.0</ele><time>2026-04-12T04:09:27.957Z</time></trkpt><trkpt lat="43.9236257" lon="11.1884472"><ele>317.0</ele><time>2026-04-12T04:09:28.968Z</time></trkpt><trkpt lat="43.9236632" lon="11.1882965"><ele>317.0</ele><time>2026-04-12T04:09:29.959Z</time></trkpt><trkpt lat="43.9237063" lon="11.1881643"><ele>317.0</ele><time>2026-04-12T04:09:30.972Z</time></trkpt><trkpt lat="43.9237358" lon="11.1880489"><ele>317.0</ele><time>2026-04-12T04:09:31.963Z</time></trkpt><trkpt lat="43.923784" lon="11.1879348"><ele>317.0</ele><time>2026-04-12T04:09:32.96Z</time></trkpt><trkpt lat="43.9238331" lon="11.1878111"><ele>313.75</ele><time>2026-04-12T04:09:33.971Z</time></trkpt><trkpt lat="43.923898" lon="11.1876634"><ele>310.5</ele><time>2026-04-12T04:09:34.962Z</time></trkpt><trkpt lat="43.9239639" lon="11.1874987"><ele>307.25</ele><time>2026-04-12T04:09:35.961Z</time></trkpt><trkpt lat="43.9240174" lon="11.1873192"><ele>304.0</ele><time>2026-04-12T04:09:36.964Z</time></trkpt><trkpt lat="43.9240603" lon="11.1871432"><ele>301.25</ele><time>2026-04-12T04:09:37.97Z</time></trkpt><trkpt lat="43.9240929" lon="11.186959"><ele>298.5</ele><time>2026-04-12T04:09:38.964Z</time></trkpt><trkpt lat="43.9241156" lon="11.1867792"><ele>295.75</ele><time>2026-04-12T04:09:39.963Z</time></trkpt><trkpt lat="43.9241572" lon="11.1865725"><ele>293.0</ele><time>2026-04-12T04:09:40.965Z</time></trkpt><trkpt lat="43.9241904" lon="11.1864245"><ele>296.5</ele><time>2026-04-12T04:09:41.969Z</time></trkpt><trkpt lat="43.9242329" lon="11.1862864"><ele>300.0</ele><time>2026-04-12T04:09:42.961Z</time></trkpt><trkpt lat="43.9242898" lon="11.186168"><ele>303.5</ele><time>2026-04-12T04:09:43.965Z</time></trkpt><trkpt lat="43.9243554" lon="11.1860353"><ele>307.0</ele><time>2026-04-12T04:09:44.963Z</time></trkpt><trkpt lat="43.9244207" lon="11.1858841"><ele>307.0</ele><time>2026-04-12T04:09:45.975Z</time></trkpt><trkpt lat="43.9244849" lon="11.1857024"><ele>307.0</ele><time>2026-04-12T04:09:46.97Z</time></trkpt><trkpt lat="43.9245459" lon="11.1855448"><ele>307.0</ele><time>2026-04-12T04:09:47.962Z</time></trkpt><trkpt lat="43.9245954" lon="11.1853914"><ele>307.0</ele><time>2026-04-12T04:09:48.969Z</time></trkpt><trkpt lat="43.9246334" lon="11.1852206"><ele>305.25</ele><time>2026-04-12T04:09:49.968Z</time></trkpt><trkpt lat="43.9246752" lon="11.1850366"><ele>303.5</ele><time>2026-04-12T04:09:50.959Z</time></trkpt><trkpt lat="43.9247259" lon="11.1848289"><ele>301.75</ele><time>2026-04-12T04:09:51.964Z</time></trkpt><trkpt lat="43.9247879" lon="11.1846503"><ele>300.0</ele><time>2026-04-12T04:09:52.971Z</time></trkpt><trkpt lat="43.9248577" lon="11.1844872"><ele>300.0</ele><time>2026-04-12T04:09:53.961Z</time></trkpt><trkpt lat="43.9249318" lon="11.1843385"><ele>300.0</ele><time>2026-04-12T04:09:54.968Z</time></trkpt><trkpt lat="43.9249928" lon="11.184197"><ele>300.0</ele><time>2026-04-12T04:09:55.971Z</time></trkpt><trkpt lat="43.9250314" lon="11.1840812"><ele>300.0</ele><time>2026-04-12T04:09:56.958Z</time></trkpt><trkpt lat="43.9250552" lon="11.1839972"><ele>300.0</ele><time>2026-04-12T04:09:57.956Z</time></trkpt><trkpt lat="43.925114" lon="11.1838984"><ele>302.8333333333333</ele><time>2026-04-12T04:09:59.969Z</time></trkpt><trkpt lat="43.9251964" lon="11.183826"><ele>305.6666666666667</ele><time>2026-04-12T04:10:01.969Z</time></trkpt><trkpt lat="43.925257" lon="11.1837963"><ele>308.5</ele><time>2026-04-12T04:10:02.961Z</time></trkpt><trkpt lat="43.9253263" lon="11.1837483"><ele>311.33333333333337</ele><time>2026-04-12T04:10:03.971Z</time></trkpt><trkpt lat="43.9254019" lon="11.1836826"><ele>314.1666666666667</ele><time>2026-04-12T04:10:04.95Z</time></trkpt><trkpt lat="43.9254608" lon="11.1835846"><ele>317.0</ele><time>2026-04-12T04:10:05.972Z</time></trkpt><trkpt lat="43.9255193" lon="11.1835018"><ele>317.0</ele><time>2026-04-12T04:10:06.967Z</time></trkpt><trkpt lat="43.9255843" lon="11.183415"><ele>317.0</ele><time>2026-04-12T04:10:07.949Z</time></trkpt><trkpt lat="43.9256463" lon="11.1833311"><ele>317.0</ele><time>2026-04-12T04:10:08.965Z</time></trkpt><trkpt lat="43.9257098" lon="11.1832441"><ele>317.0</ele><time>2026-04-12T04:10:09.956Z</time></trkpt><trkpt lat="43.925758" lon="11.1831531"><ele>317.0</ele><time>2026-04-12T04:10:10.955Z</time></trkpt><trkpt lat="43.9257799" lon="11.1830449"><ele>317.0</ele><time>2026-04-12T04:10:11.962Z</time></trkpt><trkpt lat="43.9257867" lon="11.1829254"><ele>318.4</ele><time>2026-04-12T04:10:12.965Z</time></trkpt><trkpt lat="43.9257902" lon="11.1828096"><ele>319.79999999999995</ele><time>2026-04-12T04:10:13.966Z</time></trkpt><trkpt lat="43.9258112" lon="11.1826846"><ele>321.2</ele><time>2026-04-12T04:10:14.974Z</time></trkpt><trkpt lat="43.9258412" lon="11.1825488"><ele>322.59999999999997</ele><time>2026-04-12T04:10:15.97Z</time></trkpt><trkpt lat="43.9258739" lon="11.1824046"><ele>324.0</ele><time>2026-04-12T04:10:16.962Z</time></trkpt><trkpt lat="43.9258955" lon="11.1822597"><ele>327.0</ele><time>2026-04-12T04:10:17.978Z</time></trkpt><trkpt lat="43.9259287" lon="11.1821296"><ele>330.0</ele><time>2026-04-12T04:10:18.97Z</time></trkpt><trkpt lat="43.9259736" lon="11.1820287"><ele>333.0</ele><time>2026-04-12T04:10:19.968Z</time></trkpt><trkpt lat="43.9260484" lon="11.1819541"><ele>336.0</ele><time>2026-04-12T04:10:20.967Z</time></trkpt><trkpt lat="43.926132" lon="11.1818989"><ele>339.0</ele><time>2026-04-12T04:10:21.967Z</time></trkpt><trkpt lat="43.9262147" lon="11.1818576"><ele>339.0</ele><time>2026-04-12T04:10:22.96Z</time></trkpt><trkpt lat="43.9262902" lon="11.1818114"><ele>339.0</ele><time>2026-04-12T04:10:23.972Z</time></trkpt><trkpt lat="43.9263691" lon="11.1817607"><ele>339.0</ele><time>2026-04-12T04:10:24.972Z</time></trkpt><trkpt lat="43.9264316" lon="11.1816642"><ele>339.0</ele><time>2026-04-12T04:10:25.953Z</time></trkpt><trkpt lat="43.9264796" lon="11.1815578"><ele>339.0</ele><time>2026-04-12T04:10:26.964Z</time></trkpt><trkpt lat="43.9265325" lon="11.1814343"><ele>338.5</ele><time>2026-04-12T04:10:27.965Z</time></trkpt><trkpt lat="43.9265966" lon="11.1813204"><ele>338.0</ele><time>2026-04-12T04:10:28.95Z</time></trkpt><trkpt lat="43.9266698" lon="11.1812319"><ele>337.5</ele><time>2026-04-12T04:10:29.971Z</time></trkpt><trkpt lat="43.9267348" lon="11.1811409"><ele>337.0</ele><time>2026-04-12T04:10:30.963Z</time></trkpt><trkpt lat="43.9267891" lon="11.1810663"><ele>336.5</ele><time>2026-04-12T04:10:31.952Z</time></trkpt><trkpt lat="43.9268506" lon="11.1810173"><ele>336.0</ele><time>2026-04-12T04:10:33.014Z</time></trkpt><trkpt lat="43.9269242" lon="11.1809873"><ele>340.0</ele><time>2026-04-12T04:10:33.966Z</time></trkpt><trkpt lat="43.9270199" lon="11.1809972"><ele>344.0</ele><time>2026-04-12T04:10:34.959Z</time></trkpt><trkpt lat="43.9271096" lon="11.181034"><ele>348.0</ele><time>2026-04-12T04:10:35.948Z</time></trkpt><trkpt lat="43.9272231" lon="11.1810785"><ele>352.0</ele><time>2026-04-12T04:10:36.943Z</time></trkpt><trkpt lat="43.927313" lon="11.1811086"><ele>356.0</ele><time>2026-04-12T04:10:38.018Z</time></trkpt><trkpt lat="43.9273944" lon="11.1811"><ele>355.99999999999994</ele><time>2026-04-12T04:10:38.965Z</time></trkpt><trkpt lat="43.9274629" lon="11.1810544"><ele>356.0</ele><time>2026-04-12T04:10:39.968Z</time></trkpt><trkpt lat="43.9275194" lon="11.1809781"><ele>356.0</ele><time>2026-04-12T04:10:40.952Z</time></trkpt><trkpt lat="43.9275586" lon="11.1808935"><ele>356.0</ele><time>2026-04-12T04:10:41.969Z</time></trkpt><trkpt lat="43.9276018" lon="11.1808056"><ele>356.0</ele><time>2026-04-12T04:10:42.966Z</time></trkpt><trkpt lat="43.9276342" lon="11.1807204"><ele>355.99999999999994</ele><time>2026-04-12T04:10:43.962Z</time></trkpt><trkpt lat="43.9276628" lon="11.1806253"><ele>356.0</ele><time>2026-04-12T04:10:44.991Z</time></trkpt><trkpt lat="43.9276901" lon="11.1805424"><ele>362.6</ele><time>2026-04-12T04:10:46.025Z</time></trkpt><trkpt lat="43.9277104" lon="11.180454"><ele>369.20000000000005</ele><time>2026-04-12T04:10:47.029Z</time></trkpt><trkpt lat="43.9277514" lon="11.180291"><ele>375.79999999999995</ele><time>2026-04-12T04:10:48.946Z</time></trkpt><trkpt lat="43.9277875" lon="11.1801234"><ele>382.4</ele><time>2026-04-12T04:10:50.962Z</time></trkpt><trkpt lat="43.9278053" lon="11.1800328"><ele>389.0</ele><time>2026-04-12T04:10:51.964Z</time></trkpt><trkpt lat="43.9278195" lon="11.1799426"><ele>388.99999999999994</ele><time>2026-04-12T04:10:52.961Z</time></trkpt><trkpt lat="43.9278294" lon="11.179855"><ele>389.0</ele><time>2026-04-12T04:10:53.969Z</time></trkpt><trkpt lat="43.9278907" lon="11.1797073"><ele>389.0</ele><time>2026-04-12T04:10:55.983Z</time></trkpt><trkpt lat="43.9279904" lon="11.1796448"><ele>389.0</ele><time>2026-04-12T04:10:57.958Z</time></trkpt><trkpt lat="43.9280328" lon="11.1797156"><ele>388.99999999999994</ele><time>2026-04-12T04:10:58.964Z</time></trkpt><trkpt lat="43.9280475" lon="11.1798123"><ele>389.0</ele><time>2026-04-12T04:10:59.969Z</time></trkpt><trkpt lat="43.9280669" lon="11.1798989"><ele>388.99999999999994</ele><time>2026-04-12T04:11:00.965Z</time></trkpt><trkpt lat="43.9280743" lon="11.1800145"><ele>389.0</ele><time>2026-04-12T04:11:01.957Z</time></trkpt><trkpt lat="43.9280744" lon="11.1801308"><ele>389.0</ele><time>2026-04-12T04:11:03.013Z</time></trkpt><trkpt lat="43.9280959" lon="11.180238"><ele>389.0</ele><time>2026-04-12T04:11:03.957Z</time></trkpt><trkpt lat="43.928137" lon="11.1803583"><ele>388.99999999999994</ele><time>2026-04-12T04:11:04.962Z</time></trkpt><trkpt lat="43.9281808" lon="11.1804874"><ele>389.0</ele><time>2026-04-12T04:11:05.969Z</time></trkpt><trkpt lat="43.9282243" lon="11.180619"><ele>388.79999999999995</ele><time>2026-04-12T04:11:06.965Z</time></trkpt><trkpt lat="43.928261" lon="11.1807614"><ele>388.59999999999997</ele><time>2026-04-12T04:11:07.962Z</time></trkpt><trkpt lat="43.9282938" lon="11.1809038"><ele>388.4</ele><time>2026-04-12T04:11:08.967Z</time></trkpt><trkpt lat="43.9283119" lon="11.1810485"><ele>388.2</ele><time>2026-04-12T04:11:09.968Z</time></trkpt><trkpt lat="43.9283348" lon="11.1811769"><ele>388.0</ele><time>2026-04-12T04:11:11.049Z</time></trkpt><trkpt lat="43.9283635" lon="11.1812893"><ele>393.0</ele><time>2026-04-12T04:11:11.957Z</time></trkpt><trkpt lat="43.9284562" lon="11.1813977"><ele>398.0</ele><time>2026-04-12T04:11:13.954Z</time></trkpt><trkpt lat="43.9285784" lon="11.1814126"><ele>403.0</ele><time>2026-04-12T04:11:15.958Z</time></trkpt><trkpt lat="43.9286517" lon="11.1813881"><ele>408.0</ele><time>2026-04-12T04:11:16.967Z</time></trkpt><trkpt lat="43.9287421" lon="11.1813669"><ele>413.0</ele><time>2026-04-12T04:11:17.969Z</time></trkpt><trkpt lat="43.928847" lon="11.181347"><ele>412.99999999999994</ele><time>2026-04-12T04:11:18.962Z</time></trkpt><trkpt lat="43.9289298" lon="11.1813287"><ele>413.0</ele><time>2026-04-12T04:11:20.017Z</time></trkpt><trkpt lat="43.9290125" lon="11.1812681"><ele>413.0</ele><time>2026-04-12T04:11:21.018Z</time></trkpt><trkpt lat="43.9290931" lon="11.1812048"><ele>413.0</ele><time>2026-04-12T04:11:22.024Z</time></trkpt><trkpt lat="43.9291638" lon="11.1811195"><ele>412.99999999999994</ele><time>2026-04-12T04:11:22.964Z</time></trkpt><trkpt lat="43.9292107" lon="11.1810384"><ele>413.0</ele><time>2026-04-12T04:11:23.964Z</time></trkpt><trkpt lat="43.9292492" lon="11.1809664"><ele>415.2</ele><time>2026-04-12T04:11:24.974Z</time></trkpt><trkpt lat="43.9292556" lon="11.1808168"><ele>417.4</ele><time>2026-04-12T04:11:26.972Z</time></trkpt><trkpt lat="43.9292235" lon="11.1806399"><ele>419.59999999999997</ele><time>2026-04-12T04:11:28.959Z</time></trkpt><trkpt lat="43.9292099" lon="11.1805472"><ele>421.79999999999995</ele><time>2026-04-12T04:11:29.968Z</time></trkpt><trkpt lat="43.9291991" lon="11.1804553"><ele>424.0</ele><time>2026-04-12T04:11:30.969Z</time></trkpt><trkpt lat="43.9291897" lon="11.1803434"><ele>427.33333333333337</ele><time>2026-04-12T04:11:32.964Z</time></trkpt><trkpt lat="43.9292578" lon="11.1803091"><ele>430.6666666666667</ele><time>2026-04-12T04:11:35.964Z</time></trkpt><trkpt lat="43.9293434" lon="11.1803776"><ele>434.0</ele><time>2026-04-12T04:11:37.969Z</time></trkpt><trkpt lat="43.9293939" lon="11.1804553"><ele>437.33333333333337</ele><time>2026-04-12T04:11:38.969Z</time></trkpt><trkpt lat="43.9294438" lon="11.1805327"><ele>440.6666666666667</ele><time>2026-04-12T04:11:39.966Z</time></trkpt><trkpt lat="43.9295228" lon="11.1806589"><ele>444.0</ele><time>2026-04-12T04:11:41.969Z</time></trkpt><trkpt lat="43.9295655" lon="11.1808139"><ele>444.0</ele><time>2026-04-12T04:11:43.976Z</time></trkpt><trkpt lat="43.9296417" lon="11.1809581"><ele>444.0</ele><time>2026-04-12T04:11:46.029Z</time></trkpt><trkpt lat="43.9296771" lon="11.181035"><ele>444.0</ele><time>2026-04-12T04:11:47.03Z</time></trkpt><trkpt lat="43.9297131" lon="11.1811185"><ele>444.0</ele><time>2026-04-12T04:11:48.036Z</time></trkpt><trkpt lat="43.9297436" lon="11.1812101"><ele>444.0</ele><time>2026-04-12T04:11:48.975Z</time></trkpt><trkpt lat="43.9297931" lon="11.1813644"><ele>442.6666666666667</ele><time>2026-04-12T04:11:50.992Z</time></trkpt><trkpt lat="43.9298303" lon="11.1815255"><ele>441.33333333333337</ele><time>2026-04-12T04:11:52.98Z</time></trkpt><trkpt lat="43.9298362" lon="11.1816832"><ele>440.0</ele><time>2026-04-12T04:11:54.986Z</time></trkpt><trkpt lat="43.929846" lon="11.1817862"><ele>438.6666666666667</ele><time>2026-04-12T04:11:56.961Z</time></trkpt><trkpt lat="43.9298667" lon="11.1818704"><ele>437.33333333333337</ele><time>2026-04-12T04:11:58.973Z</time></trkpt><trkpt lat="43.9298788" lon="11.181963"><ele>436.0</ele><time>2026-04-12T04:12:00.972Z</time></trkpt><trkpt lat="43.9298642" lon="11.1820598"><ele>436.00000000000006</ele><time>2026-04-12T04:12:02.96Z</time></trkpt><trkpt lat="43.9298799" lon="11.1822246"><ele>436.0</ele><time>2026-04-12T04:12:04.97Z</time></trkpt><trkpt lat="43.9298663" lon="11.1823144"><ele>436.0</ele><time>2026-04-12T04:12:06.032Z</time></trkpt><trkpt lat="43.9298444" lon="11.1824069"><ele>436.0</ele><time>2026-04-12T04:12:07.024Z</time></trkpt><trkpt lat="43.9298117" lon="11.1825124"><ele>436.00000000000006</ele><time>2026-04-12T04:12:08.02Z</time></trkpt><trkpt lat="43.92978" lon="11.182607"><ele>436.0</ele><time>2026-04-12T04:12:08.96Z</time></trkpt><trkpt lat="43.9297471" lon="11.1826945"><ele>436.50000000000006</ele><time>2026-04-12T04:12:09.964Z</time></trkpt><trkpt lat="43.9297115" lon="11.1827791"><ele>437.0</ele><time>2026-04-12T04:12:10.991Z</time></trkpt><trkpt lat="43.9296691" lon="11.1828625"><ele>437.5</ele><time>2026-04-12T04:12:11.952Z</time></trkpt><trkpt lat="43.9296266" lon="11.1829394"><ele>438.0</ele><time>2026-04-12T04:12:12.959Z</time></trkpt><trkpt lat="43.9295927" lon="11.1830148"><ele>438.50000000000006</ele><time>2026-04-12T04:12:13.959Z</time></trkpt><trkpt lat="43.929542" lon="11.1831331"><ele>439.0</ele><time>2026-04-12T04:12:15.956Z</time></trkpt><trkpt lat="43.9295072" lon="11.1832242"><ele>440.2</ele><time>2026-04-12T04:12:17.963Z</time></trkpt><trkpt lat="43.9294813" lon="11.1833196"><ele>441.4</ele><time>2026-04-12T04:12:19.951Z</time></trkpt><trkpt lat="43.9294658" lon="11.183456"><ele>442.6</ele><time>2026-04-12T04:12:21.957Z</time></trkpt><trkpt lat="43.9294524" lon="11.1836436"><ele>443.8</ele><time>2026-04-12T04:12:23.965Z</time></trkpt><trkpt lat="43.9294321" lon="11.1837276"><ele>445.0</ele><time>2026-04-12T04:12:24.964Z</time></trkpt><trkpt lat="43.9294109" lon="11.1838586"><ele>445.0</ele><time>2026-04-12T04:12:26.962Z</time></trkpt><trkpt lat="43.9294014" lon="11.1839547"><ele>445.0</ele><time>2026-04-12T04:12:28.954Z</time></trkpt><trkpt lat="43.9293734" lon="11.1840335"><ele>445.0</ele><time>2026-04-12T04:12:31.959Z</time></trkpt><trkpt lat="43.9293514" lon="11.1841209"><ele>445.0</ele><time>2026-04-12T04:12:34.956Z</time></trkpt><trkpt lat="43.929338" lon="11.1842311"><ele>445.0</ele><time>2026-04-12T04:12:37.954Z</time></trkpt><trkpt lat="43.9293348" lon="11.1843465"><ele>445.0</ele><time>2026-04-12T04:12:39.968Z</time></trkpt><trkpt lat="43.9293462" lon="11.1844455"><ele>445.0</ele><time>2026-04-12T04:12:41.964Z</time></trkpt><trkpt lat="43.9293603" lon="11.1845526"><ele>446.00000000000006</ele><time>2026-04-12T04:12:43.964Z</time></trkpt><trkpt lat="43.9293793" lon="11.1846423"><ele>447.0</ele><time>2026-04-12T04:12:45.961Z</time></trkpt><trkpt lat="43.9294145" lon="11.1847612"><ele>448.0</ele><time>2026-04-12T04:12:48.965Z</time></trkpt><trkpt lat="43.9294645" lon="11.1848476"><ele>449.0</ele><time>2026-04-12T04:12:51.964Z</time></trkpt><trkpt lat="43.9295171" lon="11.1849159"><ele>450.00000000000006</ele><time>2026-04-12T04:12:53.971Z</time></trkpt><trkpt lat="43.9295717" lon="11.1850082"><ele>451.0</ele><time>2026-04-12T04:12:55.944Z</time></trkpt><trkpt lat="43.9296284" lon="11.1850716"><ele>450.83333333333337</ele><time>2026-04-12T04:12:58.052Z</time></trkpt><trkpt lat="43.9296825" lon="11.1851701"><ele>450.6666666666667</ele><time>2026-04-12T04:13:01.963Z</time></trkpt><trkpt lat="43.9297215" lon="11.1852661"><ele>450.5</ele><time>2026-04-12T04:13:03.972Z</time></trkpt><trkpt lat="43.9297595" lon="11.1854029"><ele>450.33333333333337</ele><time>2026-04-12T04:13:06.019Z</time></trkpt><trkpt lat="43.9297726" lon="11.1855234"><ele>450.1666666666667</ele><time>2026-04-12T04:13:08.034Z</time></trkpt><trkpt lat="43.9297675" lon="11.1856252"><ele>450.0</ele><time>2026-04-12T04:13:09.975Z</time></trkpt><trkpt lat="43.9297522" lon="11.1857262"><ele>450.0</ele><time>2026-04-12T04:13:11.966Z</time></trkpt><trkpt lat="43.9297293" lon="11.1858448"><ele>450.0</ele><time>2026-04-12T04:13:13.957Z</time></trkpt><trkpt lat="43.929727" lon="11.1859478"><ele>450.0</ele><time>2026-04-12T04:13:15.969Z</time></trkpt><trkpt lat="43.9297288" lon="11.1860713"><ele>450.0</ele><time>2026-04-12T04:13:18.028Z</time></trkpt><trkpt lat="43.9297527" lon="11.1861937"><ele>450.0</ele><time>2026-04-12T04:13:19.966Z</time></trkpt><trkpt lat="43.9297846" lon="11.1862861"><ele>450.0</ele><time>2026-04-12T04:13:21.973Z</time></trkpt><trkpt lat="43.9298108" lon="11.1863978"><ele>449.6666666666667</ele><time>2026-04-12T04:13:23.955Z</time></trkpt><trkpt lat="43.9298205" lon="11.1865199"><ele>449.33333333333337</ele><time>2026-04-12T04:13:25.964Z</time></trkpt><trkpt lat="43.9298787" lon="11.186656"><ele>449.0</ele><time>2026-04-12T04:13:28.04Z</time></trkpt><trkpt lat="43.9299177" lon="11.1867368"><ele>448.6666666666667</ele><time>2026-04-12T04:13:28.964Z</time></trkpt><trkpt lat="43.9299608" lon="11.1868248"><ele>448.33333333333337</ele><time>2026-04-12T04:13:29.975Z</time></trkpt><trkpt lat="43.9299958" lon="11.1869082"><ele>448.0</ele><time>2026-04-12T04:13:30.963Z</time></trkpt><trkpt lat="43.9300227" lon="11.1869985"><ele>448.0</ele><time>2026-04-12T04:13:31.97Z</time></trkpt><trkpt lat="43.930044" lon="11.1870834"><ele>448.0</ele><time>2026-04-12T04:13:32.97Z</time></trkpt><trkpt lat="43.9300514" lon="11.187178"><ele>448.0</ele><time>2026-04-12T04:13:33.969Z</time></trkpt><trkpt lat="43.9300462" lon="11.1872734"><ele>448.0</ele><time>2026-04-12T04:13:34.972Z</time></trkpt><trkpt lat="43.9300237" lon="11.1873617"><ele>448.0</ele><time>2026-04-12T04:13:35.983Z</time></trkpt><trkpt lat="43.9299924" lon="11.1874467"><ele>448.0</ele><time>2026-04-12T04:13:36.968Z</time></trkpt><trkpt lat="43.9299665" lon="11.1875303"><ele>448.0</ele><time>2026-04-12T04:13:37.966Z</time></trkpt><trkpt lat="43.9299458" lon="11.1876546"><ele>449.2</ele><time>2026-04-12T04:13:39.969Z</time></trkpt><trkpt lat="43.9299942" lon="11.1877602"><ele>450.4</ele><time>2026-04-12T04:13:41.962Z</time></trkpt><trkpt lat="43.9300883" lon="11.1878072"><ele>451.59999999999997</ele><time>2026-04-12T04:13:43.957Z</time></trkpt><trkpt lat="43.9302164" lon="11.1878483"><ele>452.79999999999995</ele><time>2026-04-12T04:13:45.972Z</time></trkpt><trkpt lat="43.930291" lon="11.1878758"><ele>454.0</ele><time>2026-04-12T04:13:46.964Z</time></trkpt><trkpt lat="43.9303626" lon="11.1879042"><ele>454.00000000000006</ele><time>2026-04-12T04:13:48.026Z</time></trkpt><trkpt lat="43.9304369" lon="11.1879434"><ele>454.0</ele><time>2026-04-12T04:13:48.97Z</time></trkpt><trkpt lat="43.9305146" lon="11.1879958"><ele>454.0</ele><time>2026-04-12T04:13:49.969Z</time></trkpt><trkpt lat="43.9305894" lon="11.188054"><ele>454.0</ele><time>2026-04-12T04:13:50.99Z</time></trkpt><trkpt lat="43.9306674" lon="11.188119"><ele>454.00000000000006</ele><time>2026-04-12T04:13:52.023Z</time></trkpt><trkpt lat="43.9307438" lon="11.1881922"><ele>454.0</ele><time>2026-04-12T04:13:53.028Z</time></trkpt><trkpt lat="43.9308175" lon="11.1882597"><ele>454.8571428571429</ele><time>2026-04-12T04:13:53.964Z</time></trkpt><trkpt lat="43.9308816" lon="11.1883228"><ele>455.7142857142858</ele><time>2026-04-12T04:13:54.97Z</time></trkpt><trkpt lat="43.9309456" lon="11.1883669"><ele>456.57142857142856</ele><time>2026-04-12T04:13:55.955Z</time></trkpt><trkpt lat="43.9310088" lon="11.1884101"><ele>457.42857142857144</ele><time>2026-04-12T04:13:57.029Z</time></trkpt><trkpt lat="43.931077" lon="11.1884396"><ele>458.2857142857143</ele><time>2026-04-12T04:13:58.039Z</time></trkpt><trkpt lat="43.9311441" lon="11.188479"><ele>459.1428571428571</ele><time>2026-04-12T04:13:58.975Z</time></trkpt><trkpt lat="43.931203" lon="11.1885255"><ele>459.99999999999994</ele><time>2026-04-12T04:13:59.972Z</time></trkpt><trkpt lat="43.9312542" lon="11.1885863"><ele>460.00000000000006</ele><time>2026-04-12T04:14:00.988Z</time></trkpt><trkpt lat="43.9313106" lon="11.1886453"><ele>460.0</ele><time>2026-04-12T04:14:02.022Z</time></trkpt><trkpt lat="43.9313618" lon="11.1886965"><ele>460.0</ele><time>2026-04-12T04:14:02.975Z</time></trkpt><trkpt lat="43.9314461" lon="11.1887665"><ele>460.0</ele><time>2026-04-12T04:14:04.968Z</time></trkpt><trkpt lat="43.9315354" lon="11.1888433"><ele>460.00000000000006</ele><time>2026-04-12T04:14:06.965Z</time></trkpt><trkpt lat="43.931607" lon="11.1889568"><ele>460.0</ele><time>2026-04-12T04:14:08.969Z</time></trkpt><trkpt lat="43.9316777" lon="11.1890599"><ele>460.8</ele><time>2026-04-12T04:14:10.974Z</time></trkpt><trkpt lat="43.9317844" lon="11.1891295"><ele>461.6</ele><time>2026-04-12T04:14:12.977Z</time></trkpt><trkpt lat="43.9318929" lon="11.1891491"><ele>462.4</ele><time>2026-04-12T04:14:14.98Z</time></trkpt><trkpt lat="43.9319867" lon="11.1891309"><ele>463.2</ele><time>2026-04-12T04:14:17.016Z</time></trkpt><trkpt lat="43.9320812" lon="11.1890893"><ele>464.0</ele><time>2026-04-12T04:14:18.968Z</time></trkpt><trkpt lat="43.9321807" lon="11.1890338"><ele>465.79999999999995</ele><time>2026-04-12T04:14:20.965Z</time></trkpt><trkpt lat="43.932282" lon="11.188964"><ele>467.59999999999997</ele><time>2026-04-12T04:14:22.973Z</time></trkpt><trkpt lat="43.9323689" lon="11.1889149"><ele>469.4</ele><time>2026-04-12T04:14:24.975Z</time></trkpt><trkpt lat="43.9324457" lon="11.1888775"><ele>471.2</ele><time>2026-04-12T04:14:27.966Z</time></trkpt><trkpt lat="43.9325142" lon="11.1888285"><ele>473.0</ele><time>2026-04-12T04:14:30.97Z</time></trkpt><trkpt lat="43.9325848" lon="11.1887512"><ele>472.99999999999994</ele><time>2026-04-12T04:14:33.975Z</time></trkpt><trkpt lat="43.9326366" lon="11.1886706"><ele>473.0</ele><time>2026-04-12T04:14:38.029Z</time></trkpt><trkpt lat="43.9326992" lon="11.1886043"><ele>473.0</ele><time>2026-04-12T04:14:42Z</time></trkpt><trkpt lat="43.9327756" lon="11.1885415"><ele>473.0</ele><time>2026-04-12T04:14:46.961Z</time></trkpt><trkpt lat="43.9328653" lon="11.1885594"><ele>472.99999999999994</ele><time>2026-04-12T04:14:49.965Z</time></trkpt><trkpt lat="43.9329473" lon="11.1885656"><ele>473.0</ele><time>2026-04-12T04:14:52.031Z</time></trkpt><trkpt lat="43.9330272" lon="11.1885452"><ele>473.0</ele><time>2026-04-12T04:14:53.969Z</time></trkpt><trkpt lat="43.9331172" lon="11.1885223"><ele>473.0</ele><time>2026-04-12T04:14:55.966Z</time></trkpt><trkpt lat="43.9332231" lon="11.1885007"><ele>473.0</ele><time>2026-04-12T04:14:57.968Z</time></trkpt><trkpt lat="43.9333193" lon="11.1884938"><ele>473.0</ele><time>2026-04-12T04:14:59.967Z</time></trkpt><trkpt lat="43.9334878" lon="11.1884913"><ele>474.5</ele><time>2026-04-12T04:15:02.943Z</time></trkpt><trkpt lat="43.9335947" lon="11.1884423"><ele>476.0</ele><time>2026-04-12T04:15:03.963Z</time></trkpt><trkpt lat="43.9337139" lon="11.1884253"><ele>477.5</ele><time>2026-04-12T04:15:05.97Z</time></trkpt><trkpt lat="43.9338261" lon="11.1883804"><ele>479.0</ele><time>2026-04-12T04:15:07.968Z</time></trkpt><trkpt lat="43.9339624" lon="11.1883352"><ele>479.0</ele><time>2026-04-12T04:15:09.966Z</time></trkpt><trkpt lat="43.9340574" lon="11.1882937"><ele>479.0</ele><time>2026-04-12T04:15:11.028Z</time></trkpt><trkpt lat="43.9341443" lon="11.1882915"><ele>479.0</ele><time>2026-04-12T04:15:13.027Z</time></trkpt><trkpt lat="43.9342468" lon="11.1883057"><ele>479.0</ele><time>2026-04-12T04:15:14.973Z</time></trkpt><trkpt lat="43.9343493" lon="11.1882884"><ele>479.0</ele><time>2026-04-12T04:15:16.972Z</time></trkpt><trkpt lat="43.9344707" lon="11.1882896"><ele>481.0</ele><time>2026-04-12T04:15:18.976Z</time></trkpt><trkpt lat="43.9345887" lon="11.1882788"><ele>483.0</ele><time>2026-04-12T04:15:19.985Z</time></trkpt><trkpt lat="43.9346801" lon="11.188275"><ele>485.0</ele><time>2026-04-12T04:15:20.965Z</time></trkpt><trkpt lat="43.9347808" lon="11.1882718"><ele>487.0</ele><time>2026-04-12T04:15:22.037Z</time></trkpt><trkpt lat="43.9348878" lon="11.1882742"><ele>489.0</ele><time>2026-04-12T04:15:23.948Z</time></trkpt><trkpt lat="43.9349825" lon="11.1883046"><ele>490.2</ele><time>2026-04-12T04:15:25.962Z</time></trkpt><trkpt lat="43.9350875" lon="11.1882985"><ele>491.4</ele><time>2026-04-12T04:15:27.963Z</time></trkpt><trkpt lat="43.9351916" lon="11.1882405"><ele>492.6</ele><time>2026-04-12T04:15:29.955Z</time></trkpt><trkpt lat="43.9352893" lon="11.1881673"><ele>493.8</ele><time>2026-04-12T04:15:31.959Z</time></trkpt><trkpt lat="43.9353672" lon="11.18805"><ele>495.0</ele><time>2026-04-12T04:15:33.978Z</time></trkpt><trkpt lat="43.9354013" lon="11.1879409"><ele>497.0</ele><time>2026-04-12T04:15:36.98Z</time></trkpt><trkpt lat="43.9354623" lon="11.18787"><ele>499.0</ele><time>2026-04-12T04:15:39.97Z</time></trkpt><trkpt lat="43.9355172" lon="11.1878134"><ele>501.0</ele><time>2026-04-12T04:15:42.966Z</time></trkpt><trkpt lat="43.935594" lon="11.1877774"><ele>503.0</ele><time>2026-04-12T04:15:45.978Z</time></trkpt><trkpt lat="43.9356636" lon="11.1877371"><ele>505.0</ele><time>2026-04-12T04:15:48.977Z</time></trkpt><trkpt lat="43.9356623" lon="11.1876429"><ele>507.0</ele><time>2026-04-12T04:15:54.972Z</time></trkpt><trkpt lat="43.935593" lon="11.1875886"><ele>507.0</ele><time>2026-04-12T04:15:57.982Z</time></trkpt><trkpt lat="43.9355502" lon="11.1874635"><ele>507.00000000000006</ele><time>2026-04-12T04:16:01.967Z</time></trkpt><trkpt lat="43.9355298" lon="11.1873438"><ele>507.00000000000006</ele><time>2026-04-12T04:16:03.967Z</time></trkpt><trkpt lat="43.9354886" lon="11.1872423"><ele>507.0</ele><time>2026-04-12T04:16:05.971Z</time></trkpt><trkpt lat="43.9354115" lon="11.1871397"><ele>507.0</ele><time>2026-04-12T04:16:07.977Z</time></trkpt><trkpt lat="43.9353571" lon="11.1870687"><ele>508.1666666666667</ele><time>2026-04-12T04:16:08.982Z</time></trkpt><trkpt lat="43.9353025" lon="11.1870092"><ele>509.33333333333337</ele><time>2026-04-12T04:16:09.977Z</time></trkpt><trkpt lat="43.9352362" lon="11.186957"><ele>510.5</ele><time>2026-04-12T04:16:10.98Z</time></trkpt><trkpt lat="43.9351648" lon="11.1868985"><ele>511.6666666666667</ele><time>2026-04-12T04:16:11.977Z</time></trkpt><trkpt lat="43.9350978" lon="11.186839"><ele>512.8333333333334</ele><time>2026-04-12T04:16:12.98Z</time></trkpt><trkpt lat="43.9350299" lon="11.186782"><ele>514.0</ele><time>2026-04-12T04:16:13.951Z</time></trkpt><trkpt lat="43.9349641" lon="11.1867207"><ele>514.0</ele><time>2026-04-12T04:16:14.981Z</time></trkpt><trkpt lat="43.9348953" lon="11.1866544"><ele>514.0</ele><time>2026-04-12T04:16:15.969Z</time></trkpt><trkpt lat="43.9348207" lon="11.1865785"><ele>514.0</ele><time>2026-04-12T04:16:16.99Z</time></trkpt><trkpt lat="43.9347588" lon="11.1865062"><ele>514.0</ele><time>2026-04-12T04:16:17.975Z</time></trkpt><trkpt lat="43.9346936" lon="11.1864252"><ele>514.0</ele><time>2026-04-12T04:16:18.96Z</time></trkpt><trkpt lat="43.934631" lon="11.1863223"><ele>514.0</ele><time>2026-04-12T04:16:20.03Z</time></trkpt><trkpt lat="43.9345727" lon="11.1862273"><ele>515.1666666666667</ele><time>2026-04-12T04:16:20.965Z</time></trkpt><trkpt lat="43.9345118" lon="11.1861424"><ele>516.3333333333334</ele><time>2026-04-12T04:16:22.049Z</time></trkpt><trkpt lat="43.9344721" lon="11.1860526"><ele>517.5</ele><time>2026-04-12T04:16:22.965Z</time></trkpt><trkpt lat="43.9344468" lon="11.1859556"><ele>518.6666666666666</ele><time>2026-04-12T04:16:23.968Z</time></trkpt><trkpt lat="43.9344257" lon="11.185868"><ele>519.8333333333333</ele><time>2026-04-12T04:16:24.973Z</time></trkpt><trkpt lat="43.9343667" lon="11.1857385"><ele>521.0</ele><time>2026-04-12T04:16:26.974Z</time></trkpt><trkpt lat="43.9342915" lon="11.1856119"><ele>523.4</ele><time>2026-04-12T04:16:28.966Z</time></trkpt><trkpt lat="43.9342027" lon="11.1855102"><ele>525.8</ele><time>2026-04-12T04:16:30.978Z</time></trkpt><trkpt lat="43.9341126" lon="11.1854111"><ele>528.1999999999999</ele><time>2026-04-12T04:16:32.953Z</time></trkpt><trkpt lat="43.9340536" lon="11.1853675"><ele>530.6</ele><time>2026-04-12T04:16:33.959Z</time></trkpt><trkpt lat="43.9339931" lon="11.1852989"><ele>533.0</ele><time>2026-04-12T04:16:34.946Z</time></trkpt><trkpt lat="43.9339289" lon="11.1852265"><ele>533.0</ele><time>2026-04-12T04:16:35.984Z</time></trkpt><trkpt lat="43.9338689" lon="11.185151"><ele>533.0</ele><time>2026-04-12T04:16:36.954Z</time></trkpt><trkpt lat="43.9338176" lon="11.1850837"><ele>533.0</ele><time>2026-04-12T04:16:37.958Z</time></trkpt><trkpt lat="43.9337343" lon="11.1849646"><ele>533.0</ele><time>2026-04-12T04:16:39.957Z</time></trkpt><trkpt lat="43.9336322" lon="11.1848778"><ele>533.0</ele><time>2026-04-12T04:16:41.965Z</time></trkpt><trkpt lat="43.9335833" lon="11.1848181"><ele>535.1428571428571</ele><time>2026-04-12T04:16:42.97Z</time></trkpt><trkpt lat="43.9335268" lon="11.1847794"><ele>537.2857142857142</ele><time>2026-04-12T04:16:43.957Z</time></trkpt><trkpt lat="43.9334628" lon="11.1847427"><ele>539.4285714285714</ele><time>2026-04-12T04:16:45.014Z</time></trkpt><trkpt lat="43.9334016" lon="11.1847041"><ele>541.5714285714286</ele><time>2026-04-12T04:16:46.013Z</time></trkpt><trkpt lat="43.9333404" lon="11.1846549"><ele>543.7142857142858</ele><time>2026-04-12T04:16:47.009Z</time></trkpt><trkpt lat="43.9332727" lon="11.1845985"><ele>545.8571428571429</ele><time>2026-04-12T04:16:47.958Z</time></trkpt><trkpt lat="43.9331999" lon="11.1845409"><ele>548.0</ele><time>2026-04-12T04:16:48.957Z</time></trkpt><trkpt lat="43.933121" lon="11.1844932"><ele>548.0000000000001</ele><time>2026-04-12T04:16:49.952Z</time></trkpt><trkpt lat="43.9330456" lon="11.1844568"><ele>548.0</ele><time>2026-04-12T04:16:50.968Z</time></trkpt><trkpt lat="43.9329722" lon="11.1844188"><ele>548.0</ele><time>2026-04-12T04:16:51.959Z</time></trkpt><trkpt lat="43.9328995" lon="11.1843799"><ele>548.0</ele><time>2026-04-12T04:16:52.976Z</time></trkpt><trkpt lat="43.9328466" lon="11.1843266"><ele>548.0</ele><time>2026-04-12T04:16:53.955Z</time></trkpt><trkpt lat="43.9328" lon="11.1842499"><ele>548.0000000000001</ele><time>2026-04-12T04:16:54.96Z</time></trkpt><trkpt lat="43.9327758" lon="11.1841567"><ele>548.0</ele><time>2026-04-12T04:16:55.962Z</time></trkpt><trkpt lat="43.9327497" lon="11.1840575"><ele>551.8333333333333</ele><time>2026-04-12T04:16:56.962Z</time></trkpt><trkpt lat="43.9327396" lon="11.1839696"><ele>555.6666666666666</ele><time>2026-04-12T04:16:57.959Z</time></trkpt><trkpt lat="43.9327326" lon="11.1838826"><ele>559.5</ele><time>2026-04-12T04:16:58.96Z</time></trkpt><trkpt lat="43.9327442" lon="11.1837131"><ele>563.3333333333334</ele><time>2026-04-12T04:17:00.954Z</time></trkpt><trkpt lat="43.9327359" lon="11.1836225"><ele>567.1666666666667</ele><time>2026-04-12T04:17:02.039Z</time></trkpt><trkpt lat="43.9327158" lon="11.183522"><ele>571.0</ele><time>2026-04-12T04:17:03.026Z</time></trkpt><trkpt lat="43.9326971" lon="11.1834087"><ele>571.0</ele><time>2026-04-12T04:17:03.972Z</time></trkpt><trkpt lat="43.9326862" lon="11.1833039"><ele>571.0</ele><time>2026-04-12T04:17:04.963Z</time></trkpt><trkpt lat="43.9326836" lon="11.1831973"><ele>571.0</ele><time>2026-04-12T04:17:05.982Z</time></trkpt><trkpt lat="43.932683" lon="11.1830898"><ele>571.0</ele><time>2026-04-12T04:17:06.972Z</time></trkpt><trkpt lat="43.9326822" lon="11.1829797"><ele>571.0</ele><time>2026-04-12T04:17:07.969Z</time></trkpt><trkpt lat="43.9326801" lon="11.1828673"><ele>571.0</ele><time>2026-04-12T04:17:08.974Z</time></trkpt><trkpt lat="43.9326794" lon="11.1827584"><ele>572.3333333333334</ele><time>2026-04-12T04:17:09.968Z</time></trkpt><trkpt lat="43.932683" lon="11.1826553"><ele>573.6666666666667</ele><time>2026-04-12T04:17:11.029Z</time></trkpt><trkpt lat="43.932689" lon="11.1825499"><ele>575.0</ele><time>2026-04-12T04:17:12.034Z</time></trkpt><trkpt lat="43.9326859" lon="11.1824316"><ele>576.3333333333334</ele><time>2026-04-12T04:17:12.976Z</time></trkpt><trkpt lat="43.9326882" lon="11.1823212"><ele>577.6666666666666</ele><time>2026-04-12T04:17:13.972Z</time></trkpt><trkpt lat="43.9326903" lon="11.1822094"><ele>579.0</ele><time>2026-04-12T04:17:14.979Z</time></trkpt><trkpt lat="43.9326967" lon="11.1820955"><ele>580.0</ele><time>2026-04-12T04:17:15.977Z</time></trkpt><trkpt lat="43.9327002" lon="11.1819892"><ele>581.0</ele><time>2026-04-12T04:17:16.973Z</time></trkpt><trkpt lat="43.9327076" lon="11.181881"><ele>582.0</ele><time>2026-04-12T04:17:17.973Z</time></trkpt><trkpt lat="43.9327009" lon="11.1817653"><ele>583.0</ele><time>2026-04-12T04:17:18.971Z</time></trkpt><trkpt lat="43.9326896" lon="11.1816526"><ele>584.0</ele><time>2026-04-12T04:17:19.971Z</time></trkpt><trkpt lat="43.9326842" lon="11.1815474"><ele>585.0</ele><time>2026-04-12T04:17:20.995Z</time></trkpt><trkpt lat="43.932675" lon="11.1814309"><ele>585.3333333333334</ele><time>2026-04-12T04:17:22.031Z</time></trkpt><trkpt lat="43.9326746" lon="11.1813117"><ele>585.6666666666666</ele><time>2026-04-12T04:17:22.967Z</time></trkpt><trkpt lat="43.932667" lon="11.1812008"><ele>586.0</ele><time>2026-04-12T04:17:23.963Z</time></trkpt><trkpt lat="43.9326464" lon="11.1810863"><ele>586.3333333333333</ele><time>2026-04-12T04:17:24.975Z</time></trkpt><trkpt lat="43.93262" lon="11.1809626"><ele>586.6666666666666</ele><time>2026-04-12T04:17:25.962Z</time></trkpt><trkpt lat="43.9325863" lon="11.1808525"><ele>587.0</ele><time>2026-04-12T04:17:26.973Z</time></trkpt><trkpt lat="43.9325581" lon="11.1807593"><ele>581.5</ele><time>2026-04-12T04:17:28.047Z</time></trkpt><trkpt lat="43.9325247" lon="11.1806663"><ele>576.0</ele><time>2026-04-12T04:17:29.037Z</time></trkpt><trkpt lat="43.9324896" lon="11.1805763"><ele>570.5</ele><time>2026-04-12T04:17:30.028Z</time></trkpt><trkpt lat="43.9324522" lon="11.180482"><ele>565.0</ele><time>2026-04-12T04:17:30.957Z</time></trkpt><trkpt lat="43.9324226" lon="11.1803792"><ele>559.5</ele><time>2026-04-12T04:17:31.97Z</time></trkpt><trkpt lat="43.9323894" lon="11.1802683"><ele>554.0</ele><time>2026-04-12T04:17:32.952Z</time></trkpt><trkpt lat="43.9323636" lon="11.1801476"><ele>554.0</ele><time>2026-04-12T04:17:33.964Z</time></trkpt><trkpt lat="43.9323422" lon="11.1800224"><ele>554.0</ele><time>2026-04-12T04:17:34.97Z</time></trkpt><trkpt lat="43.932331" lon="11.17988"><ele>554.0</ele><time>2026-04-12T04:17:35.954Z</time></trkpt><trkpt lat="43.9323286" lon="11.1797652"><ele>554.0</ele><time>2026-04-12T04:17:37.03Z</time></trkpt><trkpt lat="43.9323231" lon="11.1796541"><ele>554.0</ele><time>2026-04-12T04:17:37.963Z</time></trkpt><trkpt lat="43.932319" lon="11.1795407"><ele>554.0</ele><time>2026-04-12T04:17:38.97Z</time></trkpt><trkpt lat="43.9323168" lon="11.1794279"><ele>554.1666666666666</ele><time>2026-04-12T04:17:39.971Z</time></trkpt><trkpt lat="43.9323195" lon="11.1792995"><ele>554.3333333333333</ele><time>2026-04-12T04:17:40.965Z</time></trkpt><trkpt lat="43.9323307" lon="11.1791923"><ele>554.5</ele><time>2026-04-12T04:17:42.032Z</time></trkpt><trkpt lat="43.9323413" lon="11.1790956"><ele>554.6666666666666</ele><time>2026-04-12T04:17:43.033Z</time></trkpt><trkpt lat="43.9323491" lon="11.1789995"><ele>554.8333333333334</ele><time>2026-04-12T04:17:43.943Z</time></trkpt><trkpt lat="43.9323707" lon="11.1789025"><ele>555.0</ele><time>2026-04-12T04:17:44.965Z</time></trkpt><trkpt lat="43.9324208" lon="11.178817"><ele>554.6</ele><time>2026-04-12T04:17:45.963Z</time></trkpt><trkpt lat="43.9324826" lon="11.1787313"><ele>554.2</ele><time>2026-04-12T04:17:46.961Z</time></trkpt><trkpt lat="43.9325338" lon="11.1786621"><ele>553.8</ele><time>2026-04-12T04:17:47.968Z</time></trkpt><trkpt lat="43.9326422" lon="11.1785493"><ele>553.4</ele><time>2026-04-12T04:17:49.96Z</time></trkpt><trkpt lat="43.9327117" lon="11.1785039"><ele>553.0</ele><time>2026-04-12T04:17:50.987Z</time></trkpt><trkpt lat="43.9327893" lon="11.1784554"><ele>553.0</ele><time>2026-04-12T04:17:51.943Z</time></trkpt><trkpt lat="43.9328633" lon="11.1783972"><ele>553.0</ele><time>2026-04-12T04:17:53.034Z</time></trkpt><trkpt lat="43.9329378" lon="11.1783517"><ele>553.0</ele><time>2026-04-12T04:17:53.972Z</time></trkpt><trkpt lat="43.9330191" lon="11.1783085"><ele>553.0</ele><time>2026-04-12T04:17:54.973Z</time></trkpt><trkpt lat="43.9330981" lon="11.1782587"><ele>553.0</ele><time>2026-04-12T04:17:55.974Z</time></trkpt><trkpt lat="43.9331618" lon="11.1782046"><ele>553.0</ele><time>2026-04-12T04:17:56.973Z</time></trkpt><trkpt lat="43.9332281" lon="11.1781341"><ele>549.5</ele><time>2026-04-12T04:17:57.976Z</time></trkpt><trkpt lat="43.9332836" lon="11.178069"><ele>546.0</ele><time>2026-04-12T04:17:58.97Z</time></trkpt><trkpt lat="43.9333742" lon="11.1779779"><ele>542.5</ele><time>2026-04-12T04:18:00.973Z</time></trkpt><trkpt lat="43.9334733" lon="11.177915"><ele>539.0</ele><time>2026-04-12T04:18:02.963Z</time></trkpt><trkpt lat="43.9335413" lon="11.1778798"><ele>535.5</ele><time>2026-04-12T04:18:03.975Z</time></trkpt><trkpt lat="43.9336099" lon="11.1778612"><ele>532.0</ele><time>2026-04-12T04:18:04.975Z</time></trkpt><trkpt lat="43.9336739" lon="11.1778384"><ele>532.0</ele><time>2026-04-12T04:18:05.971Z</time></trkpt><trkpt lat="43.9337389" lon="11.1778078"><ele>532.0</ele><time>2026-04-12T04:18:06.966Z</time></trkpt><trkpt lat="43.9338204" lon="11.1777686"><ele>532.0</ele><time>2026-04-12T04:18:08.001Z</time></trkpt><trkpt lat="43.9338878" lon="11.177714"><ele>532.0</ele><time>2026-04-12T04:18:08.962Z</time></trkpt><trkpt lat="43.9339582" lon="11.1776191"><ele>532.0</ele><time>2026-04-12T04:18:10.968Z</time></trkpt><trkpt lat="43.934059" lon="11.177531"><ele>532.0</ele><time>2026-04-12T04:18:12.966Z</time></trkpt><trkpt lat="43.9341535" lon="11.177529"><ele>532.0</ele><time>2026-04-12T04:18:14.967Z</time></trkpt><trkpt lat="43.9342191" lon="11.1775045"><ele>532.0</ele><time>2026-04-12T04:18:15.967Z</time></trkpt><trkpt lat="43.9343382" lon="11.1774627"><ele>532.0</ele><time>2026-04-12T04:18:17.978Z</time></trkpt><trkpt lat="43.9344394" lon="11.1773917"><ele>532.0</ele><time>2026-04-12T04:18:19.959Z</time></trkpt><trkpt lat="43.9345009" lon="11.1773587"><ele>534.4</ele><time>2026-04-12T04:18:21.977Z</time></trkpt><trkpt lat="43.934573" lon="11.1773785"><ele>536.8000000000001</ele><time>2026-04-12T04:18:23.972Z</time></trkpt><trkpt lat="43.9346705" lon="11.1774521"><ele>539.2</ele><time>2026-04-12T04:18:25.977Z</time></trkpt><trkpt lat="43.9347762" lon="11.1775017"><ele>541.6</ele><time>2026-04-12T04:18:27.972Z</time></trkpt><trkpt lat="43.9348711" lon="11.1775092"><ele>544.0</ele><time>2026-04-12T04:18:29.974Z</time></trkpt><trkpt lat="43.9349382" lon="11.1774984"><ele>544.0</ele><time>2026-04-12T04:18:32.97Z</time></trkpt><trkpt lat="43.9349295" lon="11.1773639"><ele>544.0</ele><time>2026-04-12T04:18:35.974Z</time></trkpt><trkpt lat="43.9349124" lon="11.1771967"><ele>544.0</ele><time>2026-04-12T04:18:37.976Z</time></trkpt><trkpt lat="43.9348846" lon="11.1770385"><ele>544.0</ele><time>2026-04-12T04:18:39.974Z</time></trkpt><trkpt lat="43.9348771" lon="11.1769427"><ele>544.0</ele><time>2026-04-12T04:18:40.972Z</time></trkpt><trkpt lat="43.9348591" lon="11.1768576"><ele>546.2</ele><time>2026-04-12T04:18:41.979Z</time></trkpt><trkpt lat="43.9348439" lon="11.1767666"><ele>548.4</ele><time>2026-04-12T04:18:42.977Z</time></trkpt><trkpt lat="43.9348192" lon="11.1766829"><ele>550.6</ele><time>2026-04-12T04:18:43.954Z</time></trkpt><trkpt lat="43.934768" lon="11.1765458"><ele>552.8</ele><time>2026-04-12T04:18:45.977Z</time></trkpt><trkpt lat="43.9347294" lon="11.1763627"><ele>555.0</ele><time>2026-04-12T04:18:47.971Z</time></trkpt><trkpt lat="43.9347057" lon="11.1762731"><ele>555.0</ele><time>2026-04-12T04:18:48.972Z</time></trkpt><trkpt lat="43.9346847" lon="11.1761631"><ele>555.0</ele><time>2026-04-12T04:18:49.971Z</time></trkpt><trkpt lat="43.9346651" lon="11.1760562"><ele>555.0</ele><time>2026-04-12T04:18:50.98Z</time></trkpt><trkpt lat="43.9346364" lon="11.1759632"><ele>555.0</ele><time>2026-04-12T04:18:51.967Z</time></trkpt><trkpt lat="43.9345998" lon="11.1758886"><ele>555.0</ele><time>2026-04-12T04:18:52.975Z</time></trkpt><trkpt lat="43.9345242" lon="11.175772"><ele>555.0</ele><time>2026-04-12T04:18:54.97Z</time></trkpt><trkpt lat="43.9344315" lon="11.1756792"><ele>556.1666666666666</ele><time>2026-04-12T04:18:56.972Z</time></trkpt><trkpt lat="43.9343778" lon="11.1756131"><ele>557.3333333333334</ele><time>2026-04-12T04:18:57.98Z</time></trkpt><trkpt lat="43.9343131" lon="11.175544"><ele>558.5</ele><time>2026-04-12T04:18:58.969Z</time></trkpt><trkpt lat="43.9342477" lon="11.1754993"><ele>559.6666666666667</ele><time>2026-04-12T04:18:59.974Z</time></trkpt><trkpt lat="43.9341669" lon="11.1754373"><ele>560.8333333333334</ele><time>2026-04-12T04:19:01.004Z</time></trkpt><trkpt lat="43.9340984" lon="11.1753897"><ele>562.0</ele><time>2026-04-12T04:19:01.965Z</time></trkpt><trkpt lat="43.9340225" lon="11.1753509"><ele>562.0</ele><time>2026-04-12T04:19:02.974Z</time></trkpt><trkpt lat="43.9339424" lon="11.1753249"><ele>562.0</ele><time>2026-04-12T04:19:03.957Z</time></trkpt><trkpt lat="43.9338725" lon="11.1752782"><ele>562.0</ele><time>2026-04-12T04:19:04.968Z</time></trkpt><trkpt lat="43.9338136" lon="11.1752436"><ele>562.0</ele><time>2026-04-12T04:19:05.969Z</time></trkpt><trkpt lat="43.9337389" lon="11.1752156"><ele>562.0</ele><time>2026-04-12T04:19:06.962Z</time></trkpt><trkpt lat="43.9336793" lon="11.1751649"><ele>562.0</ele><time>2026-04-12T04:19:07.984Z</time></trkpt><trkpt lat="43.9336117" lon="11.1751027"><ele>562.0000000000001</ele><time>2026-04-12T04:19:08.975Z</time></trkpt><trkpt lat="43.9335566" lon="11.1750596"><ele>562.0</ele><time>2026-04-12T04:19:09.958Z</time></trkpt><trkpt lat="43.9335045" lon="11.1750013"><ele>562.0</ele><time>2026-04-12T04:19:10.977Z</time></trkpt><trkpt lat="43.9334504" lon="11.1749441"><ele>562.0</ele><time>2026-04-12T04:19:11.971Z</time></trkpt><trkpt lat="43.9333867" lon="11.1749022"><ele>562.0</ele><time>2026-04-12T04:19:12.973Z</time></trkpt><trkpt lat="43.9333316" lon="11.174858"><ele>562.0000000000001</ele><time>2026-04-12T04:19:13.982Z</time></trkpt><trkpt lat="43.9332449" lon="11.1747898"><ele>562.0</ele><time>2026-04-12T04:19:15.983Z</time></trkpt><trkpt lat="43.9331426" lon="11.174684"><ele>567.6</ele><time>2026-04-12T04:19:17.977Z</time></trkpt><trkpt lat="43.9330709" lon="11.1745789"><ele>573.2</ele><time>2026-04-12T04:19:19.986Z</time></trkpt><trkpt lat="43.9329966" lon="11.1745044"><ele>578.8</ele><time>2026-04-12T04:19:21.986Z</time></trkpt><trkpt lat="43.9329385" lon="11.1744703"><ele>584.4</ele><time>2026-04-12T04:19:22.966Z</time></trkpt><trkpt lat="43.9328445" lon="11.1743765"><ele>590.0</ele><time>2026-04-12T04:19:24.974Z</time></trkpt><trkpt lat="43.932758" lon="11.1743291"><ele>590.0</ele><time>2026-04-12T04:19:26.986Z</time></trkpt><trkpt lat="43.932657" lon="11.1742446"><ele>590.0</ele><time>2026-04-12T04:19:28.98Z</time></trkpt><trkpt lat="43.9325539" lon="11.1741768"><ele>590.0</ele><time>2026-04-12T04:19:30.965Z</time></trkpt><trkpt lat="43.9324496" lon="11.1741414"><ele>590.0</ele><time>2026-04-12T04:19:32.972Z</time></trkpt><trkpt lat="43.9323492" lon="11.1741008"><ele>590.0</ele><time>2026-04-12T04:19:34.984Z</time></trkpt><trkpt lat="43.9322594" lon="11.1740584"><ele>592.6</ele><time>2026-04-12T04:19:36.959Z</time></trkpt><trkpt lat="43.9321678" lon="11.1740067"><ele>595.2</ele><time>2026-04-12T04:19:38.979Z</time></trkpt><trkpt lat="43.9321048" lon="11.1739166"><ele>597.8</ele><time>2026-04-12T04:19:40.966Z</time></trkpt><trkpt lat="43.932075" lon="11.173837"><ele>600.4</ele><time>2026-04-12T04:19:41.977Z</time></trkpt><trkpt lat="43.93203" lon="11.1736543"><ele>603.0</ele><time>2026-04-12T04:19:43.977Z</time></trkpt><trkpt lat="43.9320175" lon="11.173556"><ele>603.0</ele><time>2026-04-12T04:19:44.969Z</time></trkpt><trkpt lat="43.9319826" lon="11.1733926"><ele>603.0</ele><time>2026-04-12T04:19:46.976Z</time></trkpt><trkpt lat="43.9319606" lon="11.1733037"><ele>603.0</ele><time>2026-04-12T04:19:47.978Z</time></trkpt><trkpt lat="43.9319237" lon="11.173212"><ele>603.0</ele><time>2026-04-12T04:19:48.97Z</time></trkpt><trkpt lat="43.9318932" lon="11.1731123"><ele>603.0</ele><time>2026-04-12T04:19:49.985Z</time></trkpt><trkpt lat="43.9318753" lon="11.1729997"><ele>603.0</ele><time>2026-04-12T04:19:50.981Z</time></trkpt><trkpt lat="43.9318549" lon="11.1729065"><ele>609.5</ele><time>2026-04-12T04:19:51.984Z</time></trkpt><trkpt lat="43.9318498" lon="11.1727406"><ele>616.0</ele><time>2026-04-12T04:19:53.968Z</time></trkpt><trkpt lat="43.9318382" lon="11.1725675"><ele>622.5</ele><time>2026-04-12T04:19:55.96Z</time></trkpt><trkpt lat="43.9318137" lon="11.1724277"><ele>629.0</ele><time>2026-04-12T04:19:56.979Z</time></trkpt><trkpt lat="43.9317981" lon="11.1722706"><ele>629.0</ele><time>2026-04-12T04:19:57.972Z</time></trkpt><trkpt lat="43.9317914" lon="11.1721453"><ele>629.0</ele><time>2026-04-12T04:19:58.976Z</time></trkpt><trkpt lat="43.9317916" lon="11.1720282"><ele>629.0</ele><time>2026-04-12T04:19:59.977Z</time></trkpt><trkpt lat="43.9317774" lon="11.1718965"><ele>629.0</ele><time>2026-04-12T04:20:00.988Z</time></trkpt><trkpt lat="43.9317665" lon="11.1717678"><ele>629.0</ele><time>2026-04-12T04:20:01.977Z</time></trkpt><trkpt lat="43.9317531" lon="11.1716518"><ele>629.0</ele><time>2026-04-12T04:20:02.973Z</time></trkpt><trkpt lat="43.9317311" lon="11.1715524"><ele>621.2</ele><time>2026-04-12T04:20:03.978Z</time></trkpt><trkpt lat="43.9317153" lon="11.1714408"><ele>613.4</ele><time>2026-04-12T04:20:04.971Z</time></trkpt><trkpt lat="43.931719" lon="11.1713221"><ele>605.6</ele><time>2026-04-12T04:20:05.99Z</time></trkpt><trkpt lat="43.9317054" lon="11.1712048"><ele>597.8</ele><time>2026-04-12T04:20:06.987Z</time></trkpt><trkpt lat="43.9316725" lon="11.1710742"><ele>590.0</ele><time>2026-04-12T04:20:07.975Z</time></trkpt><trkpt lat="43.931635" lon="11.1709175"><ele>590.0</ele><time>2026-04-12T04:20:08.992Z</time></trkpt><trkpt lat="43.9316261" lon="11.1707706"><ele>590.0</ele><time>2026-04-12T04:20:09.981Z</time></trkpt><trkpt lat="43.931608" lon="11.1706209"><ele>590.0</ele><time>2026-04-12T04:20:10.97Z</time></trkpt><trkpt lat="43.9315883" lon="11.1704726"><ele>590.0</ele><time>2026-04-12T04:20:11.978Z</time></trkpt><trkpt lat="43.9315689" lon="11.1703228"><ele>590.0</ele><time>2026-04-12T04:20:12.982Z</time></trkpt><trkpt lat="43.9315644" lon="11.1701788"><ele>589.0</ele><time>2026-04-12T04:20:13.978Z</time></trkpt><trkpt lat="43.9315386" lon="11.1700412"><ele>588.0</ele><time>2026-04-12T04:20:14.965Z</time></trkpt><trkpt lat="43.9315385" lon="11.169907"><ele>587.0</ele><time>2026-04-12T04:20:15.985Z</time></trkpt><trkpt lat="43.9315284" lon="11.1697724"><ele>586.0</ele><time>2026-04-12T04:20:16.983Z</time></trkpt><trkpt lat="43.9315215" lon="11.1696395"><ele>585.0</ele><time>2026-04-12T04:20:17.98Z</time></trkpt><trkpt lat="43.9315123" lon="11.1695036"><ele>584.2</ele><time>2026-04-12T04:20:18.986Z</time></trkpt><trkpt lat="43.9315074" lon="11.1693645"><ele>583.4</ele><time>2026-04-12T04:20:19.967Z</time></trkpt><trkpt lat="43.9315027" lon="11.1692394"><ele>582.6</ele><time>2026-04-12T04:20:20.978Z</time></trkpt><trkpt lat="43.9315057" lon="11.1691066"><ele>581.8</ele><time>2026-04-12T04:20:21.981Z</time></trkpt><trkpt lat="43.9315082" lon="11.168983"><ele>581.0</ele><time>2026-04-12T04:20:22.987Z</time></trkpt><trkpt lat="43.9315284" lon="11.1688408"><ele>579.8</ele><time>2026-04-12T04:20:23.976Z</time></trkpt><trkpt lat="43.9315452" lon="11.1687073"><ele>578.6</ele><time>2026-04-12T04:20:24.969Z</time></trkpt><trkpt lat="43.9315719" lon="11.1685635"><ele>577.4</ele><time>2026-04-12T04:20:25.976Z</time></trkpt><trkpt lat="43.9316021" lon="11.1684332"><ele>576.2</ele><time>2026-04-12T04:20:26.981Z</time></trkpt><trkpt lat="43.9316275" lon="11.1682974"><ele>575.0</ele><time>2026-04-12T04:20:27.969Z</time></trkpt><trkpt lat="43.9316583" lon="11.168165"><ele>573.8333333333333</ele><time>2026-04-12T04:20:28.98Z</time></trkpt><trkpt lat="43.9316794" lon="11.1680464"><ele>572.6666666666666</ele><time>2026-04-12T04:20:29.978Z</time></trkpt><trkpt lat="43.9317048" lon="11.1679376"><ele>571.5</ele><time>2026-04-12T04:20:30.987Z</time></trkpt><trkpt lat="43.9317355" lon="11.1678185"><ele>570.3333333333334</ele><time>2026-04-12T04:20:31.975Z</time></trkpt><trkpt lat="43.9317725" lon="11.1677093"><ele>569.1666666666667</ele><time>2026-04-12T04:20:32.965Z</time></trkpt><trkpt lat="43.9318206" lon="11.1676294"><ele>568.0</ele><time>2026-04-12T04:20:33.986Z</time></trkpt><trkpt lat="43.9318597" lon="11.1675574"><ele>573.1999999999999</ele><time>2026-04-12T04:20:34.982Z</time></trkpt><trkpt lat="43.9319714" lon="11.1675"><ele>578.4</ele><time>2026-04-12T04:20:36.968Z</time></trkpt><trkpt lat="43.9320539" lon="11.1674548"><ele>583.5999999999999</ele><time>2026-04-12T04:20:38.978Z</time></trkpt><trkpt lat="43.9320699" lon="11.1673601"><ele>588.8</ele><time>2026-04-12T04:20:42.97Z</time></trkpt><trkpt lat="43.932008" lon="11.1672969"><ele>594.0</ele><time>2026-04-12T04:20:45.981Z</time></trkpt><trkpt lat="43.9319414" lon="11.1671942"><ele>594.0</ele><time>2026-04-12T04:20:48.978Z</time></trkpt><trkpt lat="43.9319248" lon="11.1669826"><ele>594.0</ele><time>2026-04-12T04:20:50.972Z</time></trkpt><trkpt lat="43.9319029" lon="11.1668732"><ele>594.0</ele><time>2026-04-12T04:20:51.978Z</time></trkpt><trkpt lat="43.9318809" lon="11.1667671"><ele>594.0</ele><time>2026-04-12T04:20:52.98Z</time></trkpt><trkpt lat="43.9318593" lon="11.1666546"><ele>594.0</ele><time>2026-04-12T04:20:53.974Z</time></trkpt><trkpt lat="43.9318178" lon="11.1665006"><ele>593.0</ele><time>2026-04-12T04:20:55.98Z</time></trkpt><trkpt lat="43.9317847" lon="11.1664216"><ele>592.0</ele><time>2026-04-12T04:20:59.977Z</time></trkpt><trkpt lat="43.931716" lon="11.1665144"><ele>591.0</ele><time>2026-04-12T04:21:02.973Z</time></trkpt><trkpt lat="43.9316761" lon="11.1665892"><ele>590.0</ele><time>2026-04-12T04:21:04.971Z</time></trkpt><trkpt lat="43.9315918" lon="11.1666031"><ele>589.0</ele><time>2026-04-12T04:21:06.977Z</time></trkpt><trkpt lat="43.9315204" lon="11.1665401"><ele>588.0</ele><time>2026-04-12T04:21:09.974Z</time></trkpt><trkpt lat="43.9314843" lon="11.1664271"><ele>588.0</ele><time>2026-04-12T04:21:11.968Z</time></trkpt><trkpt lat="43.9314362" lon="11.1663492"><ele>588.0</ele><time>2026-04-12T04:21:12.979Z</time></trkpt><trkpt lat="43.9313937" lon="11.1662107"><ele>588.0</ele><time>2026-04-12T04:21:14.975Z</time></trkpt><trkpt lat="43.9313783" lon="11.1660837"><ele>588.0</ele><time>2026-04-12T04:21:16.974Z</time></trkpt><trkpt lat="43.9313605" lon="11.1659552"><ele>588.0</ele><time>2026-04-12T04:21:18.98Z</time></trkpt><trkpt lat="43.9313433" lon="11.165821"><ele>588.0</ele><time>2026-04-12T04:21:20.982Z</time></trkpt><trkpt lat="43.9313429" lon="11.165723"><ele>588.0</ele><time>2026-04-12T04:21:22.971Z</time></trkpt><trkpt lat="43.9313708" lon="11.1656356"><ele>588.0</ele><time>2026-04-12T04:21:24.982Z</time></trkpt><trkpt lat="43.9314116" lon="11.1655359"><ele>588.0</ele><time>2026-04-12T04:21:26.982Z</time></trkpt><trkpt lat="43.9314503" lon="11.1653925"><ele>588.0</ele><time>2026-04-12T04:21:28.977Z</time></trkpt><trkpt lat="43.9314627" lon="11.165303"><ele>588.0</ele><time>2026-04-12T04:21:30.967Z</time></trkpt><trkpt lat="43.9313968" lon="11.165319"><ele>588.0</ele><time>2026-04-12T04:21:36.982Z</time></trkpt><trkpt lat="43.9313421" lon="11.1654154"><ele>588.0</ele><time>2026-04-12T04:21:38.971Z</time></trkpt><trkpt lat="43.9312949" lon="11.1654828"><ele>588.0</ele><time>2026-04-12T04:21:39.977Z</time></trkpt><trkpt lat="43.9312357" lon="11.1655626"><ele>588.0</ele><time>2026-04-12T04:21:40.984Z</time></trkpt><trkpt lat="43.9311751" lon="11.1656363"><ele>588.0</ele><time>2026-04-12T04:21:41.994Z</time></trkpt><trkpt lat="43.9311154" lon="11.1657045"><ele>588.0</ele><time>2026-04-12T04:21:42.981Z</time></trkpt><trkpt lat="43.9310673" lon="11.1657736"><ele>588.0</ele><time>2026-04-12T04:21:43.98Z</time></trkpt><trkpt lat="43.9309961" lon="11.1658741"><ele>588.0</ele><time>2026-04-12T04:21:45.972Z</time></trkpt><trkpt lat="43.9309322" lon="11.1659034"><ele>588.0</ele><time>2026-04-12T04:21:48.985Z</time></trkpt><trkpt lat="43.9308631" lon="11.1658307"><ele>588.0</ele><time>2026-04-12T04:21:51.989Z</time></trkpt><trkpt lat="43.9308145" lon="11.1657562"><ele>588.0</ele><time>2026-04-12T04:21:54.971Z</time></trkpt><trkpt lat="43.9307439" lon="11.1657372"><ele>588.0</ele><time>2026-04-12T04:21:56.978Z</time></trkpt><trkpt lat="43.9306703" lon="11.1657323"><ele>589.6666666666666</ele><time>2026-04-12T04:22:00.966Z</time></trkpt><trkpt lat="43.9305839" lon="11.1657334"><ele>591.3333333333334</ele><time>2026-04-12T04:22:03.978Z</time></trkpt><trkpt lat="43.9305395" lon="11.1656494"><ele>593.0</ele><time>2026-04-12T04:22:07.992Z</time></trkpt><trkpt lat="43.9305069" lon="11.1655336"><ele>594.6666666666667</ele><time>2026-04-12T04:22:10.985Z</time></trkpt><trkpt lat="43.9304437" lon="11.1654678"><ele>596.3333333333334</ele><time>2026-04-12T04:22:12.98Z</time></trkpt><trkpt lat="43.9303677" lon="11.165411"><ele>598.0</ele><time>2026-04-12T04:22:14.984Z</time></trkpt><trkpt lat="43.9302659" lon="11.1653357"><ele>600.1999999999999</ele><time>2026-04-12T04:22:16.978Z</time></trkpt><trkpt lat="43.9301612" lon="11.1652706"><ele>602.4</ele><time>2026-04-12T04:22:18.978Z</time></trkpt><trkpt lat="43.9300705" lon="11.1652312"><ele>604.5999999999999</ele><time>2026-04-12T04:22:20.973Z</time></trkpt><trkpt lat="43.9300252" lon="11.1651636"><ele>606.8</ele><time>2026-04-12T04:22:30.968Z</time></trkpt><trkpt lat="43.9299497" lon="11.165108"><ele>609.0</ele><time>2026-04-12T04:22:33.96Z</time></trkpt><trkpt lat="43.9298644" lon="11.1650294"><ele>611.0</ele><time>2026-04-12T04:22:35.977Z</time></trkpt><trkpt lat="43.9297742" lon="11.1649492"><ele>613.0</ele><time>2026-04-12T04:22:37.966Z</time></trkpt><trkpt lat="43.9297101" lon="11.1649076"><ele>615.0</ele><time>2026-04-12T04:22:38.968Z</time></trkpt><trkpt lat="43.9296015" lon="11.1648185"><ele>617.0</ele><time>2026-04-12T04:22:40.976Z</time></trkpt><trkpt lat="43.929537" lon="11.1647562"><ele>619.0</ele><time>2026-04-12T04:22:41.961Z</time></trkpt><trkpt lat="43.9294582" lon="11.1646975"><ele>620.3333333333334</ele><time>2026-04-12T04:22:43.014Z</time></trkpt><trkpt lat="43.9293844" lon="11.1646407"><ele>621.6666666666667</ele><time>2026-04-12T04:22:43.96Z</time></trkpt><trkpt lat="43.9293077" lon="11.1645914"><ele>623.0</ele><time>2026-04-12T04:22:45.013Z</time></trkpt><trkpt lat="43.9292361" lon="11.16454"><ele>624.3333333333334</ele><time>2026-04-12T04:22:46.045Z</time></trkpt><trkpt lat="43.9291628" lon="11.1644952"><ele>625.6666666666666</ele><time>2026-04-12T04:22:47.016Z</time></trkpt><trkpt lat="43.9291062" lon="11.1644499"><ele>627.0</ele><time>2026-04-12T04:22:48.017Z</time></trkpt><trkpt lat="43.9290506" lon="11.164408"><ele>627.0</ele><time>2026-04-12T04:22:48.957Z</time></trkpt><trkpt lat="43.9289934" lon="11.1643547"><ele>627.0</ele><time>2026-04-12T04:22:49.974Z</time></trkpt><trkpt lat="43.9288946" lon="11.1642483"><ele>627.0</ele><time>2026-04-12T04:22:52.018Z</time></trkpt><trkpt lat="43.9288432" lon="11.1641939"><ele>627.0</ele><time>2026-04-12T04:22:53.041Z</time></trkpt><trkpt lat="43.9287909" lon="11.1641401"><ele>627.0</ele><time>2026-04-12T04:22:53.969Z</time></trkpt><trkpt lat="43.9286888" lon="11.1640582"><ele>627.0</ele><time>2026-04-12T04:22:55.98Z</time></trkpt><trkpt lat="43.9285813" lon="11.1639754"><ele>627.2</ele><time>2026-04-12T04:22:57.978Z</time></trkpt><trkpt lat="43.9284869" lon="11.1638846"><ele>627.4000000000001</ele><time>2026-04-12T04:22:59.963Z</time></trkpt><trkpt lat="43.9283987" lon="11.1637822"><ele>627.5999999999999</ele><time>2026-04-12T04:23:01.95Z</time></trkpt><trkpt lat="43.9283183" lon="11.1636498"><ele>627.8</ele><time>2026-04-12T04:23:03.951Z</time></trkpt><trkpt lat="43.9282781" lon="11.163579"><ele>628.0</ele><time>2026-04-12T04:23:04.972Z</time></trkpt><trkpt lat="43.9282033" lon="11.1634558"><ele>628.0</ele><time>2026-04-12T04:23:06.972Z</time></trkpt><trkpt lat="43.9281605" lon="11.1633893"><ele>628.0</ele><time>2026-04-12T04:23:07.973Z</time></trkpt><trkpt lat="43.9281166" lon="11.1633242"><ele>628.0</ele><time>2026-04-12T04:23:08.974Z</time></trkpt><trkpt lat="43.9280413" lon="11.1632085"><ele>628.0</ele><time>2026-04-12T04:23:10.956Z</time></trkpt><trkpt lat="43.927987" lon="11.1631592"><ele>628.0</ele><time>2026-04-12T04:23:11.949Z</time></trkpt><trkpt lat="43.927931" lon="11.1631061"><ele>628.0</ele><time>2026-04-12T04:23:13.975Z</time></trkpt><trkpt lat="43.9278433" lon="11.1631011"><ele>627.4</ele><time>2026-04-12T04:23:15.981Z</time></trkpt><trkpt lat="43.9277254" lon="11.1631179"><ele>626.8</ele><time>2026-04-12T04:23:17.979Z</time></trkpt><trkpt lat="43.9276161" lon="11.163152"><ele>626.2</ele><time>2026-04-12T04:23:19.965Z</time></trkpt><trkpt lat="43.9275127" lon="11.1631346"><ele>625.6</ele><time>2026-04-12T04:23:21.979Z</time></trkpt><trkpt lat="43.9274154" lon="11.1631208"><ele>625.0</ele><time>2026-04-12T04:23:23.964Z</time></trkpt><trkpt lat="43.9273323" lon="11.1631127"><ele>625.6</ele><time>2026-04-12T04:23:25.966Z</time></trkpt><trkpt lat="43.9272417" lon="11.1631058"><ele>626.2</ele><time>2026-04-12T04:23:28.021Z</time></trkpt><trkpt lat="43.9271403" lon="11.1630989"><ele>626.8</ele><time>2026-04-12T04:23:29.958Z</time></trkpt><trkpt lat="43.9270266" lon="11.1631043"><ele>627.4</ele><time>2026-04-12T04:23:31.954Z</time></trkpt><trkpt lat="43.9269497" lon="11.1631562"><ele>628.0</ele><time>2026-04-12T04:23:33.966Z</time></trkpt><trkpt lat="43.9268722" lon="11.1632142"><ele>628.0</ele><time>2026-04-12T04:23:35.968Z</time></trkpt><trkpt lat="43.9268118" lon="11.1633087"><ele>628.0</ele><time>2026-04-12T04:23:38.017Z</time></trkpt><trkpt lat="43.9267944" lon="11.1634512"><ele>628.0</ele><time>2026-04-12T04:23:39.968Z</time></trkpt><trkpt lat="43.926782" lon="11.163604"><ele>628.0</ele><time>2026-04-12T04:23:41.965Z</time></trkpt><trkpt lat="43.9267649" lon="11.163747"><ele>628.0</ele><time>2026-04-12T04:23:43.961Z</time></trkpt><trkpt lat="43.926694" lon="11.1638537"><ele>629.0</ele><time>2026-04-12T04:23:46.025Z</time></trkpt><trkpt lat="43.9266191" lon="11.1639365"><ele>630.0</ele><time>2026-04-12T04:23:48.016Z</time></trkpt><trkpt lat="43.9265332" lon="11.1640246"><ele>631.0</ele><time>2026-04-12T04:23:49.971Z</time></trkpt><trkpt lat="43.9264435" lon="11.1640959"><ele>632.0</ele><time>2026-04-12T04:23:51.957Z</time></trkpt><trkpt lat="43.9263619" lon="11.164156"><ele>633.0</ele><time>2026-04-12T04:23:53.963Z</time></trkpt><trkpt lat="43.9262804" lon="11.1641805"><ele>633.8333333333334</ele><time>2026-04-12T04:23:56.05Z</time></trkpt><trkpt lat="43.9262117" lon="11.1642414"><ele>634.6666666666666</ele><time>2026-04-12T04:23:58.018Z</time></trkpt><trkpt lat="43.9261478" lon="11.1643229"><ele>635.5</ele><time>2026-04-12T04:23:59.97Z</time></trkpt><trkpt lat="43.9260848" lon="11.1643928"><ele>636.3333333333333</ele><time>2026-04-12T04:24:01.956Z</time></trkpt><trkpt lat="43.9260448" lon="11.1644623"><ele>637.1666666666666</ele><time>2026-04-12T04:24:06.965Z</time></trkpt><trkpt lat="43.9259739" lon="11.1645157"><ele>638.0</ele><time>2026-04-12T04:24:11.969Z</time></trkpt><trkpt lat="43.9259114" lon="11.1645824"><ele>639.0</ele><time>2026-04-12T04:24:15.963Z</time></trkpt><trkpt lat="43.9258742" lon="11.1646607"><ele>640.0</ele><time>2026-04-12T04:24:58.97Z</time></trkpt><trkpt lat="43.9258597" lon="11.1647568"><ele>641.0</ele><time>2026-04-12T04:25:02.96Z</time></trkpt><trkpt lat="43.9258397" lon="11.1648451"><ele>642.0</ele><time>2026-04-12T04:25:05.964Z</time></trkpt><trkpt lat="43.9258282" lon="11.1649456"><ele>643.0</ele><time>2026-04-12T04:25:09.957Z</time></trkpt><trkpt lat="43.9257982" lon="11.1650225"><ele>644.0</ele><time>2026-04-12T04:25:13.968Z</time></trkpt><trkpt lat="43.9257404" lon="11.1650763"><ele>645.0</ele><time>2026-04-12T04:25:17.97Z</time></trkpt><trkpt lat="43.92568" lon="11.1651067"><ele>646.0</ele><time>2026-04-12T04:25:20.976Z</time></trkpt><trkpt lat="43.9256072" lon="11.1651167"><ele>647.0</ele><time>2026-04-12T04:25:25.954Z</time></trkpt><trkpt lat="43.9255359" lon="11.1650897"><ele>648.0</ele><time>2026-04-12T04:29:57.974Z</time></trkpt><trkpt lat="43.9254818" lon="11.1651351"><ele>649.0</ele><time>2026-04-12T04:30:05.972Z</time></trkpt><trkpt lat="43.9254668" lon="11.1652202"><ele>650.0</ele><time>2026-04-12T04:30:08.974Z</time></trkpt><trkpt lat="43.9254521" lon="11.1653127"><ele>651.0</ele><time>2026-04-12T04:30:11.98Z</time></trkpt><trkpt lat="43.9254114" lon="11.1653986"><ele>652.0</ele><time>2026-04-12T04:30:14.956Z</time></trkpt><trkpt lat="43.9253598" lon="11.1654773"><ele>652.0</ele><time>2026-04-12T04:30:18.976Z</time></trkpt><trkpt lat="43.9252979" lon="11.1655346"><ele>652.0</ele><time>2026-04-12T04:30:22.954Z</time></trkpt><trkpt lat="43.9252509" lon="11.1655989"><ele>652.0</ele><time>2026-04-12T04:30:25.973Z</time></trkpt><trkpt lat="43.9251886" lon="11.1656711"><ele>652.0</ele><time>2026-04-12T04:30:28.974Z</time></trkpt><trkpt lat="43.9251469" lon="11.1657371"><ele>652.0</ele><time>2026-04-12T04:30:30.977Z</time></trkpt><trkpt lat="43.9250796" lon="11.1658109"><ele>652.0</ele><time>2026-04-12T04:30:33.983Z</time></trkpt><trkpt lat="43.9250284" lon="11.1658818"><ele>652.0</ele><time>2026-04-12T04:30:37.989Z</time></trkpt><trkpt lat="43.924968" lon="11.1659371"><ele>655.1666666666667</ele><time>2026-04-12T04:30:40.976Z</time></trkpt><trkpt lat="43.9249267" lon="11.1660384"><ele>658.3333333333334</ele><time>2026-04-12T04:30:44.974Z</time></trkpt><trkpt lat="43.9248616" lon="11.1661032"><ele>661.5</ele><time>2026-04-12T04:30:48.984Z</time></trkpt><trkpt lat="43.924804" lon="11.1661592"><ele>664.6666666666666</ele><time>2026-04-12T04:30:51.971Z</time></trkpt><trkpt lat="43.924735" lon="11.1661704"><ele>667.8333333333333</ele><time>2026-04-12T04:30:56.963Z</time></trkpt><trkpt lat="43.9246683" lon="11.1662098"><ele>671.0</ele><time>2026-04-12T04:31:01.981Z</time></trkpt><trkpt lat="43.9246074" lon="11.1662914"><ele>671.0</ele><time>2026-04-12T04:31:04.976Z</time></trkpt><trkpt lat="43.9245579" lon="11.166366"><ele>671.0</ele><time>2026-04-12T04:31:06.975Z</time></trkpt><trkpt lat="43.9244841" lon="11.1664534"><ele>671.0</ele><time>2026-04-12T04:31:08.984Z</time></trkpt><trkpt lat="43.9244246" lon="11.1665069"><ele>671.0</ele><time>2026-04-12T04:31:10.989Z</time></trkpt><trkpt lat="43.9243576" lon="11.1665718"><ele>671.0</ele><time>2026-04-12T04:31:12.974Z</time></trkpt><trkpt lat="43.9243042" lon="11.1666295"><ele>671.0</ele><time>2026-04-12T04:31:14.97Z</time></trkpt><trkpt lat="43.9242364" lon="11.1666784"><ele>674.0</ele><time>2026-04-12T04:31:16.996Z</time></trkpt><trkpt lat="43.9241499" lon="11.1667069"><ele>677.0</ele><time>2026-04-12T04:31:18.979Z</time></trkpt><trkpt lat="43.9240666" lon="11.1667231"><ele>680.0</ele><time>2026-04-12T04:31:21.979Z</time></trkpt><trkpt lat="43.9240078" lon="11.1667791"><ele>683.0</ele><time>2026-04-12T04:31:24.97Z</time></trkpt><trkpt lat="43.9239236" lon="11.1668106"><ele>686.0</ele><time>2026-04-12T04:31:27.974Z</time></trkpt><trkpt lat="43.9238383" lon="11.1668287"><ele>689.0</ele><time>2026-04-12T04:31:30.97Z</time></trkpt><trkpt lat="43.9237521" lon="11.1668388"><ele>689.0</ele><time>2026-04-12T04:31:33.974Z</time></trkpt><trkpt lat="43.9236648" lon="11.1668196"><ele>689.0</ele><time>2026-04-12T04:31:36.977Z</time></trkpt><trkpt lat="43.9235685" lon="11.1668235"><ele>689.0</ele><time>2026-04-12T04:31:39.965Z</time></trkpt><trkpt lat="43.9235042" lon="11.1668477"><ele>689.0</ele><time>2026-04-12T04:31:41.974Z</time></trkpt><trkpt lat="43.9234268" lon="11.1668681"><ele>689.0</ele><time>2026-04-12T04:31:44.956Z</time></trkpt><trkpt lat="43.9233904" lon="11.1669438"><ele>689.0</ele><time>2026-04-12T04:31:46.976Z</time></trkpt><trkpt lat="43.9233134" lon="11.1669963"><ele>690.5</ele><time>2026-04-12T04:31:49.979Z</time></trkpt><trkpt lat="43.9232552" lon="11.1670372"><ele>692.0</ele><time>2026-04-12T04:31:51.977Z</time></trkpt><trkpt lat="43.9231934" lon="11.1671093"><ele>693.5</ele><time>2026-04-12T04:31:53.97Z</time></trkpt><trkpt lat="43.9231254" lon="11.1671189"><ele>695.0</ele><time>2026-04-12T04:31:55.976Z</time></trkpt><trkpt lat="43.9230413" lon="11.1671106"><ele>696.5</ele><time>2026-04-12T04:31:58.986Z</time></trkpt><trkpt lat="43.9229648" lon="11.1671249"><ele>698.0</ele><time>2026-04-12T04:32:01.976Z</time></trkpt><trkpt lat="43.9228828" lon="11.1671542"><ele>698.0</ele><time>2026-04-12T04:32:03.978Z</time></trkpt><trkpt lat="43.9227885" lon="11.1671668"><ele>698.0</ele><time>2026-04-12T04:32:05.979Z</time></trkpt><trkpt lat="43.9226985" lon="11.167155"><ele>698.0</ele><time>2026-04-12T04:32:07.965Z</time></trkpt><trkpt lat="43.9226126" lon="11.1671938"><ele>698.0</ele><time>2026-04-12T04:32:10.97Z</time></trkpt><trkpt lat="43.9225541" lon="11.1672563"><ele>698.0</ele><time>2026-04-12T04:32:13.967Z</time></trkpt><trkpt lat="43.9224924" lon="11.1672771"><ele>698.0</ele><time>2026-04-12T04:32:16.967Z</time></trkpt><trkpt lat="43.9224257" lon="11.1672715"><ele>698.3333333333333</ele><time>2026-04-12T04:32:19.979Z</time></trkpt><trkpt lat="43.9223548" lon="11.1673091"><ele>698.6666666666666</ele><time>2026-04-12T04:32:33.98Z</time></trkpt><trkpt lat="43.9222793" lon="11.1673538"><ele>699.0</ele><time>2026-04-12T04:32:38.971Z</time></trkpt><trkpt lat="43.9221997" lon="11.1673947"><ele>699.3333333333334</ele><time>2026-04-12T04:32:41.976Z</time></trkpt><trkpt lat="43.9221264" lon="11.1673679"><ele>699.6666666666667</ele><time>2026-04-12T04:32:44.973Z</time></trkpt><trkpt lat="43.9220473" lon="11.167321"><ele>700.0</ele><time>2026-04-12T04:32:47.965Z</time></trkpt><trkpt lat="43.9219871" lon="11.1672932"><ele>700.0</ele><time>2026-04-12T04:32:49.973Z</time></trkpt><trkpt lat="43.9219313" lon="11.1672475"><ele>700.0</ele><time>2026-04-12T04:32:51.974Z</time></trkpt><trkpt lat="43.9218878" lon="11.1671732"><ele>700.0</ele><time>2026-04-12T04:32:53.986Z</time></trkpt><trkpt lat="43.9218257" lon="11.1670938"><ele>700.0</ele><time>2026-04-12T04:32:56.976Z</time></trkpt><trkpt lat="43.9217705" lon="11.1670303"><ele>700.0</ele><time>2026-04-12T04:32:59.979Z</time></trkpt><trkpt lat="43.9217241" lon="11.1669612"><ele>700.0</ele><time>2026-04-12T04:33:02.975Z</time></trkpt><trkpt lat="43.9216819" lon="11.1668844"><ele>700.0</ele><time>2026-04-12T04:33:05.976Z</time></trkpt><trkpt lat="43.9216237" lon="11.1668128"><ele>701.0</ele><time>2026-04-12T04:33:09.974Z</time></trkpt><trkpt lat="43.9215434" lon="11.1667464"><ele>702.0</ele><time>2026-04-12T04:33:16.977Z</time></trkpt><trkpt lat="43.9214836" lon="11.1667133"><ele>703.0</ele><time>2026-04-12T04:33:21.975Z</time></trkpt><trkpt lat="43.921406" lon="11.1667065"><ele>704.0</ele><time>2026-04-12T04:33:25.98Z</time></trkpt><trkpt lat="43.9213391" lon="11.1666679"><ele>705.0</ele><time>2026-04-12T04:33:28.983Z</time></trkpt><trkpt lat="43.9212722" lon="11.1666474"><ele>706.0</ele><time>2026-04-12T04:33:31.981Z</time></trkpt><trkpt lat="43.9211967" lon="11.166654"><ele>706.0</ele><time>2026-04-12T04:33:35.982Z</time></trkpt><trkpt lat="43.9211236" lon="11.1666829"><ele>706.0</ele><time>2026-04-12T04:33:39.975Z</time></trkpt><trkpt lat="43.9210595" lon="11.1667171"><ele>706.0</ele><time>2026-04-12T04:33:43.979Z</time></trkpt><trkpt lat="43.9209867" lon="11.1667428"><ele>706.0</ele><time>2026-04-12T04:33:47.972Z</time></trkpt><trkpt lat="43.9209227" lon="11.1667852"><ele>706.0</ele><time>2026-04-12T04:33:51.972Z</time></trkpt><trkpt lat="43.920854" lon="11.1668357"><ele>706.0</ele><time>2026-04-12T04:33:55.976Z</time></trkpt><trkpt lat="43.9207888" lon="11.1668904"><ele>706.0</ele><time>2026-04-12T04:33:58.985Z</time></trkpt><trkpt lat="43.9207188" lon="11.1669312"><ele>708.8333333333334</ele><time>2026-04-12T04:34:01.974Z</time></trkpt><trkpt lat="43.9206536" lon="11.166953"><ele>711.6666666666667</ele><time>2026-04-12T04:34:04.966Z</time></trkpt><trkpt lat="43.9205783" lon="11.1669969"><ele>714.5</ele><time>2026-04-12T04:34:08.956Z</time></trkpt><trkpt lat="43.9205124" lon="11.1670482"><ele>717.3333333333334</ele><time>2026-04-12T04:34:11.955Z</time></trkpt><trkpt lat="43.9204475" lon="11.1671088"><ele>720.1666666666666</ele><time>2026-04-12T04:34:14.945Z</time></trkpt><trkpt lat="43.9203742" lon="11.1671698"><ele>723.0</ele><time>2026-04-12T04:34:17.959Z</time></trkpt><trkpt lat="43.9203094" lon="11.1671853"><ele>723.0</ele><time>2026-04-12T04:34:19.972Z</time></trkpt><trkpt lat="43.9202219" lon="11.16718"><ele>723.0</ele><time>2026-04-12T04:34:22.934Z</time></trkpt><trkpt lat="43.9201603" lon="11.1671595"><ele>723.0</ele><time>2026-04-12T04:34:24.954Z</time></trkpt><trkpt lat="43.9200934" lon="11.1671321"><ele>723.0</ele><time>2026-04-12T04:34:26.965Z</time></trkpt><trkpt lat="43.9200051" lon="11.1670974"><ele>723.0</ele><time>2026-04-12T04:34:29.968Z</time></trkpt><trkpt lat="43.9199183" lon="11.167107"><ele>723.0</ele><time>2026-04-12T04:34:32.957Z</time></trkpt><trkpt lat="43.9198522" lon="11.1671217"><ele>725.8333333333334</ele><time>2026-04-12T04:34:34.962Z</time></trkpt><trkpt lat="43.9197907" lon="11.167153"><ele>728.6666666666666</ele><time>2026-04-12T04:34:36.965Z</time></trkpt><trkpt lat="43.9197181" lon="11.1672221"><ele>731.5</ele><time>2026-04-12T04:34:39.966Z</time></trkpt><trkpt lat="43.9196617" lon="11.1673153"><ele>734.3333333333333</ele><time>2026-04-12T04:34:42.96Z</time></trkpt><trkpt lat="43.9196177" lon="11.1674237"><ele>737.1666666666666</ele><time>2026-04-12T04:34:45.967Z</time></trkpt><trkpt lat="43.9196004" lon="11.1675306"><ele>740.0</ele><time>2026-04-12T04:34:48.976Z</time></trkpt><trkpt lat="43.919595" lon="11.1676459"><ele>740.8333333333333</ele><time>2026-04-12T04:34:51.977Z</time></trkpt><trkpt lat="43.9195565" lon="11.1677396"><ele>741.6666666666666</ele><time>2026-04-12T04:34:54.032Z</time></trkpt><trkpt lat="43.9195343" lon="11.167892"><ele>742.5</ele><time>2026-04-12T04:34:56.956Z</time></trkpt><trkpt lat="43.9195139" lon="11.168013"><ele>743.3333333333334</ele><time>2026-04-12T04:34:59.969Z</time></trkpt><trkpt lat="43.9194802" lon="11.1681285"><ele>744.1666666666667</ele><time>2026-04-12T04:35:02.998Z</time></trkpt><trkpt lat="43.9194647" lon="11.1682197"><ele>745.0</ele><time>2026-04-12T04:35:04.987Z</time></trkpt><trkpt lat="43.9194512" lon="11.1683391"><ele>745.3333333333334</ele><time>2026-04-12T04:35:07.97Z</time></trkpt><trkpt lat="43.9194432" lon="11.168466"><ele>745.6666666666667</ele><time>2026-04-12T04:35:10.967Z</time></trkpt><trkpt lat="43.9194611" lon="11.1685884"><ele>746.0</ele><time>2026-04-12T04:35:13.962Z</time></trkpt><trkpt lat="43.9194806" lon="11.1687008"><ele>746.3333333333334</ele><time>2026-04-12T04:35:16.956Z</time></trkpt><trkpt lat="43.9195138" lon="11.1688107"><ele>746.6666666666666</ele><time>2026-04-12T04:35:19.965Z</time></trkpt><trkpt lat="43.9195259" lon="11.1689094"><ele>747.0</ele><time>2026-04-12T04:35:22.958Z</time></trkpt><trkpt lat="43.9194732" lon="11.1690038"><ele>748.0</ele><time>2026-04-12T04:35:25.971Z</time></trkpt><trkpt lat="43.9194055" lon="11.1690647"><ele>749.0</ele><time>2026-04-12T04:35:28.966Z</time></trkpt><trkpt lat="43.9193353" lon="11.1691264"><ele>750.0</ele><time>2026-04-12T04:35:32.958Z</time></trkpt><trkpt lat="43.9192833" lon="11.1691805"><ele>751.0</ele><time>2026-04-12T04:35:35.965Z</time></trkpt><trkpt lat="43.9192207" lon="11.169234"><ele>752.0</ele><time>2026-04-12T04:35:38.965Z</time></trkpt><trkpt lat="43.9191668" lon="11.1693078"><ele>753.0</ele><time>2026-04-12T04:35:41.982Z</time></trkpt><trkpt lat="43.919101" lon="11.1693806"><ele>756.5</ele><time>2026-04-12T04:35:44.971Z</time></trkpt><trkpt lat="43.9190354" lon="11.1694523"><ele>760.0</ele><time>2026-04-12T04:35:47.97Z</time></trkpt><trkpt lat="43.9189532" lon="11.1695061"><ele>763.5</ele><time>2026-04-12T04:35:50.962Z</time></trkpt><trkpt lat="43.9188974" lon="11.1695471"><ele>767.0</ele><time>2026-04-12T04:35:52.947Z</time></trkpt><trkpt lat="43.9188136" lon="11.1695942"><ele>770.5</ele><time>2026-04-12T04:35:55.952Z</time></trkpt><trkpt lat="43.9187328" lon="11.1696093"><ele>774.0</ele><time>2026-04-12T04:35:58.959Z</time></trkpt><trkpt lat="43.9186517" lon="11.1696083"><ele>774.0</ele><time>2026-04-12T04:36:01.98Z</time></trkpt><trkpt lat="43.9185621" lon="11.1696078"><ele>774.0</ele><time>2026-04-12T04:36:04.966Z</time></trkpt><trkpt lat="43.9184888" lon="11.169585"><ele>774.0</ele><time>2026-04-12T04:36:07.96Z</time></trkpt><trkpt lat="43.918408" lon="11.1695828"><ele>774.0</ele><time>2026-04-12T04:36:10.951Z</time></trkpt><trkpt lat="43.9183355" lon="11.1695613"><ele>774.0</ele><time>2026-04-12T04:36:13.963Z</time></trkpt><trkpt lat="43.9182535" lon="11.1695364"><ele>774.0</ele><time>2026-04-12T04:36:16.975Z</time></trkpt><trkpt lat="43.9181932" lon="11.1694994"><ele>775.5714285714286</ele><time>2026-04-12T04:36:18.959Z</time></trkpt><trkpt lat="43.9181347" lon="11.1694634"><ele>777.1428571428571</ele><time>2026-04-12T04:36:20.97Z</time></trkpt><trkpt lat="43.918079" lon="11.1694224"><ele>778.7142857142858</ele><time>2026-04-12T04:36:22.969Z</time></trkpt><trkpt lat="43.9180231" lon="11.1693552"><ele>780.2857142857142</ele><time>2026-04-12T04:36:26.953Z</time></trkpt><trkpt lat="43.9179769" lon="11.1692958"><ele>781.8571428571428</ele><time>2026-04-12T04:36:29.965Z</time></trkpt><trkpt lat="43.9179344" lon="11.1692071"><ele>783.4285714285714</ele><time>2026-04-12T04:36:33.959Z</time></trkpt><trkpt lat="43.9179" lon="11.1691128"><ele>785.0</ele><time>2026-04-12T04:36:37.96Z</time></trkpt><trkpt lat="43.9178311" lon="11.1690571"><ele>785.0000000000001</ele><time>2026-04-12T04:36:40.966Z</time></trkpt><trkpt lat="43.9178002" lon="11.1689711"><ele>785.0</ele><time>2026-04-12T04:36:43.967Z</time></trkpt><trkpt lat="43.9177551" lon="11.1689078"><ele>785.0</ele><time>2026-04-12T04:36:46.976Z</time></trkpt><trkpt lat="43.9177003" lon="11.1688277"><ele>785.0</ele><time>2026-04-12T04:36:49.963Z</time></trkpt><trkpt lat="43.917657" lon="11.1687228"><ele>785.0000000000001</ele><time>2026-04-12T04:36:52.971Z</time></trkpt><trkpt lat="43.9176215" lon="11.1686158"><ele>785.0</ele><time>2026-04-12T04:36:55.976Z</time></trkpt><trkpt lat="43.9175921" lon="11.1685353"><ele>786.8571428571429</ele><time>2026-04-12T04:36:57.973Z</time></trkpt><trkpt lat="43.9175595" lon="11.1684572"><ele>788.7142857142857</ele><time>2026-04-12T04:36:59.969Z</time></trkpt><trkpt lat="43.9174974" lon="11.1683607"><ele>790.5714285714286</ele><time>2026-04-12T04:37:02.962Z</time></trkpt><trkpt lat="43.9174454" lon="11.1683029"><ele>792.4285714285714</ele><time>2026-04-12T04:37:04.968Z</time></trkpt><trkpt lat="43.9174069" lon="11.1682283"><ele>794.2857142857142</ele><time>2026-04-12T04:37:06.98Z</time></trkpt><trkpt lat="43.9173674" lon="11.1681589"><ele>796.1428571428571</ele><time>2026-04-12T04:37:08.97Z</time></trkpt><trkpt lat="43.9173086" lon="11.1680768"><ele>798.0</ele><time>2026-04-12T04:37:11.974Z</time></trkpt><trkpt lat="43.9172529" lon="11.1680267"><ele>798.0</ele><time>2026-04-12T04:37:14.97Z</time></trkpt><trkpt lat="43.9171899" lon="11.1679723"><ele>798.0</ele><time>2026-04-12T04:37:17.968Z</time></trkpt><trkpt lat="43.9171149" lon="11.167917"><ele>798.0</ele><time>2026-04-12T04:37:20.964Z</time></trkpt><trkpt lat="43.917037" lon="11.1678758"><ele>798.0</ele><time>2026-04-12T04:37:23.962Z</time></trkpt><trkpt lat="43.9169732" lon="11.1678409"><ele>798.0</ele><time>2026-04-12T04:37:26.965Z</time></trkpt><trkpt lat="43.9169065" lon="11.1678065"><ele>798.0</ele><time>2026-04-12T04:37:30.978Z</time></trkpt><trkpt lat="43.9168432" lon="11.1678021"><ele>798.0</ele><time>2026-04-12T04:37:35.001Z</time></trkpt><trkpt lat="43.9167988" lon="11.1677087"><ele>798.0</ele><time>2026-04-12T04:38:19.98Z</time></trkpt><trkpt lat="43.9167358" lon="11.1677058"><ele>798.0</ele><time>2026-04-12T04:41:36.944Z</time></trkpt><trkpt lat="43.916805" lon="11.1677242"><ele>798.0</ele><time>2026-04-12T04:50:20.952Z</time></trkpt><trkpt lat="43.9168874" lon="11.1677126"><ele>798.0</ele><time>2026-04-12T04:54:11.966Z</time></trkpt><trkpt lat="43.9169486" lon="11.1677786"><ele>798.0</ele><time>2026-04-12T04:54:14.971Z</time></trkpt><trkpt lat="43.9170105" lon="11.1678494"><ele>798.0</ele><time>2026-04-12T04:54:17.949Z</time></trkpt><trkpt lat="43.9170795" lon="11.1678984"><ele>798.0</ele><time>2026-04-12T04:54:20.976Z</time></trkpt><trkpt lat="43.91715" lon="11.1679451"><ele>798.0</ele><time>2026-04-12T04:54:23.973Z</time></trkpt><trkpt lat="43.9172072" lon="11.1679827"><ele>798.0</ele><time>2026-04-12T04:54:26.968Z</time></trkpt><trkpt lat="43.9172595" lon="11.1680446"><ele>798.0</ele><time>2026-04-12T04:54:30.964Z</time></trkpt><trkpt lat="43.9173239" lon="11.1681069"><ele>798.0</ele><time>2026-04-12T04:54:34.964Z</time></trkpt><trkpt lat="43.9173871" lon="11.1681819"><ele>798.0</ele><time>2026-04-12T04:54:38.974Z</time></trkpt><trkpt lat="43.9174267" lon="11.1682645"><ele>798.0</ele><time>2026-04-12T04:54:41.971Z</time></trkpt><trkpt lat="43.9174756" lon="11.1683479"><ele>798.4285714285714</ele><time>2026-04-12T04:54:44.971Z</time></trkpt><trkpt lat="43.9175306" lon="11.1684205"><ele>798.8571428571429</ele><time>2026-04-12T04:54:47.97Z</time></trkpt><trkpt lat="43.9175697" lon="11.1685028"><ele>799.2857142857142</ele><time>2026-04-12T04:54:50.976Z</time></trkpt><trkpt lat="43.9176039" lon="11.168584"><ele>799.7142857142858</ele><time>2026-04-12T04:54:53.975Z</time></trkpt><trkpt lat="43.9176538" lon="11.1686717"><ele>800.1428571428571</ele><time>2026-04-12T04:54:57.97Z</time></trkpt><trkpt lat="43.9177" lon="11.1687592"><ele>800.5714285714286</ele><time>2026-04-12T04:55:01.947Z</time></trkpt><trkpt lat="43.9177461" lon="11.1688322"><ele>801.0</ele><time>2026-04-12T04:55:05.959Z</time></trkpt><trkpt lat="43.917774" lon="11.1689202"><ele>798.7142857142857</ele><time>2026-04-12T04:55:09.968Z</time></trkpt><trkpt lat="43.9178107" lon="11.1690032"><ele>796.4285714285713</ele><time>2026-04-12T04:55:14.974Z</time></trkpt><trkpt lat="43.9178211" lon="11.1690939"><ele>794.1428571428571</ele><time>2026-04-12T04:55:19.961Z</time></trkpt><trkpt lat="43.917851" lon="11.1691715"><ele>791.8571428571429</ele><time>2026-04-12T04:55:59.941Z</time></trkpt><trkpt lat="43.9179152" lon="11.1691732"><ele>789.5714285714286</ele><time>2026-04-12T04:57:16.963Z</time></trkpt><trkpt lat="43.9179621" lon="11.1692404"><ele>787.2857142857143</ele><time>2026-04-12T04:57:27.963Z</time></trkpt><trkpt lat="43.9180051" lon="11.1693203"><ele>785.0</ele><time>2026-04-12T04:57:32.96Z</time></trkpt><trkpt lat="43.9180532" lon="11.1693776"><ele>785.0000000000001</ele><time>2026-04-12T04:57:36.956Z</time></trkpt><trkpt lat="43.9181222" lon="11.1694161"><ele>785.0</ele><time>2026-04-12T04:57:40.963Z</time></trkpt><trkpt lat="43.9181948" lon="11.1694762"><ele>785.0</ele><time>2026-04-12T04:57:43.962Z</time></trkpt><trkpt lat="43.9182766" lon="11.1695239"><ele>785.0</ele><time>2026-04-12T04:57:46.96Z</time></trkpt><trkpt lat="43.9183688" lon="11.1695475"><ele>785.0000000000001</ele><time>2026-04-12T04:57:49.965Z</time></trkpt><trkpt lat="43.9184318" lon="11.169558"><ele>785.0</ele><time>2026-04-12T04:57:51.959Z</time></trkpt><trkpt lat="43.9185003" lon="11.1695582"><ele>783.1666666666667</ele><time>2026-04-12T04:57:53.96Z</time></trkpt><trkpt lat="43.9185632" lon="11.1695681"><ele>781.3333333333334</ele><time>2026-04-12T04:57:55.96Z</time></trkpt><trkpt lat="43.9186404" lon="11.1695654"><ele>779.5</ele><time>2026-04-12T04:57:58.953Z</time></trkpt><trkpt lat="43.9187274" lon="11.1695386"><ele>777.6666666666667</ele><time>2026-04-12T04:58:01.955Z</time></trkpt><trkpt lat="43.9187966" lon="11.1695127"><ele>775.8333333333334</ele><time>2026-04-12T04:58:03.949Z</time></trkpt><trkpt lat="43.9188686" lon="11.1694816"><ele>774.0</ele><time>2026-04-12T04:58:05.963Z</time></trkpt><trkpt lat="43.9189478" lon="11.169445"><ele>774.0</ele><time>2026-04-12T04:58:07.957Z</time></trkpt><trkpt lat="43.9190331" lon="11.1693887"><ele>774.0</ele><time>2026-04-12T04:58:10.962Z</time></trkpt><trkpt lat="43.9190889" lon="11.1693446"><ele>774.0</ele><time>2026-04-12T04:58:12.968Z</time></trkpt><trkpt lat="43.9191648" lon="11.1692782"><ele>774.0</ele><time>2026-04-12T04:58:15.96Z</time></trkpt><trkpt lat="43.9192237" lon="11.1692125"><ele>774.0</ele><time>2026-04-12T04:58:18.961Z</time></trkpt><trkpt lat="43.9192783" lon="11.1691479"><ele>774.0</ele><time>2026-04-12T04:58:21.958Z</time></trkpt><trkpt lat="43.9193335" lon="11.1690986"><ele>771.0</ele><time>2026-04-12T04:58:24.956Z</time></trkpt><trkpt lat="43.9193993" lon="11.1690409"><ele>768.0</ele><time>2026-04-12T04:58:28.953Z</time></trkpt><trkpt lat="43.919466" lon="11.1689882"><ele>765.0</ele><time>2026-04-12T04:58:32.948Z</time></trkpt><trkpt lat="43.919522" lon="11.1689131"><ele>762.0</ele><time>2026-04-12T04:58:36.943Z</time></trkpt><trkpt lat="43.9195265" lon="11.1688253"><ele>759.0</ele><time>2026-04-12T04:58:40.938Z</time></trkpt><trkpt lat="43.9194985" lon="11.1687327"><ele>756.0</ele><time>2026-04-12T04:58:44.953Z</time></trkpt><trkpt lat="43.9194752" lon="11.1686452"><ele>753.0</ele><time>2026-04-12T04:58:48.946Z</time></trkpt><trkpt lat="43.9194629" lon="11.1685131"><ele>752.0</ele><time>2026-04-12T04:58:51.946Z</time></trkpt><trkpt lat="43.9194555" lon="11.1684231"><ele>751.0</ele><time>2026-04-12T04:58:53.95Z</time></trkpt><trkpt lat="43.9194539" lon="11.1682966"><ele>750.0</ele><time>2026-04-12T04:58:56.946Z</time></trkpt><trkpt lat="43.9194617" lon="11.1681995"><ele>749.0</ele><time>2026-04-12T04:58:58.942Z</time></trkpt><trkpt lat="43.919486" lon="11.1680711"><ele>748.0</ele><time>2026-04-12T04:59:01.949Z</time></trkpt><trkpt lat="43.9195098" lon="11.1679821"><ele>747.0</ele><time>2026-04-12T04:59:03.952Z</time></trkpt><trkpt lat="43.9195311" lon="11.1678853"><ele>746.6666666666666</ele><time>2026-04-12T04:59:05.945Z</time></trkpt><trkpt lat="43.9195543" lon="11.1677884"><ele>746.3333333333334</ele><time>2026-04-12T04:59:07.967Z</time></trkpt><trkpt lat="43.9195676" lon="11.1676968"><ele>746.0</ele><time>2026-04-12T04:59:09.944Z</time></trkpt><trkpt lat="43.9195809" lon="11.1675764"><ele>745.6666666666667</ele><time>2026-04-12T04:59:12.958Z</time></trkpt><trkpt lat="43.9195854" lon="11.1674582"><ele>745.3333333333334</ele><time>2026-04-12T04:59:15.956Z</time></trkpt><trkpt lat="43.9196077" lon="11.1673679"><ele>745.0</ele><time>2026-04-12T04:59:17.945Z</time></trkpt><trkpt lat="43.9196654" lon="11.167273"><ele>744.1666666666667</ele><time>2026-04-12T04:59:19.961Z</time></trkpt><trkpt lat="43.91972" lon="11.167191"><ele>743.3333333333334</ele><time>2026-04-12T04:59:21.94Z</time></trkpt><trkpt lat="43.9197793" lon="11.1671273"><ele>742.5</ele><time>2026-04-12T04:59:23.958Z</time></trkpt><trkpt lat="43.9198589" lon="11.1670812"><ele>741.6666666666666</ele><time>2026-04-12T04:59:25.946Z</time></trkpt><trkpt lat="43.9199361" lon="11.1670712"><ele>740.8333333333333</ele><time>2026-04-12T04:59:27.95Z</time></trkpt><trkpt lat="43.9200019" lon="11.1670693"><ele>740.0</ele><time>2026-04-12T04:59:29.948Z</time></trkpt><trkpt lat="43.9200697" lon="11.1670998"><ele>737.1666666666666</ele><time>2026-04-12T04:59:31.96Z</time></trkpt><trkpt lat="43.9201334" lon="11.1671451"><ele>734.3333333333333</ele><time>2026-04-12T04:59:33.963Z</time></trkpt><trkpt lat="43.9201947" lon="11.1671777"><ele>731.5</ele><time>2026-04-12T04:59:35.955Z</time></trkpt><trkpt lat="43.9202882" lon="11.1671942"><ele>728.6666666666666</ele><time>2026-04-12T04:59:38.951Z</time></trkpt><trkpt lat="43.9203752" lon="11.167176"><ele>725.8333333333334</ele><time>2026-04-12T04:59:41.962Z</time></trkpt><trkpt lat="43.9204389" lon="11.1671357"><ele>723.0</ele><time>2026-04-12T04:59:44.961Z</time></trkpt><trkpt lat="43.9204867" lon="11.1670697"><ele>723.0</ele><time>2026-04-12T04:59:47.966Z</time></trkpt><trkpt lat="43.9205537" lon="11.1670165"><ele>723.0</ele><time>2026-04-12T04:59:51.962Z</time></trkpt><trkpt lat="43.9206102" lon="11.1669425"><ele>723.0</ele><time>2026-04-12T04:59:55.957Z</time></trkpt><trkpt lat="43.9206808" lon="11.1669216"><ele>723.0</ele><time>2026-04-12T04:59:59.963Z</time></trkpt><trkpt lat="43.9207575" lon="11.1669018"><ele>723.0</ele><time>2026-04-12T05:00:04.957Z</time></trkpt><trkpt lat="43.9208321" lon="11.1668596"><ele>723.0</ele><time>2026-04-12T05:00:08.958Z</time></trkpt><trkpt lat="43.9208863" lon="11.1668108"><ele>720.5714285714287</ele><time>2026-04-12T05:00:13.949Z</time></trkpt><trkpt lat="43.9209493" lon="11.166753"><ele>718.1428571428571</ele><time>2026-04-12T05:00:20.97Z</time></trkpt><trkpt lat="43.9210186" lon="11.1667116"><ele>715.7142857142858</ele><time>2026-04-12T05:00:23.957Z</time></trkpt><trkpt lat="43.9210808" lon="11.1666637"><ele>713.2857142857143</ele><time>2026-04-12T05:00:26.96Z</time></trkpt><trkpt lat="43.921139" lon="11.1666297"><ele>710.8571428571429</ele><time>2026-04-12T05:00:30.957Z</time></trkpt><trkpt lat="43.9212076" lon="11.1666129"><ele>708.4285714285714</ele><time>2026-04-12T05:00:35.963Z</time></trkpt><trkpt lat="43.9212825" lon="11.1666563"><ele>706.0</ele><time>2026-04-12T05:00:39.942Z</time></trkpt><trkpt lat="43.9213569" lon="11.1666921"><ele>706.0</ele><time>2026-04-12T05:00:43.949Z</time></trkpt><trkpt lat="43.9214265" lon="11.1667076"><ele>706.0</ele><time>2026-04-12T05:00:47.968Z</time></trkpt><trkpt lat="43.9214956" lon="11.1667079"><ele>706.0</ele><time>2026-04-12T05:00:52.974Z</time></trkpt><trkpt lat="43.9215604" lon="11.1667504"><ele>706.0</ele><time>2026-04-12T05:00:58.942Z</time></trkpt><trkpt lat="43.9216296" lon="11.1668208"><ele>706.0</ele><time>2026-04-12T05:01:01.97Z</time></trkpt><trkpt lat="43.9216746" lon="11.1669076"><ele>706.0</ele><time>2026-04-12T05:01:04.967Z</time></trkpt><trkpt lat="43.9217214" lon="11.1669763"><ele>706.0</ele><time>2026-04-12T05:01:07.975Z</time></trkpt><trkpt lat="43.9217672" lon="11.16704"><ele>705.5</ele><time>2026-04-12T05:01:09.964Z</time></trkpt><trkpt lat="43.9218117" lon="11.1671062"><ele>705.0</ele><time>2026-04-12T05:01:11.96Z</time></trkpt><trkpt lat="43.9218711" lon="11.1671943"><ele>704.5</ele><time>2026-04-12T05:01:14.961Z</time></trkpt><trkpt lat="43.9219422" lon="11.167264"><ele>704.0</ele><time>2026-04-12T05:01:17.969Z</time></trkpt><trkpt lat="43.922015" lon="11.1673222"><ele>703.5</ele><time>2026-04-12T05:01:20.952Z</time></trkpt><trkpt lat="43.922086" lon="11.1673735"><ele>703.0</ele><time>2026-04-12T05:01:24.973Z</time></trkpt><trkpt lat="43.9221683" lon="11.167363"><ele>702.5</ele><time>2026-04-12T05:01:27.978Z</time></trkpt><trkpt lat="43.9222443" lon="11.1673446"><ele>702.0</ele><time>2026-04-12T05:01:30.973Z</time></trkpt><trkpt lat="43.9223147" lon="11.1672962"><ele>701.5</ele><time>2026-04-12T05:01:34.962Z</time></trkpt><trkpt lat="43.9223906" lon="11.1672665"><ele>701.0</ele><time>2026-04-12T05:01:37.979Z</time></trkpt><trkpt lat="43.9224807" lon="11.1672665"><ele>700.5</ele><time>2026-04-12T05:01:40.967Z</time></trkpt><trkpt lat="43.9225353" lon="11.1672184"><ele>700.0</ele><time>2026-04-12T05:01:42.97Z</time></trkpt><trkpt lat="43.9226186" lon="11.1671628"><ele>699.6666666666667</ele><time>2026-04-12T05:01:45.963Z</time></trkpt><trkpt lat="43.922713" lon="11.1671669"><ele>699.3333333333334</ele><time>2026-04-12T05:01:48.965Z</time></trkpt><trkpt lat="43.9227817" lon="11.1671669"><ele>699.0</ele><time>2026-04-12T05:01:50.963Z</time></trkpt><trkpt lat="43.9228443" lon="11.167156"><ele>698.6666666666666</ele><time>2026-04-12T05:01:52.973Z</time></trkpt><trkpt lat="43.9229253" lon="11.1671165"><ele>698.3333333333333</ele><time>2026-04-12T05:01:55.972Z</time></trkpt><trkpt lat="43.9230135" lon="11.1671264"><ele>698.0</ele><time>2026-04-12T05:01:58.978Z</time></trkpt><trkpt lat="43.9231054" lon="11.1671264"><ele>698.0</ele><time>2026-04-12T05:02:01.976Z</time></trkpt><trkpt lat="43.9231891" lon="11.1670653"><ele>698.0</ele><time>2026-04-12T05:02:04.965Z</time></trkpt><trkpt lat="43.9232633" lon="11.1669929"><ele>698.0</ele><time>2026-04-12T05:02:07.974Z</time></trkpt><trkpt lat="43.9233256" lon="11.1669555"><ele>698.0</ele><time>2026-04-12T05:02:09.962Z</time></trkpt><trkpt lat="43.9233787" lon="11.1668514"><ele>698.0</ele><time>2026-04-12T05:02:12.965Z</time></trkpt><trkpt lat="43.9234599" lon="11.1668022"><ele>698.0</ele><time>2026-04-12T05:02:15.961Z</time></trkpt><trkpt lat="43.9235255" lon="11.1668001"><ele>696.5</ele><time>2026-04-12T05:02:17.943Z</time></trkpt><trkpt lat="43.9236079" lon="11.1667804"><ele>695.0</ele><time>2026-04-12T05:02:20.975Z</time></trkpt><trkpt lat="43.9236969" lon="11.1668058"><ele>693.5</ele><time>2026-04-12T05:02:23.982Z</time></trkpt><trkpt lat="43.9237954" lon="11.1668059"><ele>692.0</ele><time>2026-04-12T05:02:26.953Z</time></trkpt><trkpt lat="43.9238582" lon="11.1667948"><ele>690.5</ele><time>2026-04-12T05:02:28.976Z</time></trkpt><trkpt lat="43.9239514" lon="11.1667789"><ele>689.0</ele><time>2026-04-12T05:02:31.96Z</time></trkpt><trkpt lat="43.9240239" lon="11.1667379"><ele>689.0</ele><time>2026-04-12T05:02:34.982Z</time></trkpt><trkpt lat="43.9240818" lon="11.1666803"><ele>689.0</ele><time>2026-04-12T05:02:37.982Z</time></trkpt><trkpt lat="43.9241561" lon="11.1666566"><ele>689.0</ele><time>2026-04-12T05:02:41.969Z</time></trkpt><trkpt lat="43.9242228" lon="11.166639"><ele>689.0</ele><time>2026-04-12T05:02:44.966Z</time></trkpt><trkpt lat="43.924307" lon="11.1665927"><ele>689.0</ele><time>2026-04-12T05:02:47.95Z</time></trkpt><trkpt lat="43.9243667" lon="11.1665521"><ele>689.0</ele><time>2026-04-12T05:02:49.969Z</time></trkpt><trkpt lat="43.9244266" lon="11.1665001"><ele>689.0</ele><time>2026-04-12T05:02:51.954Z</time></trkpt><trkpt lat="43.9244901" lon="11.1664256"><ele>686.4285714285714</ele><time>2026-04-12T05:02:53.971Z</time></trkpt><trkpt lat="43.9245365" lon="11.1663556"><ele>683.8571428571429</ele><time>2026-04-12T05:02:55.971Z</time></trkpt><trkpt lat="43.9245883" lon="11.1662588"><ele>681.2857142857142</ele><time>2026-04-12T05:02:58.964Z</time></trkpt><trkpt lat="43.924656" lon="11.166237"><ele>678.7142857142858</ele><time>2026-04-12T05:03:01.974Z</time></trkpt><trkpt lat="43.9247176" lon="11.1662178"><ele>676.1428571428572</ele><time>2026-04-12T05:03:08.025Z</time></trkpt><trkpt lat="43.9247827" lon="11.1661789"><ele>673.5714285714286</ele><time>2026-04-12T05:03:11.973Z</time></trkpt><trkpt lat="43.9248319" lon="11.1661001"><ele>671.0</ele><time>2026-04-12T05:03:16.031Z</time></trkpt><trkpt lat="43.9248765" lon="11.1660237"><ele>671.0</ele><time>2026-04-12T05:03:18.978Z</time></trkpt><trkpt lat="43.9249229" lon="11.165948"><ele>671.0</ele><time>2026-04-12T05:03:22.966Z</time></trkpt><trkpt lat="43.9249783" lon="11.1658936"><ele>671.0</ele><time>2026-04-12T05:03:25.971Z</time></trkpt><trkpt lat="43.9250398" lon="11.1658235"><ele>671.0</ele><time>2026-04-12T05:03:29.968Z</time></trkpt><trkpt lat="43.9250933" lon="11.1657639"><ele>671.0</ele><time>2026-04-12T05:03:32.972Z</time></trkpt><trkpt lat="43.9251479" lon="11.1656884"><ele>671.0</ele><time>2026-04-12T05:03:35.978Z</time></trkpt><trkpt lat="43.925201" lon="11.1656251"><ele>671.0</ele><time>2026-04-12T05:03:38.948Z</time></trkpt><trkpt lat="43.9252506" lon="11.1655626"><ele>668.2857142857142</ele><time>2026-04-12T05:03:41.977Z</time></trkpt><trkpt lat="43.9253192" lon="11.1655151"><ele>665.5714285714287</ele><time>2026-04-12T05:03:44.97Z</time></trkpt><trkpt lat="43.9253702" lon="11.1654564"><ele>662.8571428571429</ele><time>2026-04-12T05:03:47.965Z</time></trkpt><trkpt lat="43.9254168" lon="11.1653655"><ele>660.1428571428571</ele><time>2026-04-12T05:03:51.963Z</time></trkpt><trkpt lat="43.9254491" lon="11.1652869"><ele>657.4285714285713</ele><time>2026-04-12T05:03:54.962Z</time></trkpt><trkpt lat="43.9254499" lon="11.1651948"><ele>654.7142857142858</ele><time>2026-04-12T05:03:58.968Z</time></trkpt><trkpt lat="43.9255148" lon="11.1650994"><ele>652.0</ele><time>2026-04-12T05:04:16.971Z</time></trkpt><trkpt lat="43.9255972" lon="11.1651072"><ele>652.0</ele><time>2026-04-12T05:04:41.97Z</time></trkpt><trkpt lat="43.9256766" lon="11.1650957"><ele>652.0</ele><time>2026-04-12T05:04:46.972Z</time></trkpt><trkpt lat="43.925737" lon="11.1650435"><ele>652.0</ele><time>2026-04-12T05:04:50.968Z</time></trkpt><trkpt lat="43.9257747" lon="11.1649726"><ele>652.0</ele><time>2026-04-12T05:04:54.973Z</time></trkpt><trkpt lat="43.9257875" lon="11.1648777"><ele>652.0</ele><time>2026-04-12T05:04:58.978Z</time></trkpt><trkpt lat="43.9258014" lon="11.1647717"><ele>652.0</ele><time>2026-04-12T05:05:02.982Z</time></trkpt><trkpt lat="43.9258221" lon="11.1646784"><ele>652.0</ele><time>2026-04-12T05:05:23.977Z</time></trkpt><trkpt lat="43.9258471" lon="11.164584"><ele>650.0</ele><time>2026-04-12T05:05:28.965Z</time></trkpt><trkpt lat="43.9259035" lon="11.1645261"><ele>648.0</ele><time>2026-04-12T05:05:32.967Z</time></trkpt><trkpt lat="43.9259588" lon="11.1644802"><ele>646.0</ele><time>2026-04-12T05:05:35.967Z</time></trkpt><trkpt lat="43.9260107" lon="11.1643941"><ele>644.0</ele><time>2026-04-12T05:05:40.04Z</time></trkpt><trkpt lat="43.9260702" lon="11.1643382"><ele>642.0</ele><time>2026-04-12T05:05:42.964Z</time></trkpt><trkpt lat="43.9261171" lon="11.1642789"><ele>640.0</ele><time>2026-04-12T05:05:44.978Z</time></trkpt><trkpt lat="43.9261626" lon="11.1642162"><ele>638.0</ele><time>2026-04-12T05:05:46.97Z</time></trkpt><trkpt lat="43.9262403" lon="11.1641608"><ele>638.0</ele><time>2026-04-12T05:05:49.971Z</time></trkpt><trkpt lat="43.9263123" lon="11.1641375"><ele>638.0</ele><time>2026-04-12T05:05:51.976Z</time></trkpt><trkpt lat="43.926395" lon="11.1640853"><ele>638.0</ele><time>2026-04-12T05:05:53.969Z</time></trkpt><trkpt lat="43.926464" lon="11.1640738"><ele>638.0</ele><time>2026-04-12T05:05:55.964Z</time></trkpt><trkpt lat="43.9265287" lon="11.1640649"><ele>638.0</ele><time>2026-04-12T05:06:00.02Z</time></trkpt><trkpt lat="43.9265533" lon="11.163971"><ele>638.0</ele><time>2026-04-12T05:08:34.954Z</time></trkpt><trkpt lat="43.9266117" lon="11.163932"><ele>638.0</ele><time>2026-04-12T05:08:37.965Z</time></trkpt><trkpt lat="43.9266657" lon="11.1638607"><ele>637.0</ele><time>2026-04-12T05:08:39.946Z</time></trkpt><trkpt lat="43.9267215" lon="11.1637956"><ele>636.0</ele><time>2026-04-12T05:08:41.943Z</time></trkpt><trkpt lat="43.9267467" lon="11.1637153"><ele>635.0</ele><time>2026-04-12T05:08:43.959Z</time></trkpt><trkpt lat="43.9267425" lon="11.1635711"><ele>634.0</ele><time>2026-04-12T05:08:45.961Z</time></trkpt><trkpt lat="43.926752" lon="11.1634217"><ele>633.0</ele><time>2026-04-12T05:08:47.953Z</time></trkpt><trkpt lat="43.9267801" lon="11.1632753"><ele>630.6</ele><time>2026-04-12T05:08:49.962Z</time></trkpt><trkpt lat="43.9268262" lon="11.1631528"><ele>628.1999999999999</ele><time>2026-04-12T05:08:51.953Z</time></trkpt><trkpt lat="43.9268843" lon="11.1630537"><ele>625.8</ele><time>2026-04-12T05:08:53.96Z</time></trkpt><trkpt lat="43.9269511" lon="11.1629737"><ele>623.4</ele><time>2026-04-12T05:08:55.96Z</time></trkpt><trkpt lat="43.9270579" lon="11.1629508"><ele>621.0</ele><time>2026-04-12T05:08:57.944Z</time></trkpt><trkpt lat="43.9271559" lon="11.1629668"><ele>621.0</ele><time>2026-04-12T05:08:59.971Z</time></trkpt><trkpt lat="43.9272295" lon="11.1629845"><ele>621.0</ele><time>2026-04-12T05:09:01.957Z</time></trkpt><trkpt lat="43.9273012" lon="11.1629936"><ele>621.0</ele><time>2026-04-12T05:09:03.963Z</time></trkpt><trkpt lat="43.9273956" lon="11.1630073"><ele>621.0</ele><time>2026-04-12T05:09:05.957Z</time></trkpt><trkpt lat="43.9274955" lon="11.1630271"><ele>621.0</ele><time>2026-04-12T05:09:07.955Z</time></trkpt><trkpt lat="43.9275855" lon="11.163042"><ele>621.0</ele><time>2026-04-12T05:09:09.955Z</time></trkpt><trkpt lat="43.9276554" lon="11.1630458"><ele>621.8</ele><time>2026-04-12T05:09:11.957Z</time></trkpt><trkpt lat="43.9277354" lon="11.1630236"><ele>622.6</ele><time>2026-04-12T05:09:13.955Z</time></trkpt><trkpt lat="43.9278236" lon="11.1629719"><ele>623.4</ele><time>2026-04-12T05:09:15.957Z</time></trkpt><trkpt lat="43.9279115" lon="11.1630238"><ele>624.2</ele><time>2026-04-12T05:09:18.957Z</time></trkpt><trkpt lat="43.9279818" lon="11.1631123"><ele>625.0</ele><time>2026-04-12T05:09:20.935Z</time></trkpt><trkpt lat="43.9280591" lon="11.163221"><ele>625.5</ele><time>2026-04-12T05:09:22.96Z</time></trkpt><trkpt lat="43.9281136" lon="11.1633035"><ele>626.0</ele><time>2026-04-12T05:09:24.957Z</time></trkpt><trkpt lat="43.9281629" lon="11.1633849"><ele>626.5</ele><time>2026-04-12T05:09:26.959Z</time></trkpt><trkpt lat="43.9282208" lon="11.1634553"><ele>627.0</ele><time>2026-04-12T05:09:28.957Z</time></trkpt><trkpt lat="43.9282702" lon="11.1635192"><ele>627.5</ele><time>2026-04-12T05:09:30.956Z</time></trkpt><trkpt lat="43.9283299" lon="11.1636006"><ele>628.0</ele><time>2026-04-12T05:09:33.956Z</time></trkpt><trkpt lat="43.9283905" lon="11.1636641"><ele>627.8</ele><time>2026-04-12T05:09:35.962Z</time></trkpt><trkpt lat="43.9284658" lon="11.1637319"><ele>627.5999999999999</ele><time>2026-04-12T05:09:37.961Z</time></trkpt><trkpt lat="43.928545" lon="11.1638293"><ele>627.4000000000001</ele><time>2026-04-12T05:09:39.957Z</time></trkpt><trkpt lat="43.9286292" lon="11.1639236"><ele>627.2</ele><time>2026-04-12T05:09:41.953Z</time></trkpt><trkpt lat="43.9287157" lon="11.1640089"><ele>627.0</ele><time>2026-04-12T05:09:43.937Z</time></trkpt><trkpt lat="43.9287833" lon="11.1640876"><ele>627.0</ele><time>2026-04-12T05:09:45.956Z</time></trkpt><trkpt lat="43.9288533" lon="11.1641563"><ele>627.0</ele><time>2026-04-12T05:09:47.938Z</time></trkpt><trkpt lat="43.9289083" lon="11.1642097"><ele>627.0</ele><time>2026-04-12T05:09:48.956Z</time></trkpt><trkpt lat="43.9289626" lon="11.1642567"><ele>627.0</ele><time>2026-04-12T05:09:49.966Z</time></trkpt><trkpt lat="43.9290129" lon="11.164313"><ele>627.0</ele><time>2026-04-12T05:09:50.966Z</time></trkpt><trkpt lat="43.9291176" lon="11.1643875"><ele>627.0</ele><time>2026-04-12T05:09:52.968Z</time></trkpt><trkpt lat="43.9292042" lon="11.1644394"><ele>629.2</ele><time>2026-04-12T05:09:54.964Z</time></trkpt><trkpt lat="43.9292631" lon="11.1644803"><ele>631.4000000000001</ele><time>2026-04-12T05:09:55.969Z</time></trkpt><trkpt lat="43.9293242" lon="11.1645318"><ele>633.5999999999999</ele><time>2026-04-12T05:09:56.967Z</time></trkpt><trkpt lat="43.9294233" lon="11.1645979"><ele>635.8</ele><time>2026-04-12T05:09:58.97Z</time></trkpt><trkpt lat="43.9295271" lon="11.1646721"><ele>638.0</ele><time>2026-04-12T05:10:00.964Z</time></trkpt><trkpt lat="43.9296254" lon="11.1647309"><ele>638.0</ele><time>2026-04-12T05:10:02.966Z</time></trkpt><trkpt lat="43.9297243" lon="11.1648198"><ele>638.0</ele><time>2026-04-12T05:10:04.956Z</time></trkpt><trkpt lat="43.9298099" lon="11.1649049"><ele>638.0</ele><time>2026-04-12T05:10:06.957Z</time></trkpt><trkpt lat="43.9298703" lon="11.1649585"><ele>638.0</ele><time>2026-04-12T05:10:08.957Z</time></trkpt><trkpt lat="43.9299405" lon="11.165006"><ele>638.0</ele><time>2026-04-12T05:10:10.959Z</time></trkpt><trkpt lat="43.9300172" lon="11.1650308"><ele>632.1999999999999</ele><time>2026-04-12T05:10:12.954Z</time></trkpt><trkpt lat="43.9301235" lon="11.1650944"><ele>626.4</ele><time>2026-04-12T05:10:14.937Z</time></trkpt><trkpt lat="43.9302239" lon="11.1651604"><ele>620.5999999999999</ele><time>2026-04-12T05:10:16.938Z</time></trkpt><trkpt lat="43.9302801" lon="11.1652108"><ele>614.8</ele><time>2026-04-12T05:10:17.951Z</time></trkpt><trkpt lat="43.930364" lon="11.1652362"><ele>609.0</ele><time>2026-04-12T05:10:19.956Z</time></trkpt><trkpt lat="43.9304403" lon="11.1652347"><ele>609.0</ele><time>2026-04-12T05:10:21.955Z</time></trkpt><trkpt lat="43.9305172" lon="11.1652512"><ele>609.0</ele><time>2026-04-12T05:10:26.964Z</time></trkpt><trkpt lat="43.9305508" lon="11.165331"><ele>609.0</ele><time>2026-04-12T05:10:30.971Z</time></trkpt><trkpt lat="43.9305366" lon="11.1654289"><ele>609.0</ele><time>2026-04-12T05:10:35.973Z</time></trkpt><trkpt lat="43.9304719" lon="11.165387"><ele>609.0</ele><time>2026-04-12T05:12:13.967Z</time></trkpt><trkpt lat="43.9304799" lon="11.1652637"><ele>609.0</ele><time>2026-04-12T05:12:17.96Z</time></trkpt><trkpt lat="43.9305566" lon="11.1652259"><ele>609.0</ele><time>2026-04-12T05:12:20.964Z</time></trkpt><trkpt lat="43.9306391" lon="11.1652616"><ele>609.0</ele><time>2026-04-12T05:12:23.974Z</time></trkpt><trkpt lat="43.9307125" lon="11.1653216"><ele>609.0</ele><time>2026-04-12T05:12:26.967Z</time></trkpt><trkpt lat="43.9307543" lon="11.1654015"><ele>609.0</ele><time>2026-04-12T05:12:29.971Z</time></trkpt><trkpt lat="43.9307766" lon="11.165496"><ele>609.0</ele><time>2026-04-12T05:12:31.966Z</time></trkpt><trkpt lat="43.9307806" lon="11.1655962"><ele>609.0</ele><time>2026-04-12T05:12:33.946Z</time></trkpt><trkpt lat="43.9307953" lon="11.1657081"><ele>607.3333333333334</ele><time>2026-04-12T05:12:36.025Z</time></trkpt><trkpt lat="43.9308217" lon="11.1657953"><ele>605.6666666666666</ele><time>2026-04-12T05:12:37.968Z</time></trkpt><trkpt lat="43.9308645" lon="11.1658869"><ele>604.0</ele><time>2026-04-12T05:12:40.96Z</time></trkpt><trkpt lat="43.93093" lon="11.165865"><ele>602.3333333333333</ele><time>2026-04-12T05:12:43.976Z</time></trkpt><trkpt lat="43.9309881" lon="11.1658036"><ele>600.6666666666666</ele><time>2026-04-12T05:12:45.954Z</time></trkpt><trkpt lat="43.9310468" lon="11.1657323"><ele>599.0</ele><time>2026-04-12T05:12:47.97Z</time></trkpt><trkpt lat="43.9311249" lon="11.1656465"><ele>599.0</ele><time>2026-04-12T05:12:49.975Z</time></trkpt><trkpt lat="43.9312267" lon="11.1655064"><ele>599.0</ele><time>2026-04-12T05:12:51.967Z</time></trkpt><trkpt lat="43.9312962" lon="11.1654416"><ele>599.0</ele><time>2026-04-12T05:12:52.945Z</time></trkpt><trkpt lat="43.9313616" lon="11.1653789"><ele>599.0</ele><time>2026-04-12T05:12:53.968Z</time></trkpt><trkpt lat="43.9314105" lon="11.1653097"><ele>599.0</ele><time>2026-04-12T05:12:54.97Z</time></trkpt><trkpt lat="43.9314518" lon="11.1652419"><ele>599.0</ele><time>2026-04-12T05:12:55.966Z</time></trkpt><trkpt lat="43.9315111" lon="11.1651174"><ele>599.0</ele><time>2026-04-12T05:12:57.969Z</time></trkpt><trkpt lat="43.9315796" lon="11.1650963"><ele>599.0</ele><time>2026-04-12T05:13:00.964Z</time></trkpt><trkpt lat="43.9315595" lon="11.1652093"><ele>599.0</ele><time>2026-04-12T05:13:03.968Z</time></trkpt><trkpt lat="43.9315059" lon="11.1653268"><ele>599.0</ele><time>2026-04-12T05:13:05.965Z</time></trkpt><trkpt lat="43.9314625" lon="11.1654409"><ele>599.0</ele><time>2026-04-12T05:13:07.972Z</time></trkpt><trkpt lat="43.9314356" lon="11.1655227"><ele>599.0</ele><time>2026-04-12T05:13:09.968Z</time></trkpt><trkpt lat="43.9314227" lon="11.1656351"><ele>596.8</ele><time>2026-04-12T05:13:11.97Z</time></trkpt><trkpt lat="43.9314216" lon="11.1657226"><ele>594.5999999999999</ele><time>2026-04-12T05:13:12.964Z</time></trkpt><trkpt lat="43.9314336" lon="11.1658744"><ele>592.4</ele><time>2026-04-12T05:13:14.964Z</time></trkpt><trkpt lat="43.9314405" lon="11.166029"><ele>590.1999999999999</ele><time>2026-04-12T05:13:16.959Z</time></trkpt><trkpt lat="43.9314467" lon="11.166187"><ele>588.0</ele><time>2026-04-12T05:13:18.97Z</time></trkpt><trkpt lat="43.9314354" lon="11.1663435"><ele>588.0</ele><time>2026-04-12T05:13:20.973Z</time></trkpt><trkpt lat="43.9314423" lon="11.1664507"><ele>588.0</ele><time>2026-04-12T05:13:22.967Z</time></trkpt><trkpt lat="43.9315092" lon="11.166481"><ele>588.0</ele><time>2026-04-12T05:13:25.982Z</time></trkpt><trkpt lat="43.9315733" lon="11.1664268"><ele>588.0</ele><time>2026-04-12T05:13:27.965Z</time></trkpt><trkpt lat="43.9315964" lon="11.1663291"><ele>588.0</ele><time>2026-04-12T05:13:29.965Z</time></trkpt><trkpt lat="43.9316155" lon="11.1661706"><ele>588.0</ele><time>2026-04-12T05:13:31.964Z</time></trkpt><trkpt lat="43.9316462" lon="11.1660436"><ele>588.0</ele><time>2026-04-12T05:13:33.962Z</time></trkpt><trkpt lat="43.9316747" lon="11.166133"><ele>588.0</ele><time>2026-04-12T05:13:41.964Z</time></trkpt><trkpt lat="43.9316979" lon="11.1662275"><ele>588.0</ele><time>2026-04-12T05:13:43.962Z</time></trkpt><trkpt lat="43.9317388" lon="11.1663551"><ele>588.0</ele><time>2026-04-12T05:13:45.969Z</time></trkpt><trkpt lat="43.9318203" lon="11.166478"><ele>588.0</ele><time>2026-04-12T05:13:47.97Z</time></trkpt><trkpt lat="43.9318761" lon="11.1665218"><ele>588.0</ele><time>2026-04-12T05:13:49.014Z</time></trkpt><trkpt lat="43.9319417" lon="11.1665522"><ele>589.0</ele><time>2026-04-12T05:13:50.02Z</time></trkpt><trkpt lat="43.932006" lon="11.1665815"><ele>590.0</ele><time>2026-04-12T05:13:51.012Z</time></trkpt><trkpt lat="43.9320706" lon="11.1666084"><ele>591.0</ele><time>2026-04-12T05:13:51.961Z</time></trkpt><trkpt lat="43.9321472" lon="11.1666661"><ele>592.0</ele><time>2026-04-12T05:13:53.971Z</time></trkpt><trkpt lat="43.9321729" lon="11.1667477"><ele>593.0</ele><time>2026-04-12T05:13:56.972Z</time></trkpt><trkpt lat="43.9321141" lon="11.1668375"><ele>594.0</ele><time>2026-04-12T05:14:00.014Z</time></trkpt><trkpt lat="43.9320151" lon="11.1669213"><ele>594.0</ele><time>2026-04-12T05:14:01.984Z</time></trkpt><trkpt lat="43.9319324" lon="11.1670529"><ele>594.0</ele><time>2026-04-12T05:14:03.971Z</time></trkpt><trkpt lat="43.9318949" lon="11.1671239"><ele>594.0</ele><time>2026-04-12T05:14:04.969Z</time></trkpt><trkpt lat="43.9318654" lon="11.1672088"><ele>594.0</ele><time>2026-04-12T05:14:05.977Z</time></trkpt><trkpt lat="43.9318336" lon="11.1673129"><ele>594.0</ele><time>2026-04-12T05:14:06.943Z</time></trkpt><trkpt lat="43.9318041" lon="11.1674225"><ele>594.0</ele><time>2026-04-12T05:14:08.017Z</time></trkpt><trkpt lat="43.9317917" lon="11.167525"><ele>594.1666666666666</ele><time>2026-04-12T05:14:09.015Z</time></trkpt><trkpt lat="43.9317754" lon="11.167631"><ele>594.3333333333334</ele><time>2026-04-12T05:14:10.011Z</time></trkpt><trkpt lat="43.9317588" lon="11.1677335"><ele>594.5</ele><time>2026-04-12T05:14:11.027Z</time></trkpt><trkpt lat="43.9317357" lon="11.1678356"><ele>594.6666666666667</ele><time>2026-04-12T05:14:11.96Z</time></trkpt><trkpt lat="43.9317175" lon="11.167949"><ele>594.8333333333334</ele><time>2026-04-12T05:14:12.972Z</time></trkpt><trkpt lat="43.9316989" lon="11.1680633"><ele>595.0</ele><time>2026-04-12T05:14:13.967Z</time></trkpt><trkpt lat="43.9316884" lon="11.1681821"><ele>591.0</ele><time>2026-04-12T05:14:14.964Z</time></trkpt><trkpt lat="43.9316854" lon="11.1683132"><ele>587.0</ele><time>2026-04-12T05:14:15.979Z</time></trkpt><trkpt lat="43.9316859" lon="11.168438"><ele>583.0</ele><time>2026-04-12T05:14:16.951Z</time></trkpt><trkpt lat="43.9316899" lon="11.168568"><ele>579.0</ele><time>2026-04-12T05:14:17.967Z</time></trkpt><trkpt lat="43.9316824" lon="11.1687005"><ele>575.0</ele><time>2026-04-12T05:14:19.015Z</time></trkpt><trkpt lat="43.9316725" lon="11.1688276"><ele>575.0</ele><time>2026-04-12T05:14:20.013Z</time></trkpt><trkpt lat="43.9316676" lon="11.1689529"><ele>575.0</ele><time>2026-04-12T05:14:21.022Z</time></trkpt><trkpt lat="43.9316549" lon="11.1690786"><ele>575.0</ele><time>2026-04-12T05:14:21.966Z</time></trkpt><trkpt lat="43.9316445" lon="11.1692073"><ele>575.0</ele><time>2026-04-12T05:14:22.957Z</time></trkpt><trkpt lat="43.9316238" lon="11.1693326"><ele>575.0</ele><time>2026-04-12T05:14:23.975Z</time></trkpt><trkpt lat="43.931618" lon="11.169462"><ele>576.2</ele><time>2026-04-12T05:14:25.013Z</time></trkpt><trkpt lat="43.9316176" lon="11.1696075"><ele>577.4</ele><time>2026-04-12T05:14:26.017Z</time></trkpt><trkpt lat="43.9316233" lon="11.1697492"><ele>578.6</ele><time>2026-04-12T05:14:26.959Z</time></trkpt><trkpt lat="43.931639" lon="11.1698866"><ele>579.8</ele><time>2026-04-12T05:14:27.96Z</time></trkpt><trkpt lat="43.9316436" lon="11.1700168"><ele>581.0</ele><time>2026-04-12T05:14:28.958Z</time></trkpt><trkpt lat="43.9316311" lon="11.1701456"><ele>581.6666666666666</ele><time>2026-04-12T05:14:29.967Z</time></trkpt><trkpt lat="43.9316062" lon="11.1702648"><ele>582.3333333333333</ele><time>2026-04-12T05:14:31.024Z</time></trkpt><trkpt lat="43.9315715" lon="11.1703796"><ele>583.0</ele><time>2026-04-12T05:14:31.966Z</time></trkpt><trkpt lat="43.9315425" lon="11.1704999"><ele>583.6666666666666</ele><time>2026-04-12T05:14:32.968Z</time></trkpt><trkpt lat="43.9315268" lon="11.170602"><ele>584.3333333333334</ele><time>2026-04-12T05:14:33.963Z</time></trkpt><trkpt lat="43.931512" lon="11.1707024"><ele>585.0</ele><time>2026-04-12T05:14:34.958Z</time></trkpt><trkpt lat="43.9315013" lon="11.1708004"><ele>585.8333333333334</ele><time>2026-04-12T05:14:35.96Z</time></trkpt><trkpt lat="43.9314884" lon="11.1708898"><ele>586.6666666666666</ele><time>2026-04-12T05:14:36.966Z</time></trkpt><trkpt lat="43.9314794" lon="11.1709834"><ele>587.5</ele><time>2026-04-12T05:14:37.968Z</time></trkpt><trkpt lat="43.9314735" lon="11.1710794"><ele>588.3333333333333</ele><time>2026-04-12T05:14:38.964Z</time></trkpt><trkpt lat="43.9314756" lon="11.1711715"><ele>589.1666666666666</ele><time>2026-04-12T05:14:40.017Z</time></trkpt><trkpt lat="43.9314875" lon="11.1713453"><ele>590.0</ele><time>2026-04-12T05:14:41.968Z</time></trkpt><trkpt lat="43.9315014" lon="11.1715271"><ele>590.8333333333333</ele><time>2026-04-12T05:14:43.967Z</time></trkpt><trkpt lat="43.9314931" lon="11.1716159"><ele>591.6666666666666</ele><time>2026-04-12T05:14:44.966Z</time></trkpt><trkpt lat="43.9314774" lon="11.1717117"><ele>592.5</ele><time>2026-04-12T05:14:45.961Z</time></trkpt><trkpt lat="43.9314634" lon="11.1718823"><ele>593.3333333333334</ele><time>2026-04-12T05:14:47.963Z</time></trkpt><trkpt lat="43.9314743" lon="11.1719899"><ele>594.1666666666667</ele><time>2026-04-12T05:14:48.954Z</time></trkpt><trkpt lat="43.9314862" lon="11.1720791"><ele>595.0</ele><time>2026-04-12T05:14:49.977Z</time></trkpt><trkpt lat="43.9315032" lon="11.1721695"><ele>595.0</ele><time>2026-04-12T05:14:50.966Z</time></trkpt><trkpt lat="43.9315326" lon="11.1722929"><ele>595.0</ele><time>2026-04-12T05:14:52.945Z</time></trkpt><trkpt lat="43.931547" lon="11.1723863"><ele>595.0</ele><time>2026-04-12T05:14:54.964Z</time></trkpt><trkpt lat="43.9315453" lon="11.1724769"><ele>595.0</ele><time>2026-04-12T05:14:56.964Z</time></trkpt><trkpt lat="43.9315773" lon="11.1725874"><ele>595.0</ele><time>2026-04-12T05:14:59.94Z</time></trkpt><trkpt lat="43.9316078" lon="11.1727049"><ele>595.0</ele><time>2026-04-12T05:15:02.962Z</time></trkpt><trkpt lat="43.9316587" lon="11.1727803"><ele>594.3333333333334</ele><time>2026-04-12T05:15:05.021Z</time></trkpt><trkpt lat="43.931709" lon="11.1728444"><ele>593.6666666666667</ele><time>2026-04-12T05:15:06.964Z</time></trkpt><trkpt lat="43.9317622" lon="11.1729095"><ele>593.0</ele><time>2026-04-12T05:15:09.014Z</time></trkpt><trkpt lat="43.9318223" lon="11.1729669"><ele>592.3333333333334</ele><time>2026-04-12T05:15:10.961Z</time></trkpt><trkpt lat="43.93191" lon="11.1730183"><ele>591.6666666666666</ele><time>2026-04-12T05:15:13.035Z</time></trkpt><trkpt lat="43.9319916" lon="11.1730504"><ele>591.0</ele><time>2026-04-12T05:15:14.961Z</time></trkpt><trkpt lat="43.9321119" lon="11.1730882"><ele>593.4</ele><time>2026-04-12T05:15:16.979Z</time></trkpt><trkpt lat="43.9322241" lon="11.1731188"><ele>595.8</ele><time>2026-04-12T05:15:18.987Z</time></trkpt><trkpt lat="43.9323332" lon="11.1731333"><ele>598.1999999999999</ele><time>2026-04-12T05:15:21.016Z</time></trkpt><trkpt lat="43.9324436" lon="11.1731775"><ele>600.6</ele><time>2026-04-12T05:15:22.986Z</time></trkpt><trkpt lat="43.9325109" lon="11.1732146"><ele>603.0</ele><time>2026-04-12T05:15:23.982Z</time></trkpt><trkpt lat="43.9325853" lon="11.1732807"><ele>606.6666666666666</ele><time>2026-04-12T05:15:24.981Z</time></trkpt><trkpt lat="43.9326547" lon="11.1733273"><ele>610.3333333333334</ele><time>2026-04-12T05:15:25.971Z</time></trkpt><trkpt lat="43.932709" lon="11.1733804"><ele>614.0</ele><time>2026-04-12T05:15:26.98Z</time></trkpt><trkpt lat="43.9327927" lon="11.1734699"><ele>617.6666666666667</ele><time>2026-04-12T05:15:28.974Z</time></trkpt><trkpt lat="43.9328702" lon="11.1735915"><ele>621.3333333333334</ele><time>2026-04-12T05:15:31.006Z</time></trkpt><trkpt lat="43.932921" lon="11.1736535"><ele>625.0</ele><time>2026-04-12T05:15:31.981Z</time></trkpt><trkpt lat="43.932986" lon="11.1737257"><ele>625.0</ele><time>2026-04-12T05:15:33.982Z</time></trkpt><trkpt lat="43.9330522" lon="11.1737891"><ele>625.0</ele><time>2026-04-12T05:15:35.978Z</time></trkpt><trkpt lat="43.9331537" lon="11.1738562"><ele>625.0</ele><time>2026-04-12T05:15:38.048Z</time></trkpt><trkpt lat="43.9332145" lon="11.1739071"><ele>625.0</ele><time>2026-04-12T05:15:39.055Z</time></trkpt><trkpt lat="43.9332974" lon="11.1739862"><ele>625.0</ele><time>2026-04-12T05:15:40.056Z</time></trkpt><trkpt lat="43.9333852" lon="11.1740636"><ele>622.0</ele><time>2026-04-12T05:15:41.032Z</time></trkpt><trkpt lat="43.9334531" lon="11.1741225"><ele>619.0</ele><time>2026-04-12T05:15:41.962Z</time></trkpt><trkpt lat="43.9335148" lon="11.1741782"><ele>616.0</ele><time>2026-04-12T05:15:42.968Z</time></trkpt><trkpt lat="43.9335797" lon="11.174228"><ele>613.0</ele><time>2026-04-12T05:15:43.958Z</time></trkpt><trkpt lat="43.9336388" lon="11.1742904"><ele>610.0</ele><time>2026-04-12T05:15:44.964Z</time></trkpt><trkpt lat="43.9336962" lon="11.1743493"><ele>607.0</ele><time>2026-04-12T05:15:45.96Z</time></trkpt><trkpt lat="43.9337659" lon="11.1744071"><ele>607.0</ele><time>2026-04-12T05:15:46.966Z</time></trkpt><trkpt lat="43.9338235" lon="11.1744605"><ele>607.0</ele><time>2026-04-12T05:15:47.965Z</time></trkpt><trkpt lat="43.9339003" lon="11.1745471"><ele>607.0</ele><time>2026-04-12T05:15:48.963Z</time></trkpt><trkpt lat="43.9339689" lon="11.1746154"><ele>607.0</ele><time>2026-04-12T05:15:49.954Z</time></trkpt><trkpt lat="43.9340208" lon="11.174695"><ele>607.0</ele><time>2026-04-12T05:15:50.985Z</time></trkpt><trkpt lat="43.9340631" lon="11.1747931"><ele>607.0</ele><time>2026-04-12T05:15:51.958Z</time></trkpt><trkpt lat="43.9341225" lon="11.1748554"><ele>602.6</ele><time>2026-04-12T05:15:52.968Z</time></trkpt><trkpt lat="43.9341911" lon="11.1749257"><ele>598.2</ele><time>2026-04-12T05:15:53.964Z</time></trkpt><trkpt lat="43.9342571" lon="11.1749762"><ele>593.8</ele><time>2026-04-12T05:15:54.974Z</time></trkpt><trkpt lat="43.9343142" lon="11.1750361"><ele>589.4</ele><time>2026-04-12T05:15:56.034Z</time></trkpt><trkpt lat="43.9343921" lon="11.1751577"><ele>585.0</ele><time>2026-04-12T05:15:56.957Z</time></trkpt><trkpt lat="43.9344709" lon="11.1752682"><ele>585.0</ele><time>2026-04-12T05:15:58.972Z</time></trkpt><trkpt lat="43.9345439" lon="11.1753944"><ele>585.0</ele><time>2026-04-12T05:16:00.966Z</time></trkpt><trkpt lat="43.9345828" lon="11.1754767"><ele>585.0</ele><time>2026-04-12T05:16:01.958Z</time></trkpt><trkpt lat="43.9346139" lon="11.1755879"><ele>585.0</ele><time>2026-04-12T05:16:02.961Z</time></trkpt><trkpt lat="43.9346759" lon="11.1757149"><ele>585.0</ele><time>2026-04-12T05:16:05.034Z</time></trkpt><trkpt lat="43.9347403" lon="11.1758385"><ele>577.5</ele><time>2026-04-12T05:16:06.959Z</time></trkpt><trkpt lat="43.9347972" lon="11.1759224"><ele>570.0</ele><time>2026-04-12T05:16:08.963Z</time></trkpt><trkpt lat="43.934835" lon="11.1760719"><ele>562.5</ele><time>2026-04-12T05:16:10.962Z</time></trkpt><trkpt lat="43.9349071" lon="11.1762398"><ele>555.0</ele><time>2026-04-12T05:16:12.978Z</time></trkpt><trkpt lat="43.9349764" lon="11.176391"><ele>555.0</ele><time>2026-04-12T05:16:13.975Z</time></trkpt><trkpt lat="43.9350243" lon="11.1764731"><ele>555.0</ele><time>2026-04-12T05:16:14.963Z</time></trkpt><trkpt lat="43.9350697" lon="11.1765337"><ele>555.0</ele><time>2026-04-12T05:16:15.971Z</time></trkpt><trkpt lat="43.9351243" lon="11.1766076"><ele>555.0</ele><time>2026-04-12T05:16:16.971Z</time></trkpt><trkpt lat="43.9351856" lon="11.176677"><ele>555.0</ele><time>2026-04-12T05:16:18.969Z</time></trkpt><trkpt lat="43.9352721" lon="11.1767235"><ele>555.0</ele><time>2026-04-12T05:16:21.968Z</time></trkpt><trkpt lat="43.9351696" lon="11.176765"><ele>555.2</ele><time>2026-04-12T05:16:24.964Z</time></trkpt><trkpt lat="43.9350834" lon="11.1767578"><ele>555.4</ele><time>2026-04-12T05:16:25.967Z</time></trkpt><trkpt lat="43.9349539" lon="11.1767955"><ele>555.6</ele><time>2026-04-12T05:16:26.956Z</time></trkpt><trkpt lat="43.9348541" lon="11.1768089"><ele>555.8</ele><time>2026-04-12T05:16:27.962Z</time></trkpt><trkpt lat="43.9347749" lon="11.1768308"><ele>556.0</ele><time>2026-04-12T05:16:28.959Z</time></trkpt><trkpt lat="43.9346959" lon="11.1768611"><ele>551.0</ele><time>2026-04-12T05:16:30.957Z</time></trkpt><trkpt lat="43.9346482" lon="11.1769401"><ele>546.0</ele><time>2026-04-12T05:16:32.944Z</time></trkpt><trkpt lat="43.934523" lon="11.1770733"><ele>541.0</ele><time>2026-04-12T05:16:35.964Z</time></trkpt><trkpt lat="43.9344369" lon="11.1771901"><ele>536.0</ele><time>2026-04-12T05:16:37.959Z</time></trkpt><trkpt lat="43.9343778" lon="11.1772401"><ele>531.0</ele><time>2026-04-12T05:16:38.959Z</time></trkpt><trkpt lat="43.9342688" lon="11.1772976"><ele>531.2</ele><time>2026-04-12T05:16:40.962Z</time></trkpt><trkpt lat="43.9341698" lon="11.1773484"><ele>531.4000000000001</ele><time>2026-04-12T05:16:42.961Z</time></trkpt><trkpt lat="43.9340903" lon="11.1774258"><ele>531.6</ele><time>2026-04-12T05:16:45.014Z</time></trkpt><trkpt lat="43.9339945" lon="11.1775228"><ele>531.8000000000001</ele><time>2026-04-12T05:16:46.967Z</time></trkpt><trkpt lat="43.9339189" lon="11.1775519"><ele>532.0</ele><time>2026-04-12T05:16:47.963Z</time></trkpt><trkpt lat="43.9338481" lon="11.1775788"><ele>532.0</ele><time>2026-04-12T05:16:48.962Z</time></trkpt><trkpt lat="43.9337776" lon="11.1776005"><ele>532.0</ele><time>2026-04-12T05:16:49.962Z</time></trkpt><trkpt lat="43.9337175" lon="11.1776284"><ele>532.0</ele><time>2026-04-12T05:16:51.018Z</time></trkpt><trkpt lat="43.933654" lon="11.1776544"><ele>532.0</ele><time>2026-04-12T05:16:51.966Z</time></trkpt><trkpt lat="43.9335314" lon="11.1777096"><ele>532.0</ele><time>2026-04-12T05:16:53.954Z</time></trkpt><trkpt lat="43.933469" lon="11.1777455"><ele>532.0</ele><time>2026-04-12T05:16:54.969Z</time></trkpt><trkpt lat="43.9333988" lon="11.1777949"><ele>530.3333333333334</ele><time>2026-04-12T05:16:55.955Z</time></trkpt><trkpt lat="43.9333264" lon="11.1778713"><ele>528.6666666666667</ele><time>2026-04-12T05:16:56.962Z</time></trkpt><trkpt lat="43.933251" lon="11.1779352"><ele>527.0</ele><time>2026-04-12T05:16:57.961Z</time></trkpt><trkpt lat="43.9331789" lon="11.1780068"><ele>525.3333333333334</ele><time>2026-04-12T05:16:58.965Z</time></trkpt><trkpt lat="43.9331142" lon="11.1780611"><ele>523.6666666666666</ele><time>2026-04-12T05:17:00.022Z</time></trkpt><trkpt lat="43.9330494" lon="11.1781031"><ele>522.0</ele><time>2026-04-12T05:17:00.963Z</time></trkpt><trkpt lat="43.9329843" lon="11.1781491"><ele>524.0</ele><time>2026-04-12T05:17:01.963Z</time></trkpt><trkpt lat="43.9329124" lon="11.1781963"><ele>526.0</ele><time>2026-04-12T05:17:02.966Z</time></trkpt><trkpt lat="43.932836" lon="11.1782594"><ele>528.0</ele><time>2026-04-12T05:17:03.951Z</time></trkpt><trkpt lat="43.9327682" lon="11.1783159"><ele>530.0</ele><time>2026-04-12T05:17:04.949Z</time></trkpt><trkpt lat="43.9326917" lon="11.178383"><ele>532.0</ele><time>2026-04-12T05:17:05.964Z</time></trkpt><trkpt lat="43.9326192" lon="11.1784546"><ele>534.0</ele><time>2026-04-12T05:17:06.966Z</time></trkpt><trkpt lat="43.9325494" lon="11.1785236"><ele>534.0</ele><time>2026-04-12T05:17:07.971Z</time></trkpt><trkpt lat="43.9324798" lon="11.1785894"><ele>534.0</ele><time>2026-04-12T05:17:08.959Z</time></trkpt><trkpt lat="43.932431" lon="11.1786589"><ele>534.0</ele><time>2026-04-12T05:17:09.964Z</time></trkpt><trkpt lat="43.9323907" lon="11.1787521"><ele>534.0</ele><time>2026-04-12T05:17:10.969Z</time></trkpt><trkpt lat="43.9323633" lon="11.1788468"><ele>534.0</ele><time>2026-04-12T05:17:11.965Z</time></trkpt><trkpt lat="43.9323279" lon="11.1789506"><ele>534.0</ele><time>2026-04-12T05:17:12.99Z</time></trkpt><trkpt lat="43.932307" lon="11.1790353"><ele>538.2</ele><time>2026-04-12T05:17:13.968Z</time></trkpt><trkpt lat="43.9322915" lon="11.1791909"><ele>542.4</ele><time>2026-04-12T05:17:15.957Z</time></trkpt><trkpt lat="43.9322927" lon="11.1793509"><ele>546.6</ele><time>2026-04-12T05:17:17.962Z</time></trkpt><trkpt lat="43.9323" lon="11.1795095"><ele>550.8</ele><time>2026-04-12T05:17:19.948Z</time></trkpt><trkpt lat="43.9323027" lon="11.1796017"><ele>555.0</ele><time>2026-04-12T05:17:20.948Z</time></trkpt><trkpt lat="43.9323384" lon="11.1797846"><ele>554.8571428571429</ele><time>2026-04-12T05:17:22.944Z</time></trkpt><trkpt lat="43.9323671" lon="11.1798659"><ele>554.7142857142858</ele><time>2026-04-12T05:17:23.949Z</time></trkpt><trkpt lat="43.932392" lon="11.1799504"><ele>554.5714285714286</ele><time>2026-04-12T05:17:24.961Z</time></trkpt><trkpt lat="43.9324126" lon="11.1800466"><ele>554.4285714285714</ele><time>2026-04-12T05:17:25.981Z</time></trkpt><trkpt lat="43.9324419" lon="11.1801512"><ele>554.2857142857142</ele><time>2026-04-12T05:17:26.969Z</time></trkpt><trkpt lat="43.9324665" lon="11.1802539"><ele>554.1428571428571</ele><time>2026-04-12T05:17:27.948Z</time></trkpt><trkpt lat="43.9324944" lon="11.1803565"><ele>554.0</ele><time>2026-04-12T05:17:28.945Z</time></trkpt><trkpt lat="43.9325002" lon="11.1804638"><ele>554.0</ele><time>2026-04-12T05:17:29.951Z</time></trkpt><trkpt lat="43.9325036" lon="11.1805537"><ele>554.0</ele><time>2026-04-12T05:17:30.968Z</time></trkpt><trkpt lat="43.9324958" lon="11.180673"><ele>554.0</ele><time>2026-04-12T05:17:31.969Z</time></trkpt><trkpt lat="43.9325041" lon="11.1807803"><ele>554.0</ele><time>2026-04-12T05:17:32.967Z</time></trkpt><trkpt lat="43.9324968" lon="11.1808798"><ele>554.0</ele><time>2026-04-12T05:17:33.968Z</time></trkpt><trkpt lat="43.9325016" lon="11.1809902"><ele>554.0</ele><time>2026-04-12T05:17:34.969Z</time></trkpt><trkpt lat="43.9325215" lon="11.1811223"><ele>552.4</ele><time>2026-04-12T05:17:35.974Z</time></trkpt><trkpt lat="43.9325305" lon="11.1812429"><ele>550.8</ele><time>2026-04-12T05:17:36.963Z</time></trkpt><trkpt lat="43.9325649" lon="11.1814089"><ele>549.2</ele><time>2026-04-12T05:17:38.972Z</time></trkpt><trkpt lat="43.9326311" lon="11.1815574"><ele>547.6</ele><time>2026-04-12T05:17:39.966Z</time></trkpt><trkpt lat="43.932633" lon="11.1816591"><ele>546.0</ele><time>2026-04-12T05:17:40.979Z</time></trkpt><trkpt lat="43.9326275" lon="11.1817571"><ele>552.6</ele><time>2026-04-12T05:17:41.967Z</time></trkpt><trkpt lat="43.9326281" lon="11.1818631"><ele>559.2</ele><time>2026-04-12T05:17:42.962Z</time></trkpt><trkpt lat="43.9326425" lon="11.1819665"><ele>565.8</ele><time>2026-04-12T05:17:43.965Z</time></trkpt><trkpt lat="43.9326424" lon="11.1820606"><ele>572.4</ele><time>2026-04-12T05:17:44.979Z</time></trkpt><trkpt lat="43.9326661" lon="11.1822243"><ele>579.0</ele><time>2026-04-12T05:17:46.966Z</time></trkpt><trkpt lat="43.9326838" lon="11.1823932"><ele>578.9999999999999</ele><time>2026-04-12T05:17:48.959Z</time></trkpt><trkpt lat="43.9326848" lon="11.1824892"><ele>579.0</ele><time>2026-04-12T05:17:49.967Z</time></trkpt><trkpt lat="43.932688" lon="11.1825994"><ele>579.0</ele><time>2026-04-12T05:17:50.972Z</time></trkpt><trkpt lat="43.9326904" lon="11.1827016"><ele>579.0</ele><time>2026-04-12T05:17:51.971Z</time></trkpt><trkpt lat="43.9326879" lon="11.1828056"><ele>579.0</ele><time>2026-04-12T05:17:52.964Z</time></trkpt><trkpt lat="43.9326857" lon="11.1829055"><ele>578.9999999999999</ele><time>2026-04-12T05:17:53.96Z</time></trkpt><trkpt lat="43.9326856" lon="11.1830155"><ele>579.0</ele><time>2026-04-12T05:17:54.968Z</time></trkpt><trkpt lat="43.9326751" lon="11.1831903"><ele>577.6666666666666</ele><time>2026-04-12T05:17:55.959Z</time></trkpt><trkpt lat="43.932658" lon="11.1833074"><ele>576.3333333333334</ele><time>2026-04-12T05:17:56.964Z</time></trkpt><trkpt lat="43.9326474" lon="11.1834432"><ele>575.0</ele><time>2026-04-12T05:17:57.961Z</time></trkpt><trkpt lat="43.932642" lon="11.1835686"><ele>573.6666666666667</ele><time>2026-04-12T05:17:58.953Z</time></trkpt><trkpt lat="43.9326457" lon="11.1836941"><ele>572.3333333333334</ele><time>2026-04-12T05:17:59.956Z</time></trkpt><trkpt lat="43.9326495" lon="11.1838051"><ele>571.0</ele><time>2026-04-12T05:18:00.968Z</time></trkpt><trkpt lat="43.9326655" lon="11.1839076"><ele>571.0</ele><time>2026-04-12T05:18:01.97Z</time></trkpt><trkpt lat="43.9326956" lon="11.1839884"><ele>571.0</ele><time>2026-04-12T05:18:02.962Z</time></trkpt><trkpt lat="43.9327364" lon="11.1840615"><ele>571.0</ele><time>2026-04-12T05:18:03.967Z</time></trkpt><trkpt lat="43.9327947" lon="11.1841171"><ele>571.0</ele><time>2026-04-12T05:18:04.964Z</time></trkpt><trkpt lat="43.9328686" lon="11.1841622"><ele>571.0</ele><time>2026-04-12T05:18:05.974Z</time></trkpt><trkpt lat="43.93294" lon="11.1842268"><ele>571.0</ele><time>2026-04-12T05:18:06.975Z</time></trkpt><trkpt lat="43.9330126" lon="11.1842886"><ele>569.3333333333334</ele><time>2026-04-12T05:18:07.957Z</time></trkpt><trkpt lat="43.9330896" lon="11.1843461"><ele>567.6666666666667</ele><time>2026-04-12T05:18:08.978Z</time></trkpt><trkpt lat="43.9331491" lon="11.1844031"><ele>566.0</ele><time>2026-04-12T05:18:09.977Z</time></trkpt><trkpt lat="43.9332556" lon="11.1845091"><ele>564.3333333333334</ele><time>2026-04-12T05:18:11.96Z</time></trkpt><trkpt lat="43.9333161" lon="11.1845709"><ele>562.6666666666666</ele><time>2026-04-12T05:18:12.967Z</time></trkpt><trkpt lat="43.9333776" lon="11.1846269"><ele>561.0</ele><time>2026-04-12T05:18:13.973Z</time></trkpt><trkpt lat="43.9334357" lon="11.1846751"><ele>561.0</ele><time>2026-04-12T05:18:14.971Z</time></trkpt><trkpt lat="43.9334975" lon="11.1847077"><ele>561.0</ele><time>2026-04-12T05:18:15.97Z</time></trkpt><trkpt lat="43.9335991" lon="11.1847922"><ele>561.0</ele><time>2026-04-12T05:18:17.963Z</time></trkpt><trkpt lat="43.9336718" lon="11.1849142"><ele>561.0</ele><time>2026-04-12T05:18:19.966Z</time></trkpt><trkpt lat="43.9337573" lon="11.1850266"><ele>561.0</ele><time>2026-04-12T05:18:21.965Z</time></trkpt><trkpt lat="43.933812" lon="11.1850738"><ele>555.4</ele><time>2026-04-12T05:18:22.968Z</time></trkpt><trkpt lat="43.9338672" lon="11.1851237"><ele>549.8</ele><time>2026-04-12T05:18:23.967Z</time></trkpt><trkpt lat="43.9339664" lon="11.1852399"><ele>544.1999999999999</ele><time>2026-04-12T05:18:25.946Z</time></trkpt><trkpt lat="43.9340141" lon="11.1852987"><ele>538.6</ele><time>2026-04-12T05:18:26.956Z</time></trkpt><trkpt lat="43.9340895" lon="11.1853856"><ele>533.0</ele><time>2026-04-12T05:18:28.965Z</time></trkpt><trkpt lat="43.9341599" lon="11.1855023"><ele>533.4</ele><time>2026-04-12T05:18:30.97Z</time></trkpt><trkpt lat="43.9342413" lon="11.1856327"><ele>533.8</ele><time>2026-04-12T05:18:32.963Z</time></trkpt><trkpt lat="43.9342772" lon="11.1857675"><ele>534.2</ele><time>2026-04-12T05:18:35.031Z</time></trkpt><trkpt lat="43.9342905" lon="11.1859105"><ele>534.6</ele><time>2026-04-12T05:18:36.959Z</time></trkpt><trkpt lat="43.9343433" lon="11.1860556"><ele>535.0</ele><time>2026-04-12T05:18:38.971Z</time></trkpt><trkpt lat="43.9344436" lon="11.1861814"><ele>533.0</ele><time>2026-04-12T05:18:40.963Z</time></trkpt><trkpt lat="43.9344913" lon="11.1862428"><ele>531.0</ele><time>2026-04-12T05:18:41.972Z</time></trkpt><trkpt lat="43.9345446" lon="11.1862969"><ele>529.0</ele><time>2026-04-12T05:18:42.96Z</time></trkpt><trkpt lat="43.9345963" lon="11.186364"><ele>527.0</ele><time>2026-04-12T05:18:43.97Z</time></trkpt><trkpt lat="43.9346537" lon="11.1864267"><ele>525.0</ele><time>2026-04-12T05:18:44.974Z</time></trkpt><trkpt lat="43.9347128" lon="11.1864845"><ele>523.0</ele><time>2026-04-12T05:18:45.972Z</time></trkpt><trkpt lat="43.9347673" lon="11.1865345"><ele>521.0</ele><time>2026-04-12T05:18:46.966Z</time></trkpt><trkpt lat="43.9348248" lon="11.1865891"><ele>520.4285714285714</ele><time>2026-04-12T05:18:47.965Z</time></trkpt><trkpt lat="43.9348822" lon="11.1866418"><ele>519.8571428571429</ele><time>2026-04-12T05:18:48.96Z</time></trkpt><trkpt lat="43.9349422" lon="11.1866968"><ele>519.2857142857143</ele><time>2026-04-12T05:18:49.968Z</time></trkpt><trkpt lat="43.9350042" lon="11.1867509"><ele>518.7142857142858</ele><time>2026-04-12T05:18:50.966Z</time></trkpt><trkpt lat="43.935069" lon="11.1868069"><ele>518.1428571428572</ele><time>2026-04-12T05:18:51.97Z</time></trkpt><trkpt lat="43.9351247" lon="11.1868587"><ele>517.5714285714286</ele><time>2026-04-12T05:18:52.964Z</time></trkpt><trkpt lat="43.9351976" lon="11.1869025"><ele>517.0</ele><time>2026-04-12T05:18:53.973Z</time></trkpt><trkpt lat="43.9352682" lon="11.1869434"><ele>517.0</ele><time>2026-04-12T05:18:54.969Z</time></trkpt><trkpt lat="43.9353446" lon="11.1869751"><ele>517.0</ele><time>2026-04-12T05:18:55.965Z</time></trkpt><trkpt lat="43.9354098" lon="11.1870144"><ele>517.0</ele><time>2026-04-12T05:18:56.975Z</time></trkpt><trkpt lat="43.935478" lon="11.1870571"><ele>517.0</ele><time>2026-04-12T05:18:57.975Z</time></trkpt><trkpt lat="43.9355514" lon="11.1871665"><ele>517.0</ele><time>2026-04-12T05:18:59.968Z</time></trkpt><trkpt lat="43.9356217" lon="11.1872806"><ele>517.0</ele><time>2026-04-12T05:19:01.958Z</time></trkpt><trkpt lat="43.9356888" lon="11.1873482"><ele>515.8571428571429</ele><time>2026-04-12T05:19:03.959Z</time></trkpt><trkpt lat="43.9357444" lon="11.1874005"><ele>514.7142857142858</ele><time>2026-04-12T05:19:05.958Z</time></trkpt><trkpt lat="43.9357996" lon="11.1874718"><ele>513.5714285714286</ele><time>2026-04-12T05:19:07.96Z</time></trkpt><trkpt lat="43.935852" lon="11.1875447"><ele>512.4285714285714</ele><time>2026-04-12T05:19:09.96Z</time></trkpt><trkpt lat="43.9358907" lon="11.1876497"><ele>511.2857142857143</ele><time>2026-04-12T05:19:12.97Z</time></trkpt><trkpt lat="43.9358475" lon="11.1877228"><ele>510.1428571428571</ele><time>2026-04-12T05:19:16.961Z</time></trkpt><trkpt lat="43.9357872" lon="11.1877548"><ele>508.99999999999994</ele><time>2026-04-12T05:19:19.969Z</time></trkpt><trkpt lat="43.9357457" lon="11.1878225"><ele>508.71428571428567</ele><time>2026-04-12T05:19:22.954Z</time></trkpt><trkpt lat="43.9357035" lon="11.1878906"><ele>508.42857142857144</ele><time>2026-04-12T05:19:25.979Z</time></trkpt><trkpt lat="43.935652" lon="11.1879445"><ele>508.1428571428571</ele><time>2026-04-12T05:19:29.972Z</time></trkpt><trkpt lat="43.9356369" lon="11.1880323"><ele>507.85714285714283</ele><time>2026-04-12T05:19:33.969Z</time></trkpt><trkpt lat="43.9356381" lon="11.1881515"><ele>507.57142857142856</ele><time>2026-04-12T05:19:36.971Z</time></trkpt><trkpt lat="43.9356054" lon="11.1882284"><ele>507.2857142857143</ele><time>2026-04-12T05:19:38.968Z</time></trkpt><trkpt lat="43.9355656" lon="11.1882972"><ele>507.0</ele><time>2026-04-12T05:19:40.971Z</time></trkpt><trkpt lat="43.9355217" lon="11.1883638"><ele>505.0</ele><time>2026-04-12T05:19:42.962Z</time></trkpt><trkpt lat="43.9354659" lon="11.1884155"><ele>503.0</ele><time>2026-04-12T05:19:44.962Z</time></trkpt><trkpt lat="43.935397" lon="11.1884491"><ele>501.0</ele><time>2026-04-12T05:19:46.966Z</time></trkpt><trkpt lat="43.9353254" lon="11.1884722"><ele>499.0</ele><time>2026-04-12T05:19:48.967Z</time></trkpt><trkpt lat="43.9352166" lon="11.1884573"><ele>497.0</ele><time>2026-04-12T05:19:50.958Z</time></trkpt><trkpt lat="43.9351144" lon="11.1884012"><ele>495.0</ele><time>2026-04-12T05:19:52.968Z</time></trkpt><trkpt lat="43.9350427" lon="11.1883704"><ele>494.0</ele><time>2026-04-12T05:19:54.959Z</time></trkpt><trkpt lat="43.9349746" lon="11.188336"><ele>493.0</ele><time>2026-04-12T05:19:57.968Z</time></trkpt><trkpt lat="43.9348996" lon="11.1883206"><ele>492.0</ele><time>2026-04-12T05:20:00.962Z</time></trkpt><trkpt lat="43.9348175" lon="11.1883193"><ele>491.0</ele><time>2026-04-12T05:20:03.962Z</time></trkpt><trkpt lat="43.9347366" lon="11.1883178"><ele>490.0</ele><time>2026-04-12T05:20:06.955Z</time></trkpt><trkpt lat="43.9346684" lon="11.1883146"><ele>489.0</ele><time>2026-04-12T05:20:08.966Z</time></trkpt><trkpt lat="43.9345833" lon="11.1883011"><ele>489.0</ele><time>2026-04-12T05:20:10.974Z</time></trkpt><trkpt lat="43.9345028" lon="11.1882955"><ele>489.0</ele><time>2026-04-12T05:20:12.961Z</time></trkpt><trkpt lat="43.9344105" lon="11.188283"><ele>489.0</ele><time>2026-04-12T05:20:15.967Z</time></trkpt><trkpt lat="43.9343392" lon="11.1882782"><ele>489.0</ele><time>2026-04-12T05:20:17.97Z</time></trkpt><trkpt lat="43.9342548" lon="11.1882812"><ele>489.0</ele><time>2026-04-12T05:20:19.966Z</time></trkpt><trkpt lat="43.9341831" lon="11.1882863"><ele>489.0</ele><time>2026-04-12T05:20:21.972Z</time></trkpt><trkpt lat="43.9341103" lon="11.1882957"><ele>487.3333333333333</ele><time>2026-04-12T05:20:23.97Z</time></trkpt><trkpt lat="43.934021" lon="11.1883032"><ele>485.66666666666663</ele><time>2026-04-12T05:20:25.943Z</time></trkpt><trkpt lat="43.9339281" lon="11.1883075"><ele>484.0</ele><time>2026-04-12T05:20:27.971Z</time></trkpt><trkpt lat="43.9338367" lon="11.1882952"><ele>482.3333333333333</ele><time>2026-04-12T05:20:29.958Z</time></trkpt><trkpt lat="43.9337477" lon="11.1883153"><ele>480.66666666666663</ele><time>2026-04-12T05:20:31.959Z</time></trkpt><trkpt lat="43.9336795" lon="11.1883343"><ele>479.0</ele><time>2026-04-12T05:20:32.966Z</time></trkpt><trkpt lat="43.9336096" lon="11.1883773"><ele>479.0</ele><time>2026-04-12T05:20:33.965Z</time></trkpt><trkpt lat="43.9335186" lon="11.1884044"><ele>479.0</ele><time>2026-04-12T05:20:35.966Z</time></trkpt><trkpt lat="43.9334403" lon="11.1884261"><ele>479.0</ele><time>2026-04-12T05:20:37.967Z</time></trkpt><trkpt lat="43.9333207" lon="11.1884922"><ele>479.0</ele><time>2026-04-12T05:20:40.034Z</time></trkpt><trkpt lat="43.9332497" lon="11.1885371"><ele>479.0</ele><time>2026-04-12T05:20:41.048Z</time></trkpt><trkpt lat="43.9331759" lon="11.1885699"><ele>477.79999999999995</ele><time>2026-04-12T05:20:41.958Z</time></trkpt><trkpt lat="43.9331178" lon="11.1886057"><ele>476.59999999999997</ele><time>2026-04-12T05:20:42.964Z</time></trkpt><trkpt lat="43.9330264" lon="11.1886598"><ele>475.4</ele><time>2026-04-12T05:20:44.948Z</time></trkpt><trkpt lat="43.9329132" lon="11.1887142"><ele>474.2</ele><time>2026-04-12T05:20:46.956Z</time></trkpt><trkpt lat="43.9328497" lon="11.1887577"><ele>473.0</ele><time>2026-04-12T05:20:47.973Z</time></trkpt><trkpt lat="43.9327306" lon="11.1888291"><ele>472.99999999999994</ele><time>2026-04-12T05:20:50.031Z</time></trkpt><trkpt lat="43.9326574" lon="11.1888759"><ele>473.0</ele><time>2026-04-12T05:20:51.955Z</time></trkpt><trkpt lat="43.9325871" lon="11.1889362"><ele>473.0</ele><time>2026-04-12T05:20:54.969Z</time></trkpt><trkpt lat="43.9325101" lon="11.1889675"><ele>473.0</ele><time>2026-04-12T05:20:58.966Z</time></trkpt><trkpt lat="43.9324482" lon="11.1890027"><ele>472.99999999999994</ele><time>2026-04-12T05:21:01.035Z</time></trkpt><trkpt lat="43.9323735" lon="11.1890509"><ele>473.0</ele><time>2026-04-12T05:21:02.971Z</time></trkpt><trkpt lat="43.9322888" lon="11.1890809"><ele>471.2</ele><time>2026-04-12T05:21:04.964Z</time></trkpt><trkpt lat="43.932199" lon="11.1891192"><ele>469.4</ele><time>2026-04-12T05:21:06.967Z</time></trkpt><trkpt lat="43.9320809" lon="11.1891434"><ele>467.59999999999997</ele><time>2026-04-12T05:21:08.962Z</time></trkpt><trkpt lat="43.9319954" lon="11.1891428"><ele>465.79999999999995</ele><time>2026-04-12T05:21:09.96Z</time></trkpt><trkpt lat="43.9319098" lon="11.1891436"><ele>464.0</ele><time>2026-04-12T05:21:10.958Z</time></trkpt><trkpt lat="43.9318147" lon="11.1891485"><ele>464.0</ele><time>2026-04-12T05:21:11.966Z</time></trkpt><trkpt lat="43.9317386" lon="11.189123"><ele>464.0</ele><time>2026-04-12T05:21:12.961Z</time></trkpt><trkpt lat="43.9316376" lon="11.1890216"><ele>464.0</ele><time>2026-04-12T05:21:14.968Z</time></trkpt><trkpt lat="43.931564" lon="11.188912"><ele>464.0</ele><time>2026-04-12T05:21:16.962Z</time></trkpt><trkpt lat="43.9314739" lon="11.1888404"><ele>464.0</ele><time>2026-04-12T05:21:18.955Z</time></trkpt><trkpt lat="43.9313829" lon="11.1887499"><ele>463.2</ele><time>2026-04-12T05:21:20.957Z</time></trkpt><trkpt lat="43.9312947" lon="11.1886675"><ele>462.4</ele><time>2026-04-12T05:21:22.955Z</time></trkpt><trkpt lat="43.9312182" lon="11.1885974"><ele>461.6</ele><time>2026-04-12T05:21:24.951Z</time></trkpt><trkpt lat="43.9311255" lon="11.1885315"><ele>460.8</ele><time>2026-04-12T05:21:26.97Z</time></trkpt><trkpt lat="43.9310106" lon="11.1884882"><ele>460.0</ele><time>2026-04-12T05:21:29.009Z</time></trkpt><trkpt lat="43.9308996" lon="11.1884316"><ele>459.00000000000006</ele><time>2026-04-12T05:21:31.033Z</time></trkpt><trkpt lat="43.9307975" lon="11.1883449"><ele>458.0</ele><time>2026-04-12T05:21:32.974Z</time></trkpt><trkpt lat="43.9306994" lon="11.1882648"><ele>457.0</ele><time>2026-04-12T05:21:34.98Z</time></trkpt><trkpt lat="43.9306456" lon="11.188211"><ele>456.0</ele><time>2026-04-12T05:21:35.976Z</time></trkpt><trkpt lat="43.930587" lon="11.1881619"><ele>455.00000000000006</ele><time>2026-04-12T05:21:36.954Z</time></trkpt><trkpt lat="43.93053" lon="11.1881067"><ele>454.0</ele><time>2026-04-12T05:21:37.978Z</time></trkpt><trkpt lat="43.9304721" lon="11.1880587"><ele>454.00000000000006</ele><time>2026-04-12T05:21:38.962Z</time></trkpt><trkpt lat="43.9304056" lon="11.188022"><ele>454.0</ele><time>2026-04-12T05:21:40.004Z</time></trkpt><trkpt lat="43.9303462" lon="11.1879872"><ele>454.0</ele><time>2026-04-12T05:21:40.97Z</time></trkpt><trkpt lat="43.9302868" lon="11.1879569"><ele>454.0</ele><time>2026-04-12T05:21:41.975Z</time></trkpt><trkpt lat="43.9301703" lon="11.1878984"><ele>454.00000000000006</ele><time>2026-04-12T05:21:43.963Z</time></trkpt><trkpt lat="43.9301045" lon="11.187869"><ele>454.0</ele><time>2026-04-12T05:21:44.97Z</time></trkpt><trkpt lat="43.9300047" lon="11.1878096"><ele>452.79999999999995</ele><time>2026-04-12T05:21:46.97Z</time></trkpt><trkpt lat="43.9299519" lon="11.1877062"><ele>451.59999999999997</ele><time>2026-04-12T05:21:48.963Z</time></trkpt><trkpt lat="43.9299723" lon="11.1875707"><ele>450.4</ele><time>2026-04-12T05:21:50.962Z</time></trkpt><trkpt lat="43.9300309" lon="11.1874492"><ele>449.2</ele><time>2026-04-12T05:21:52.97Z</time></trkpt><trkpt lat="43.9300547" lon="11.1873287"><ele>448.0</ele><time>2026-04-12T05:21:54.96Z</time></trkpt><trkpt lat="43.9300685" lon="11.1871934"><ele>448.0</ele><time>2026-04-12T05:21:56.97Z</time></trkpt><trkpt lat="43.9300429" lon="11.1870675"><ele>447.99999999999994</ele><time>2026-04-12T05:21:58.974Z</time></trkpt><trkpt lat="43.9299989" lon="11.1869475"><ele>447.99999999999994</ele><time>2026-04-12T05:22:00.973Z</time></trkpt><trkpt lat="43.9299582" lon="11.1868179"><ele>448.0</ele><time>2026-04-12T05:22:02.963Z</time></trkpt><trkpt lat="43.9299037" lon="11.1867119"><ele>448.0</ele><time>2026-04-12T05:22:04.962Z</time></trkpt><trkpt lat="43.9298646" lon="11.1866201"><ele>448.00000000000006</ele><time>2026-04-12T05:22:06.971Z</time></trkpt><trkpt lat="43.9298367" lon="11.1865235"><ele>448.0</ele><time>2026-04-12T05:22:08.973Z</time></trkpt><trkpt lat="43.929814" lon="11.1864374"><ele>448.0</ele><time>2026-04-12T05:22:10.963Z</time></trkpt><trkpt lat="43.9297695" lon="11.1863498"><ele>448.0</ele><time>2026-04-12T05:22:13.973Z</time></trkpt><trkpt lat="43.9297372" lon="11.1862292"><ele>448.00000000000006</ele><time>2026-04-12T05:22:16.964Z</time></trkpt><trkpt lat="43.9297392" lon="11.1861108"><ele>448.0</ele><time>2026-04-12T05:22:18.969Z</time></trkpt><trkpt lat="43.9297471" lon="11.1859982"><ele>448.2857142857143</ele><time>2026-04-12T05:22:20.964Z</time></trkpt><trkpt lat="43.9297665" lon="11.1858906"><ele>448.57142857142856</ele><time>2026-04-12T05:22:22.964Z</time></trkpt><trkpt lat="43.9297836" lon="11.1857882"><ele>448.8571428571429</ele><time>2026-04-12T05:22:24.968Z</time></trkpt><trkpt lat="43.9297878" lon="11.1856926"><ele>449.14285714285717</ele><time>2026-04-12T05:22:26.971Z</time></trkpt><trkpt lat="43.9297701" lon="11.1855971"><ele>449.42857142857144</ele><time>2026-04-12T05:22:28.963Z</time></trkpt><trkpt lat="43.9297442" lon="11.1855139"><ele>449.7142857142858</ele><time>2026-04-12T05:22:30.967Z</time></trkpt><trkpt lat="43.9297106" lon="11.1854328"><ele>450.00000000000006</ele><time>2026-04-12T05:22:32.973Z</time></trkpt><trkpt lat="43.9296492" lon="11.1853317"><ele>450.2</ele><time>2026-04-12T05:22:35.975Z</time></trkpt><trkpt lat="43.9295971" lon="11.1852007"><ele>450.4</ele><time>2026-04-12T05:22:37.969Z</time></trkpt><trkpt lat="43.9295551" lon="11.1850754"><ele>450.6</ele><time>2026-04-12T05:22:40.026Z</time></trkpt><trkpt lat="43.929518" lon="11.1849863"><ele>450.8</ele><time>2026-04-12T05:22:41.97Z</time></trkpt><trkpt lat="43.9294702" lon="11.184878"><ele>451.0</ele><time>2026-04-12T05:22:44.973Z</time></trkpt><trkpt lat="43.9294402" lon="11.1847763"><ele>451.0</ele><time>2026-04-12T05:22:47.969Z</time></trkpt><trkpt lat="43.9294127" lon="11.1846725"><ele>451.0</ele><time>2026-04-12T05:22:51.038Z</time></trkpt><trkpt lat="43.9293936" lon="11.1845886"><ele>451.0</ele><time>2026-04-12T05:22:52.953Z</time></trkpt><trkpt lat="43.9293843" lon="11.1844897"><ele>451.0</ele><time>2026-04-12T05:22:54.965Z</time></trkpt><trkpt lat="43.9293716" lon="11.1844014"><ele>451.0</ele><time>2026-04-12T05:22:56.973Z</time></trkpt><trkpt lat="43.9293716" lon="11.184294"><ele>451.0</ele><time>2026-04-12T05:22:59.971Z</time></trkpt><trkpt lat="43.9293828" lon="11.1841982"><ele>451.0</ele><time>2026-04-12T05:23:02.961Z</time></trkpt><trkpt lat="43.9293893" lon="11.1841006"><ele>450.00000000000006</ele><time>2026-04-12T05:23:05.964Z</time></trkpt><trkpt lat="43.9293876" lon="11.1839888"><ele>449.0</ele><time>2026-04-12T05:23:08.963Z</time></trkpt><trkpt lat="43.9293964" lon="11.1838871"><ele>448.0</ele><time>2026-04-12T05:23:11.02Z</time></trkpt><trkpt lat="43.9294238" lon="11.1837654"><ele>447.0</ele><time>2026-04-12T05:23:12.967Z</time></trkpt><trkpt lat="43.9294422" lon="11.1836258"><ele>446.00000000000006</ele><time>2026-04-12T05:23:14.955Z</time></trkpt><trkpt lat="43.9294431" lon="11.183521"><ele>445.0</ele><time>2026-04-12T05:23:16.945Z</time></trkpt><trkpt lat="43.929456" lon="11.18341"><ele>445.00000000000006</ele><time>2026-04-12T05:23:18.952Z</time></trkpt><trkpt lat="43.9294884" lon="11.1832733"><ele>445.0</ele><time>2026-04-12T05:23:20.948Z</time></trkpt><trkpt lat="43.9295307" lon="11.1831651"><ele>445.0</ele><time>2026-04-12T05:23:22.968Z</time></trkpt><trkpt lat="43.9295678" lon="11.1830738"><ele>445.0</ele><time>2026-04-12T05:23:24.962Z</time></trkpt><trkpt lat="43.9296116" lon="11.18297"><ele>445.00000000000006</ele><time>2026-04-12T05:23:26.955Z</time></trkpt><trkpt lat="43.9296642" lon="11.1828607"><ele>445.0</ele><time>2026-04-12T05:23:28.963Z</time></trkpt><trkpt lat="43.9297295" lon="11.182731"><ele>444.00000000000006</ele><time>2026-04-12T05:23:30.972Z</time></trkpt><trkpt lat="43.929763" lon="11.182656"><ele>443.0</ele><time>2026-04-12T05:23:31.966Z</time></trkpt><trkpt lat="43.9297912" lon="11.1825688"><ele>442.0</ele><time>2026-04-12T05:23:32.964Z</time></trkpt><trkpt lat="43.9298193" lon="11.1824802"><ele>441.0</ele><time>2026-04-12T05:23:33.983Z</time></trkpt><trkpt lat="43.9298535" lon="11.1823404"><ele>440.00000000000006</ele><time>2026-04-12T05:23:35.971Z</time></trkpt><trkpt lat="43.9298772" lon="11.1822254"><ele>439.0</ele><time>2026-04-12T05:23:37.965Z</time></trkpt><trkpt lat="43.9298697" lon="11.18211"><ele>438.50000000000006</ele><time>2026-04-12T05:23:40.952Z</time></trkpt><trkpt lat="43.9298371" lon="11.1820254"><ele>438.0</ele><time>2026-04-12T05:23:43.963Z</time></trkpt><trkpt lat="43.9298157" lon="11.1819312"><ele>437.5</ele><time>2026-04-12T05:23:46.958Z</time></trkpt><trkpt lat="43.9297949" lon="11.1818287"><ele>437.0</ele><time>2026-04-12T05:23:49.971Z</time></trkpt><trkpt lat="43.9297521" lon="11.1817478"><ele>436.50000000000006</ele><time>2026-04-12T05:23:51.951Z</time></trkpt><trkpt lat="43.9296986" lon="11.1816426"><ele>436.0</ele><time>2026-04-12T05:23:53.967Z</time></trkpt><trkpt lat="43.929652" lon="11.18157"><ele>437.6</ele><time>2026-04-12T05:23:54.963Z</time></trkpt><trkpt lat="43.9296089" lon="11.1814885"><ele>439.20000000000005</ele><time>2026-04-12T05:23:55.967Z</time></trkpt><trkpt lat="43.9295693" lon="11.1814024"><ele>440.79999999999995</ele><time>2026-04-12T05:23:56.95Z</time></trkpt><trkpt lat="43.9295467" lon="11.1813101"><ele>442.4</ele><time>2026-04-12T05:23:58.031Z</time></trkpt><trkpt lat="43.9295046" lon="11.1811433"><ele>444.0</ele><time>2026-04-12T05:23:59.984Z</time></trkpt><trkpt lat="43.9294506" lon="11.1809684"><ele>444.0</ele><time>2026-04-12T05:24:01.959Z</time></trkpt><trkpt lat="43.929411" lon="11.1808765"><ele>444.0</ele><time>2026-04-12T05:24:02.958Z</time></trkpt><trkpt lat="43.9293821" lon="11.1807846"><ele>444.0</ele><time>2026-04-12T05:24:04.015Z</time></trkpt><trkpt lat="43.9293447" lon="11.180705"><ele>444.0</ele><time>2026-04-12T05:24:04.953Z</time></trkpt><trkpt lat="43.9293002" lon="11.1806333"><ele>444.0</ele><time>2026-04-12T05:24:06.034Z</time></trkpt><trkpt lat="43.9292485" lon="11.1805817"><ele>444.0</ele><time>2026-04-12T05:24:07.973Z</time></trkpt><trkpt lat="43.9292523" lon="11.1806733"><ele>444.0</ele><time>2026-04-12T05:24:13.027Z</time></trkpt><trkpt lat="43.9292773" lon="11.1807732"><ele>444.0</ele><time>2026-04-12T05:24:14.038Z</time></trkpt><trkpt lat="43.9292901" lon="11.1808827"><ele>444.0</ele><time>2026-04-12T05:24:15.03Z</time></trkpt><trkpt lat="43.9292798" lon="11.1809937"><ele>444.0</ele><time>2026-04-12T05:24:15.969Z</time></trkpt><trkpt lat="43.9292507" lon="11.1810926"><ele>444.0</ele><time>2026-04-12T05:24:16.971Z</time></trkpt><trkpt lat="43.9292093" lon="11.1811685"><ele>444.0</ele><time>2026-04-12T05:24:17.976Z</time></trkpt><trkpt lat="43.9291026" lon="11.1812679"><ele>444.0</ele><time>2026-04-12T05:24:20.028Z</time></trkpt><trkpt lat="43.9290454" lon="11.1813097"><ele>438.8333333333333</ele><time>2026-04-12T05:24:20.964Z</time></trkpt><trkpt lat="43.9289804" lon="11.1813464"><ele>433.66666666666663</ele><time>2026-04-12T05:24:21.973Z</time></trkpt><trkpt lat="43.9289021" lon="11.1813672"><ele>428.5</ele><time>2026-04-12T05:24:22.966Z</time></trkpt><trkpt lat="43.9288088" lon="11.1813873"><ele>423.3333333333333</ele><time>2026-04-12T05:24:23.976Z</time></trkpt><trkpt lat="43.9287215" lon="11.1814024"><ele>418.16666666666663</ele><time>2026-04-12T05:24:24.979Z</time></trkpt><trkpt lat="43.9286336" lon="11.1814313"><ele>413.0</ele><time>2026-04-12T05:24:25.966Z</time></trkpt><trkpt lat="43.9285552" lon="11.181453"><ele>412.99999999999994</ele><time>2026-04-12T05:24:26.969Z</time></trkpt><trkpt lat="43.92848" lon="11.1814767"><ele>413.0</ele><time>2026-04-12T05:24:27.968Z</time></trkpt><trkpt lat="43.9284083" lon="11.181475"><ele>413.0</ele><time>2026-04-12T05:24:28.97Z</time></trkpt><trkpt lat="43.9283213" lon="11.1813642"><ele>413.0</ele><time>2026-04-12T05:24:31.031Z</time></trkpt><trkpt lat="43.9282943" lon="11.1812518"><ele>412.99999999999994</ele><time>2026-04-12T05:24:31.967Z</time></trkpt><trkpt lat="43.9282652" lon="11.1811372"><ele>413.0</ele><time>2026-04-12T05:24:32.966Z</time></trkpt><trkpt lat="43.9282361" lon="11.1810148"><ele>408.99999999999994</ele><time>2026-04-12T05:24:33.989Z</time></trkpt><trkpt lat="43.9282173" lon="11.1809011"><ele>405.0</ele><time>2026-04-12T05:24:35.028Z</time></trkpt><trkpt lat="43.9281981" lon="11.1807947"><ele>401.0</ele><time>2026-04-12T05:24:36.03Z</time></trkpt><trkpt lat="43.9281692" lon="11.1806765"><ele>397.0</ele><time>2026-04-12T05:24:36.964Z</time></trkpt><trkpt lat="43.9281341" lon="11.1805719"><ele>392.99999999999994</ele><time>2026-04-12T05:24:37.965Z</time></trkpt><trkpt lat="43.9280981" lon="11.1804589"><ele>389.0</ele><time>2026-04-12T05:24:38.975Z</time></trkpt><trkpt lat="43.9280634" lon="11.1803418"><ele>388.99999999999994</ele><time>2026-04-12T05:24:39.961Z</time></trkpt><trkpt lat="43.9280293" lon="11.1802336"><ele>389.0</ele><time>2026-04-12T05:24:40.969Z</time></trkpt><trkpt lat="43.928026" lon="11.1801062"><ele>389.0</ele><time>2026-04-12T05:24:41.967Z</time></trkpt><trkpt lat="43.9280428" lon="11.179972"><ele>389.0</ele><time>2026-04-12T05:24:42.972Z</time></trkpt><trkpt lat="43.9280458" lon="11.179856"><ele>388.99999999999994</ele><time>2026-04-12T05:24:43.962Z</time></trkpt><trkpt lat="43.9280485" lon="11.1797567"><ele>389.0</ele><time>2026-04-12T05:24:45.038Z</time></trkpt><trkpt lat="43.9279881" lon="11.1796355"><ele>388.99999999999994</ele><time>2026-04-12T05:24:46.963Z</time></trkpt><trkpt lat="43.9278935" lon="11.1796718"><ele>389.0</ele><time>2026-04-12T05:24:48.992Z</time></trkpt><trkpt lat="43.9278615" lon="11.1797619"><ele>389.0</ele><time>2026-04-12T05:24:49.966Z</time></trkpt><trkpt lat="43.9278365" lon="11.1798534"><ele>389.0</ele><time>2026-04-12T05:24:50.963Z</time></trkpt><trkpt lat="43.9278251" lon="11.1799565"><ele>388.99999999999994</ele><time>2026-04-12T05:24:51.971Z</time></trkpt><trkpt lat="43.927807" lon="11.1800646"><ele>389.0</ele><time>2026-04-12T05:24:52.971Z</time></trkpt><trkpt lat="43.9277791" lon="11.1801773"><ele>389.0</ele><time>2026-04-12T05:24:54.019Z</time></trkpt><trkpt lat="43.9277532" lon="11.1802946"><ele>389.0</ele><time>2026-04-12T05:24:55.009Z</time></trkpt><trkpt lat="43.9277235" lon="11.1804152"><ele>389.0</ele><time>2026-04-12T05:24:56.033Z</time></trkpt><trkpt lat="43.9276909" lon="11.1805438"><ele>389.0</ele><time>2026-04-12T05:24:56.969Z</time></trkpt><trkpt lat="43.9276505" lon="11.1806827"><ele>389.0</ele><time>2026-04-12T05:24:57.969Z</time></trkpt><trkpt lat="43.9275967" lon="11.1808064"><ele>382.4</ele><time>2026-04-12T05:24:58.964Z</time></trkpt><trkpt lat="43.9275508" lon="11.180933"><ele>375.79999999999995</ele><time>2026-04-12T05:24:59.967Z</time></trkpt><trkpt lat="43.9275077" lon="11.1810407"><ele>369.20000000000005</ele><time>2026-04-12T05:25:00.957Z</time></trkpt><trkpt lat="43.9274584" lon="11.1811161"><ele>362.6</ele><time>2026-04-12T05:25:01.969Z</time></trkpt><trkpt lat="43.927325" lon="11.1811493"><ele>356.0</ele><time>2026-04-12T05:25:03.969Z</time></trkpt><trkpt lat="43.9272394" lon="11.1811295"><ele>355.99999999999994</ele><time>2026-04-12T05:25:04.952Z</time></trkpt><trkpt lat="43.9271692" lon="11.1811018"><ele>356.0</ele><time>2026-04-12T05:25:05.966Z</time></trkpt><trkpt lat="43.9270935" lon="11.1810676"><ele>356.0</ele><time>2026-04-12T05:25:06.963Z</time></trkpt><trkpt lat="43.9270184" lon="11.1810497"><ele>356.0</ele><time>2026-04-12T05:25:07.961Z</time></trkpt><trkpt lat="43.926935" lon="11.1810497"><ele>356.0</ele><time>2026-04-12T05:25:08.966Z</time></trkpt><trkpt lat="43.9268657" lon="11.1810665"><ele>355.99999999999994</ele><time>2026-04-12T05:25:09.965Z</time></trkpt><trkpt lat="43.9268096" lon="11.1811169"><ele>356.0</ele><time>2026-04-12T05:25:10.963Z</time></trkpt><trkpt lat="43.9267606" lon="11.1811904"><ele>352.6</ele><time>2026-04-12T05:25:11.965Z</time></trkpt><trkpt lat="43.9267039" lon="11.1812777"><ele>349.20000000000005</ele><time>2026-04-12T05:25:12.963Z</time></trkpt><trkpt lat="43.9266468" lon="11.1813698"><ele>345.79999999999995</ele><time>2026-04-12T05:25:13.968Z</time></trkpt><trkpt lat="43.9265851" lon="11.1814827"><ele>342.4</ele><time>2026-04-12T05:25:14.966Z</time></trkpt><trkpt lat="43.9265312" lon="11.1815945"><ele>339.0</ele><time>2026-04-12T05:25:15.977Z</time></trkpt><trkpt lat="43.9264911" lon="11.181695"><ele>339.0</ele><time>2026-04-12T05:25:16.969Z</time></trkpt><trkpt lat="43.9264554" lon="11.1817835"><ele>339.0</ele><time>2026-04-12T05:25:17.978Z</time></trkpt><trkpt lat="43.9263793" lon="11.18187"><ele>339.0</ele><time>2026-04-12T05:25:19.961Z</time></trkpt><trkpt lat="43.9262542" lon="11.181883"><ele>339.0</ele><time>2026-04-12T05:25:21.965Z</time></trkpt><trkpt lat="43.9261874" lon="11.1819063"><ele>339.0</ele><time>2026-04-12T05:25:22.973Z</time></trkpt><trkpt lat="43.9261131" lon="11.1819357"><ele>339.0</ele><time>2026-04-12T05:25:23.963Z</time></trkpt><trkpt lat="43.9260354" lon="11.182002"><ele>339.0</ele><time>2026-04-12T05:25:24.964Z</time></trkpt><trkpt lat="43.9259884" lon="11.1821"><ele>339.0</ele><time>2026-04-12T05:25:25.973Z</time></trkpt><trkpt lat="43.9259613" lon="11.1822139"><ele>339.0</ele><time>2026-04-12T05:25:26.963Z</time></trkpt><trkpt lat="43.9259358" lon="11.1823535"><ele>339.0</ele><time>2026-04-12T05:25:27.966Z</time></trkpt><trkpt lat="43.9259084" lon="11.1824986"><ele>339.0</ele><time>2026-04-12T05:25:28.967Z</time></trkpt><trkpt lat="43.9258768" lon="11.1826552"><ele>336.0</ele><time>2026-04-12T05:25:29.971Z</time></trkpt><trkpt lat="43.9258493" lon="11.1828085"><ele>333.0</ele><time>2026-04-12T05:25:30.975Z</time></trkpt><trkpt lat="43.9258329" lon="11.1829492"><ele>330.0</ele><time>2026-04-12T05:25:31.969Z</time></trkpt><trkpt lat="43.9258139" lon="11.1830744"><ele>327.0</ele><time>2026-04-12T05:25:32.96Z</time></trkpt><trkpt lat="43.9257773" lon="11.1831873"><ele>324.0</ele><time>2026-04-12T05:25:33.968Z</time></trkpt><trkpt lat="43.9257057" lon="11.1832958"><ele>322.59999999999997</ele><time>2026-04-12T05:25:34.963Z</time></trkpt><trkpt lat="43.9256215" lon="11.1834253"><ele>321.2</ele><time>2026-04-12T05:25:35.962Z</time></trkpt><trkpt lat="43.9255417" lon="11.1835469"><ele>319.79999999999995</ele><time>2026-04-12T05:25:36.969Z</time></trkpt><trkpt lat="43.9254827" lon="11.1836548"><ele>318.4</ele><time>2026-04-12T05:25:37.964Z</time></trkpt><trkpt lat="43.9254201" lon="11.1837271"><ele>317.0</ele><time>2026-04-12T05:25:38.965Z</time></trkpt><trkpt lat="43.9253317" lon="11.1837737"><ele>317.0</ele><time>2026-04-12T05:25:39.964Z</time></trkpt><trkpt lat="43.9252635" lon="11.1838126"><ele>317.0</ele><time>2026-04-12T05:25:40.964Z</time></trkpt><trkpt lat="43.9251901" lon="11.1838412"><ele>317.0</ele><time>2026-04-12T05:25:41.978Z</time></trkpt><trkpt lat="43.9250853" lon="11.1838867"><ele>317.0</ele><time>2026-04-12T05:25:43.973Z</time></trkpt><trkpt lat="43.9250102" lon="11.1840351"><ele>317.0</ele><time>2026-04-12T05:25:45.97Z</time></trkpt><trkpt lat="43.9249712" lon="11.1841481"><ele>312.75</ele><time>2026-04-12T05:25:46.971Z</time></trkpt><trkpt lat="43.9249192" lon="11.184281"><ele>308.5</ele><time>2026-04-12T05:25:47.969Z</time></trkpt><trkpt lat="43.9248632" lon="11.1844111"><ele>304.25</ele><time>2026-04-12T05:25:48.972Z</time></trkpt><trkpt lat="43.9248016" lon="11.1845478"><ele>300.0</ele><time>2026-04-12T05:25:49.968Z</time></trkpt><trkpt lat="43.9247451" lon="11.1846941"><ele>299.5</ele><time>2026-04-12T05:25:50.967Z</time></trkpt><trkpt lat="43.9247006" lon="11.1848592"><ele>299.0</ele><time>2026-04-12T05:25:51.957Z</time></trkpt><trkpt lat="43.9246652" lon="11.1850307"><ele>298.5</ele><time>2026-04-12T05:25:52.954Z</time></trkpt><trkpt lat="43.9246355" lon="11.1851947"><ele>298.0</ele><time>2026-04-12T05:25:53.963Z</time></trkpt><trkpt lat="43.9246018" lon="11.1853519"><ele>298.0</ele><time>2026-04-12T05:25:54.964Z</time></trkpt><trkpt lat="43.9245548" lon="11.1854846"><ele>298.0</ele><time>2026-04-12T05:25:55.966Z</time></trkpt><trkpt lat="43.9245026" lon="11.1856177"><ele>298.0</ele><time>2026-04-12T05:25:56.967Z</time></trkpt><trkpt lat="43.9244455" lon="11.1857551"><ele>298.0</ele><time>2026-04-12T05:25:57.96Z</time></trkpt><trkpt lat="43.9243958" lon="11.1858841"><ele>298.0</ele><time>2026-04-12T05:25:58.975Z</time></trkpt><trkpt lat="43.9243223" lon="11.1859917"><ele>297.0</ele><time>2026-04-12T05:25:59.965Z</time></trkpt><trkpt lat="43.9242573" lon="11.1860924"><ele>296.0</ele><time>2026-04-12T05:26:00.97Z</time></trkpt><trkpt lat="43.9242075" lon="11.1862005"><ele>295.0</ele><time>2026-04-12T05:26:01.969Z</time></trkpt><trkpt lat="43.9241727" lon="11.1863376"><ele>294.0</ele><time>2026-04-12T05:26:03.017Z</time></trkpt><trkpt lat="43.9241411" lon="11.1864961"><ele>293.0</ele><time>2026-04-12T05:26:04.012Z</time></trkpt><trkpt lat="43.9241175" lon="11.186661"><ele>293.0</ele><time>2026-04-12T05:26:05.029Z</time></trkpt><trkpt lat="43.9241005" lon="11.1868402"><ele>293.0</ele><time>2026-04-12T05:26:05.97Z</time></trkpt><trkpt lat="43.9240674" lon="11.1870142"><ele>293.0</ele><time>2026-04-12T05:26:06.961Z</time></trkpt><trkpt lat="43.9240101" lon="11.18719"><ele>293.0</ele><time>2026-04-12T05:26:07.954Z</time></trkpt><trkpt lat="43.9239451" lon="11.1873637"><ele>295.75</ele><time>2026-04-12T05:26:08.968Z</time></trkpt><trkpt lat="43.9238824" lon="11.1875189"><ele>298.5</ele><time>2026-04-12T05:26:09.969Z</time></trkpt><trkpt lat="43.9238133" lon="11.187648"><ele>301.25</ele><time>2026-04-12T05:26:10.959Z</time></trkpt><trkpt lat="43.9237465" lon="11.187766"><ele>304.0</ele><time>2026-04-12T05:26:11.951Z</time></trkpt><trkpt lat="43.923698" lon="11.1878888"><ele>304.0</ele><time>2026-04-12T05:26:12.965Z</time></trkpt><trkpt lat="43.923653" lon="11.1880304"><ele>304.0</ele><time>2026-04-12T05:26:13.967Z</time></trkpt><trkpt lat="43.9236027" lon="11.1881856"><ele>304.0</ele><time>2026-04-12T05:26:14.966Z</time></trkpt><trkpt lat="43.9235487" lon="11.1883563"><ele>304.0</ele><time>2026-04-12T05:26:15.962Z</time></trkpt><trkpt lat="43.9234993" lon="11.1885383"><ele>307.25</ele><time>2026-04-12T05:26:16.97Z</time></trkpt><trkpt lat="43.9234398" lon="11.1887071"><ele>310.5</ele><time>2026-04-12T05:26:17.975Z</time></trkpt><trkpt lat="43.9233706" lon="11.1888496"><ele>313.75</ele><time>2026-04-12T05:26:18.973Z</time></trkpt><trkpt lat="43.923294" lon="11.1889784"><ele>317.0</ele><time>2026-04-12T05:26:19.967Z</time></trkpt><trkpt lat="43.923217" lon="11.1890852"><ele>310.4</ele><time>2026-04-12T05:26:20.962Z</time></trkpt><trkpt lat="43.9231459" lon="11.1891863"><ele>303.79999999999995</ele><time>2026-04-12T05:26:21.962Z</time></trkpt><trkpt lat="43.9230847" lon="11.1892832"><ele>297.2</ele><time>2026-04-12T05:26:22.971Z</time></trkpt><trkpt lat="43.9230481" lon="11.1893911"><ele>290.59999999999997</ele><time>2026-04-12T05:26:23.965Z</time></trkpt><trkpt lat="43.9230423" lon="11.1895396"><ele>284.0</ele><time>2026-04-12T05:26:24.969Z</time></trkpt><trkpt lat="43.9230456" lon="11.1897029"><ele>283.2</ele><time>2026-04-12T05:26:25.967Z</time></trkpt><trkpt lat="43.9230484" lon="11.1898643"><ele>282.4</ele><time>2026-04-12T05:26:26.966Z</time></trkpt><trkpt lat="43.9230509" lon="11.1900018"><ele>281.6</ele><time>2026-04-12T05:26:27.979Z</time></trkpt><trkpt lat="43.9230383" lon="11.1901125"><ele>280.8</ele><time>2026-04-12T05:26:28.964Z</time></trkpt><trkpt lat="43.9230137" lon="11.1902207"><ele>280.0</ele><time>2026-04-12T05:26:29.955Z</time></trkpt><trkpt lat="43.9229401" lon="11.1903165"><ele>280.0</ele><time>2026-04-12T05:26:30.965Z</time></trkpt><trkpt lat="43.922844" lon="11.1904012"><ele>280.0</ele><time>2026-04-12T05:26:31.97Z</time></trkpt><trkpt lat="43.9227394" lon="11.1904982"><ele>280.0</ele><time>2026-04-12T05:26:32.974Z</time></trkpt><trkpt lat="43.922626" lon="11.1905955"><ele>280.0</ele><time>2026-04-12T05:26:33.972Z</time></trkpt><trkpt lat="43.9225435" lon="11.1907011"><ele>274.6</ele><time>2026-04-12T05:26:34.962Z</time></trkpt><trkpt lat="43.9224591" lon="11.1908005"><ele>269.2</ele><time>2026-04-12T05:26:35.949Z</time></trkpt><trkpt lat="43.9223887" lon="11.1909021"><ele>263.8</ele><time>2026-04-12T05:26:36.966Z</time></trkpt><trkpt lat="43.922328" lon="11.1910107"><ele>258.4</ele><time>2026-04-12T05:26:37.963Z</time></trkpt><trkpt lat="43.9222677" lon="11.1911101"><ele>253.0</ele><time>2026-04-12T05:26:38.965Z</time></trkpt><trkpt lat="43.9221786" lon="11.1911952"><ele>253.0</ele><time>2026-04-12T05:26:39.96Z</time></trkpt><trkpt lat="43.9220753" lon="11.1912704"><ele>253.0</ele><time>2026-04-12T05:26:40.967Z</time></trkpt><trkpt lat="43.9219673" lon="11.1913387"><ele>253.0</ele><time>2026-04-12T05:26:41.966Z</time></trkpt><trkpt lat="43.9218634" lon="11.1913686"><ele>253.0</ele><time>2026-04-12T05:26:43.035Z</time></trkpt><trkpt lat="43.9217473" lon="11.1913467"><ele>249.2</ele><time>2026-04-12T05:26:44.026Z</time></trkpt><trkpt lat="43.9216335" lon="11.1912969"><ele>245.4</ele><time>2026-04-12T05:26:45.015Z</time></trkpt><trkpt lat="43.9215436" lon="11.1912435"><ele>241.59999999999997</ele><time>2026-04-12T05:26:46.026Z</time></trkpt><trkpt lat="43.9214645" lon="11.191161"><ele>237.79999999999998</ele><time>2026-04-12T05:26:46.962Z</time></trkpt><trkpt lat="43.9213792" lon="11.1911076"><ele>234.0</ele><time>2026-04-12T05:26:47.976Z</time></trkpt><trkpt lat="43.9212863" lon="11.1910475"><ele>234.0</ele><time>2026-04-12T05:26:48.987Z</time></trkpt><trkpt lat="43.9211861" lon="11.1909906"><ele>233.99999999999997</ele><time>2026-04-12T05:26:50.019Z</time></trkpt><trkpt lat="43.9210878" lon="11.1909523"><ele>233.99999999999997</ele><time>2026-04-12T05:26:50.961Z</time></trkpt><trkpt lat="43.9209913" lon="11.1909379"><ele>234.0</ele><time>2026-04-12T05:26:51.973Z</time></trkpt><trkpt lat="43.9208826" lon="11.1909499"><ele>234.0</ele><time>2026-04-12T05:26:52.949Z</time></trkpt><trkpt lat="43.9207732" lon="11.191002"><ele>231.25</ele><time>2026-04-12T05:26:53.962Z</time></trkpt><trkpt lat="43.9206829" lon="11.1910985"><ele>228.5</ele><time>2026-04-12T05:26:54.962Z</time></trkpt><trkpt lat="43.9205801" lon="11.1911991"><ele>225.75</ele><time>2026-04-12T05:26:55.962Z</time></trkpt><trkpt lat="43.9204747" lon="11.1913022"><ele>223.0</ele><time>2026-04-12T05:26:56.964Z</time></trkpt><trkpt lat="43.9203664" lon="11.191425"><ele>220.25</ele><time>2026-04-12T05:26:57.953Z</time></trkpt><trkpt lat="43.9202559" lon="11.1915528"><ele>217.5</ele><time>2026-04-12T05:26:58.969Z</time></trkpt><trkpt lat="43.9201372" lon="11.191691"><ele>214.75</ele><time>2026-04-12T05:26:59.965Z</time></trkpt><trkpt lat="43.920027" lon="11.1918183"><ele>212.0</ele><time>2026-04-12T05:27:00.966Z</time></trkpt><trkpt lat="43.9199193" lon="11.1919225"><ele>212.0</ele><time>2026-04-12T05:27:01.963Z</time></trkpt><trkpt lat="43.9198162" lon="11.1920195"><ele>212.0</ele><time>2026-04-12T05:27:02.956Z</time></trkpt><trkpt lat="43.919708" lon="11.1921101"><ele>212.0</ele><time>2026-04-12T05:27:03.967Z</time></trkpt><trkpt lat="43.9195961" lon="11.192217"><ele>212.0</ele><time>2026-04-12T05:27:04.966Z</time></trkpt><trkpt lat="43.9194934" lon="11.1923219"><ele>215.5</ele><time>2026-04-12T05:27:05.962Z</time></trkpt><trkpt lat="43.91939" lon="11.1924246"><ele>219.0</ele><time>2026-04-12T05:27:06.963Z</time></trkpt><trkpt lat="43.9192642" lon="11.1925057"><ele>222.5</ele><time>2026-04-12T05:27:07.963Z</time></trkpt><trkpt lat="43.9191283" lon="11.1925763"><ele>226.0</ele><time>2026-04-12T05:27:08.953Z</time></trkpt><trkpt lat="43.9190162" lon="11.1926576"><ele>220.0</ele><time>2026-04-12T05:27:09.957Z</time></trkpt><trkpt lat="43.9189238" lon="11.1927264"><ele>214.00000000000003</ele><time>2026-04-12T05:27:10.953Z</time></trkpt><trkpt lat="43.9188193" lon="11.1927843"><ele>208.0</ele><time>2026-04-12T05:27:11.961Z</time></trkpt><trkpt lat="43.9187141" lon="11.1928296"><ele>202.0</ele><time>2026-04-12T05:27:12.959Z</time></trkpt><trkpt lat="43.9185974" lon="11.1928741"><ele>196.0</ele><time>2026-04-12T05:27:13.963Z</time></trkpt><trkpt lat="43.9184635" lon="11.1929177"><ele>192.75</ele><time>2026-04-12T05:27:14.965Z</time></trkpt><trkpt lat="43.9183313" lon="11.1929613"><ele>189.5</ele><time>2026-04-12T05:27:15.963Z</time></trkpt><trkpt lat="43.9182011" lon="11.1929943"><ele>186.25</ele><time>2026-04-12T05:27:16.969Z</time></trkpt><trkpt lat="43.918082" lon="11.1930253"><ele>183.0</ele><time>2026-04-12T05:27:17.967Z</time></trkpt><trkpt lat="43.9179749" lon="11.193059"><ele>183.0</ele><time>2026-04-12T05:27:18.958Z</time></trkpt><trkpt lat="43.9178548" lon="11.1931015"><ele>183.0</ele><time>2026-04-12T05:27:19.959Z</time></trkpt><trkpt lat="43.9177493" lon="11.1931359"><ele>183.0</ele><time>2026-04-12T05:27:20.962Z</time></trkpt><trkpt lat="43.9176373" lon="11.1931682"><ele>183.0</ele><time>2026-04-12T05:27:21.973Z</time></trkpt><trkpt lat="43.9175171" lon="11.1931658"><ele>184.25</ele><time>2026-04-12T05:27:22.968Z</time></trkpt><trkpt lat="43.9173942" lon="11.19317"><ele>185.5</ele><time>2026-04-12T05:27:23.964Z</time></trkpt><trkpt lat="43.9172613" lon="11.1931857"><ele>186.75</ele><time>2026-04-12T05:27:24.963Z</time></trkpt><trkpt lat="43.9171258" lon="11.1932082"><ele>188.0</ele><time>2026-04-12T05:27:25.966Z</time></trkpt><trkpt lat="43.9169751" lon="11.1932261"><ele>188.0</ele><time>2026-04-12T05:27:26.966Z</time></trkpt><trkpt lat="43.9168112" lon="11.1932355"><ele>188.0</ele><time>2026-04-12T05:27:27.965Z</time></trkpt><trkpt lat="43.9166535" lon="11.1932377"><ele>188.0</ele><time>2026-04-12T05:27:28.96Z</time></trkpt><trkpt lat="43.916493" lon="11.1932382"><ele>185.75</ele><time>2026-04-12T05:27:29.957Z</time></trkpt><trkpt lat="43.9163463" lon="11.1932626"><ele>183.5</ele><time>2026-04-12T05:27:30.964Z</time></trkpt><trkpt lat="43.9162155" lon="11.1932863"><ele>181.25</ele><time>2026-04-12T05:27:31.947Z</time></trkpt><trkpt lat="43.9160848" lon="11.1933061"><ele>179.0</ele><time>2026-04-12T05:27:32.942Z</time></trkpt><trkpt lat="43.9159538" lon="11.1933133"><ele>177.0</ele><time>2026-04-12T05:27:34.04Z</time></trkpt><trkpt lat="43.9158126" lon="11.1933165"><ele>175.0</ele><time>2026-04-12T05:27:34.98Z</time></trkpt><trkpt lat="43.9156696" lon="11.1933026"><ele>173.0</ele><time>2026-04-12T05:27:36.02Z</time></trkpt><trkpt lat="43.9155226" lon="11.1932682"><ele>171.0</ele><time>2026-04-12T05:27:36.953Z</time></trkpt><trkpt lat="43.915371" lon="11.1932447"><ele>171.0</ele><time>2026-04-12T05:27:37.953Z</time></trkpt><trkpt lat="43.9152115" lon="11.1932409"><ele>171.0</ele><time>2026-04-12T05:27:38.96Z</time></trkpt><trkpt lat="43.915067" lon="11.1932635"><ele>171.0</ele><time>2026-04-12T05:27:39.951Z</time></trkpt><trkpt lat="43.9149356" lon="11.1933261"><ele>171.0</ele><time>2026-04-12T05:27:40.965Z</time></trkpt><trkpt lat="43.91481" lon="11.1934229"><ele>169.0</ele><time>2026-04-12T05:27:41.952Z</time></trkpt><trkpt lat="43.9146972" lon="11.1935408"><ele>167.0</ele><time>2026-04-12T05:27:42.958Z</time></trkpt><trkpt lat="43.914588" lon="11.1936628"><ele>165.0</ele><time>2026-04-12T05:27:43.958Z</time></trkpt><trkpt lat="43.9144961" lon="11.1937622"><ele>163.0</ele><time>2026-04-12T05:27:44.96Z</time></trkpt><trkpt lat="43.9144097" lon="11.1938523"><ele>163.0</ele><time>2026-04-12T05:27:45.954Z</time></trkpt><trkpt lat="43.9143191" lon="11.1939404"><ele>163.0</ele><time>2026-04-12T05:27:46.934Z</time></trkpt><trkpt lat="43.9142499" lon="11.1940547"><ele>163.0</ele><time>2026-04-12T05:27:47.934Z</time></trkpt><trkpt lat="43.9141952" lon="11.1941976"><ele>163.0</ele><time>2026-04-12T05:27:48.947Z</time></trkpt><trkpt lat="43.9141891" lon="11.1943521"><ele>163.0</ele><time>2026-04-12T05:27:49.932Z</time></trkpt><trkpt lat="43.9142014" lon="11.1945125"><ele>161.6</ele><time>2026-04-12T05:27:50.933Z</time></trkpt><trkpt lat="43.9142241" lon="11.1946578"><ele>160.20000000000002</ele><time>2026-04-12T05:27:51.941Z</time></trkpt><trkpt lat="43.9142336" lon="11.194785"><ele>158.8</ele><time>2026-04-12T05:27:52.932Z</time></trkpt><trkpt lat="43.914211" lon="11.1949028"><ele>157.4</ele><time>2026-04-12T05:27:53.948Z</time></trkpt><trkpt lat="43.914164" lon="11.1949938"><ele>156.0</ele><time>2026-04-12T05:27:54.932Z</time></trkpt><trkpt lat="43.9141052" lon="11.1950831"><ele>155.8</ele><time>2026-04-12T05:27:55.962Z</time></trkpt><trkpt lat="43.9140233" lon="11.1951648"><ele>155.6</ele><time>2026-04-12T05:27:56.946Z</time></trkpt><trkpt lat="43.913947" lon="11.1952209"><ele>155.4</ele><time>2026-04-12T05:27:57.953Z</time></trkpt><trkpt lat="43.9138576" lon="11.1952394"><ele>155.2</ele><time>2026-04-12T05:27:58.935Z</time></trkpt><trkpt lat="43.913755" lon="11.1952453"><ele>155.0</ele><time>2026-04-12T05:27:59.963Z</time></trkpt><trkpt lat="43.9136455" lon="11.1952445"><ele>155.0</ele><time>2026-04-12T05:28:00.953Z</time></trkpt><trkpt lat="43.9135437" lon="11.1952275"><ele>155.0</ele><time>2026-04-12T05:28:01.963Z</time></trkpt><trkpt lat="43.9134647" lon="11.1951926"><ele>155.0</ele><time>2026-04-12T05:28:02.965Z</time></trkpt><trkpt lat="43.9133911" lon="11.1951417"><ele>155.0</ele><time>2026-04-12T05:28:03.964Z</time></trkpt><trkpt lat="43.9133146" lon="11.1950784"><ele>155.0</ele><time>2026-04-12T05:28:05.029Z</time></trkpt><trkpt lat="43.9132493" lon="11.1950287"><ele>155.0</ele><time>2026-04-12T05:28:06.019Z</time></trkpt><trkpt lat="43.9131884" lon="11.1949931"><ele>155.6</ele><time>2026-04-12T05:28:06.965Z</time></trkpt><trkpt lat="43.9130756" lon="11.1949666"><ele>156.2</ele><time>2026-04-12T05:28:09Z</time></trkpt><trkpt lat="43.9129991" lon="11.1949711"><ele>156.8</ele><time>2026-04-12T05:28:09.968Z</time></trkpt><trkpt lat="43.9129071" lon="11.1949902"><ele>157.4</ele><time>2026-04-12T05:28:10.967Z</time></trkpt><trkpt lat="43.9128053" lon="11.1949927"><ele>158.0</ele><time>2026-04-12T05:28:11.973Z</time></trkpt><trkpt lat="43.9126938" lon="11.1949764"><ele>158.0</ele><time>2026-04-12T05:28:12.958Z</time></trkpt><trkpt lat="43.912582" lon="11.1949546"><ele>158.0</ele><time>2026-04-12T05:28:13.986Z</time></trkpt><trkpt lat="43.9124843" lon="11.1949102"><ele>158.0</ele><time>2026-04-12T05:28:14.967Z</time></trkpt><trkpt lat="43.9123975" lon="11.1948512"><ele>158.0</ele><time>2026-04-12T05:28:15.965Z</time></trkpt><trkpt lat="43.9123036" lon="11.1947794"><ele>158.0</ele><time>2026-04-12T05:28:16.95Z</time></trkpt><trkpt lat="43.9122111" lon="11.1947059"><ele>156.5</ele><time>2026-04-12T05:28:17.964Z</time></trkpt><trkpt lat="43.9121176" lon="11.1946286"><ele>155.0</ele><time>2026-04-12T05:28:18.97Z</time></trkpt><trkpt lat="43.9120272" lon="11.19454"><ele>153.5</ele><time>2026-04-12T05:28:19.965Z</time></trkpt><trkpt lat="43.9119325" lon="11.1944513"><ele>152.0</ele><time>2026-04-12T05:28:20.943Z</time></trkpt><trkpt lat="43.9118235" lon="11.1943778"><ele>155.25</ele><time>2026-04-12T05:28:21.96Z</time></trkpt><trkpt lat="43.9117022" lon="11.1943233"><ele>158.5</ele><time>2026-04-12T05:28:22.967Z</time></trkpt><trkpt lat="43.9115804" lon="11.19426"><ele>161.75</ele><time>2026-04-12T05:28:23.975Z</time></trkpt><trkpt lat="43.9114692" lon="11.1941736"><ele>165.0</ele><time>2026-04-12T05:28:24.975Z</time></trkpt><trkpt lat="43.9113604" lon="11.1940961"><ele>165.0</ele><time>2026-04-12T05:28:25.981Z</time></trkpt><trkpt lat="43.9112559" lon="11.1940241"><ele>165.0</ele><time>2026-04-12T05:28:26.962Z</time></trkpt><trkpt lat="43.9111521" lon="11.1939501"><ele>165.0</ele><time>2026-04-12T05:28:27.976Z</time></trkpt><trkpt lat="43.9110553" lon="11.1939039"><ele>165.0</ele><time>2026-04-12T05:28:28.971Z</time></trkpt><trkpt lat="43.910964" lon="11.1938506"><ele>165.0</ele><time>2026-04-12T05:28:29.963Z</time></trkpt><trkpt lat="43.9108832" lon="11.1937931"><ele>163.0</ele><time>2026-04-12T05:28:31.027Z</time></trkpt><trkpt lat="43.9108257" lon="11.1937396"><ele>161.0</ele><time>2026-04-12T05:28:31.964Z</time></trkpt><trkpt lat="43.91073" lon="11.1936739"><ele>159.0</ele><time>2026-04-12T05:28:33.965Z</time></trkpt><trkpt lat="43.9106273" lon="11.1936238"><ele>157.0</ele><time>2026-04-12T05:28:36.027Z</time></trkpt><trkpt lat="43.9105271" lon="11.1935662"><ele>155.0</ele><time>2026-04-12T05:28:37.969Z</time></trkpt><trkpt lat="43.910421" lon="11.1935424"><ele>155.0</ele><time>2026-04-12T05:28:40.034Z</time></trkpt><trkpt lat="43.9103046" lon="11.1935052"><ele>155.0</ele><time>2026-04-12T05:28:41.959Z</time></trkpt><trkpt lat="43.9102388" lon="11.1934999"><ele>155.0</ele><time>2026-04-12T05:28:42.967Z</time></trkpt><trkpt lat="43.9101689" lon="11.1935025"><ele>155.0</ele><time>2026-04-12T05:28:43.977Z</time></trkpt><trkpt lat="43.9101008" lon="11.1934968"><ele>155.0</ele><time>2026-04-12T05:28:44.984Z</time></trkpt><trkpt lat="43.9100334" lon="11.1934988"><ele>155.0</ele><time>2026-04-12T05:28:45.959Z</time></trkpt><trkpt lat="43.9099682" lon="11.1934965"><ele>157.83333333333331</ele><time>2026-04-12T05:28:47.014Z</time></trkpt><trkpt lat="43.9099049" lon="11.1935087"><ele>160.66666666666666</ele><time>2026-04-12T05:28:47.969Z</time></trkpt><trkpt lat="43.9098363" lon="11.1935118"><ele>163.5</ele><time>2026-04-12T05:28:48.962Z</time></trkpt><trkpt lat="43.9097564" lon="11.1934849"><ele>166.33333333333334</ele><time>2026-04-12T05:28:49.975Z</time></trkpt><trkpt lat="43.9096822" lon="11.1934769"><ele>169.16666666666669</ele><time>2026-04-12T05:28:51.029Z</time></trkpt><trkpt lat="43.9095553" lon="11.1934895"><ele>172.0</ele><time>2026-04-12T05:28:52.971Z</time></trkpt><trkpt lat="43.9094817" lon="11.1935216"><ele>172.0</ele><time>2026-04-12T05:28:54.97Z</time></trkpt><trkpt lat="43.909396" lon="11.1935631"><ele>172.0</ele><time>2026-04-12T05:28:56.951Z</time></trkpt><trkpt lat="43.9092865" lon="11.1936099"><ele>172.0</ele><time>2026-04-12T05:28:58.964Z</time></trkpt><trkpt lat="43.9091792" lon="11.193657"><ele>172.0</ele><time>2026-04-12T05:29:00.955Z</time></trkpt><trkpt lat="43.9091166" lon="11.1936762"><ele>172.0</ele><time>2026-04-12T05:29:03.03Z</time></trkpt><trkpt lat="43.9090367" lon="11.1936926"><ele>173.0</ele><time>2026-04-12T05:29:04.976Z</time></trkpt><trkpt lat="43.9089482" lon="11.1936988"><ele>174.0</ele><time>2026-04-12T05:29:06.977Z</time></trkpt><trkpt lat="43.9088633" lon="11.193715"><ele>175.0</ele><time>2026-04-12T05:29:08.966Z</time></trkpt><trkpt lat="43.9087916" lon="11.19371"><ele>176.0</ele><time>2026-04-12T05:29:11.966Z</time></trkpt><trkpt lat="43.9087529" lon="11.1937842"><ele>177.0</ele><time>2026-04-12T05:29:16.031Z</time></trkpt><trkpt lat="43.9087559" lon="11.1938763"><ele>178.0</ele><time>2026-04-12T05:29:18.965Z</time></trkpt><trkpt lat="43.9087782" lon="11.1939975"><ele>182.0</ele><time>2026-04-12T05:29:23.997Z</time></trkpt><trkpt lat="43.9087916" lon="11.1941127"><ele>186.0</ele><time>2026-04-12T05:29:26.955Z</time></trkpt><trkpt lat="43.9088194" lon="11.1942046"><ele>190.0</ele><time>2026-04-12T05:29:28.966Z</time></trkpt><trkpt lat="43.9088563" lon="11.194303"><ele>194.0</ele><time>2026-04-12T05:29:31.959Z</time></trkpt><trkpt lat="43.9088941" lon="11.1944131"><ele>197.99999999999997</ele><time>2026-04-12T05:29:34.957Z</time></trkpt><trkpt lat="43.9089437" lon="11.1945062"><ele>202.0</ele><time>2026-04-12T05:29:36.961Z</time></trkpt><trkpt lat="43.9089899" lon="11.1946029"><ele>201.99999999999997</ele><time>2026-04-12T05:29:38.968Z</time></trkpt><trkpt lat="43.9090395" lon="11.1947035"><ele>202.0</ele><time>2026-04-12T05:29:40.972Z</time></trkpt><trkpt lat="43.9090725" lon="11.1948146"><ele>202.0</ele><time>2026-04-12T05:29:42.96Z</time></trkpt><trkpt lat="43.9090894" lon="11.194912"><ele>202.0</ele><time>2026-04-12T05:29:44.981Z</time></trkpt><trkpt lat="43.909092" lon="11.1950375"><ele>201.99999999999997</ele><time>2026-04-12T05:29:46.967Z</time></trkpt><trkpt lat="43.909089" lon="11.195172"><ele>202.0</ele><time>2026-04-12T05:29:49Z</time></trkpt><trkpt lat="43.9090901" lon="11.1953031"><ele>203.33333333333331</ele><time>2026-04-12T05:29:50.964Z</time></trkpt><trkpt lat="43.9090895" lon="11.1954377"><ele>204.66666666666666</ele><time>2026-04-12T05:29:52.972Z</time></trkpt><trkpt lat="43.9090876" lon="11.1955814"><ele>206.0</ele><time>2026-04-12T05:29:54.974Z</time></trkpt><trkpt lat="43.9090849" lon="11.1956768"><ele>207.33333333333331</ele><time>2026-04-12T05:29:55.961Z</time></trkpt><trkpt lat="43.9090907" lon="11.1957781"><ele>208.66666666666666</ele><time>2026-04-12T05:29:56.977Z</time></trkpt><trkpt lat="43.909072" lon="11.1958698"><ele>210.0</ele><time>2026-04-12T05:29:58.036Z</time></trkpt><trkpt lat="43.9090502" lon="11.1960083"><ele>210.6</ele><time>2026-04-12T05:29:59.964Z</time></trkpt><trkpt lat="43.9090549" lon="11.1961293"><ele>211.2</ele><time>2026-04-12T05:30:01.962Z</time></trkpt><trkpt lat="43.9090619" lon="11.1962164"><ele>211.8</ele><time>2026-04-12T05:30:04.971Z</time></trkpt><trkpt lat="43.9091106" lon="11.1964094"><ele>212.4</ele><time>2026-04-12T05:30:14.962Z</time></trkpt><trkpt lat="43.9091188" lon="11.1964999"><ele>213.0</ele><time>2026-04-12T05:30:17.958Z</time></trkpt><trkpt lat="43.9091292" lon="11.1966328"><ele>214.85714285714283</ele><time>2026-04-12T05:30:21.019Z</time></trkpt><trkpt lat="43.9092095" lon="11.196624"><ele>216.71428571428572</ele><time>2026-04-12T05:30:28.952Z</time></trkpt><trkpt lat="43.9092443" lon="11.1965456"><ele>218.57142857142856</ele><time>2026-04-12T05:30:31.028Z</time></trkpt><trkpt lat="43.9092911" lon="11.196468"><ele>220.42857142857142</ele><time>2026-04-12T05:30:32.971Z</time></trkpt><trkpt lat="43.9093375" lon="11.196402"><ele>222.28571428571428</ele><time>2026-04-12T05:30:34.977Z</time></trkpt><trkpt lat="43.9093988" lon="11.1963298"><ele>224.14285714285714</ele><time>2026-04-12T05:30:36.973Z</time></trkpt><trkpt lat="43.9094494" lon="11.1962536"><ele>226.0</ele><time>2026-04-12T05:30:38.961Z</time></trkpt><trkpt lat="43.9094996" lon="11.1961544"><ele>226.99999999999997</ele><time>2026-04-12T05:30:41.983Z</time></trkpt><trkpt lat="43.9095428" lon="11.1960718"><ele>228.0</ele><time>2026-04-12T05:30:44.948Z</time></trkpt><trkpt lat="43.9096002" lon="11.1960288"><ele>229.0</ele><time>2026-04-12T05:30:47.966Z</time></trkpt><trkpt lat="43.9096744" lon="11.1960257"><ele>230.0</ele><time>2026-04-12T05:30:51.963Z</time></trkpt><trkpt lat="43.9097423" lon="11.1959478"><ele>230.99999999999997</ele><time>2026-04-12T05:30:54.974Z</time></trkpt><trkpt lat="43.9098192" lon="11.1958636"><ele>232.0</ele><time>2026-04-12T05:30:56.952Z</time></trkpt><trkpt lat="43.909857" lon="11.1957673"><ele>232.00000000000003</ele><time>2026-04-12T05:30:58.968Z</time></trkpt><trkpt lat="43.9098823" lon="11.1956785"><ele>232.0</ele><time>2026-04-12T05:31:00.963Z</time></trkpt><trkpt lat="43.9099021" lon="11.1955954"><ele>232.00000000000003</ele><time>2026-04-12T05:31:02.968Z</time></trkpt><trkpt lat="43.9099389" lon="11.1954847"><ele>232.00000000000003</ele><time>2026-04-12T05:31:05.965Z</time></trkpt><trkpt lat="43.909976" lon="11.1954133"><ele>232.0</ele><time>2026-04-12T05:31:07.974Z</time></trkpt><trkpt lat="43.9100389" lon="11.1953888"><ele>232.00000000000003</ele><time>2026-04-12T05:31:13.954Z</time></trkpt><trkpt lat="43.9100438" lon="11.1954809"><ele>232.00000000000003</ele><time>2026-04-12T05:31:16.964Z</time></trkpt><trkpt lat="43.9100984" lon="11.1955704"><ele>233.14285714285717</ele><time>2026-04-12T05:31:19.964Z</time></trkpt><trkpt lat="43.9101423" lon="11.1956463"><ele>234.28571428571428</ele><time>2026-04-12T05:31:21.972Z</time></trkpt><trkpt lat="43.9101845" lon="11.1957182"><ele>235.42857142857144</ele><time>2026-04-12T05:31:23.991Z</time></trkpt><trkpt lat="43.9102215" lon="11.1957988"><ele>236.57142857142858</ele><time>2026-04-12T05:31:26.034Z</time></trkpt><trkpt lat="43.9102774" lon="11.1958941"><ele>237.71428571428572</ele><time>2026-04-12T05:31:29.969Z</time></trkpt><trkpt lat="43.910307" lon="11.1959775"><ele>238.85714285714286</ele><time>2026-04-12T05:31:31.975Z</time></trkpt><trkpt lat="43.9103344" lon="11.1960811"><ele>240.0</ele><time>2026-04-12T05:31:33.969Z</time></trkpt><trkpt lat="43.9103704" lon="11.1961829"><ele>240.0</ele><time>2026-04-12T05:31:35.974Z</time></trkpt><trkpt lat="43.9103566" lon="11.1962962"><ele>240.0</ele><time>2026-04-12T05:31:38.967Z</time></trkpt><trkpt lat="43.9103277" lon="11.196383"><ele>240.0</ele><time>2026-04-12T05:31:40.971Z</time></trkpt><trkpt lat="43.9102987" lon="11.1964635"><ele>240.0</ele><time>2026-04-12T05:31:42.967Z</time></trkpt><trkpt lat="43.9102636" lon="11.1965764"><ele>240.0</ele><time>2026-04-12T05:31:46.042Z</time></trkpt><trkpt lat="43.9102432" lon="11.196663"><ele>240.0</ele><time>2026-04-12T05:31:47.961Z</time></trkpt><trkpt lat="43.9102605" lon="11.1967698"><ele>241.83333333333334</ele><time>2026-04-12T05:31:51.977Z</time></trkpt><trkpt lat="43.9103284" lon="11.1968215"><ele>243.66666666666669</ele><time>2026-04-12T05:32:01.974Z</time></trkpt><trkpt lat="43.910392" lon="11.1968364"><ele>245.5</ele><time>2026-04-12T05:32:04.971Z</time></trkpt><trkpt lat="43.9104667" lon="11.1968236"><ele>247.33333333333334</ele><time>2026-04-12T05:32:07.973Z</time></trkpt><trkpt lat="43.9105496" lon="11.1968092"><ele>249.16666666666669</ele><time>2026-04-12T05:32:10.965Z</time></trkpt><trkpt lat="43.9106442" lon="11.1967906"><ele>251.0</ele><time>2026-04-12T05:32:13.963Z</time></trkpt><trkpt lat="43.910711" lon="11.1968027"><ele>251.00000000000003</ele><time>2026-04-12T05:32:15.975Z</time></trkpt><trkpt lat="43.9107762" lon="11.1968142"><ele>251.0</ele><time>2026-04-12T05:32:17.977Z</time></trkpt><trkpt lat="43.9108483" lon="11.1968402"><ele>251.0</ele><time>2026-04-12T05:32:19.968Z</time></trkpt><trkpt lat="43.910912" lon="11.1968476"><ele>251.0</ele><time>2026-04-12T05:32:21.976Z</time></trkpt><trkpt lat="43.9110034" lon="11.1968976"><ele>251.00000000000003</ele><time>2026-04-12T05:32:24.979Z</time></trkpt><trkpt lat="43.9110757" lon="11.1969763"><ele>251.0</ele><time>2026-04-12T05:32:27.975Z</time></trkpt><trkpt lat="43.911112" lon="11.1970521"><ele>252.50000000000003</ele><time>2026-04-12T05:32:30.967Z</time></trkpt><trkpt lat="43.9111501" lon="11.1971311"><ele>254.0</ele><time>2026-04-12T05:32:34.967Z</time></trkpt><trkpt lat="43.9111883" lon="11.1972595"><ele>255.5</ele><time>2026-04-12T05:32:42.976Z</time></trkpt><trkpt lat="43.9112564" lon="11.197279"><ele>257.0</ele><time>2026-04-12T05:32:46.957Z</time></trkpt><trkpt lat="43.9113508" lon="11.1973215"><ele>258.5</ele><time>2026-04-12T05:32:52.97Z</time></trkpt><trkpt lat="43.9114423" lon="11.1973778"><ele>260.0</ele><time>2026-04-12T05:32:58.934Z</time></trkpt><trkpt lat="43.91151" lon="11.1973993"><ele>260.0</ele><time>2026-04-12T05:33:10.955Z</time></trkpt><trkpt lat="43.9115738" lon="11.1974362"><ele>260.0</ele><time>2026-04-12T05:33:13.97Z</time></trkpt><trkpt lat="43.9116758" lon="11.1974772"><ele>260.0</ele><time>2026-04-12T05:33:19.954Z</time></trkpt><trkpt lat="43.9117519" lon="11.197495"><ele>260.0</ele><time>2026-04-12T05:33:23.983Z</time></trkpt><trkpt lat="43.9118238" lon="11.1975107"><ele>260.0</ele><time>2026-04-12T05:33:27.957Z</time></trkpt><trkpt lat="43.9118899" lon="11.1975187"><ele>260.0</ele><time>2026-04-12T05:33:33.971Z</time></trkpt><trkpt lat="43.9119545" lon="11.1975426"><ele>258.5</ele><time>2026-04-12T05:33:47.956Z</time></trkpt><trkpt lat="43.912066" lon="11.1975766"><ele>257.0</ele><time>2026-04-12T05:34:09.035Z</time></trkpt><trkpt lat="43.9121248" lon="11.1976095"><ele>255.5</ele><time>2026-04-12T05:34:21.97Z</time></trkpt><trkpt lat="43.9121865" lon="11.1975647"><ele>254.0</ele><time>2026-04-12T05:34:51.958Z</time></trkpt><trkpt lat="43.9122855" lon="11.19754"><ele>252.50000000000003</ele><time>2026-04-12T05:35:29.964Z</time></trkpt><trkpt lat="43.9123583" lon="11.1975417"><ele>251.0</ele><time>2026-04-12T05:35:57.97Z</time></trkpt><trkpt lat="43.912292" lon="11.1975315"><ele>250.99999999999997</ele><time>2026-04-12T05:36:02.978Z</time></trkpt><trkpt lat="43.9122173" lon="11.1975124"><ele>251.0</ele><time>2026-04-12T05:36:07.962Z</time></trkpt><trkpt lat="43.91215" lon="11.1975273"><ele>250.99999999999997</ele><time>2026-04-12T05:36:13.026Z</time></trkpt><trkpt lat="43.912063" lon="11.1975289"><ele>250.99999999999997</ele><time>2026-04-12T05:36:19.969Z</time></trkpt><trkpt lat="43.9119929" lon="11.1975172"><ele>251.0</ele><time>2026-04-12T05:36:24.036Z</time></trkpt><trkpt lat="43.9119255" lon="11.1975002"><ele>250.99999999999997</ele><time>2026-04-12T05:36:26.974Z</time></trkpt><trkpt lat="43.9118596" lon="11.1974846"><ele>250.99999999999997</ele><time>2026-04-12T05:36:30.032Z</time></trkpt><trkpt lat="43.911781" lon="11.1974735"><ele>252.28571428571425</ele><time>2026-04-12T05:36:32.97Z</time></trkpt><trkpt lat="43.9117013" lon="11.1974651"><ele>253.57142857142856</ele><time>2026-04-12T05:36:35.981Z</time></trkpt><trkpt lat="43.9116236" lon="11.1974429"><ele>254.85714285714286</ele><time>2026-04-12T05:36:38.973Z</time></trkpt><trkpt lat="43.9115711" lon="11.1973911"><ele>256.1428571428571</ele><time>2026-04-12T05:36:40.964Z</time></trkpt><trkpt lat="43.9115237" lon="11.197329"><ele>257.42857142857144</ele><time>2026-04-12T05:36:42.977Z</time></trkpt><trkpt lat="43.9114643" lon="11.1972444"><ele>258.7142857142857</ele><time>2026-04-12T05:36:45.955Z</time></trkpt><trkpt lat="43.9114121" lon="11.1971891"><ele>260.0</ele><time>2026-04-12T05:36:47.974Z</time></trkpt><trkpt lat="43.9113498" lon="11.1971232"><ele>256.2</ele><time>2026-04-12T05:36:50.049Z</time></trkpt><trkpt lat="43.9112744" lon="11.1970717"><ele>252.4</ele><time>2026-04-12T05:36:51.968Z</time></trkpt><trkpt lat="43.9111903" lon="11.1970204"><ele>248.60000000000002</ele><time>2026-04-12T05:36:53.976Z</time></trkpt><trkpt lat="43.9111073" lon="11.196927"><ele>244.8</ele><time>2026-04-12T05:36:54.963Z</time></trkpt><trkpt lat="43.9110424" lon="11.1968838"><ele>241.0</ele><time>2026-04-12T05:36:55.971Z</time></trkpt><trkpt lat="43.9109472" lon="11.1968394"><ele>242.66666666666666</ele><time>2026-04-12T05:36:58.038Z</time></trkpt><trkpt lat="43.9108748" lon="11.1968434"><ele>244.33333333333331</ele><time>2026-04-12T05:37:00.031Z</time></trkpt><trkpt lat="43.9107828" lon="11.1968502"><ele>246.0</ele><time>2026-04-12T05:37:02.969Z</time></trkpt><trkpt lat="43.9106912" lon="11.1968667"><ele>247.66666666666669</ele><time>2026-04-12T05:37:05.963Z</time></trkpt><trkpt lat="43.9106173" lon="11.196883"><ele>249.33333333333334</ele><time>2026-04-12T05:37:07.974Z</time></trkpt><trkpt lat="43.9105443" lon="11.1968895"><ele>251.0</ele><time>2026-04-12T05:37:09.98Z</time></trkpt><trkpt lat="43.9104566" lon="11.1968995"><ele>250.99999999999997</ele><time>2026-04-12T05:37:12.963Z</time></trkpt><trkpt lat="43.910387" lon="11.1969114"><ele>251.0</ele><time>2026-04-12T05:37:15.96Z</time></trkpt><trkpt lat="43.9103209" lon="11.1969027"><ele>250.99999999999997</ele><time>2026-04-12T05:37:18.965Z</time></trkpt><trkpt lat="43.9102678" lon="11.1968287"><ele>250.99999999999997</ele><time>2026-04-12T05:37:22.966Z</time></trkpt><trkpt lat="43.9102959" lon="11.1967422"><ele>251.0</ele><time>2026-04-12T05:37:25.968Z</time></trkpt><trkpt lat="43.9103334" lon="11.1966566"><ele>250.99999999999997</ele><time>2026-04-12T05:37:28.971Z</time></trkpt><trkpt lat="43.9103873" lon="11.1965779"><ele>250.99999999999997</ele><time>2026-04-12T05:37:30.972Z</time></trkpt><trkpt lat="43.9104258" lon="11.1964851"><ele>249.4285714285714</ele><time>2026-04-12T05:37:32.951Z</time></trkpt><trkpt lat="43.9104387" lon="11.1963972"><ele>247.85714285714283</ele><time>2026-04-12T05:37:34.964Z</time></trkpt><trkpt lat="43.9104474" lon="11.1963039"><ele>246.28571428571428</ele><time>2026-04-12T05:37:36.965Z</time></trkpt><trkpt lat="43.9104417" lon="11.1962013"><ele>244.7142857142857</ele><time>2026-04-12T05:37:38.959Z</time></trkpt><trkpt lat="43.9104319" lon="11.1961013"><ele>243.1428571428571</ele><time>2026-04-12T05:37:41.963Z</time></trkpt><trkpt lat="43.9104051" lon="11.1960045"><ele>241.57142857142858</ele><time>2026-04-12T05:37:45.089Z</time></trkpt><trkpt lat="43.9103768" lon="11.1958856"><ele>240.0</ele><time>2026-04-12T05:37:47.966Z</time></trkpt><trkpt lat="43.9103547" lon="11.1957635"><ele>236.71428571428572</ele><time>2026-04-12T05:37:50.969Z</time></trkpt><trkpt lat="43.9103557" lon="11.1956695"><ele>233.42857142857142</ele><time>2026-04-12T05:37:52.958Z</time></trkpt><trkpt lat="43.9103533" lon="11.1955812"><ele>230.14285714285714</ele><time>2026-04-12T05:37:54.974Z</time></trkpt><trkpt lat="43.9102884" lon="11.195482"><ele>226.85714285714286</ele><time>2026-04-12T05:37:57.965Z</time></trkpt><trkpt lat="43.9102206" lon="11.1954371"><ele>223.57142857142856</ele><time>2026-04-12T05:37:59.968Z</time></trkpt><trkpt lat="43.9101519" lon="11.1954346"><ele>220.28571428571428</ele><time>2026-04-12T05:38:02.96Z</time></trkpt><trkpt lat="43.9101184" lon="11.1955259"><ele>217.0</ele><time>2026-04-12T05:38:06.961Z</time></trkpt><trkpt lat="43.9101079" lon="11.19564"><ele>219.49999999999997</ele><time>2026-04-12T05:38:10.066Z</time></trkpt><trkpt lat="43.9100871" lon="11.1957491"><ele>222.0</ele><time>2026-04-12T05:38:12.955Z</time></trkpt><trkpt lat="43.9100639" lon="11.1958342"><ele>224.5</ele><time>2026-04-12T05:38:15.965Z</time></trkpt><trkpt lat="43.9099807" lon="11.1958899"><ele>227.0</ele><time>2026-04-12T05:38:21.962Z</time></trkpt><trkpt lat="43.9099096" lon="11.1958986"><ele>229.49999999999997</ele><time>2026-04-12T05:38:23.967Z</time></trkpt><trkpt lat="43.909839" lon="11.1959133"><ele>232.0</ele><time>2026-04-12T05:38:25.961Z</time></trkpt><trkpt lat="43.9097736" lon="11.1959784"><ele>231.99999999999997</ele><time>2026-04-12T05:38:29.034Z</time></trkpt><trkpt lat="43.9097206" lon="11.1960505"><ele>232.0</ele><time>2026-04-12T05:38:30.968Z</time></trkpt><trkpt lat="43.9096678" lon="11.1961145"><ele>232.0</ele><time>2026-04-12T05:38:32.965Z</time></trkpt><trkpt lat="43.9096158" lon="11.1961868"><ele>232.0</ele><time>2026-04-12T05:38:34.968Z</time></trkpt><trkpt lat="43.9095659" lon="11.1962646"><ele>231.99999999999997</ele><time>2026-04-12T05:38:36.948Z</time></trkpt><trkpt lat="43.9095107" lon="11.196338"><ele>232.0</ele><time>2026-04-12T05:38:38.967Z</time></trkpt><trkpt lat="43.9094683" lon="11.1964358"><ele>231.99999999999997</ele><time>2026-04-12T05:38:41.968Z</time></trkpt><trkpt lat="43.9094049" lon="11.1964933"><ele>232.0</ele><time>2026-04-12T05:38:44.958Z</time></trkpt><trkpt lat="43.9093331" lon="11.1965166"><ele>232.0</ele><time>2026-04-12T05:38:46.959Z</time></trkpt><trkpt lat="43.9092482" lon="11.1965313"><ele>232.0</ele><time>2026-04-12T05:38:49.018Z</time></trkpt><trkpt lat="43.9091856" lon="11.1965626"><ele>231.99999999999997</ele><time>2026-04-12T05:38:51.019Z</time></trkpt><trkpt lat="43.9091205" lon="11.1966457"><ele>232.0</ele><time>2026-04-12T05:38:53.963Z</time></trkpt><trkpt lat="43.9090343" lon="11.1967422"><ele>230.8</ele><time>2026-04-12T05:38:55.969Z</time></trkpt><trkpt lat="43.9089699" lon="11.1968455"><ele>229.6</ele><time>2026-04-12T05:38:57.963Z</time></trkpt><trkpt lat="43.9089036" lon="11.1969523"><ele>228.40000000000003</ele><time>2026-04-12T05:38:59.952Z</time></trkpt><trkpt lat="43.9088551" lon="11.1970197"><ele>227.20000000000002</ele><time>2026-04-12T05:39:00.951Z</time></trkpt><trkpt lat="43.9087974" lon="11.1970884"><ele>226.0</ele><time>2026-04-12T05:39:01.968Z</time></trkpt><trkpt lat="43.9087131" lon="11.1972068"><ele>226.0</ele><time>2026-04-12T05:39:03.958Z</time></trkpt><trkpt lat="43.9086438" lon="11.1973212"><ele>226.00000000000003</ele><time>2026-04-12T05:39:05.955Z</time></trkpt><trkpt lat="43.9085778" lon="11.1974466"><ele>226.00000000000003</ele><time>2026-04-12T05:39:07.97Z</time></trkpt><trkpt lat="43.9084876" lon="11.1975782"><ele>226.0</ele><time>2026-04-12T05:39:09.959Z</time></trkpt><trkpt lat="43.908422" lon="11.1976089"><ele>226.0</ele><time>2026-04-12T05:39:10.955Z</time></trkpt><trkpt lat="43.9083543" lon="11.1976301"><ele>227.60000000000002</ele><time>2026-04-12T05:39:11.964Z</time></trkpt><trkpt lat="43.9082634" lon="11.1976575"><ele>229.20000000000002</ele><time>2026-04-12T05:39:12.963Z</time></trkpt><trkpt lat="43.9081339" lon="11.1976916"><ele>230.79999999999998</ele><time>2026-04-12T05:39:15.027Z</time></trkpt><trkpt lat="43.9080679" lon="11.1977103"><ele>232.39999999999998</ele><time>2026-04-12T05:39:15.959Z</time></trkpt><trkpt lat="43.9079774" lon="11.197675"><ele>234.0</ele><time>2026-04-12T05:39:17.966Z</time></trkpt><trkpt lat="43.9078841" lon="11.1976137"><ele>234.0</ele><time>2026-04-12T05:39:19.958Z</time></trkpt><trkpt lat="43.9077963" lon="11.1975573"><ele>234.0</ele><time>2026-04-12T05:39:21.962Z</time></trkpt><trkpt lat="43.9077187" lon="11.1974772"><ele>234.0</ele><time>2026-04-12T05:39:23.966Z</time></trkpt><trkpt lat="43.9076515" lon="11.1974106"><ele>234.0</ele><time>2026-04-12T05:39:25.965Z</time></trkpt><trkpt lat="43.9075817" lon="11.1973661"><ele>234.0</ele><time>2026-04-12T05:39:27.962Z</time></trkpt><trkpt lat="43.907518" lon="11.1973791"><ele>234.0</ele><time>2026-04-12T05:39:29.965Z</time></trkpt><trkpt lat="43.9074533" lon="11.1973711"><ele>235.66666666666666</ele><time>2026-04-12T05:39:31.946Z</time></trkpt><trkpt lat="43.9074012" lon="11.197474"><ele>237.33333333333331</ele><time>2026-04-12T05:39:34.956Z</time></trkpt><trkpt lat="43.9073714" lon="11.1976103"><ele>239.0</ele><time>2026-04-12T05:39:36.941Z</time></trkpt><trkpt lat="43.9073683" lon="11.1977146"><ele>240.66666666666666</ele><time>2026-04-12T05:39:38.953Z</time></trkpt><trkpt lat="43.9073118" lon="11.1977881"><ele>242.33333333333331</ele><time>2026-04-12T05:39:42.958Z</time></trkpt><trkpt lat="43.9072454" lon="11.1977885"><ele>244.0</ele><time>2026-04-12T05:39:44.959Z</time></trkpt><trkpt lat="43.9071577" lon="11.197764"><ele>244.0</ele><time>2026-04-12T05:39:46.942Z</time></trkpt><trkpt lat="43.9070635" lon="11.1977221"><ele>243.99999999999997</ele><time>2026-04-12T05:39:48.965Z</time></trkpt><trkpt lat="43.9069687" lon="11.1976774"><ele>243.99999999999997</ele><time>2026-04-12T05:39:50.961Z</time></trkpt><trkpt lat="43.9068646" lon="11.1976521"><ele>244.0</ele><time>2026-04-12T05:39:52.964Z</time></trkpt><trkpt lat="43.9067611" lon="11.1976506"><ele>244.0</ele><time>2026-04-12T05:39:54.959Z</time></trkpt><trkpt lat="43.906658" lon="11.1977082"><ele>247.39999999999998</ele><time>2026-04-12T05:39:56.961Z</time></trkpt><trkpt lat="43.9065995" lon="11.1977417"><ele>250.79999999999998</ele><time>2026-04-12T05:39:57.96Z</time></trkpt><trkpt lat="43.9065083" lon="11.1978014"><ele>254.20000000000002</ele><time>2026-04-12T05:39:59.967Z</time></trkpt><trkpt lat="43.9064272" lon="11.1978597"><ele>257.6</ele><time>2026-04-12T05:40:01.961Z</time></trkpt><trkpt lat="43.9063399" lon="11.1979596"><ele>261.0</ele><time>2026-04-12T05:40:03.957Z</time></trkpt><trkpt lat="43.9062652" lon="11.1980582"><ele>261.0</ele><time>2026-04-12T05:40:05.983Z</time></trkpt><trkpt lat="43.9061909" lon="11.1981498"><ele>261.0</ele><time>2026-04-12T05:40:07.962Z</time></trkpt><trkpt lat="43.906137" lon="11.1982591"><ele>261.0</ele><time>2026-04-12T05:40:09.955Z</time></trkpt><trkpt lat="43.9060914" lon="11.1983487"><ele>261.0</ele><time>2026-04-12T05:40:11.962Z</time></trkpt><trkpt lat="43.9060298" lon="11.1983718"><ele>261.0</ele><time>2026-04-12T05:40:14.956Z</time></trkpt><trkpt lat="43.9059396" lon="11.1983811"><ele>261.0</ele><time>2026-04-12T05:40:17.962Z</time></trkpt><trkpt lat="43.9058478" lon="11.1984013"><ele>263.5</ele><time>2026-04-12T05:40:19.953Z</time></trkpt><trkpt lat="43.9057822" lon="11.1984194"><ele>266.0</ele><time>2026-04-12T05:40:20.965Z</time></trkpt><trkpt lat="43.9056763" lon="11.1984805"><ele>268.5</ele><time>2026-04-12T05:40:21.964Z</time></trkpt><trkpt lat="43.9055733" lon="11.1985314"><ele>271.0</ele><time>2026-04-12T05:40:22.963Z</time></trkpt><trkpt lat="43.9054047" lon="11.1986331"><ele>271.0</ele><time>2026-04-12T05:40:23.962Z</time></trkpt><trkpt lat="43.9052817" lon="11.1987083"><ele>271.0</ele><time>2026-04-12T05:40:24.954Z</time></trkpt><trkpt lat="43.9052053" lon="11.1987225"><ele>271.0</ele><time>2026-04-12T05:40:25.967Z</time></trkpt><trkpt lat="43.9051237" lon="11.1987381"><ele>271.0</ele><time>2026-04-12T05:40:26.964Z</time></trkpt><trkpt lat="43.9050362" lon="11.1987255"><ele>271.0</ele><time>2026-04-12T05:40:28.949Z</time></trkpt><trkpt lat="43.9049533" lon="11.1987364"><ele>272.2</ele><time>2026-04-12T05:40:30.957Z</time></trkpt><trkpt lat="43.9048912" lon="11.1987022"><ele>273.40000000000003</ele><time>2026-04-12T05:40:31.969Z</time></trkpt><trkpt lat="43.9048271" lon="11.1987333"><ele>274.6</ele><time>2026-04-12T05:40:32.969Z</time></trkpt><trkpt lat="43.904742" lon="11.1988012"><ele>275.8</ele><time>2026-04-12T05:40:33.961Z</time></trkpt><trkpt lat="43.9046528" lon="11.1988946"><ele>277.0</ele><time>2026-04-12T05:40:34.956Z</time></trkpt><trkpt lat="43.9045721" lon="11.1989885"><ele>276.8</ele><time>2026-04-12T05:40:35.959Z</time></trkpt><trkpt lat="43.9044919" lon="11.1990762"><ele>276.6</ele><time>2026-04-12T05:40:36.963Z</time></trkpt><trkpt lat="43.9044153" lon="11.1991628"><ele>276.40000000000003</ele><time>2026-04-12T05:40:37.956Z</time></trkpt><trkpt lat="43.9043516" lon="11.1992534"><ele>276.2</ele><time>2026-04-12T05:40:38.958Z</time></trkpt><trkpt lat="43.9042859" lon="11.1993475"><ele>276.0</ele><time>2026-04-12T05:40:39.958Z</time></trkpt><trkpt lat="43.9042258" lon="11.1994418"><ele>276.0</ele><time>2026-04-12T05:40:40.964Z</time></trkpt><trkpt lat="43.9041692" lon="11.1995235"><ele>276.0</ele><time>2026-04-12T05:40:41.961Z</time></trkpt><trkpt lat="43.9041177" lon="11.1996153"><ele>276.0</ele><time>2026-04-12T05:40:42.955Z</time></trkpt><trkpt lat="43.9040756" lon="11.1997141"><ele>276.0</ele><time>2026-04-12T05:40:43.958Z</time></trkpt><trkpt lat="43.9040374" lon="11.1998128"><ele>276.0</ele><time>2026-04-12T05:40:45.015Z</time></trkpt><trkpt lat="43.9039928" lon="11.1998961"><ele>276.0</ele><time>2026-04-12T05:40:46.021Z</time></trkpt><trkpt lat="43.9039331" lon="11.1999584"><ele>277.8</ele><time>2026-04-12T05:40:46.959Z</time></trkpt><trkpt lat="43.9038546" lon="11.2000094"><ele>279.6</ele><time>2026-04-12T05:40:47.96Z</time></trkpt><trkpt lat="43.9037688" lon="11.2000597"><ele>281.4</ele><time>2026-04-12T05:40:48.993Z</time></trkpt><trkpt lat="43.9036688" lon="11.2000855"><ele>283.2</ele><time>2026-04-12T05:40:50.03Z</time></trkpt><trkpt lat="43.9035562" lon="11.2000927"><ele>285.0</ele><time>2026-04-12T05:40:50.958Z</time></trkpt><trkpt lat="43.9034447" lon="11.2001002"><ele>283.2</ele><time>2026-04-12T05:40:51.956Z</time></trkpt><trkpt lat="43.9033348" lon="11.2001096"><ele>281.4</ele><time>2026-04-12T05:40:52.968Z</time></trkpt><trkpt lat="43.9032171" lon="11.2001105"><ele>279.6</ele><time>2026-04-12T05:40:54.042Z</time></trkpt><trkpt lat="43.9031032" lon="11.2001077"><ele>277.8</ele><time>2026-04-12T05:40:54.955Z</time></trkpt><trkpt lat="43.9029987" lon="11.2000947"><ele>276.0</ele><time>2026-04-12T05:40:56.035Z</time></trkpt><trkpt lat="43.9029165" lon="11.200085"><ele>276.0</ele><time>2026-04-12T05:40:56.975Z</time></trkpt><trkpt lat="43.9028415" lon="11.2000783"><ele>276.0</ele><time>2026-04-12T05:40:57.957Z</time></trkpt><trkpt lat="43.9027696" lon="11.2000819"><ele>276.0</ele><time>2026-04-12T05:40:59.024Z</time></trkpt><trkpt lat="43.9027001" lon="11.2001028"><ele>276.0</ele><time>2026-04-12T05:41:00.036Z</time></trkpt><trkpt lat="43.9026245" lon="11.2001233"><ele>276.0</ele><time>2026-04-12T05:41:01.034Z</time></trkpt><trkpt lat="43.9025385" lon="11.2001607"><ele>276.0</ele><time>2026-04-12T05:41:01.961Z</time></trkpt><trkpt lat="43.9024479" lon="11.2002138"><ele>275.40000000000003</ele><time>2026-04-12T05:41:02.976Z</time></trkpt><trkpt lat="43.9023567" lon="11.2002642"><ele>274.8</ele><time>2026-04-12T05:41:04.004Z</time></trkpt><trkpt lat="43.9022604" lon="11.2003169"><ele>274.20000000000005</ele><time>2026-04-12T05:41:05.03Z</time></trkpt><trkpt lat="43.9021687" lon="11.2003675"><ele>273.6</ele><time>2026-04-12T05:41:06.03Z</time></trkpt><trkpt lat="43.9020834" lon="11.2004098"><ele>273.0</ele><time>2026-04-12T05:41:06.97Z</time></trkpt><trkpt lat="43.901998" lon="11.2004472"><ele>273.0</ele><time>2026-04-12T05:41:07.977Z</time></trkpt><trkpt lat="43.9019224" lon="11.2004857"><ele>273.0</ele><time>2026-04-12T05:41:09.008Z</time></trkpt><trkpt lat="43.9018543" lon="11.2005215"><ele>273.0</ele><time>2026-04-12T05:41:09.968Z</time></trkpt><trkpt lat="43.9017401" lon="11.2005551"><ele>273.0</ele><time>2026-04-12T05:41:11.972Z</time></trkpt><trkpt lat="43.9016228" lon="11.2005056"><ele>273.0</ele><time>2026-04-12T05:41:13.964Z</time></trkpt><trkpt lat="43.9015528" lon="11.2004556"><ele>272.1666666666667</ele><time>2026-04-12T05:41:14.955Z</time></trkpt><trkpt lat="43.9014805" lon="11.2004096"><ele>271.3333333333333</ele><time>2026-04-12T05:41:15.964Z</time></trkpt><trkpt lat="43.9014047" lon="11.200364"><ele>270.5</ele><time>2026-04-12T05:41:16.97Z</time></trkpt><trkpt lat="43.9013337" lon="11.2003245"><ele>269.66666666666663</ele><time>2026-04-12T05:41:17.979Z</time></trkpt><trkpt lat="43.9012664" lon="11.2002822"><ele>268.8333333333333</ele><time>2026-04-12T05:41:18.968Z</time></trkpt><trkpt lat="43.9012109" lon="11.2002394"><ele>268.0</ele><time>2026-04-12T05:41:19.964Z</time></trkpt><trkpt lat="43.9011042" lon="11.200173"><ele>268.0</ele><time>2026-04-12T05:41:21.97Z</time></trkpt><trkpt lat="43.9010255" lon="11.2001184"><ele>268.0</ele><time>2026-04-12T05:41:24.051Z</time></trkpt><trkpt lat="43.9011067" lon="11.2001779"><ele>268.0</ele><time>2026-04-12T05:41:33.975Z</time></trkpt><trkpt lat="43.9011862" lon="11.2002326"><ele>268.0</ele><time>2026-04-12T05:41:35.978Z</time></trkpt><trkpt lat="43.9012502" lon="11.2002711"><ele>268.0</ele><time>2026-04-12T05:41:37.976Z</time></trkpt><trkpt lat="43.9013131" lon="11.2003193"><ele>268.0</ele><time>2026-04-12T05:41:45.975Z</time></trkpt><trkpt lat="43.9012583" lon="11.2002728"><ele>268.0</ele><time>2026-04-12T05:43:53.959Z</time></trkpt><trkpt lat="43.9011514" lon="11.200217"><ele>268.0</ele><time>2026-04-12T05:43:55.953Z</time></trkpt><trkpt lat="43.9010939" lon="11.2001763"><ele>268.0</ele><time>2026-04-12T05:43:56.95Z</time></trkpt><trkpt lat="43.9009798" lon="11.2001046"><ele>268.0</ele><time>2026-04-12T05:43:58.962Z</time></trkpt><trkpt lat="43.9008619" lon="11.2000475"><ele>268.0</ele><time>2026-04-12T05:44:00.963Z</time></trkpt><trkpt lat="43.9007972" lon="11.200048"><ele>269.0</ele><time>2026-04-12T05:44:01.961Z</time></trkpt><trkpt lat="43.9007339" lon="11.2000553"><ele>270.0</ele><time>2026-04-12T05:44:02.952Z</time></trkpt><trkpt lat="43.9006629" lon="11.2000601"><ele>271.0</ele><time>2026-04-12T05:44:03.962Z</time></trkpt><trkpt lat="43.9005883" lon="11.2000558"><ele>272.0</ele><time>2026-04-12T05:44:04.958Z</time></trkpt><trkpt lat="43.9005163" lon="11.2000444"><ele>273.0</ele><time>2026-04-12T05:44:05.962Z</time></trkpt><trkpt lat="43.90044" lon="11.200029"><ele>274.0</ele><time>2026-04-12T05:44:06.963Z</time></trkpt><trkpt lat="43.9003492" lon="11.2000216"><ele>274.0</ele><time>2026-04-12T05:44:07.96Z</time></trkpt><trkpt lat="43.9002569" lon="11.2000151"><ele>274.0</ele><time>2026-04-12T05:44:08.956Z</time></trkpt><trkpt lat="43.9001372" lon="11.2000102"><ele>274.0</ele><time>2026-04-12T05:44:09.959Z</time></trkpt><trkpt lat="43.9000016" lon="11.2000006"><ele>274.0</ele><time>2026-04-12T05:44:10.963Z</time></trkpt><trkpt lat="43.8998705" lon="11.199985"><ele>274.75</ele><time>2026-04-12T05:44:11.962Z</time></trkpt><trkpt lat="43.8997347" lon="11.1999652"><ele>275.5</ele><time>2026-04-12T05:44:12.955Z</time></trkpt><trkpt lat="43.8996122" lon="11.1999559"><ele>276.25</ele><time>2026-04-12T05:44:13.952Z</time></trkpt><trkpt lat="43.8995012" lon="11.1999487"><ele>277.0</ele><time>2026-04-12T05:44:14.955Z</time></trkpt><trkpt lat="43.8993803" lon="11.1999255"><ele>277.0</ele><time>2026-04-12T05:44:15.963Z</time></trkpt><trkpt lat="43.8992557" lon="11.1998793"><ele>277.0</ele><time>2026-04-12T05:44:16.955Z</time></trkpt><trkpt lat="43.8991387" lon="11.1998097"><ele>277.0</ele><time>2026-04-12T05:44:17.964Z</time></trkpt><trkpt lat="43.8990211" lon="11.1997396"><ele>277.0</ele><time>2026-04-12T05:44:18.958Z</time></trkpt><trkpt lat="43.898919" lon="11.1996683"><ele>274.4</ele><time>2026-04-12T05:44:19.961Z</time></trkpt><trkpt lat="43.8988147" lon="11.1995829"><ele>271.79999999999995</ele><time>2026-04-12T05:44:20.962Z</time></trkpt><trkpt lat="43.8987191" lon="11.1995044"><ele>269.2</ele><time>2026-04-12T05:44:21.97Z</time></trkpt><trkpt lat="43.8986454" lon="11.1994488"><ele>266.59999999999997</ele><time>2026-04-12T05:44:22.945Z</time></trkpt><trkpt lat="43.8985684" lon="11.1994"><ele>264.0</ele><time>2026-04-12T05:44:23.961Z</time></trkpt><trkpt lat="43.8984936" lon="11.1993597"><ele>264.0</ele><time>2026-04-12T05:44:24.958Z</time></trkpt><trkpt lat="43.8984184" lon="11.1993197"><ele>264.0</ele><time>2026-04-12T05:44:25.952Z</time></trkpt><trkpt lat="43.8983434" lon="11.1992778"><ele>264.0</ele><time>2026-04-12T05:44:26.959Z</time></trkpt><trkpt lat="43.8982833" lon="11.1992339"><ele>264.0</ele><time>2026-04-12T05:44:27.953Z</time></trkpt><trkpt lat="43.8981791" lon="11.1991488"><ele>264.0</ele><time>2026-04-12T05:44:29.961Z</time></trkpt><trkpt lat="43.8980782" lon="11.1990677"><ele>263.4</ele><time>2026-04-12T05:44:31.955Z</time></trkpt><trkpt lat="43.8979857" lon="11.1989935"><ele>262.79999999999995</ele><time>2026-04-12T05:44:33.95Z</time></trkpt><trkpt lat="43.8978847" lon="11.1989415"><ele>262.20000000000005</ele><time>2026-04-12T05:44:35.958Z</time></trkpt><trkpt lat="43.8977787" lon="11.1988836"><ele>261.6</ele><time>2026-04-12T05:44:37.962Z</time></trkpt><trkpt lat="43.8976707" lon="11.1988169"><ele>261.0</ele><time>2026-04-12T05:44:39.967Z</time></trkpt><trkpt lat="43.8975566" lon="11.1987519"><ele>264.3333333333333</ele><time>2026-04-12T05:44:41.952Z</time></trkpt><trkpt lat="43.8974682" lon="11.1987065"><ele>267.6666666666667</ele><time>2026-04-12T05:44:43.951Z</time></trkpt><trkpt lat="43.8973776" lon="11.198653"><ele>271.0</ele><time>2026-04-12T05:44:45.952Z</time></trkpt><trkpt lat="43.8973075" lon="11.1986282"><ele>274.33333333333337</ele><time>2026-04-12T05:44:47.955Z</time></trkpt><trkpt lat="43.8972263" lon="11.1986028"><ele>277.6666666666667</ele><time>2026-04-12T05:44:50.965Z</time></trkpt><trkpt lat="43.8971498" lon="11.1985819"><ele>281.0</ele><time>2026-04-12T05:44:53.948Z</time></trkpt><trkpt lat="43.8970685" lon="11.1985453"><ele>281.0</ele><time>2026-04-12T05:44:57.958Z</time></trkpt><trkpt lat="43.8970066" lon="11.1984838"><ele>281.0</ele><time>2026-04-12T05:45:03.962Z</time></trkpt><trkpt lat="43.8969366" lon="11.1984464"><ele>281.0</ele><time>2026-04-12T05:45:07.971Z</time></trkpt><trkpt lat="43.896858" lon="11.1984023"><ele>281.0</ele><time>2026-04-12T05:45:10.966Z</time></trkpt><trkpt lat="43.8967757" lon="11.1983701"><ele>281.0</ele><time>2026-04-12T05:45:13.953Z</time></trkpt><trkpt lat="43.8967125" lon="11.1983424"><ele>281.0</ele><time>2026-04-12T05:45:15.966Z</time></trkpt><trkpt lat="43.8966238" lon="11.1982858"><ele>280.1666666666667</ele><time>2026-04-12T05:45:18.972Z</time></trkpt><trkpt lat="43.8965518" lon="11.1982591"><ele>279.33333333333337</ele><time>2026-04-12T05:45:20.969Z</time></trkpt><trkpt lat="43.8964891" lon="11.1982397"><ele>278.5</ele><time>2026-04-12T05:45:22.966Z</time></trkpt><trkpt lat="43.896413" lon="11.1981801"><ele>277.6666666666667</ele><time>2026-04-12T05:45:24.954Z</time></trkpt><trkpt lat="43.8963231" lon="11.1981286"><ele>276.8333333333333</ele><time>2026-04-12T05:45:26.972Z</time></trkpt><trkpt lat="43.8962424" lon="11.1980788"><ele>276.0</ele><time>2026-04-12T05:45:28.962Z</time></trkpt><trkpt lat="43.8961706" lon="11.1980174"><ele>274.5</ele><time>2026-04-12T05:45:30.96Z</time></trkpt><trkpt lat="43.8961077" lon="11.1979464"><ele>273.0</ele><time>2026-04-12T05:45:32.964Z</time></trkpt><trkpt lat="43.8960614" lon="11.1978767"><ele>271.5</ele><time>2026-04-12T05:45:34.956Z</time></trkpt><trkpt lat="43.8959888" lon="11.1977933"><ele>270.0</ele><time>2026-04-12T05:45:37.975Z</time></trkpt><trkpt lat="43.895946" lon="11.1977254"><ele>268.5</ele><time>2026-04-12T05:45:39.958Z</time></trkpt><trkpt lat="43.8958726" lon="11.1976497"><ele>267.0</ele><time>2026-04-12T05:45:42.967Z</time></trkpt><trkpt lat="43.89582" lon="11.1975839"><ele>265.8</ele><time>2026-04-12T05:45:45.959Z</time></trkpt><trkpt lat="43.8957583" lon="11.1975166"><ele>264.6</ele><time>2026-04-12T05:45:47.965Z</time></trkpt><trkpt lat="43.895676" lon="11.1974286"><ele>263.40000000000003</ele><time>2026-04-12T05:45:49.953Z</time></trkpt><trkpt lat="43.8955593" lon="11.197355"><ele>262.2</ele><time>2026-04-12T05:45:51.966Z</time></trkpt><trkpt lat="43.8954838" lon="11.1972995"><ele>261.0</ele><time>2026-04-12T05:45:52.963Z</time></trkpt><trkpt lat="43.8954052" lon="11.1972297"><ele>260.25</ele><time>2026-04-12T05:45:53.97Z</time></trkpt><trkpt lat="43.895318" lon="11.1971467"><ele>259.5</ele><time>2026-04-12T05:45:54.963Z</time></trkpt><trkpt lat="43.895234" lon="11.1970578"><ele>258.75</ele><time>2026-04-12T05:45:55.957Z</time></trkpt><trkpt lat="43.8951503" lon="11.1969452"><ele>258.0</ele><time>2026-04-12T05:45:56.952Z</time></trkpt><trkpt lat="43.8950535" lon="11.1968234"><ele>258.0</ele><time>2026-04-12T05:45:57.965Z</time></trkpt><trkpt lat="43.8949605" lon="11.1967035"><ele>258.0</ele><time>2026-04-12T05:45:58.944Z</time></trkpt><trkpt lat="43.8948734" lon="11.1965838"><ele>258.0</ele><time>2026-04-12T05:45:59.959Z</time></trkpt><trkpt lat="43.8947774" lon="11.1964731"><ele>258.0</ele><time>2026-04-12T05:46:00.944Z</time></trkpt><trkpt lat="43.8946874" lon="11.1964117"><ele>258.0</ele><time>2026-04-12T05:46:01.952Z</time></trkpt><trkpt lat="43.8945973" lon="11.1963757"><ele>258.0</ele><time>2026-04-12T05:46:02.955Z</time></trkpt><trkpt lat="43.8944891" lon="11.1963321"><ele>258.0</ele><time>2026-04-12T05:46:03.958Z</time></trkpt><trkpt lat="43.8943986" lon="11.1963254"><ele>258.0</ele><time>2026-04-12T05:46:04.96Z</time></trkpt><trkpt lat="43.8942773" lon="11.1962866"><ele>258.0</ele><time>2026-04-12T05:46:05.963Z</time></trkpt><trkpt lat="43.8941614" lon="11.196202"><ele>255.8</ele><time>2026-04-12T05:46:06.958Z</time></trkpt><trkpt lat="43.8940553" lon="11.1961174"><ele>253.60000000000002</ele><time>2026-04-12T05:46:07.966Z</time></trkpt><trkpt lat="43.893956" lon="11.1960235"><ele>251.39999999999998</ele><time>2026-04-12T05:46:08.963Z</time></trkpt><trkpt lat="43.8938745" lon="11.1959438"><ele>249.2</ele><time>2026-04-12T05:46:09.964Z</time></trkpt><trkpt lat="43.8937946" lon="11.1958542"><ele>247.0</ele><time>2026-04-12T05:46:10.965Z</time></trkpt><trkpt lat="43.8937448" lon="11.1957738"><ele>246.99999999999997</ele><time>2026-04-12T05:46:11.959Z</time></trkpt><trkpt lat="43.8937102" lon="11.1956828"><ele>247.0</ele><time>2026-04-12T05:46:12.962Z</time></trkpt><trkpt lat="43.8937198" lon="11.1955782"><ele>247.0</ele><time>2026-04-12T05:46:13.966Z</time></trkpt><trkpt lat="43.8937658" lon="11.195478"><ele>247.0</ele><time>2026-04-12T05:46:14.97Z</time></trkpt><trkpt lat="43.8938204" lon="11.1954146"><ele>246.99999999999997</ele><time>2026-04-12T05:46:15.967Z</time></trkpt><trkpt lat="43.8938902" lon="11.1953093"><ele>247.0</ele><time>2026-04-12T05:46:16.97Z</time></trkpt><trkpt lat="43.8939591" lon="11.195192"><ele>245.25</ele><time>2026-04-12T05:46:17.962Z</time></trkpt><trkpt lat="43.8940472" lon="11.1950945"><ele>243.5</ele><time>2026-04-12T05:46:18.967Z</time></trkpt><trkpt lat="43.8941313" lon="11.1949876"><ele>241.75</ele><time>2026-04-12T05:46:19.965Z</time></trkpt><trkpt lat="43.8942066" lon="11.1948764"><ele>240.0</ele><time>2026-04-12T05:46:20.976Z</time></trkpt><trkpt lat="43.8942611" lon="11.1947313"><ele>238.75</ele><time>2026-04-12T05:46:21.967Z</time></trkpt><trkpt lat="43.8942689" lon="11.194563"><ele>237.5</ele><time>2026-04-12T05:46:22.965Z</time></trkpt><trkpt lat="43.8942364" lon="11.1943949"><ele>236.25</ele><time>2026-04-12T05:46:23.966Z</time></trkpt><trkpt lat="43.8942118" lon="11.1942226"><ele>235.0</ele><time>2026-04-12T05:46:24.951Z</time></trkpt><trkpt lat="43.8941938" lon="11.1940598"><ele>231.5</ele><time>2026-04-12T05:46:25.948Z</time></trkpt><trkpt lat="43.8941828" lon="11.193882"><ele>228.0</ele><time>2026-04-12T05:46:26.958Z</time></trkpt><trkpt lat="43.8941768" lon="11.1937014"><ele>224.5</ele><time>2026-04-12T05:46:27.96Z</time></trkpt><trkpt lat="43.8941689" lon="11.1935223"><ele>221.0</ele><time>2026-04-12T05:46:28.963Z</time></trkpt><trkpt lat="43.8941603" lon="11.1933394"><ele>219.5</ele><time>2026-04-12T05:46:29.966Z</time></trkpt><trkpt lat="43.8941529" lon="11.1931513"><ele>218.0</ele><time>2026-04-12T05:46:30.973Z</time></trkpt><trkpt lat="43.8941446" lon="11.1929575"><ele>216.5</ele><time>2026-04-12T05:46:31.966Z</time></trkpt><trkpt lat="43.8941363" lon="11.1927686"><ele>215.0</ele><time>2026-04-12T05:46:32.967Z</time></trkpt><trkpt lat="43.8941378" lon="11.1925901"><ele>215.00000000000003</ele><time>2026-04-12T05:46:33.967Z</time></trkpt><trkpt lat="43.8941511" lon="11.1924329"><ele>215.0</ele><time>2026-04-12T05:46:34.961Z</time></trkpt><trkpt lat="43.8941594" lon="11.1923262"><ele>215.0</ele><time>2026-04-12T05:46:35.968Z</time></trkpt><trkpt lat="43.8941502" lon="11.1922365"><ele>215.0</ele><time>2026-04-12T05:46:37.967Z</time></trkpt><trkpt lat="43.89409" lon="11.1921653"><ele>215.00000000000003</ele><time>2026-04-12T05:46:40.968Z</time></trkpt><trkpt lat="43.8940337" lon="11.1920813"><ele>215.0</ele><time>2026-04-12T05:46:42.949Z</time></trkpt><trkpt lat="43.893968" lon="11.191959"><ele>214.16666666666669</ele><time>2026-04-12T05:46:44.976Z</time></trkpt><trkpt lat="43.8938963" lon="11.1918607"><ele>213.33333333333334</ele><time>2026-04-12T05:46:46.985Z</time></trkpt><trkpt lat="43.8938226" lon="11.1917702"><ele>212.5</ele><time>2026-04-12T05:46:48.973Z</time></trkpt><trkpt lat="43.8937605" lon="11.1916904"><ele>211.66666666666669</ele><time>2026-04-12T05:46:50.97Z</time></trkpt><trkpt lat="43.8937079" lon="11.1916216"><ele>210.83333333333334</ele><time>2026-04-12T05:46:52.95Z</time></trkpt><trkpt lat="43.8936501" lon="11.1915636"><ele>210.0</ele><time>2026-04-12T05:46:54.974Z</time></trkpt><trkpt lat="43.8935656" lon="11.1915052"><ele>209.16666666666666</ele><time>2026-04-12T05:46:56.97Z</time></trkpt><trkpt lat="43.8935023" lon="11.1914707"><ele>208.33333333333331</ele><time>2026-04-12T05:46:57.972Z</time></trkpt><trkpt lat="43.8934393" lon="11.1914403"><ele>207.5</ele><time>2026-04-12T05:46:58.978Z</time></trkpt><trkpt lat="43.8933705" lon="11.1914053"><ele>206.66666666666666</ele><time>2026-04-12T05:46:59.975Z</time></trkpt><trkpt lat="43.8932916" lon="11.1913667"><ele>205.83333333333331</ele><time>2026-04-12T05:47:00.957Z</time></trkpt><trkpt lat="43.8932121" lon="11.1913284"><ele>205.0</ele><time>2026-04-12T05:47:01.984Z</time></trkpt><trkpt lat="43.8931362" lon="11.1912817"><ele>204.99999999999997</ele><time>2026-04-12T05:47:02.967Z</time></trkpt><trkpt lat="43.8930656" lon="11.1912455"><ele>205.0</ele><time>2026-04-12T05:47:03.974Z</time></trkpt><trkpt lat="43.8929919" lon="11.1911943"><ele>205.0</ele><time>2026-04-12T05:47:04.977Z</time></trkpt><trkpt lat="43.8929198" lon="11.1911538"><ele>205.0</ele><time>2026-04-12T05:47:05.976Z</time></trkpt><trkpt lat="43.8928429" lon="11.1911002"><ele>204.99999999999997</ele><time>2026-04-12T05:47:06.982Z</time></trkpt><trkpt lat="43.8927743" lon="11.1910515"><ele>205.0</ele><time>2026-04-12T05:47:07.968Z</time></trkpt><trkpt lat="43.892709" lon="11.190995"><ele>204.99999999999997</ele><time>2026-04-12T05:47:08.982Z</time></trkpt><trkpt lat="43.8926418" lon="11.1908948"><ele>205.0</ele><time>2026-04-12T05:47:09.979Z</time></trkpt><trkpt lat="43.8925856" lon="11.1908547"><ele>205.0</ele><time>2026-04-12T05:47:10.983Z</time></trkpt><trkpt lat="43.8925222" lon="11.1907859"><ele>205.0</ele><time>2026-04-12T05:47:11.968Z</time></trkpt><trkpt lat="43.8924459" lon="11.1907261"><ele>204.99999999999997</ele><time>2026-04-12T05:47:13.966Z</time></trkpt><trkpt lat="43.8923584" lon="11.1906871"><ele>205.0</ele><time>2026-04-12T05:47:15.976Z</time></trkpt><trkpt lat="43.8922629" lon="11.1906415"><ele>204.66666666666666</ele><time>2026-04-12T05:47:17.979Z</time></trkpt><trkpt lat="43.8921805" lon="11.1906127"><ele>204.33333333333331</ele><time>2026-04-12T05:47:19.974Z</time></trkpt><trkpt lat="43.8921012" lon="11.1905827"><ele>204.0</ele><time>2026-04-12T05:47:21.98Z</time></trkpt><trkpt lat="43.8920283" lon="11.1905231"><ele>203.66666666666669</ele><time>2026-04-12T05:47:23.975Z</time></trkpt><trkpt lat="43.8919656" lon="11.1904575"><ele>203.33333333333334</ele><time>2026-04-12T05:47:25.977Z</time></trkpt><trkpt lat="43.8918878" lon="11.1903907"><ele>203.0</ele><time>2026-04-12T05:47:28.979Z</time></trkpt><trkpt lat="43.8918222" lon="11.1903516"><ele>203.00000000000003</ele><time>2026-04-12T05:47:31.965Z</time></trkpt><trkpt lat="43.8917718" lon="11.1902958"><ele>203.0</ele><time>2026-04-12T05:47:49.96Z</time></trkpt><trkpt lat="43.8917616" lon="11.1901941"><ele>203.0</ele><time>2026-04-12T05:47:52.98Z</time></trkpt><trkpt lat="43.8917916" lon="11.1902889"><ele>203.0</ele><time>2026-04-12T05:47:58.965Z</time></trkpt><trkpt lat="43.8918347" lon="11.1904009"><ele>203.00000000000003</ele><time>2026-04-12T05:48:00.977Z</time></trkpt><trkpt lat="43.8919064" lon="11.1905246"><ele>203.0</ele><time>2026-04-12T05:48:02.972Z</time></trkpt><trkpt lat="43.8919506" lon="11.1905881"><ele>202.50000000000003</ele><time>2026-04-12T05:48:03.985Z</time></trkpt><trkpt lat="43.8920351" lon="11.190698"><ele>202.0</ele><time>2026-04-12T05:48:05.97Z</time></trkpt><trkpt lat="43.8921132" lon="11.1908169"><ele>201.5</ele><time>2026-04-12T05:48:07.967Z</time></trkpt><trkpt lat="43.8921609" lon="11.1908798"><ele>201.0</ele><time>2026-04-12T05:48:08.984Z</time></trkpt><trkpt lat="43.8922195" lon="11.1909379"><ele>200.50000000000003</ele><time>2026-04-12T05:48:09.984Z</time></trkpt><trkpt lat="43.8922791" lon="11.1910077"><ele>200.0</ele><time>2026-04-12T05:48:10.982Z</time></trkpt><trkpt lat="43.8923225" lon="11.1910898"><ele>200.00000000000003</ele><time>2026-04-12T05:48:11.973Z</time></trkpt><trkpt lat="43.8923612" lon="11.1911752"><ele>200.0</ele><time>2026-04-12T05:48:12.967Z</time></trkpt><trkpt lat="43.8924008" lon="11.1912524"><ele>200.0</ele><time>2026-04-12T05:48:13.971Z</time></trkpt><trkpt lat="43.8924425" lon="11.1913227"><ele>200.0</ele><time>2026-04-12T05:48:14.979Z</time></trkpt><trkpt lat="43.8925199" lon="11.1914532"><ele>200.00000000000003</ele><time>2026-04-12T05:48:16.965Z</time></trkpt><trkpt lat="43.892562" lon="11.1915225"><ele>200.0</ele><time>2026-04-12T05:48:17.985Z</time></trkpt><trkpt lat="43.8926082" lon="11.1915941"><ele>200.33333333333334</ele><time>2026-04-12T05:48:18.972Z</time></trkpt><trkpt lat="43.8926658" lon="11.191658"><ele>200.66666666666669</ele><time>2026-04-12T05:48:19.987Z</time></trkpt><trkpt lat="43.8927194" lon="11.1917077"><ele>201.0</ele><time>2026-04-12T05:48:20.969Z</time></trkpt><trkpt lat="43.8927953" lon="11.1918058"><ele>201.33333333333331</ele><time>2026-04-12T05:48:22.971Z</time></trkpt><trkpt lat="43.8928317" lon="11.1919164"><ele>201.66666666666666</ele><time>2026-04-12T05:48:24.958Z</time></trkpt><trkpt lat="43.8928453" lon="11.1920385"><ele>202.0</ele><time>2026-04-12T05:48:26.976Z</time></trkpt><trkpt lat="43.8928543" lon="11.1921587"><ele>201.99999999999997</ele><time>2026-04-12T05:48:28.977Z</time></trkpt><trkpt lat="43.892862" lon="11.1922634"><ele>202.0</ele><time>2026-04-12T05:48:30.975Z</time></trkpt><trkpt lat="43.8928615" lon="11.1923762"><ele>202.0</ele><time>2026-04-12T05:48:32.973Z</time></trkpt><trkpt lat="43.8928665" lon="11.1924838"><ele>202.0</ele><time>2026-04-12T05:48:34.98Z</time></trkpt><trkpt lat="43.8928505" lon="11.1925985"><ele>201.99999999999997</ele><time>2026-04-12T05:48:36.969Z</time></trkpt><trkpt lat="43.8928312" lon="11.1926902"><ele>202.0</ele><time>2026-04-12T05:48:38.974Z</time></trkpt><trkpt lat="43.8927861" lon="11.1927899"><ele>200.99999999999997</ele><time>2026-04-12T05:48:41.976Z</time></trkpt><trkpt lat="43.8927568" lon="11.1928981"><ele>200.0</ele><time>2026-04-12T05:48:44.975Z</time></trkpt><trkpt lat="43.8927375" lon="11.1930136"><ele>199.0</ele><time>2026-04-12T05:48:47.973Z</time></trkpt><trkpt lat="43.8927007" lon="11.1931005"><ele>198.0</ele><time>2026-04-12T05:48:51.961Z</time></trkpt><trkpt lat="43.8926406" lon="11.1931352"><ele>196.99999999999997</ele><time>2026-04-12T05:48:53.974Z</time></trkpt><trkpt lat="43.8925627" lon="11.1931933"><ele>196.0</ele><time>2026-04-12T05:48:55.966Z</time></trkpt><trkpt lat="43.8924531" lon="11.193272"><ele>193.4</ele><time>2026-04-12T05:48:57.981Z</time></trkpt><trkpt lat="43.8923949" lon="11.1933098"><ele>190.8</ele><time>2026-04-12T05:48:58.973Z</time></trkpt><trkpt lat="43.8922827" lon="11.1933696"><ele>188.20000000000002</ele><time>2026-04-12T05:49:00.975Z</time></trkpt><trkpt lat="43.892191" lon="11.1934329"><ele>185.60000000000002</ele><time>2026-04-12T05:49:02.985Z</time></trkpt><trkpt lat="43.8921048" lon="11.1934881"><ele>183.0</ele><time>2026-04-12T05:49:04.972Z</time></trkpt><trkpt lat="43.8920127" lon="11.1935578"><ele>183.0</ele><time>2026-04-12T05:49:06.967Z</time></trkpt><trkpt lat="43.8919517" lon="11.1935918"><ele>183.0</ele><time>2026-04-12T05:49:08.956Z</time></trkpt><trkpt lat="43.8918673" lon="11.1936501"><ele>183.0</ele><time>2026-04-12T05:49:11.975Z</time></trkpt><trkpt lat="43.8917837" lon="11.1937111"><ele>183.0</ele><time>2026-04-12T05:49:14.965Z</time></trkpt><trkpt lat="43.8917185" lon="11.1937731"><ele>183.0</ele><time>2026-04-12T05:49:16.975Z</time></trkpt><trkpt lat="43.8916682" lon="11.1938516"><ele>183.0</ele><time>2026-04-12T05:49:19.979Z</time></trkpt><trkpt lat="43.8916072" lon="11.1939096"><ele>181.85714285714286</ele><time>2026-04-12T05:49:33.971Z</time></trkpt><trkpt lat="43.8915397" lon="11.1939443"><ele>180.71428571428572</ele><time>2026-04-12T05:49:37.975Z</time></trkpt><trkpt lat="43.8914644" lon="11.1939236"><ele>179.57142857142856</ele><time>2026-04-12T05:49:41.972Z</time></trkpt><trkpt lat="43.891388" lon="11.1939023"><ele>178.42857142857144</ele><time>2026-04-12T05:49:45.979Z</time></trkpt><trkpt lat="43.89132" lon="11.1938672"><ele>177.28571428571428</ele><time>2026-04-12T05:49:47.98Z</time></trkpt><trkpt lat="43.8912626" lon="11.1938304"><ele>176.14285714285714</ele><time>2026-04-12T05:49:49.974Z</time></trkpt><trkpt lat="43.8911979" lon="11.1937828"><ele>175.0</ele><time>2026-04-12T05:49:52.977Z</time></trkpt><trkpt lat="43.8911227" lon="11.1937537"><ele>175.0</ele><time>2026-04-12T05:49:55.967Z</time></trkpt><trkpt lat="43.8910592" lon="11.1937297"><ele>175.0</ele><time>2026-04-12T05:49:58.963Z</time></trkpt><trkpt lat="43.8909839" lon="11.193711"><ele>175.0</ele><time>2026-04-12T05:50:02.029Z</time></trkpt><trkpt lat="43.8909097" lon="11.19368"><ele>175.0</ele><time>2026-04-12T05:50:03.968Z</time></trkpt><trkpt lat="43.8908428" lon="11.1936475"><ele>175.0</ele><time>2026-04-12T05:50:05.971Z</time></trkpt><trkpt lat="43.890772" lon="11.1936046"><ele>175.0</ele><time>2026-04-12T05:50:07.952Z</time></trkpt><trkpt lat="43.8907101" lon="11.1935649"><ele>175.0</ele><time>2026-04-12T05:50:09.967Z</time></trkpt><trkpt lat="43.8906558" lon="11.1935133"><ele>174.16666666666669</ele><time>2026-04-12T05:50:11.963Z</time></trkpt><trkpt lat="43.8905839" lon="11.1934484"><ele>173.33333333333334</ele><time>2026-04-12T05:50:14.969Z</time></trkpt><trkpt lat="43.8905076" lon="11.1934231"><ele>172.5</ele><time>2026-04-12T05:50:18.032Z</time></trkpt><trkpt lat="43.8904295" lon="11.1933845"><ele>171.66666666666666</ele><time>2026-04-12T05:50:20.998Z</time></trkpt><trkpt lat="43.8903695" lon="11.1933186"><ele>170.83333333333331</ele><time>2026-04-12T05:50:23.979Z</time></trkpt><trkpt lat="43.8902955" lon="11.1932637"><ele>170.0</ele><time>2026-04-12T05:50:27.979Z</time></trkpt><trkpt lat="43.8902318" lon="11.1932322"><ele>170.0</ele><time>2026-04-12T05:50:31.004Z</time></trkpt><trkpt lat="43.8901678" lon="11.1932088"><ele>170.0</ele><time>2026-04-12T05:50:33.984Z</time></trkpt><trkpt lat="43.8900904" lon="11.1932045"><ele>170.0</ele><time>2026-04-12T05:50:36.971Z</time></trkpt><trkpt lat="43.8900062" lon="11.193226"><ele>170.0</ele><time>2026-04-12T05:50:39.967Z</time></trkpt><trkpt lat="43.8899255" lon="11.1932215"><ele>170.0</ele><time>2026-04-12T05:50:42.971Z</time></trkpt><trkpt lat="43.8898642" lon="11.1931964"><ele>170.0</ele><time>2026-04-12T05:50:46Z</time></trkpt><trkpt lat="43.889802" lon="11.1931538"><ele>170.0</ele><time>2026-04-12T05:50:48.978Z</time></trkpt><trkpt lat="43.8897364" lon="11.1931214"><ele>167.14285714285714</ele><time>2026-04-12T05:50:51.988Z</time></trkpt><trkpt lat="43.889669" lon="11.1930842"><ele>164.28571428571428</ele><time>2026-04-12T05:50:55.984Z</time></trkpt><trkpt lat="43.8895934" lon="11.1930869"><ele>161.42857142857142</ele><time>2026-04-12T05:51:10.967Z</time></trkpt><trkpt lat="43.889517" lon="11.1931436"><ele>158.57142857142856</ele><time>2026-04-12T05:51:27.035Z</time></trkpt><trkpt lat="43.8894523" lon="11.1931275"><ele>155.71428571428572</ele><time>2026-04-12T05:51:37.966Z</time></trkpt><trkpt lat="43.8893968" lon="11.1930833"><ele>152.85714285714283</ele><time>2026-04-12T05:51:46.98Z</time></trkpt><trkpt lat="43.8893374" lon="11.1930533"><ele>150.0</ele><time>2026-04-12T05:51:50.975Z</time></trkpt><trkpt lat="43.8892765" lon="11.1929907"><ele>150.0</ele><time>2026-04-12T05:51:57.96Z</time></trkpt><trkpt lat="43.8892673" lon="11.1928892"><ele>150.0</ele><time>2026-04-12T05:52:04.968Z</time></trkpt><trkpt lat="43.8893108" lon="11.1928039"><ele>150.0</ele><time>2026-04-12T05:52:09.027Z</time></trkpt><trkpt lat="43.8893798" lon="11.1927193"><ele>150.0</ele><time>2026-04-12T05:52:12.028Z</time></trkpt><trkpt lat="43.8894411" lon="11.1926482"><ele>150.0</ele><time>2026-04-12T05:52:15.033Z</time></trkpt><trkpt lat="43.889506" lon="11.1925714"><ele>150.0</ele><time>2026-04-12T05:52:18.024Z</time></trkpt><trkpt lat="43.8895729" lon="11.1925122"><ele>150.0</ele><time>2026-04-12T05:52:21.022Z</time></trkpt><trkpt lat="43.8896537" lon="11.1924618"><ele>150.0</ele><time>2026-04-12T05:52:24.027Z</time></trkpt><trkpt lat="43.8897173" lon="11.1924196"><ele>150.0</ele><time>2026-04-12T05:52:26.043Z</time></trkpt><trkpt lat="43.8897776" lon="11.1923748"><ele>150.0</ele><time>2026-04-12T05:52:28.03Z</time></trkpt><trkpt lat="43.8898313" lon="11.1923201"><ele>150.0</ele><time>2026-04-12T05:52:30.142Z</time></trkpt><trkpt lat="43.8899051" lon="11.1922424"><ele>150.0</ele><time>2026-04-12T05:52:33.031Z</time></trkpt><trkpt lat="43.8899504" lon="11.1921738"><ele>149.85714285714283</ele><time>2026-04-12T05:52:35.03Z</time></trkpt><trkpt lat="43.8900079" lon="11.1920827"><ele>149.71428571428572</ele><time>2026-04-12T05:52:38.013Z</time></trkpt><trkpt lat="43.8900476" lon="11.1920121"><ele>149.57142857142856</ele><time>2026-04-12T05:52:40.032Z</time></trkpt><trkpt lat="43.8900998" lon="11.1919285"><ele>149.42857142857142</ele><time>2026-04-12T05:52:43.018Z</time></trkpt><trkpt lat="43.8901302" lon="11.1918427"><ele>149.28571428571428</ele><time>2026-04-12T05:52:47.025Z</time></trkpt><trkpt lat="43.8901848" lon="11.1917811"><ele>149.14285714285714</ele><time>2026-04-12T05:52:58.03Z</time></trkpt><trkpt lat="43.8902305" lon="11.1917199"><ele>149.0</ele><time>2026-04-12T05:53:12.032Z</time></trkpt><trkpt lat="43.8901288" lon="11.1916586"><ele>149.0</ele><time>2026-04-12T05:54:04.96Z</time></trkpt><trkpt lat="43.8900655" lon="11.1916358"><ele>149.0</ele><time>2026-04-12T05:54:33.967Z</time></trkpt><trkpt lat="43.8902013" lon="11.1916018"><ele>149.0</ele><time>2026-04-12T05:55:58.973Z</time></trkpt><trkpt lat="43.8902904" lon="11.1916181"><ele>149.0</ele><time>2026-04-12T05:56:25.966Z</time></trkpt><trkpt lat="43.8902892" lon="11.1917222"><ele>149.0</ele><time>2026-04-12T05:56:31.964Z</time></trkpt><trkpt lat="43.8902516" lon="11.1918165"><ele>149.0</ele><time>2026-04-12T05:56:34.967Z</time></trkpt><trkpt lat="43.8902182" lon="11.1918912"><ele>149.0</ele><time>2026-04-12T05:56:37.969Z</time></trkpt><trkpt lat="43.8901709" lon="11.1919829"><ele>149.0</ele><time>2026-04-12T05:56:41.968Z</time></trkpt><trkpt lat="43.890097" lon="11.1920568"><ele>149.0</ele><time>2026-04-12T05:56:44.966Z</time></trkpt><trkpt lat="43.8900131" lon="11.1921241"><ele>149.0</ele><time>2026-04-12T05:56:47.965Z</time></trkpt><trkpt lat="43.8899431" lon="11.1921818"><ele>149.0</ele><time>2026-04-12T05:56:49.967Z</time></trkpt><trkpt lat="43.8898644" lon="11.192228"><ele>149.0</ele><time>2026-04-12T05:56:51.986Z</time></trkpt><trkpt lat="43.8897919" lon="11.1922818"><ele>149.16666666666666</ele><time>2026-04-12T05:56:53.96Z</time></trkpt><trkpt lat="43.889728" lon="11.1923447"><ele>149.33333333333331</ele><time>2026-04-12T05:56:55.975Z</time></trkpt><trkpt lat="43.8896648" lon="11.1924072"><ele>149.5</ele><time>2026-04-12T05:56:57.978Z</time></trkpt><trkpt lat="43.8895958" lon="11.1924797"><ele>149.66666666666666</ele><time>2026-04-12T05:56:59.97Z</time></trkpt><trkpt lat="43.8895343" lon="11.1925644"><ele>149.83333333333334</ele><time>2026-04-12T05:57:01.979Z</time></trkpt><trkpt lat="43.8895014" lon="11.1926539"><ele>150.0</ele><time>2026-04-12T05:57:03.965Z</time></trkpt><trkpt lat="43.8895005" lon="11.1927628"><ele>149.99999999999997</ele><time>2026-04-12T05:57:06.963Z</time></trkpt><trkpt lat="43.8895122" lon="11.1928582"><ele>150.0</ele><time>2026-04-12T05:57:10.969Z</time></trkpt><trkpt lat="43.8895441" lon="11.1929353"><ele>150.0</ele><time>2026-04-12T05:57:14.982Z</time></trkpt><trkpt lat="43.8895877" lon="11.1929989"><ele>150.0</ele><time>2026-04-12T05:57:18.968Z</time></trkpt><trkpt lat="43.8896544" lon="11.1930139"><ele>150.0</ele><time>2026-04-12T05:57:31.966Z</time></trkpt><trkpt lat="43.8897256" lon="11.1930264"><ele>149.99999999999997</ele><time>2026-04-12T05:57:36.976Z</time></trkpt><trkpt lat="43.8897957" lon="11.1930749"><ele>150.0</ele><time>2026-04-12T05:57:39.971Z</time></trkpt><trkpt lat="43.8898658" lon="11.1931422"><ele>150.0</ele><time>2026-04-12T05:57:42.969Z</time></trkpt><trkpt lat="43.8899427" lon="11.1931665"><ele>150.0</ele><time>2026-04-12T05:57:45.97Z</time></trkpt><trkpt lat="43.8900317" lon="11.1931508"><ele>150.0</ele><time>2026-04-12T05:57:48.975Z</time></trkpt><trkpt lat="43.8901094" lon="11.1931428"><ele>150.0</ele><time>2026-04-12T05:57:51.978Z</time></trkpt><trkpt lat="43.890185" lon="11.1931559"><ele>150.0</ele><time>2026-04-12T05:57:55.974Z</time></trkpt><trkpt lat="43.8902545" lon="11.1932066"><ele>150.0</ele><time>2026-04-12T05:57:59.97Z</time></trkpt><trkpt lat="43.8903026" lon="11.1932714"><ele>153.33333333333334</ele><time>2026-04-12T05:58:02.973Z</time></trkpt><trkpt lat="43.89037" lon="11.1933247"><ele>156.66666666666666</ele><time>2026-04-12T05:58:06.973Z</time></trkpt><trkpt lat="43.8904445" lon="11.1933638"><ele>160.0</ele><time>2026-04-12T05:58:09.972Z</time></trkpt><trkpt lat="43.8905042" lon="11.1934242"><ele>163.33333333333331</ele><time>2026-04-12T05:58:11.964Z</time></trkpt><trkpt lat="43.890563" lon="11.1934731"><ele>166.66666666666666</ele><time>2026-04-12T05:58:13.956Z</time></trkpt><trkpt lat="43.8906389" lon="11.1935159"><ele>170.0</ele><time>2026-04-12T05:58:15.98Z</time></trkpt><trkpt lat="43.8907082" lon="11.1935485"><ele>170.0</ele><time>2026-04-12T05:58:16.975Z</time></trkpt><trkpt lat="43.8907934" lon="11.193587"><ele>170.0</ele><time>2026-04-12T05:58:18.983Z</time></trkpt><trkpt lat="43.8908706" lon="11.1936224"><ele>170.0</ele><time>2026-04-12T05:58:20.97Z</time></trkpt><trkpt lat="43.8909492" lon="11.1936349"><ele>170.0</ele><time>2026-04-12T05:58:23.967Z</time></trkpt><trkpt lat="43.8910295" lon="11.1936736"><ele>170.0</ele><time>2026-04-12T05:58:26.965Z</time></trkpt><trkpt lat="43.8910985" lon="11.1937076"><ele>170.0</ele><time>2026-04-12T05:58:28.977Z</time></trkpt><trkpt lat="43.8911708" lon="11.1937598"><ele>170.83333333333331</ele><time>2026-04-12T05:58:30.974Z</time></trkpt><trkpt lat="43.8912404" lon="11.1938265"><ele>171.66666666666666</ele><time>2026-04-12T05:58:32.974Z</time></trkpt><trkpt lat="43.8912929" lon="11.1938805"><ele>172.5</ele><time>2026-04-12T05:58:34.968Z</time></trkpt><trkpt lat="43.8913586" lon="11.1939359"><ele>173.33333333333334</ele><time>2026-04-12T05:58:37.959Z</time></trkpt><trkpt lat="43.8914266" lon="11.1939288"><ele>174.16666666666669</ele><time>2026-04-12T05:58:41.964Z</time></trkpt><trkpt lat="43.8914813" lon="11.1938759"><ele>175.0</ele><time>2026-04-12T05:58:44.964Z</time></trkpt><trkpt lat="43.8915697" lon="11.1937932"><ele>175.0</ele><time>2026-04-12T05:58:47.968Z</time></trkpt><trkpt lat="43.8916391" lon="11.1937295"><ele>175.0</ele><time>2026-04-12T05:58:49.981Z</time></trkpt><trkpt lat="43.8916985" lon="11.1936636"><ele>175.0</ele><time>2026-04-12T05:58:51.964Z</time></trkpt><trkpt lat="43.8917586" lon="11.1936213"><ele>175.0</ele><time>2026-04-12T05:58:53.975Z</time></trkpt><trkpt lat="43.8918175" lon="11.193571"><ele>175.0</ele><time>2026-04-12T05:58:55.983Z</time></trkpt><trkpt lat="43.8918882" lon="11.1935068"><ele>175.0</ele><time>2026-04-12T05:58:57.979Z</time></trkpt><trkpt lat="43.8919754" lon="11.1934229"><ele>176.6</ele><time>2026-04-12T05:58:59.976Z</time></trkpt><trkpt lat="43.8920502" lon="11.1933866"><ele>178.2</ele><time>2026-04-12T05:59:00.953Z</time></trkpt><trkpt lat="43.892118" lon="11.193357"><ele>179.8</ele><time>2026-04-12T05:59:01.977Z</time></trkpt><trkpt lat="43.8922367" lon="11.193309"><ele>181.4</ele><time>2026-04-12T05:59:03.975Z</time></trkpt><trkpt lat="43.8923101" lon="11.1932817"><ele>183.0</ele><time>2026-04-12T05:59:04.971Z</time></trkpt><trkpt lat="43.8924137" lon="11.1932382"><ele>183.0</ele><time>2026-04-12T05:59:06.976Z</time></trkpt><trkpt lat="43.8925143" lon="11.1932139"><ele>183.0</ele><time>2026-04-12T05:59:08.955Z</time></trkpt><trkpt lat="43.8925883" lon="11.1931878"><ele>183.0</ele><time>2026-04-12T05:59:10.98Z</time></trkpt><trkpt lat="43.8926378" lon="11.1930819"><ele>183.0</ele><time>2026-04-12T05:59:13.968Z</time></trkpt><trkpt lat="43.8926684" lon="11.1929982"><ele>183.0</ele><time>2026-04-12T05:59:15.966Z</time></trkpt><trkpt lat="43.8927075" lon="11.1929209"><ele>183.0</ele><time>2026-04-12T05:59:17.975Z</time></trkpt><trkpt lat="43.8927622" lon="11.1928208"><ele>185.16666666666666</ele><time>2026-04-12T05:59:20.974Z</time></trkpt><trkpt lat="43.8927923" lon="11.1927423"><ele>187.33333333333331</ele><time>2026-04-12T05:59:22.971Z</time></trkpt><trkpt lat="43.8928081" lon="11.1926273"><ele>189.5</ele><time>2026-04-12T05:59:25.963Z</time></trkpt><trkpt lat="43.8928096" lon="11.1925229"><ele>191.66666666666666</ele><time>2026-04-12T05:59:27.975Z</time></trkpt><trkpt lat="43.89281" lon="11.1923975"><ele>193.83333333333331</ele><time>2026-04-12T05:59:29.976Z</time></trkpt><trkpt lat="43.8928228" lon="11.1922504"><ele>196.0</ele><time>2026-04-12T05:59:31.97Z</time></trkpt><trkpt lat="43.8928255" lon="11.1921416"><ele>197.20000000000002</ele><time>2026-04-12T05:59:33.959Z</time></trkpt><trkpt lat="43.8928005" lon="11.1920109"><ele>198.4</ele><time>2026-04-12T05:59:36.969Z</time></trkpt><trkpt lat="43.8927714" lon="11.1919305"><ele>199.6</ele><time>2026-04-12T05:59:38.973Z</time></trkpt><trkpt lat="43.8926705" lon="11.1918132"><ele>200.8</ele><time>2026-04-12T05:59:40.964Z</time></trkpt><trkpt lat="43.8925795" lon="11.191717"><ele>202.0</ele><time>2026-04-12T05:59:42.972Z</time></trkpt><trkpt lat="43.8925111" lon="11.1915938"><ele>201.71428571428572</ele><time>2026-04-12T05:59:44.97Z</time></trkpt><trkpt lat="43.8924803" lon="11.1915117"><ele>201.42857142857142</ele><time>2026-04-12T05:59:45.967Z</time></trkpt><trkpt lat="43.8924414" lon="11.1914425"><ele>201.14285714285717</ele><time>2026-04-12T05:59:46.967Z</time></trkpt><trkpt lat="43.8924051" lon="11.1913647"><ele>200.85714285714286</ele><time>2026-04-12T05:59:47.969Z</time></trkpt><trkpt lat="43.8923555" lon="11.1913072"><ele>200.57142857142858</ele><time>2026-04-12T05:59:48.971Z</time></trkpt><trkpt lat="43.8923006" lon="11.1912441"><ele>200.2857142857143</ele><time>2026-04-12T05:59:49.978Z</time></trkpt><trkpt lat="43.8922362" lon="11.1911817"><ele>200.0</ele><time>2026-04-12T05:59:50.976Z</time></trkpt><trkpt lat="43.8921439" lon="11.1910758"><ele>200.00000000000003</ele><time>2026-04-12T05:59:52.963Z</time></trkpt><trkpt lat="43.8920999" lon="11.191001"><ele>200.0</ele><time>2026-04-12T05:59:53.966Z</time></trkpt><trkpt lat="43.8920506" lon="11.1909389"><ele>200.0</ele><time>2026-04-12T05:59:54.968Z</time></trkpt><trkpt lat="43.8920028" lon="11.1908492"><ele>200.0</ele><time>2026-04-12T05:59:55.973Z</time></trkpt><trkpt lat="43.8919149" lon="11.1907386"><ele>200.00000000000003</ele><time>2026-04-12T05:59:57.969Z</time></trkpt><trkpt lat="43.8918637" lon="11.1906339"><ele>200.0</ele><time>2026-04-12T05:59:58.968Z</time></trkpt><trkpt lat="43.8918046" lon="11.1904964"><ele>200.6</ele><time>2026-04-12T06:00:00.973Z</time></trkpt><trkpt lat="43.891763" lon="11.1903433"><ele>201.2</ele><time>2026-04-12T06:00:02.961Z</time></trkpt><trkpt lat="43.8917272" lon="11.1902312"><ele>201.8</ele><time>2026-04-12T06:00:04.963Z</time></trkpt><trkpt lat="43.8916902" lon="11.1901219"><ele>202.4</ele><time>2026-04-12T06:00:06.967Z</time></trkpt><trkpt lat="43.8916372" lon="11.190042"><ele>203.0</ele><time>2026-04-12T06:00:08.967Z</time></trkpt><trkpt lat="43.8915625" lon="11.1899716"><ele>201.16666666666669</ele><time>2026-04-12T06:00:11.947Z</time></trkpt><trkpt lat="43.8914635" lon="11.1899456"><ele>199.33333333333334</ele><time>2026-04-12T06:00:14.964Z</time></trkpt><trkpt lat="43.8913954" lon="11.1899245"><ele>197.5</ele><time>2026-04-12T06:00:17.027Z</time></trkpt><trkpt lat="43.891333" lon="11.1899405"><ele>195.66666666666669</ele><time>2026-04-12T06:00:18.981Z</time></trkpt><trkpt lat="43.8912514" lon="11.1899305"><ele>193.83333333333334</ele><time>2026-04-12T06:00:20.974Z</time></trkpt><trkpt lat="43.8911985" lon="11.189858"><ele>192.0</ele><time>2026-04-12T06:00:23.041Z</time></trkpt><trkpt lat="43.8911543" lon="11.1897657"><ele>191.83333333333334</ele><time>2026-04-12T06:00:24.97Z</time></trkpt><trkpt lat="43.8910966" lon="11.1896878"><ele>191.66666666666666</ele><time>2026-04-12T06:00:34.976Z</time></trkpt><trkpt lat="43.8910305" lon="11.1896563"><ele>191.5</ele><time>2026-04-12T06:00:36.973Z</time></trkpt><trkpt lat="43.8909674" lon="11.1896266"><ele>191.33333333333331</ele><time>2026-04-12T06:00:38.968Z</time></trkpt><trkpt lat="43.8908945" lon="11.1896123"><ele>191.16666666666666</ele><time>2026-04-12T06:00:40.971Z</time></trkpt><trkpt lat="43.8908198" lon="11.1896338"><ele>191.0</ele><time>2026-04-12T06:00:43.979Z</time></trkpt><trkpt lat="43.8907326" lon="11.1896528"><ele>189.83333333333331</ele><time>2026-04-12T06:00:46.962Z</time></trkpt><trkpt lat="43.8906507" lon="11.1896762"><ele>188.66666666666666</ele><time>2026-04-12T06:00:50.043Z</time></trkpt><trkpt lat="43.8905762" lon="11.1896933"><ele>187.5</ele><time>2026-04-12T06:00:52.028Z</time></trkpt><trkpt lat="43.8905036" lon="11.1897099"><ele>186.33333333333334</ele><time>2026-04-12T06:00:53.969Z</time></trkpt><trkpt lat="43.8904291" lon="11.1897158"><ele>185.16666666666669</ele><time>2026-04-12T06:00:55.974Z</time></trkpt><trkpt lat="43.8903624" lon="11.189687"><ele>184.0</ele><time>2026-04-12T06:00:57.971Z</time></trkpt><trkpt lat="43.890289" lon="11.1896617"><ele>184.0</ele><time>2026-04-12T06:00:59.982Z</time></trkpt><trkpt lat="43.8902219" lon="11.1896409"><ele>184.0</ele><time>2026-04-12T06:01:01.955Z</time></trkpt><trkpt lat="43.8900955" lon="11.1895609"><ele>184.0</ele><time>2026-04-12T06:01:06.97Z</time></trkpt><trkpt lat="43.889951" lon="11.1894265"><ele>184.0</ele><time>2026-04-12T06:01:12.978Z</time></trkpt><trkpt lat="43.8897989" lon="11.1893079"><ele>181.16666666666669</ele><time>2026-04-12T06:01:18.971Z</time></trkpt><trkpt lat="43.8896927" lon="11.1892492"><ele>178.33333333333334</ele><time>2026-04-12T06:01:22.962Z</time></trkpt><trkpt lat="43.8896347" lon="11.1892102"><ele>175.5</ele><time>2026-04-12T06:01:24.969Z</time></trkpt><trkpt lat="43.8895861" lon="11.1891476"><ele>172.66666666666666</ele><time>2026-04-12T06:01:26.973Z</time></trkpt><trkpt lat="43.889535" lon="11.1890595"><ele>169.83333333333331</ele><time>2026-04-12T06:01:28.973Z</time></trkpt><trkpt lat="43.8894911" lon="11.1889757"><ele>167.0</ele><time>2026-04-12T06:01:30.967Z</time></trkpt><trkpt lat="43.8894762" lon="11.1888716"><ele>166.16666666666666</ele><time>2026-04-12T06:01:33.972Z</time></trkpt><trkpt lat="43.8894668" lon="11.188775"><ele>165.33333333333331</ele><time>2026-04-12T06:01:36.97Z</time></trkpt><trkpt lat="43.8894658" lon="11.1886749"><ele>164.5</ele><time>2026-04-12T06:01:40.965Z</time></trkpt><trkpt lat="43.8894722" lon="11.1885735"><ele>163.66666666666666</ele><time>2026-04-12T06:01:45.976Z</time></trkpt><trkpt lat="43.8894764" lon="11.1884645"><ele>162.83333333333334</ele><time>2026-04-12T06:01:49.965Z</time></trkpt><trkpt lat="43.8894422" lon="11.1883591"><ele>162.0</ele><time>2026-04-12T06:01:53.943Z</time></trkpt><trkpt lat="43.889396" lon="11.1882768"><ele>162.0</ele><time>2026-04-12T06:01:56.966Z</time></trkpt><trkpt lat="43.8893454" lon="11.1881985"><ele>162.0</ele><time>2026-04-12T06:02:00.944Z</time></trkpt><trkpt lat="43.8892912" lon="11.1881442"><ele>162.0</ele><time>2026-04-12T06:02:04.965Z</time></trkpt><trkpt lat="43.8892295" lon="11.1881071"><ele>162.0</ele><time>2026-04-12T06:02:07.978Z</time></trkpt><trkpt lat="43.8891609" lon="11.1880686"><ele>162.0</ele><time>2026-04-12T06:02:10.965Z</time></trkpt><trkpt lat="43.8890961" lon="11.1880143"><ele>162.0</ele><time>2026-04-12T06:02:13.971Z</time></trkpt><trkpt lat="43.8890413" lon="11.1879691"><ele>162.0</ele><time>2026-04-12T06:02:15.966Z</time></trkpt><trkpt lat="43.8889662" lon="11.1879035"><ele>158.83333333333334</ele><time>2026-04-12T06:02:18.966Z</time></trkpt><trkpt lat="43.8888941" lon="11.1878345"><ele>155.66666666666666</ele><time>2026-04-12T06:02:21.971Z</time></trkpt><trkpt lat="43.888829" lon="11.187779"><ele>152.5</ele><time>2026-04-12T06:02:23.963Z</time></trkpt><trkpt lat="43.8887528" lon="11.1877042"><ele>149.33333333333331</ele><time>2026-04-12T06:02:25.946Z</time></trkpt><trkpt lat="43.8886816" lon="11.1876309"><ele>146.16666666666666</ele><time>2026-04-12T06:02:27.96Z</time></trkpt><trkpt lat="43.8886088" lon="11.1875588"><ele>143.0</ele><time>2026-04-12T06:02:29.953Z</time></trkpt><trkpt lat="43.8885353" lon="11.1874872"><ele>143.0</ele><time>2026-04-12T06:02:31.973Z</time></trkpt><trkpt lat="43.8884612" lon="11.1874289"><ele>143.0</ele><time>2026-04-12T06:02:33.97Z</time></trkpt><trkpt lat="43.8883707" lon="11.1873944"><ele>143.0</ele><time>2026-04-12T06:02:35.969Z</time></trkpt><trkpt lat="43.8882888" lon="11.1873547"><ele>143.0</ele><time>2026-04-12T06:02:37.959Z</time></trkpt><trkpt lat="43.8882096" lon="11.1873588"><ele>143.0</ele><time>2026-04-12T06:02:39.969Z</time></trkpt><trkpt lat="43.8881453" lon="11.1873852"><ele>143.0</ele><time>2026-04-12T06:02:41.968Z</time></trkpt><trkpt lat="43.888079" lon="11.1874179"><ele>141.28571428571428</ele><time>2026-04-12T06:02:45.973Z</time></trkpt><trkpt lat="43.8880157" lon="11.1873442"><ele>139.57142857142856</ele><time>2026-04-12T06:02:59.971Z</time></trkpt><trkpt lat="43.8879606" lon="11.187297"><ele>137.85714285714286</ele><time>2026-04-12T06:03:02.97Z</time></trkpt><trkpt lat="43.8879275" lon="11.1872181"><ele>136.14285714285714</ele><time>2026-04-12T06:03:06.959Z</time></trkpt><trkpt lat="43.8878833" lon="11.1871501"><ele>134.42857142857144</ele><time>2026-04-12T06:03:17.952Z</time></trkpt><trkpt lat="43.8878222" lon="11.1871155"><ele>132.71428571428572</ele><time>2026-04-12T06:03:30.97Z</time></trkpt><trkpt lat="43.8878892" lon="11.1871014"><ele>131.0</ele><time>2026-04-12T06:03:45.967Z</time></trkpt><trkpt lat="43.8879367" lon="11.1871594"><ele>131.0</ele><time>2026-04-12T06:03:47.972Z</time></trkpt><trkpt lat="43.8879844" lon="11.1872217"><ele>131.0</ele><time>2026-04-12T06:03:49.949Z</time></trkpt><trkpt lat="43.8880399" lon="11.1872899"><ele>131.0</ele><time>2026-04-12T06:03:51.965Z</time></trkpt><trkpt lat="43.8880632" lon="11.1874107"><ele>131.0</ele><time>2026-04-12T06:03:54.971Z</time></trkpt><trkpt lat="43.8880521" lon="11.1875002"><ele>131.0</ele><time>2026-04-12T06:03:55.979Z</time></trkpt><trkpt lat="43.8880401" lon="11.1875875"><ele>131.0</ele><time>2026-04-12T06:03:56.971Z</time></trkpt><trkpt lat="43.8880467" lon="11.1876895"><ele>131.0</ele><time>2026-04-12T06:03:57.973Z</time></trkpt><trkpt lat="43.8880528" lon="11.187795"><ele>130.83333333333331</ele><time>2026-04-12T06:03:58.964Z</time></trkpt><trkpt lat="43.8880567" lon="11.187892"><ele>130.66666666666666</ele><time>2026-04-12T06:03:59.961Z</time></trkpt><trkpt lat="43.8880589" lon="11.1879906"><ele>130.5</ele><time>2026-04-12T06:04:00.96Z</time></trkpt><trkpt lat="43.8880553" lon="11.1880783"><ele>130.33333333333334</ele><time>2026-04-12T06:04:01.966Z</time></trkpt><trkpt lat="43.888035" lon="11.1882428"><ele>130.16666666666669</ele><time>2026-04-12T06:04:03.947Z</time></trkpt><trkpt lat="43.8880124" lon="11.1883946"><ele>130.0</ele><time>2026-04-12T06:04:05.967Z</time></trkpt><trkpt lat="43.8880064" lon="11.1885409"><ele>130.0</ele><time>2026-04-12T06:04:07.977Z</time></trkpt><trkpt lat="43.8880091" lon="11.1886858"><ele>130.0</ele><time>2026-04-12T06:04:09.967Z</time></trkpt><trkpt lat="43.8880081" lon="11.188851"><ele>130.0</ele><time>2026-04-12T06:04:11.967Z</time></trkpt><trkpt lat="43.8880108" lon="11.189016"><ele>130.0</ele><time>2026-04-12T06:04:13.967Z</time></trkpt><trkpt lat="43.8880129" lon="11.1891054"><ele>130.0</ele><time>2026-04-12T06:04:14.965Z</time></trkpt><trkpt lat="43.8880144" lon="11.1892656"><ele>129.6</ele><time>2026-04-12T06:04:16.971Z</time></trkpt><trkpt lat="43.8880147" lon="11.1893948"><ele>129.2</ele><time>2026-04-12T06:04:18.968Z</time></trkpt><trkpt lat="43.8880117" lon="11.1895414"><ele>128.8</ele><time>2026-04-12T06:04:20.964Z</time></trkpt><trkpt lat="43.8879963" lon="11.1896947"><ele>128.4</ele><time>2026-04-12T06:04:22.975Z</time></trkpt><trkpt lat="43.8879815" lon="11.1898422"><ele>128.0</ele><time>2026-04-12T06:04:24.971Z</time></trkpt><trkpt lat="43.88796" lon="11.1900012"><ele>127.0</ele><time>2026-04-12T06:04:26.967Z</time></trkpt><trkpt lat="43.8879303" lon="11.1901613"><ele>126.00000000000001</ele><time>2026-04-12T06:04:28.975Z</time></trkpt><trkpt lat="43.887904" lon="11.1903305"><ele>125.00000000000001</ele><time>2026-04-12T06:04:30.97Z</time></trkpt><trkpt lat="43.8878906" lon="11.1904161"><ele>124.0</ele><time>2026-04-12T06:04:31.968Z</time></trkpt><trkpt lat="43.8878766" lon="11.1905743"><ele>123.0</ele><time>2026-04-12T06:04:33.971Z</time></trkpt><trkpt lat="43.8878621" lon="11.1906827"><ele>122.60000000000001</ele><time>2026-04-12T06:04:35.968Z</time></trkpt><trkpt lat="43.8878302" lon="11.1907911"><ele>122.20000000000002</ele><time>2026-04-12T06:04:37.974Z</time></trkpt><trkpt lat="43.887801" lon="11.1909158"><ele>121.8</ele><time>2026-04-12T06:04:39.97Z</time></trkpt><trkpt lat="43.8877808" lon="11.1910465"><ele>121.4</ele><time>2026-04-12T06:04:41.962Z</time></trkpt><trkpt lat="43.8877665" lon="11.1911873"><ele>121.0</ele><time>2026-04-12T06:04:43.973Z</time></trkpt><trkpt lat="43.8877375" lon="11.191302"><ele>121.00000000000001</ele><time>2026-04-12T06:04:45.94Z</time></trkpt><trkpt lat="43.8877021" lon="11.1913947"><ele>121.0</ele><time>2026-04-12T06:04:48.969Z</time></trkpt><trkpt lat="43.887688" lon="11.1915124"><ele>121.0</ele><time>2026-04-12T06:04:52.969Z</time></trkpt><trkpt lat="43.8876677" lon="11.1916105"><ele>121.0</ele><time>2026-04-12T06:04:54.964Z</time></trkpt><trkpt lat="43.8875761" lon="11.1916884"><ele>121.00000000000001</ele><time>2026-04-12T06:04:56.969Z</time></trkpt><trkpt lat="43.8875298" lon="11.1917731"><ele>121.0</ele><time>2026-04-12T06:04:58.971Z</time></trkpt><trkpt lat="43.8875119" lon="11.1919048"><ele>119.42857142857142</ele><time>2026-04-12T06:05:00.965Z</time></trkpt><trkpt lat="43.8874925" lon="11.1920594"><ele>117.85714285714285</ele><time>2026-04-12T06:05:02.974Z</time></trkpt><trkpt lat="43.8874654" lon="11.1921391"><ele>116.28571428571428</ele><time>2026-04-12T06:05:03.968Z</time></trkpt><trkpt lat="43.8874266" lon="11.1922181"><ele>114.71428571428571</ele><time>2026-04-12T06:05:04.971Z</time></trkpt><trkpt lat="43.8873853" lon="11.1922934"><ele>113.14285714285714</ele><time>2026-04-12T06:05:05.971Z</time></trkpt><trkpt lat="43.8873426" lon="11.192363"><ele>111.57142857142856</ele><time>2026-04-12T06:05:06.967Z</time></trkpt><trkpt lat="43.8872965" lon="11.1924359"><ele>110.0</ele><time>2026-04-12T06:05:07.966Z</time></trkpt><trkpt lat="43.8872526" lon="11.1925133"><ele>109.99999999999999</ele><time>2026-04-12T06:05:08.967Z</time></trkpt><trkpt lat="43.8872233" lon="11.1925926"><ele>110.0</ele><time>2026-04-12T06:05:09.976Z</time></trkpt><trkpt lat="43.8872122" lon="11.1926843"><ele>110.0</ele><time>2026-04-12T06:05:10.96Z</time></trkpt><trkpt lat="43.8872449" lon="11.1927716"><ele>110.0</ele><time>2026-04-12T06:05:11.971Z</time></trkpt><trkpt lat="43.8872813" lon="11.1928485"><ele>109.99999999999999</ele><time>2026-04-12T06:05:13.023Z</time></trkpt><trkpt lat="43.8873405" lon="11.1929826"><ele>110.0</ele><time>2026-04-12T06:05:14.967Z</time></trkpt><trkpt lat="43.8874141" lon="11.1931435"><ele>110.33333333333333</ele><time>2026-04-12T06:05:16.966Z</time></trkpt><trkpt lat="43.8874551" lon="11.1932284"><ele>110.66666666666666</ele><time>2026-04-12T06:05:17.964Z</time></trkpt><trkpt lat="43.887502" lon="11.1933232"><ele>111.0</ele><time>2026-04-12T06:05:18.968Z</time></trkpt><trkpt lat="43.8875452" lon="11.1934289"><ele>111.33333333333334</ele><time>2026-04-12T06:05:19.97Z</time></trkpt><trkpt lat="43.8875861" lon="11.1935377"><ele>111.66666666666667</ele><time>2026-04-12T06:05:20.99Z</time></trkpt><trkpt lat="43.8876246" lon="11.193658"><ele>112.0</ele><time>2026-04-12T06:05:21.976Z</time></trkpt><trkpt lat="43.8876743" lon="11.1937941"><ele>112.0</ele><time>2026-04-12T06:05:22.964Z</time></trkpt><trkpt lat="43.8877345" lon="11.1939335"><ele>112.0</ele><time>2026-04-12T06:05:23.965Z</time></trkpt><trkpt lat="43.8877943" lon="11.1940788"><ele>112.0</ele><time>2026-04-12T06:05:24.964Z</time></trkpt><trkpt lat="43.8878587" lon="11.1942228"><ele>112.0</ele><time>2026-04-12T06:05:25.975Z</time></trkpt><trkpt lat="43.8879241" lon="11.1943603"><ele>112.39999999999999</ele><time>2026-04-12T06:05:26.964Z</time></trkpt><trkpt lat="43.8879837" lon="11.1945031"><ele>112.79999999999998</ele><time>2026-04-12T06:05:28.033Z</time></trkpt><trkpt lat="43.8880345" lon="11.194647"><ele>113.2</ele><time>2026-04-12T06:05:28.986Z</time></trkpt><trkpt lat="43.888082" lon="11.1947712"><ele>113.6</ele><time>2026-04-12T06:05:29.957Z</time></trkpt><trkpt lat="43.8881324" lon="11.19488"><ele>114.0</ele><time>2026-04-12T06:05:31.016Z</time></trkpt><trkpt lat="43.8881956" lon="11.1949583"><ele>114.16666666666667</ele><time>2026-04-12T06:05:32.031Z</time></trkpt><trkpt lat="43.8882857" lon="11.1950251"><ele>114.33333333333334</ele><time>2026-04-12T06:05:33.03Z</time></trkpt><trkpt lat="43.8883719" lon="11.1950678"><ele>114.5</ele><time>2026-04-12T06:05:33.962Z</time></trkpt><trkpt lat="43.8884451" lon="11.195125"><ele>114.66666666666667</ele><time>2026-04-12T06:05:35.035Z</time></trkpt><trkpt lat="43.8885189" lon="11.1951972"><ele>114.83333333333334</ele><time>2026-04-12T06:05:36.03Z</time></trkpt><trkpt lat="43.8885743" lon="11.1952567"><ele>115.0</ele><time>2026-04-12T06:05:37.031Z</time></trkpt><trkpt lat="43.8886301" lon="11.1953828"><ele>115.0</ele><time>2026-04-12T06:05:38.959Z</time></trkpt><trkpt lat="43.8886767" lon="11.1955213"><ele>115.0</ele><time>2026-04-12T06:05:40.981Z</time></trkpt><trkpt lat="43.8887252" lon="11.1955846"><ele>115.0</ele><time>2026-04-12T06:05:42.027Z</time></trkpt><trkpt lat="43.8888149" lon="11.1957193"><ele>115.0</ele><time>2026-04-12T06:05:43.967Z</time></trkpt><trkpt lat="43.8888486" lon="11.1958209"><ele>115.0</ele><time>2026-04-12T06:05:44.965Z</time></trkpt><trkpt lat="43.8888546" lon="11.1959193"><ele>115.33333333333334</ele><time>2026-04-12T06:05:45.988Z</time></trkpt><trkpt lat="43.8888375" lon="11.1960907"><ele>115.66666666666667</ele><time>2026-04-12T06:05:47.951Z</time></trkpt><trkpt lat="43.888808" lon="11.1961872"><ele>116.0</ele><time>2026-04-12T06:05:48.961Z</time></trkpt><trkpt lat="43.8887626" lon="11.1962754"><ele>116.33333333333334</ele><time>2026-04-12T06:05:49.969Z</time></trkpt><trkpt lat="43.8887331" lon="11.1963699"><ele>116.66666666666667</ele><time>2026-04-12T06:05:50.96Z</time></trkpt><trkpt lat="43.888749" lon="11.1964665"><ele>117.0</ele><time>2026-04-12T06:05:52.029Z</time></trkpt><trkpt lat="43.8888216" lon="11.1965181"><ele>118.71428571428572</ele><time>2026-04-12T06:05:52.963Z</time></trkpt><trkpt lat="43.8888957" lon="11.1965525"><ele>120.42857142857144</ele><time>2026-04-12T06:05:53.976Z</time></trkpt><trkpt lat="43.8889492" lon="11.1966116"><ele>122.14285714285714</ele><time>2026-04-12T06:05:54.973Z</time></trkpt><trkpt lat="43.888993" lon="11.1966824"><ele>123.85714285714286</ele><time>2026-04-12T06:05:55.964Z</time></trkpt><trkpt lat="43.8890369" lon="11.1967497"><ele>125.57142857142857</ele><time>2026-04-12T06:05:56.956Z</time></trkpt><trkpt lat="43.8890863" lon="11.1968422"><ele>127.28571428571428</ele><time>2026-04-12T06:05:57.973Z</time></trkpt><trkpt lat="43.8891446" lon="11.1969315"><ele>129.0</ele><time>2026-04-12T06:05:58.978Z</time></trkpt><trkpt lat="43.8892116" lon="11.1970268"><ele>128.5</ele><time>2026-04-12T06:05:59.974Z</time></trkpt><trkpt lat="43.8892701" lon="11.1971259"><ele>128.0</ele><time>2026-04-12T06:06:00.971Z</time></trkpt><trkpt lat="43.8893174" lon="11.1972347"><ele>127.5</ele><time>2026-04-12T06:06:01.972Z</time></trkpt><trkpt lat="43.889347" lon="11.1973559"><ele>127.0</ele><time>2026-04-12T06:06:02.972Z</time></trkpt><trkpt lat="43.8893656" lon="11.1974698"><ele>126.5</ele><time>2026-04-12T06:06:03.979Z</time></trkpt><trkpt lat="43.8893641" lon="11.1975849"><ele>126.0</ele><time>2026-04-12T06:06:04.969Z</time></trkpt><trkpt lat="43.8893705" lon="11.1976784"><ele>126.0</ele><time>2026-04-12T06:06:06.06Z</time></trkpt><trkpt lat="43.8894052" lon="11.1977629"><ele>126.0</ele><time>2026-04-12T06:06:07.035Z</time></trkpt><trkpt lat="43.8894449" lon="11.19785"><ele>126.0</ele><time>2026-04-12T06:06:08.033Z</time></trkpt><trkpt lat="43.8894925" lon="11.1979589"><ele>126.0</ele><time>2026-04-12T06:06:08.979Z</time></trkpt><trkpt lat="43.8895404" lon="11.1980678"><ele>126.0</ele><time>2026-04-12T06:06:09.991Z</time></trkpt><trkpt lat="43.8896145" lon="11.1981794"><ele>126.0</ele><time>2026-04-12T06:06:10.987Z</time></trkpt><trkpt lat="43.8896876" lon="11.1982985"><ele>128.4</ele><time>2026-04-12T06:06:11.975Z</time></trkpt><trkpt lat="43.8897598" lon="11.1984183"><ele>130.8</ele><time>2026-04-12T06:06:12.979Z</time></trkpt><trkpt lat="43.8898285" lon="11.198533"><ele>133.20000000000002</ele><time>2026-04-12T06:06:13.981Z</time></trkpt><trkpt lat="43.8898876" lon="11.1986582"><ele>135.6</ele><time>2026-04-12T06:06:15.038Z</time></trkpt><trkpt lat="43.8899564" lon="11.1987762"><ele>138.0</ele><time>2026-04-12T06:06:16.018Z</time></trkpt><trkpt lat="43.8900179" lon="11.1988805"><ele>139.8</ele><time>2026-04-12T06:06:16.972Z</time></trkpt><trkpt lat="43.8901033" lon="11.1989788"><ele>141.60000000000002</ele><time>2026-04-12T06:06:18.026Z</time></trkpt><trkpt lat="43.8901895" lon="11.1990525"><ele>143.39999999999998</ele><time>2026-04-12T06:06:18.965Z</time></trkpt><trkpt lat="43.8902903" lon="11.199096"><ele>145.2</ele><time>2026-04-12T06:06:19.966Z</time></trkpt><trkpt lat="43.8904115" lon="11.1991364"><ele>147.0</ele><time>2026-04-12T06:06:21.003Z</time></trkpt><trkpt lat="43.8905356" lon="11.1991733"><ele>147.0</ele><time>2026-04-12T06:06:21.965Z</time></trkpt><trkpt lat="43.8906268" lon="11.1992223"><ele>147.0</ele><time>2026-04-12T06:06:22.977Z</time></trkpt><trkpt lat="43.8906972" lon="11.1992978"><ele>147.0</ele><time>2026-04-12T06:06:23.961Z</time></trkpt><trkpt lat="43.8907518" lon="11.1993777"><ele>147.0</ele><time>2026-04-12T06:06:25.036Z</time></trkpt><trkpt lat="43.8907969" lon="11.1994505"><ele>147.0</ele><time>2026-04-12T06:06:26.035Z</time></trkpt><trkpt lat="43.8908488" lon="11.1995204"><ele>147.0</ele><time>2026-04-12T06:06:26.966Z</time></trkpt><trkpt lat="43.8909054" lon="11.1995808"><ele>147.83333333333334</ele><time>2026-04-12T06:06:27.966Z</time></trkpt><trkpt lat="43.890963" lon="11.1996413"><ele>148.66666666666666</ele><time>2026-04-12T06:06:28.968Z</time></trkpt><trkpt lat="43.8910595" lon="11.1997624"><ele>149.5</ele><time>2026-04-12T06:06:30.966Z</time></trkpt><trkpt lat="43.8911126" lon="11.1998194"><ele>150.33333333333331</ele><time>2026-04-12T06:06:31.962Z</time></trkpt><trkpt lat="43.8911623" lon="11.199876"><ele>151.16666666666666</ele><time>2026-04-12T06:06:33.051Z</time></trkpt><trkpt lat="43.8912521" lon="11.1999259"><ele>152.0</ele><time>2026-04-12T06:06:34.974Z</time></trkpt><trkpt lat="43.8913257" lon="11.1999462"><ele>152.0</ele><time>2026-04-12T06:06:36.966Z</time></trkpt><trkpt lat="43.8913896" lon="11.1999781"><ele>152.0</ele><time>2026-04-12T06:06:38.965Z</time></trkpt><trkpt lat="43.8914637" lon="11.2000345"><ele>152.0</ele><time>2026-04-12T06:06:40.973Z</time></trkpt><trkpt lat="43.8915651" lon="11.2001268"><ele>152.0</ele><time>2026-04-12T06:06:43.025Z</time></trkpt><trkpt lat="43.8916087" lon="11.2002001"><ele>152.0</ele><time>2026-04-12T06:06:43.977Z</time></trkpt><trkpt lat="43.8916531" lon="11.2002754"><ele>152.0</ele><time>2026-04-12T06:06:44.98Z</time></trkpt><trkpt lat="43.891691" lon="11.2003539"><ele>152.0</ele><time>2026-04-12T06:06:45.971Z</time></trkpt><trkpt lat="43.8917289" lon="11.2004305"><ele>152.0</ele><time>2026-04-12T06:06:46.973Z</time></trkpt><trkpt lat="43.8917678" lon="11.2005157"><ele>152.0</ele><time>2026-04-12T06:06:47.974Z</time></trkpt><trkpt lat="43.8917956" lon="11.200608"><ele>152.0</ele><time>2026-04-12T06:06:48.987Z</time></trkpt><trkpt lat="43.8918139" lon="11.2007027"><ele>152.0</ele><time>2026-04-12T06:06:50.035Z</time></trkpt><trkpt lat="43.8918304" lon="11.2008075"><ele>152.0</ele><time>2026-04-12T06:06:50.974Z</time></trkpt><trkpt lat="43.8918423" lon="11.2009061"><ele>152.0</ele><time>2026-04-12T06:06:51.957Z</time></trkpt><trkpt lat="43.8918614" lon="11.2010062"><ele>151.0</ele><time>2026-04-12T06:06:53.035Z</time></trkpt><trkpt lat="43.8918679" lon="11.2011092"><ele>150.0</ele><time>2026-04-12T06:06:53.97Z</time></trkpt><trkpt lat="43.8918661" lon="11.2012126"><ele>149.0</ele><time>2026-04-12T06:06:54.963Z</time></trkpt><trkpt lat="43.8918597" lon="11.2013167"><ele>148.0</ele><time>2026-04-12T06:06:56.001Z</time></trkpt><trkpt lat="43.8918476" lon="11.2014044"><ele>147.0</ele><time>2026-04-12T06:06:57.032Z</time></trkpt><trkpt lat="43.8918338" lon="11.2014944"><ele>146.0</ele><time>2026-04-12T06:06:58.027Z</time></trkpt><trkpt lat="43.8918104" lon="11.2016617"><ele>148.6</ele><time>2026-04-12T06:06:59.98Z</time></trkpt><trkpt lat="43.8917639" lon="11.2018091"><ele>151.2</ele><time>2026-04-12T06:07:01.975Z</time></trkpt><trkpt lat="43.8917049" lon="11.2019713"><ele>153.8</ele><time>2026-04-12T06:07:03.963Z</time></trkpt><trkpt lat="43.8916764" lon="11.2020662"><ele>156.4</ele><time>2026-04-12T06:07:04.971Z</time></trkpt><trkpt lat="43.8916551" lon="11.2021572"><ele>159.0</ele><time>2026-04-12T06:07:05.974Z</time></trkpt><trkpt lat="43.891628" lon="11.2022511"><ele>165.66666666666666</ele><time>2026-04-12T06:07:07.031Z</time></trkpt><trkpt lat="43.891602" lon="11.2023408"><ele>172.33333333333331</ele><time>2026-04-12T06:07:08.03Z</time></trkpt><trkpt lat="43.8915698" lon="11.20244"><ele>179.0</ele><time>2026-04-12T06:07:08.97Z</time></trkpt><trkpt lat="43.8915302" lon="11.2025501"><ele>185.66666666666666</ele><time>2026-04-12T06:07:09.976Z</time></trkpt><trkpt lat="43.8914879" lon="11.2026557"><ele>192.33333333333331</ele><time>2026-04-12T06:07:11.015Z</time></trkpt><trkpt lat="43.8914558" lon="11.2027598"><ele>199.0</ele><time>2026-04-12T06:07:12.03Z</time></trkpt><trkpt lat="43.8914328" lon="11.2028729"><ele>198.99999999999997</ele><time>2026-04-12T06:07:13.041Z</time></trkpt><trkpt lat="43.891422" lon="11.2029873"><ele>199.0</ele><time>2026-04-12T06:07:13.96Z</time></trkpt><trkpt lat="43.8914039" lon="11.2031064"><ele>199.0</ele><time>2026-04-12T06:07:15.032Z</time></trkpt><trkpt lat="43.8913862" lon="11.2032224"><ele>199.0</ele><time>2026-04-12T06:07:16.048Z</time></trkpt><trkpt lat="43.8913704" lon="11.2033361"><ele>198.99999999999997</ele><time>2026-04-12T06:07:16.961Z</time></trkpt><trkpt lat="43.8913549" lon="11.2034443"><ele>199.0</ele><time>2026-04-12T06:07:17.967Z</time></trkpt><trkpt lat="43.891344" lon="11.2035409"><ele>199.99999999999997</ele><time>2026-04-12T06:07:18.959Z</time></trkpt><trkpt lat="43.8913418" lon="11.2036417"><ele>201.0</ele><time>2026-04-12T06:07:19.963Z</time></trkpt><trkpt lat="43.8913218" lon="11.203814"><ele>202.0</ele><time>2026-04-12T06:07:21.949Z</time></trkpt><trkpt lat="43.8913033" lon="11.2039035"><ele>203.0</ele><time>2026-04-12T06:07:23.012Z</time></trkpt><trkpt lat="43.8912902" lon="11.2040034"><ele>203.99999999999997</ele><time>2026-04-12T06:07:23.956Z</time></trkpt><trkpt lat="43.891277" lon="11.2041074"><ele>205.0</ele><time>2026-04-12T06:07:24.96Z</time></trkpt><trkpt lat="43.8912721" lon="11.2042097"><ele>205.66666666666666</ele><time>2026-04-12T06:07:25.958Z</time></trkpt><trkpt lat="43.8912699" lon="11.2043069"><ele>206.33333333333331</ele><time>2026-04-12T06:07:26.941Z</time></trkpt><trkpt lat="43.8912634" lon="11.2043998"><ele>207.0</ele><time>2026-04-12T06:07:28.005Z</time></trkpt><trkpt lat="43.8912232" lon="11.2045599"><ele>207.66666666666669</ele><time>2026-04-12T06:07:29.959Z</time></trkpt><trkpt lat="43.8911944" lon="11.2046423"><ele>208.33333333333334</ele><time>2026-04-12T06:07:30.961Z</time></trkpt><trkpt lat="43.8911532" lon="11.2047227"><ele>209.0</ele><time>2026-04-12T06:07:31.952Z</time></trkpt><trkpt lat="43.891111" lon="11.2048143"><ele>207.6</ele><time>2026-04-12T06:07:32.967Z</time></trkpt><trkpt lat="43.8910608" lon="11.2049162"><ele>206.2</ele><time>2026-04-12T06:07:33.954Z</time></trkpt><trkpt lat="43.891001" lon="11.2050333"><ele>204.79999999999998</ele><time>2026-04-12T06:07:34.965Z</time></trkpt><trkpt lat="43.8909397" lon="11.2051551"><ele>203.39999999999998</ele><time>2026-04-12T06:07:35.961Z</time></trkpt><trkpt lat="43.8908865" lon="11.2052681"><ele>202.0</ele><time>2026-04-12T06:07:36.951Z</time></trkpt><trkpt lat="43.8908326" lon="11.2053681"><ele>207.33333333333331</ele><time>2026-04-12T06:07:37.957Z</time></trkpt><trkpt lat="43.8907689" lon="11.2054403"><ele>212.66666666666666</ele><time>2026-04-12T06:07:38.946Z</time></trkpt><trkpt lat="43.8906876" lon="11.2054945"><ele>218.0</ele><time>2026-04-12T06:07:39.94Z</time></trkpt><trkpt lat="43.8906057" lon="11.2055471"><ele>223.33333333333331</ele><time>2026-04-12T06:07:40.95Z</time></trkpt><trkpt lat="43.8905259" lon="11.2055961"><ele>228.66666666666666</ele><time>2026-04-12T06:07:41.945Z</time></trkpt><trkpt lat="43.8904486" lon="11.2056398"><ele>234.0</ele><time>2026-04-12T06:07:42.955Z</time></trkpt><trkpt lat="43.8903672" lon="11.2056843"><ele>234.0</ele><time>2026-04-12T06:07:43.96Z</time></trkpt><trkpt lat="43.8902943" lon="11.2057064"><ele>234.0</ele><time>2026-04-12T06:07:44.959Z</time></trkpt><trkpt lat="43.8902215" lon="11.2057529"><ele>234.0</ele><time>2026-04-12T06:07:45.963Z</time></trkpt><trkpt lat="43.8901413" lon="11.2057968"><ele>234.0</ele><time>2026-04-12T06:07:46.951Z</time></trkpt><trkpt lat="43.8900546" lon="11.2058394"><ele>234.0</ele><time>2026-04-12T06:07:47.952Z</time></trkpt><trkpt lat="43.8899718" lon="11.2058848"><ele>234.0</ele><time>2026-04-12T06:07:48.953Z</time></trkpt><trkpt lat="43.8899004" lon="11.205931"><ele>239.16666666666666</ele><time>2026-04-12T06:07:49.95Z</time></trkpt><trkpt lat="43.8898286" lon="11.2059793"><ele>244.33333333333331</ele><time>2026-04-12T06:07:50.952Z</time></trkpt><trkpt lat="43.8897568" lon="11.2060256"><ele>249.5</ele><time>2026-04-12T06:07:51.957Z</time></trkpt><trkpt lat="43.8896958" lon="11.2060676"><ele>254.66666666666666</ele><time>2026-04-12T06:07:52.961Z</time></trkpt><trkpt lat="43.8896117" lon="11.2061527"><ele>259.8333333333333</ele><time>2026-04-12T06:07:54.958Z</time></trkpt><trkpt lat="43.8895385" lon="11.2062714"><ele>265.0</ele><time>2026-04-12T06:07:56.958Z</time></trkpt><trkpt lat="43.8894941" lon="11.2063379"><ele>265.0</ele><time>2026-04-12T06:07:57.955Z</time></trkpt><trkpt lat="43.8894575" lon="11.2064091"><ele>265.0</ele><time>2026-04-12T06:07:58.956Z</time></trkpt><trkpt lat="43.8894155" lon="11.2065029"><ele>265.0</ele><time>2026-04-12T06:07:59.956Z</time></trkpt><trkpt lat="43.8893697" lon="11.2065757"><ele>265.0</ele><time>2026-04-12T06:08:00.957Z</time></trkpt><trkpt lat="43.8893248" lon="11.2066455"><ele>265.0</ele><time>2026-04-12T06:08:01.951Z</time></trkpt><trkpt lat="43.8892761" lon="11.2067864"><ele>265.0</ele><time>2026-04-12T06:08:03.95Z</time></trkpt><trkpt lat="43.889293" lon="11.2068718"><ele>265.1428571428571</ele><time>2026-04-12T06:08:04.951Z</time></trkpt><trkpt lat="43.8892988" lon="11.2069593"><ele>265.2857142857143</ele><time>2026-04-12T06:08:05.964Z</time></trkpt><trkpt lat="43.8893024" lon="11.2070579"><ele>265.42857142857144</ele><time>2026-04-12T06:08:06.952Z</time></trkpt><trkpt lat="43.8893135" lon="11.2071582"><ele>265.57142857142856</ele><time>2026-04-12T06:08:07.957Z</time></trkpt><trkpt lat="43.8893304" lon="11.2072572"><ele>265.7142857142857</ele><time>2026-04-12T06:08:08.953Z</time></trkpt><trkpt lat="43.8893521" lon="11.2073597"><ele>265.85714285714283</ele><time>2026-04-12T06:08:09.949Z</time></trkpt><trkpt lat="43.8893763" lon="11.2074672"><ele>266.0</ele><time>2026-04-12T06:08:10.941Z</time></trkpt><trkpt lat="43.889397" lon="11.2075803"><ele>266.0</ele><time>2026-04-12T06:08:11.942Z</time></trkpt><trkpt lat="43.889406" lon="11.2076853"><ele>266.0</ele><time>2026-04-12T06:08:12.957Z</time></trkpt><trkpt lat="43.8894064" lon="11.2077825"><ele>266.0</ele><time>2026-04-12T06:08:13.954Z</time></trkpt><trkpt lat="43.8893954" lon="11.2079347"><ele>266.0</ele><time>2026-04-12T06:08:15.965Z</time></trkpt><trkpt lat="43.8893571" lon="11.2080264"><ele>266.0</ele><time>2026-04-12T06:08:17.963Z</time></trkpt><trkpt lat="43.889298" lon="11.2079794"><ele>266.0</ele><time>2026-04-12T06:08:19.947Z</time></trkpt><trkpt lat="43.8892242" lon="11.2078711"><ele>269.83333333333337</ele><time>2026-04-12T06:08:21.955Z</time></trkpt><trkpt lat="43.8891799" lon="11.2078058"><ele>273.6666666666667</ele><time>2026-04-12T06:08:22.959Z</time></trkpt><trkpt lat="43.8891264" lon="11.2077441"><ele>277.5</ele><time>2026-04-12T06:08:23.96Z</time></trkpt><trkpt lat="43.8890632" lon="11.207686"><ele>281.3333333333333</ele><time>2026-04-12T06:08:24.937Z</time></trkpt><trkpt lat="43.8889851" lon="11.2076396"><ele>285.16666666666663</ele><time>2026-04-12T06:08:25.96Z</time></trkpt><trkpt lat="43.8889134" lon="11.2075965"><ele>289.0</ele><time>2026-04-12T06:08:26.958Z</time></trkpt><trkpt lat="43.8888305" lon="11.2075471"><ele>289.0</ele><time>2026-04-12T06:08:27.96Z</time></trkpt><trkpt lat="43.8887532" lon="11.2074976"><ele>289.0</ele><time>2026-04-12T06:08:28.956Z</time></trkpt><trkpt lat="43.8886609" lon="11.2074371"><ele>289.0</ele><time>2026-04-12T06:08:29.961Z</time></trkpt><trkpt lat="43.8885485" lon="11.2073695"><ele>289.0</ele><time>2026-04-12T06:08:30.957Z</time></trkpt><trkpt lat="43.888453" lon="11.2073132"><ele>289.0</ele><time>2026-04-12T06:08:31.959Z</time></trkpt><trkpt lat="43.8883413" lon="11.2072669"><ele>290.0</ele><time>2026-04-12T06:08:32.958Z</time></trkpt><trkpt lat="43.8882481" lon="11.2072385"><ele>291.0</ele><time>2026-04-12T06:08:33.963Z</time></trkpt><trkpt lat="43.8881659" lon="11.2072279"><ele>292.0</ele><time>2026-04-12T06:08:34.967Z</time></trkpt><trkpt lat="43.8880899" lon="11.2072529"><ele>293.0</ele><time>2026-04-12T06:08:36.02Z</time></trkpt><trkpt lat="43.8880146" lon="11.2072895"><ele>294.0</ele><time>2026-04-12T06:08:36.963Z</time></trkpt><trkpt lat="43.8879483" lon="11.2073037"><ele>295.0</ele><time>2026-04-12T06:08:37.99Z</time></trkpt><trkpt lat="43.8878291" lon="11.2072681"><ele>295.0</ele><time>2026-04-12T06:08:40.035Z</time></trkpt><trkpt lat="43.8877226" lon="11.2072153"><ele>295.0</ele><time>2026-04-12T06:08:41.968Z</time></trkpt><trkpt lat="43.8876627" lon="11.2071845"><ele>295.0</ele><time>2026-04-12T06:08:42.961Z</time></trkpt><trkpt lat="43.8875969" lon="11.2071381"><ele>295.0</ele><time>2026-04-12T06:08:43.973Z</time></trkpt><trkpt lat="43.8874891" lon="11.2070627"><ele>295.0</ele><time>2026-04-12T06:08:45.97Z</time></trkpt><trkpt lat="43.8874025" lon="11.2070245"><ele>297.4</ele><time>2026-04-12T06:08:48.014Z</time></trkpt><trkpt lat="43.8873073" lon="11.207011"><ele>299.8</ele><time>2026-04-12T06:08:49.962Z</time></trkpt><trkpt lat="43.8872187" lon="11.2069928"><ele>302.2</ele><time>2026-04-12T06:08:52.053Z</time></trkpt><trkpt lat="43.8871099" lon="11.2069469"><ele>304.6</ele><time>2026-04-12T06:08:53.958Z</time></trkpt><trkpt lat="43.8870341" lon="11.2069168"><ele>307.0</ele><time>2026-04-12T06:08:54.977Z</time></trkpt><trkpt lat="43.8869598" lon="11.2069073"><ele>306.99999999999994</ele><time>2026-04-12T06:08:55.963Z</time></trkpt><trkpt lat="43.8868937" lon="11.2069034"><ele>307.0</ele><time>2026-04-12T06:08:56.971Z</time></trkpt><trkpt lat="43.8868147" lon="11.2069029"><ele>307.0</ele><time>2026-04-12T06:08:58.038Z</time></trkpt><trkpt lat="43.8867463" lon="11.2068832"><ele>307.0</ele><time>2026-04-12T06:08:58.959Z</time></trkpt><trkpt lat="43.8866779" lon="11.2068553"><ele>307.0</ele><time>2026-04-12T06:08:59.964Z</time></trkpt><trkpt lat="43.8866122" lon="11.2068281"><ele>306.99999999999994</ele><time>2026-04-12T06:09:00.981Z</time></trkpt><trkpt lat="43.8865383" lon="11.2068024"><ele>307.0</ele><time>2026-04-12T06:09:01.964Z</time></trkpt><trkpt lat="43.8864712" lon="11.2067703"><ele>306.3333333333333</ele><time>2026-04-12T06:09:02.961Z</time></trkpt><trkpt lat="43.8864054" lon="11.2067636"><ele>305.66666666666663</ele><time>2026-04-12T06:09:03.974Z</time></trkpt><trkpt lat="43.8863314" lon="11.2067697"><ele>305.0</ele><time>2026-04-12T06:09:04.968Z</time></trkpt><trkpt lat="43.8862602" lon="11.2067699"><ele>304.3333333333333</ele><time>2026-04-12T06:09:05.977Z</time></trkpt><trkpt lat="43.8861416" lon="11.2067773"><ele>303.6666666666667</ele><time>2026-04-12T06:09:08.021Z</time></trkpt><trkpt lat="43.8860774" lon="11.206803"><ele>303.0</ele><time>2026-04-12T06:09:08.96Z</time></trkpt><trkpt lat="43.8859649" lon="11.2068198"><ele>303.4</ele><time>2026-04-12T06:09:10.97Z</time></trkpt><trkpt lat="43.8859022" lon="11.2067698"><ele>303.8</ele><time>2026-04-12T06:09:12.969Z</time></trkpt><trkpt lat="43.8858949" lon="11.2066478"><ele>304.2</ele><time>2026-04-12T06:09:14.955Z</time></trkpt><trkpt lat="43.8859099" lon="11.2065584"><ele>304.6</ele><time>2026-04-12T06:09:15.961Z</time></trkpt><trkpt lat="43.8859242" lon="11.2063905"><ele>305.0</ele><time>2026-04-12T06:09:17.947Z</time></trkpt><trkpt lat="43.8859141" lon="11.2062073"><ele>305.0</ele><time>2026-04-12T06:09:19.969Z</time></trkpt><trkpt lat="43.8858952" lon="11.206098"><ele>305.0</ele><time>2026-04-12T06:09:20.964Z</time></trkpt><trkpt lat="43.8858703" lon="11.2059709"><ele>305.0</ele><time>2026-04-12T06:09:21.972Z</time></trkpt><trkpt lat="43.885841" lon="11.2058492"><ele>305.0</ele><time>2026-04-12T06:09:22.969Z</time></trkpt><trkpt lat="43.8858231" lon="11.205742"><ele>305.0</ele><time>2026-04-12T06:09:23.969Z</time></trkpt><trkpt lat="43.8858057" lon="11.2056539"><ele>305.0</ele><time>2026-04-12T06:09:24.979Z</time></trkpt><trkpt lat="43.8857719" lon="11.2055724"><ele>305.0</ele><time>2026-04-12T06:09:25.971Z</time></trkpt><trkpt lat="43.8857075" lon="11.2054735"><ele>305.0</ele><time>2026-04-12T06:09:27.967Z</time></trkpt><trkpt lat="43.88564" lon="11.2054528"><ele>305.0</ele><time>2026-04-12T06:09:29.975Z</time></trkpt><trkpt lat="43.8855728" lon="11.2055515"><ele>305.0</ele><time>2026-04-12T06:09:31.972Z</time></trkpt><trkpt lat="43.8855241" lon="11.2056694"><ele>305.0</ele><time>2026-04-12T06:09:33.969Z</time></trkpt><trkpt lat="43.8855239" lon="11.2058077"><ele>305.0</ele><time>2026-04-12T06:09:35.97Z</time></trkpt><trkpt lat="43.885538" lon="11.2058935"><ele>305.0</ele><time>2026-04-12T06:09:36.972Z</time></trkpt><trkpt lat="43.8855652" lon="11.2059736"><ele>305.0</ele><time>2026-04-12T06:09:37.979Z</time></trkpt><trkpt lat="43.8856054" lon="11.2061216"><ele>305.0</ele><time>2026-04-12T06:09:39.977Z</time></trkpt><trkpt lat="43.8855984" lon="11.2062487"><ele>305.0</ele><time>2026-04-12T06:09:41.976Z</time></trkpt><trkpt lat="43.8855415" lon="11.2063621"><ele>305.0</ele><time>2026-04-12T06:09:43.964Z</time></trkpt><trkpt lat="43.8854576" lon="11.2064683"><ele>306.0</ele><time>2026-04-12T06:09:45.973Z</time></trkpt><trkpt lat="43.8853753" lon="11.2065646"><ele>307.0</ele><time>2026-04-12T06:09:48.036Z</time></trkpt><trkpt lat="43.8852917" lon="11.2066443"><ele>308.0</ele><time>2026-04-12T06:09:49.966Z</time></trkpt><trkpt lat="43.8852226" lon="11.2067363"><ele>309.0</ele><time>2026-04-12T06:09:51.969Z</time></trkpt><trkpt lat="43.8851555" lon="11.2068417"><ele>310.0</ele><time>2026-04-12T06:09:53.973Z</time></trkpt><trkpt lat="43.8850594" lon="11.2068429"><ele>312.0</ele><time>2026-04-12T06:09:56.957Z</time></trkpt><trkpt lat="43.8849778" lon="11.206787"><ele>314.0</ele><time>2026-04-12T06:09:58.972Z</time></trkpt><trkpt lat="43.8848851" lon="11.2067677"><ele>316.0</ele><time>2026-04-12T06:10:01.055Z</time></trkpt><trkpt lat="43.8848036" lon="11.2067235"><ele>318.0</ele><time>2026-04-12T06:10:03.029Z</time></trkpt><trkpt lat="43.8847108" lon="11.2066461"><ele>320.0</ele><time>2026-04-12T06:10:04.966Z</time></trkpt><trkpt lat="43.8846058" lon="11.2065796"><ele>319.1666666666667</ele><time>2026-04-12T06:10:06.953Z</time></trkpt><trkpt lat="43.8844978" lon="11.206488"><ele>318.33333333333337</ele><time>2026-04-12T06:10:08.941Z</time></trkpt><trkpt lat="43.8844385" lon="11.2064464"><ele>317.5</ele><time>2026-04-12T06:10:10.034Z</time></trkpt><trkpt lat="43.8843804" lon="11.2063985"><ele>316.6666666666667</ele><time>2026-04-12T06:10:11.032Z</time></trkpt><trkpt lat="43.8843196" lon="11.2063476"><ele>315.8333333333333</ele><time>2026-04-12T06:10:12.048Z</time></trkpt><trkpt lat="43.884265" lon="11.2062951"><ele>315.0</ele><time>2026-04-12T06:10:13.028Z</time></trkpt><trkpt lat="43.8842063" lon="11.2062457"><ele>315.0</ele><time>2026-04-12T06:10:13.968Z</time></trkpt><trkpt lat="43.8841451" lon="11.2061912"><ele>315.0</ele><time>2026-04-12T06:10:14.971Z</time></trkpt><trkpt lat="43.8840897" lon="11.2061449"><ele>315.0</ele><time>2026-04-12T06:10:15.987Z</time></trkpt><trkpt lat="43.884034" lon="11.2061025"><ele>315.0</ele><time>2026-04-12T06:10:17.028Z</time></trkpt><trkpt lat="43.8839304" lon="11.2060109"><ele>315.0</ele><time>2026-04-12T06:10:18.967Z</time></trkpt><trkpt lat="43.8838268" lon="11.205905"><ele>315.0</ele><time>2026-04-12T06:10:20.967Z</time></trkpt><trkpt lat="43.8837692" lon="11.2058465"><ele>315.0</ele><time>2026-04-12T06:10:21.971Z</time></trkpt><trkpt lat="43.8836643" lon="11.2057726"><ele>315.0</ele><time>2026-04-12T06:10:23.981Z</time></trkpt><trkpt lat="43.8835513" lon="11.2057584"><ele>315.0</ele><time>2026-04-12T06:10:25.98Z</time></trkpt><trkpt lat="43.8834376" lon="11.2057866"><ele>315.0</ele><time>2026-04-12T06:10:27.971Z</time></trkpt><trkpt lat="43.8833397" lon="11.2058395"><ele>315.4</ele><time>2026-04-12T06:10:29.968Z</time></trkpt><trkpt lat="43.8832761" lon="11.2059426"><ele>315.8</ele><time>2026-04-12T06:10:32.028Z</time></trkpt><trkpt lat="43.883197" lon="11.2060509"><ele>316.2</ele><time>2026-04-12T06:10:33.982Z</time></trkpt><trkpt lat="43.8831003" lon="11.2061505"><ele>316.6</ele><time>2026-04-12T06:10:35.981Z</time></trkpt><trkpt lat="43.8830069" lon="11.2062096"><ele>317.0</ele><time>2026-04-12T06:10:37.979Z</time></trkpt><trkpt lat="43.8829353" lon="11.2063113"><ele>317.0</ele><time>2026-04-12T06:10:39.974Z</time></trkpt><trkpt lat="43.882871" lon="11.2064395"><ele>317.0</ele><time>2026-04-12T06:10:41.981Z</time></trkpt><trkpt lat="43.8828143" lon="11.2065327"><ele>317.0</ele><time>2026-04-12T06:10:43.978Z</time></trkpt><trkpt lat="43.8827908" lon="11.2066279"><ele>317.0</ele><time>2026-04-12T06:10:45.981Z</time></trkpt><trkpt lat="43.8827533" lon="11.2067042"><ele>317.0</ele><time>2026-04-12T06:10:47.976Z</time></trkpt><trkpt lat="43.8826937" lon="11.2067702"><ele>317.0</ele><time>2026-04-12T06:10:49.954Z</time></trkpt><trkpt lat="43.8826255" lon="11.206834"><ele>320.5</ele><time>2026-04-12T06:10:51.968Z</time></trkpt><trkpt lat="43.8825738" lon="11.2069053"><ele>324.0</ele><time>2026-04-12T06:10:53.98Z</time></trkpt><trkpt lat="43.8825107" lon="11.2070032"><ele>327.5</ele><time>2026-04-12T06:10:56.026Z</time></trkpt><trkpt lat="43.8824878" lon="11.2071029"><ele>331.0</ele><time>2026-04-12T06:10:57.984Z</time></trkpt><trkpt lat="43.8824678" lon="11.2072214"><ele>334.5</ele><time>2026-04-12T06:11:00.968Z</time></trkpt><trkpt lat="43.8824311" lon="11.2073277"><ele>338.0</ele><time>2026-04-12T06:11:03.96Z</time></trkpt><trkpt lat="43.8823454" lon="11.2072956"><ele>338.0</ele><time>2026-04-12T06:11:07.981Z</time></trkpt><trkpt lat="43.8822839" lon="11.2072307"><ele>338.0</ele><time>2026-04-12T06:11:10.042Z</time></trkpt><trkpt lat="43.8822038" lon="11.2071813"><ele>338.0</ele><time>2026-04-12T06:11:11.972Z</time></trkpt><trkpt lat="43.8821329" lon="11.2071436"><ele>338.0</ele><time>2026-04-12T06:11:13.967Z</time></trkpt><trkpt lat="43.8820692" lon="11.2070976"><ele>338.0</ele><time>2026-04-12T06:11:15.961Z</time></trkpt><trkpt lat="43.8819855" lon="11.2070804"><ele>338.0</ele><time>2026-04-12T06:11:18.965Z</time></trkpt><trkpt lat="43.8818935" lon="11.2070467"><ele>338.0</ele><time>2026-04-12T06:11:21.988Z</time></trkpt><trkpt lat="43.8818243" lon="11.20702"><ele>338.0</ele><time>2026-04-12T06:11:23.944Z</time></trkpt><trkpt lat="43.8817681" lon="11.206969"><ele>338.0</ele><time>2026-04-12T06:11:25.979Z</time></trkpt><trkpt lat="43.8816981" lon="11.2069246"><ele>338.0</ele><time>2026-04-12T06:11:27.966Z</time></trkpt><trkpt lat="43.8816315" lon="11.2068872"><ele>338.0</ele><time>2026-04-12T06:11:29.967Z</time></trkpt><trkpt lat="43.8815365" lon="11.2068542"><ele>338.0</ele><time>2026-04-12T06:11:33.04Z</time></trkpt><trkpt lat="43.8814438" lon="11.2068293"><ele>341.83333333333337</ele><time>2026-04-12T06:11:34.953Z</time></trkpt><trkpt lat="43.8813589" lon="11.2067825"><ele>345.6666666666667</ele><time>2026-04-12T06:11:36.975Z</time></trkpt><trkpt lat="43.8812829" lon="11.2067507"><ele>349.5</ele><time>2026-04-12T06:11:38.959Z</time></trkpt><trkpt lat="43.8812176" lon="11.2067306"><ele>353.3333333333333</ele><time>2026-04-12T06:11:40.97Z</time></trkpt><trkpt lat="43.8811439" lon="11.2066638"><ele>357.16666666666663</ele><time>2026-04-12T06:11:43.964Z</time></trkpt><trkpt lat="43.8810583" lon="11.2066149"><ele>361.0</ele><time>2026-04-12T06:11:46.955Z</time></trkpt><trkpt lat="43.8809627" lon="11.2065835"><ele>361.5</ele><time>2026-04-12T06:11:49.966Z</time></trkpt><trkpt lat="43.8808817" lon="11.2065565"><ele>362.0</ele><time>2026-04-12T06:11:51.965Z</time></trkpt><trkpt lat="43.8807987" lon="11.2065295"><ele>362.5</ele><time>2026-04-12T06:11:53.957Z</time></trkpt><trkpt lat="43.8807158" lon="11.2065056"><ele>363.0</ele><time>2026-04-12T06:11:55.974Z</time></trkpt><trkpt lat="43.8806437" lon="11.2064818"><ele>363.5</ele><time>2026-04-12T06:11:57.968Z</time></trkpt><trkpt lat="43.8805837" lon="11.2064432"><ele>364.0</ele><time>2026-04-12T06:11:59.969Z</time></trkpt><trkpt lat="43.8805195" lon="11.2064028"><ele>364.0</ele><time>2026-04-12T06:12:02.025Z</time></trkpt><trkpt lat="43.8804444" lon="11.206361"><ele>364.0</ele><time>2026-04-12T06:12:03.975Z</time></trkpt><trkpt lat="43.880375" lon="11.2063258"><ele>364.0</ele><time>2026-04-12T06:12:05.961Z</time></trkpt><trkpt lat="43.8803067" lon="11.2062794"><ele>364.0</ele><time>2026-04-12T06:12:08.955Z</time></trkpt><trkpt lat="43.8802676" lon="11.2061998"><ele>364.0</ele><time>2026-04-12T06:12:10.969Z</time></trkpt><trkpt lat="43.8802159" lon="11.2061057"><ele>364.0</ele><time>2026-04-12T06:12:12.962Z</time></trkpt><trkpt lat="43.8801761" lon="11.2060211"><ele>364.0</ele><time>2026-04-12T06:12:14.965Z</time></trkpt><trkpt lat="43.8801277" lon="11.2059136"><ele>364.0</ele><time>2026-04-12T06:12:16.967Z</time></trkpt><trkpt lat="43.8800742" lon="11.2058109"><ele>364.0</ele><time>2026-04-12T06:12:18.959Z</time></trkpt><trkpt lat="43.8799922" lon="11.2057203"><ele>364.0</ele><time>2026-04-12T06:12:20.951Z</time></trkpt><trkpt lat="43.8799205" lon="11.2056187"><ele>364.0</ele><time>2026-04-12T06:12:22.967Z</time></trkpt><trkpt lat="43.8798749" lon="11.2055446"><ele>366.0</ele><time>2026-04-12T06:12:23.977Z</time></trkpt><trkpt lat="43.8797917" lon="11.2054183"><ele>368.0</ele><time>2026-04-12T06:12:25.959Z</time></trkpt><trkpt lat="43.8797212" lon="11.2052854"><ele>370.0</ele><time>2026-04-12T06:12:27.961Z</time></trkpt><trkpt lat="43.8796537" lon="11.2051622"><ele>372.0</ele><time>2026-04-12T06:12:29.963Z</time></trkpt><trkpt lat="43.8795955" lon="11.2050297"><ele>372.0</ele><time>2026-04-12T06:12:31.963Z</time></trkpt><trkpt lat="43.8795482" lon="11.2049405"><ele>372.0</ele><time>2026-04-12T06:12:33.973Z</time></trkpt><trkpt lat="43.8795039" lon="11.2048412"><ele>372.0</ele><time>2026-04-12T06:12:36.965Z</time></trkpt><trkpt lat="43.8794441" lon="11.2047475"><ele>372.0</ele><time>2026-04-12T06:12:39.963Z</time></trkpt><trkpt lat="43.8793998" lon="11.204678"><ele>372.0</ele><time>2026-04-12T06:12:42.043Z</time></trkpt><trkpt lat="43.8793581" lon="11.2046105"><ele>372.0</ele><time>2026-04-12T06:12:43.977Z</time></trkpt><trkpt lat="43.8792807" lon="11.2045367"><ele>374.6666666666667</ele><time>2026-04-12T06:12:46.96Z</time></trkpt><trkpt lat="43.8792011" lon="11.2044843"><ele>377.33333333333337</ele><time>2026-04-12T06:12:49.966Z</time></trkpt><trkpt lat="43.8791321" lon="11.2044399"><ele>380.0</ele><time>2026-04-12T06:12:51.966Z</time></trkpt><trkpt lat="43.8790714" lon="11.2044138"><ele>382.6666666666667</ele><time>2026-04-12T06:12:53.958Z</time></trkpt><trkpt lat="43.8789997" lon="11.2043921"><ele>385.33333333333337</ele><time>2026-04-12T06:12:55.953Z</time></trkpt><trkpt lat="43.8789162" lon="11.2043669"><ele>388.0</ele><time>2026-04-12T06:12:57.959Z</time></trkpt><trkpt lat="43.8788418" lon="11.2043506"><ele>388.0</ele><time>2026-04-12T06:12:59.958Z</time></trkpt><trkpt lat="43.8787448" lon="11.2043598"><ele>388.0</ele><time>2026-04-12T06:13:02.96Z</time></trkpt><trkpt lat="43.8786407" lon="11.20435"><ele>388.0</ele><time>2026-04-12T06:13:04.96Z</time></trkpt><trkpt lat="43.8785322" lon="11.2043289"><ele>388.0</ele><time>2026-04-12T06:13:06.968Z</time></trkpt><trkpt lat="43.8784592" lon="11.2043056"><ele>388.0</ele><time>2026-04-12T06:13:08.972Z</time></trkpt><trkpt lat="43.8783938" lon="11.2042865"><ele>390.00000000000006</ele><time>2026-04-12T06:13:10.966Z</time></trkpt><trkpt lat="43.878312" lon="11.2042684"><ele>392.0</ele><time>2026-04-12T06:13:13.97Z</time></trkpt><trkpt lat="43.8782242" lon="11.2042621"><ele>394.0</ele><time>2026-04-12T06:13:17.965Z</time></trkpt><trkpt lat="43.8781385" lon="11.2042764"><ele>396.0</ele><time>2026-04-12T06:13:22.969Z</time></trkpt><trkpt lat="43.8780611" lon="11.204289"><ele>398.00000000000006</ele><time>2026-04-12T06:13:24.965Z</time></trkpt><trkpt lat="43.8779917" lon="11.2042842"><ele>400.0</ele><time>2026-04-12T06:13:26.955Z</time></trkpt><trkpt lat="43.8779067" lon="11.2042977"><ele>400.00000000000006</ele><time>2026-04-12T06:13:29.961Z</time></trkpt><trkpt lat="43.8778456" lon="11.2043258"><ele>400.0</ele><time>2026-04-12T06:13:31.956Z</time></trkpt><trkpt lat="43.8777896" lon="11.2043679"><ele>400.0</ele><time>2026-04-12T06:13:33.96Z</time></trkpt><trkpt lat="43.8777228" lon="11.2044023"><ele>400.0</ele><time>2026-04-12T06:13:35.969Z</time></trkpt><trkpt lat="43.8776658" lon="11.2044558"><ele>400.0</ele><time>2026-04-12T06:13:37.963Z</time></trkpt><trkpt lat="43.8775924" lon="11.2045097"><ele>400.00000000000006</ele><time>2026-04-12T06:13:39.963Z</time></trkpt><trkpt lat="43.8775226" lon="11.2045682"><ele>400.0</ele><time>2026-04-12T06:13:41.964Z</time></trkpt><trkpt lat="43.8774426" lon="11.204631"><ele>400.1666666666667</ele><time>2026-04-12T06:13:44.963Z</time></trkpt><trkpt lat="43.8773845" lon="11.2046786"><ele>400.33333333333337</ele><time>2026-04-12T06:13:48.01Z</time></trkpt><trkpt lat="43.8773194" lon="11.2047138"><ele>400.5</ele><time>2026-04-12T06:13:51.959Z</time></trkpt><trkpt lat="43.8772434" lon="11.2047348"><ele>400.66666666666663</ele><time>2026-04-12T06:13:57.964Z</time></trkpt><trkpt lat="43.8771439" lon="11.2047661"><ele>400.8333333333333</ele><time>2026-04-12T06:14:03.957Z</time></trkpt><trkpt lat="43.8770826" lon="11.2048126"><ele>401.0</ele><time>2026-04-12T06:14:06.969Z</time></trkpt><trkpt lat="43.8770209" lon="11.2048786"><ele>400.99999999999994</ele><time>2026-04-12T06:14:09.948Z</time></trkpt><trkpt lat="43.8769495" lon="11.2049049"><ele>401.0</ele><time>2026-04-12T06:14:12.961Z</time></trkpt><trkpt lat="43.8769655" lon="11.2047863"><ele>401.0</ele><time>2026-04-12T06:14:17.962Z</time></trkpt><trkpt lat="43.8769826" lon="11.2046936"><ele>401.0</ele><time>2026-04-12T06:14:19.953Z</time></trkpt><trkpt lat="43.8770163" lon="11.2045771"><ele>400.99999999999994</ele><time>2026-04-12T06:14:21.948Z</time></trkpt><trkpt lat="43.8770457" lon="11.2044621"><ele>401.0</ele><time>2026-04-12T06:14:23.964Z</time></trkpt><trkpt lat="43.8770921" lon="11.2043528"><ele>399.8</ele><time>2026-04-12T06:14:25.961Z</time></trkpt><trkpt lat="43.8771399" lon="11.204233"><ele>398.6</ele><time>2026-04-12T06:14:27.959Z</time></trkpt><trkpt lat="43.8771792" lon="11.2040963"><ele>397.4</ele><time>2026-04-12T06:14:29.963Z</time></trkpt><trkpt lat="43.8771977" lon="11.2039447"><ele>396.2</ele><time>2026-04-12T06:14:31.951Z</time></trkpt><trkpt lat="43.8771794" lon="11.203789"><ele>395.0</ele><time>2026-04-12T06:14:33.956Z</time></trkpt><trkpt lat="43.8771298" lon="11.2036664"><ele>394.99999999999994</ele><time>2026-04-12T06:14:35.96Z</time></trkpt><trkpt lat="43.8770927" lon="11.2035393"><ele>395.0</ele><time>2026-04-12T06:14:37.967Z</time></trkpt><trkpt lat="43.8770485" lon="11.2034172"><ele>395.0</ele><time>2026-04-12T06:14:39.964Z</time></trkpt><trkpt lat="43.8769924" lon="11.2033301"><ele>395.0</ele><time>2026-04-12T06:14:41.973Z</time></trkpt><trkpt lat="43.8769606" lon="11.2032401"><ele>394.99999999999994</ele><time>2026-04-12T06:14:43.958Z</time></trkpt><trkpt lat="43.8769078" lon="11.2031825"><ele>395.0</ele><time>2026-04-12T06:14:45.969Z</time></trkpt><trkpt lat="43.8768432" lon="11.2031217"><ele>396.6</ele><time>2026-04-12T06:14:47.96Z</time></trkpt><trkpt lat="43.8767925" lon="11.2030226"><ele>398.2</ele><time>2026-04-12T06:14:49.965Z</time></trkpt><trkpt lat="43.8767325" lon="11.2029351"><ele>399.79999999999995</ele><time>2026-04-12T06:14:51.969Z</time></trkpt><trkpt lat="43.8766856" lon="11.202839"><ele>401.4</ele><time>2026-04-12T06:14:53.956Z</time></trkpt><trkpt lat="43.8766303" lon="11.2027244"><ele>403.0</ele><time>2026-04-12T06:14:55.957Z</time></trkpt><trkpt lat="43.8765767" lon="11.2025774"><ele>398.8571428571429</ele><time>2026-04-12T06:14:57.965Z</time></trkpt><trkpt lat="43.8765527" lon="11.2024855"><ele>394.71428571428567</ele><time>2026-04-12T06:14:58.963Z</time></trkpt><trkpt lat="43.8765216" lon="11.2024052"><ele>390.57142857142856</ele><time>2026-04-12T06:14:59.966Z</time></trkpt><trkpt lat="43.8764876" lon="11.2022981"><ele>386.42857142857144</ele><time>2026-04-12T06:15:00.943Z</time></trkpt><trkpt lat="43.8764533" lon="11.2022242"><ele>382.28571428571433</ele><time>2026-04-12T06:15:01.942Z</time></trkpt><trkpt lat="43.8764191" lon="11.2021455"><ele>378.1428571428571</ele><time>2026-04-12T06:15:02.942Z</time></trkpt><trkpt lat="43.8763864" lon="11.2020668"><ele>374.0</ele><time>2026-04-12T06:15:03.965Z</time></trkpt><trkpt lat="43.8763524" lon="11.2019838"><ele>374.0</ele><time>2026-04-12T06:15:04.956Z</time></trkpt><trkpt lat="43.8763141" lon="11.2019052"><ele>374.0</ele><time>2026-04-12T06:15:05.949Z</time></trkpt><trkpt lat="43.8762756" lon="11.2018262"><ele>374.0</ele><time>2026-04-12T06:15:06.961Z</time></trkpt><trkpt lat="43.8762303" lon="11.2017416"><ele>374.0</ele><time>2026-04-12T06:15:07.961Z</time></trkpt><trkpt lat="43.8761911" lon="11.201671"><ele>374.0</ele><time>2026-04-12T06:15:08.963Z</time></trkpt><trkpt lat="43.876151" lon="11.201603"><ele>374.0</ele><time>2026-04-12T06:15:09.955Z</time></trkpt><trkpt lat="43.8760587" lon="11.2015001"><ele>374.79999999999995</ele><time>2026-04-12T06:15:11.957Z</time></trkpt><trkpt lat="43.87597" lon="11.2013994"><ele>375.59999999999997</ele><time>2026-04-12T06:15:13.966Z</time></trkpt><trkpt lat="43.875894" lon="11.2013356"><ele>376.4</ele><time>2026-04-12T06:15:16.031Z</time></trkpt><trkpt lat="43.8758302" lon="11.2012933"><ele>377.2</ele><time>2026-04-12T06:15:17.953Z</time></trkpt><trkpt lat="43.8757515" lon="11.2012359"><ele>378.0</ele><time>2026-04-12T06:15:19.971Z</time></trkpt><trkpt lat="43.8756594" lon="11.2011526"><ele>374.5</ele><time>2026-04-12T06:15:22.031Z</time></trkpt><trkpt lat="43.8756024" lon="11.2011155"><ele>371.0</ele><time>2026-04-12T06:15:23.033Z</time></trkpt><trkpt lat="43.8755388" lon="11.2010361"><ele>367.5</ele><time>2026-04-12T06:15:23.959Z</time></trkpt><trkpt lat="43.8754814" lon="11.2009784"><ele>364.0</ele><time>2026-04-12T06:15:24.965Z</time></trkpt><trkpt lat="43.875422" lon="11.2009383"><ele>360.5</ele><time>2026-04-12T06:15:25.988Z</time></trkpt><trkpt lat="43.8753154" lon="11.2008812"><ele>357.0</ele><time>2026-04-12T06:15:27.96Z</time></trkpt><trkpt lat="43.8752068" lon="11.2007836"><ele>357.0</ele><time>2026-04-12T06:15:29.967Z</time></trkpt><trkpt lat="43.8751606" lon="11.200722"><ele>357.0</ele><time>2026-04-12T06:15:30.954Z</time></trkpt><trkpt lat="43.8750895" lon="11.20059"><ele>357.0</ele><time>2026-04-12T06:15:32.962Z</time></trkpt><trkpt lat="43.8750298" lon="11.2004688"><ele>357.0</ele><time>2026-04-12T06:15:34.96Z</time></trkpt><trkpt lat="43.8749856" lon="11.2003712"><ele>357.0</ele><time>2026-04-12T06:15:36.975Z</time></trkpt><trkpt lat="43.8749372" lon="11.2003131"><ele>357.0</ele><time>2026-04-12T06:15:37.97Z</time></trkpt><trkpt lat="43.8748459" lon="11.2001793"><ele>357.1666666666667</ele><time>2026-04-12T06:15:39.99Z</time></trkpt><trkpt lat="43.8747889" lon="11.2001046"><ele>357.3333333333333</ele><time>2026-04-12T06:15:40.985Z</time></trkpt><trkpt lat="43.8747329" lon="11.2000389"><ele>357.5</ele><time>2026-04-12T06:15:42.002Z</time></trkpt><trkpt lat="43.8746645" lon="11.1999733"><ele>357.66666666666663</ele><time>2026-04-12T06:15:42.985Z</time></trkpt><trkpt lat="43.8745998" lon="11.1999009"><ele>357.8333333333333</ele><time>2026-04-12T06:15:43.956Z</time></trkpt><trkpt lat="43.8745446" lon="11.1998144"><ele>358.0</ele><time>2026-04-12T06:15:44.973Z</time></trkpt><trkpt lat="43.8744894" lon="11.1997405"><ele>358.0</ele><time>2026-04-12T06:15:45.963Z</time></trkpt><trkpt lat="43.8744311" lon="11.1996792"><ele>358.0</ele><time>2026-04-12T06:15:46.973Z</time></trkpt><trkpt lat="43.8743695" lon="11.1996204"><ele>358.0</ele><time>2026-04-12T06:15:47.96Z</time></trkpt><trkpt lat="43.8743033" lon="11.1995485"><ele>358.0</ele><time>2026-04-12T06:15:48.969Z</time></trkpt><trkpt lat="43.8742385" lon="11.1994663"><ele>358.0</ele><time>2026-04-12T06:15:49.974Z</time></trkpt><trkpt lat="43.8741792" lon="11.1994047"><ele>358.0</ele><time>2026-04-12T06:15:50.982Z</time></trkpt><trkpt lat="43.8741238" lon="11.1993221"><ele>356.66666666666663</ele><time>2026-04-12T06:15:51.986Z</time></trkpt><trkpt lat="43.8740653" lon="11.1992477"><ele>355.3333333333333</ele><time>2026-04-12T06:15:52.977Z</time></trkpt><trkpt lat="43.8740035" lon="11.1991816"><ele>354.0</ele><time>2026-04-12T06:15:53.977Z</time></trkpt><trkpt lat="43.8739457" lon="11.1991097"><ele>352.6666666666667</ele><time>2026-04-12T06:15:54.977Z</time></trkpt><trkpt lat="43.8738895" lon="11.1990545"><ele>351.33333333333337</ele><time>2026-04-12T06:15:55.97Z</time></trkpt><trkpt lat="43.8738292" lon="11.1989887"><ele>350.0</ele><time>2026-04-12T06:15:56.978Z</time></trkpt><trkpt lat="43.8737676" lon="11.1989272"><ele>350.0</ele><time>2026-04-12T06:15:58.001Z</time></trkpt><trkpt lat="43.8737085" lon="11.1988784"><ele>350.0</ele><time>2026-04-12T06:15:58.982Z</time></trkpt><trkpt lat="43.8736288" lon="11.1988385"><ele>350.0</ele><time>2026-04-12T06:15:59.978Z</time></trkpt><trkpt lat="43.8735484" lon="11.1987842"><ele>350.0</ele><time>2026-04-12T06:16:00.983Z</time></trkpt><trkpt lat="43.8734802" lon="11.1987237"><ele>350.0</ele><time>2026-04-12T06:16:01.988Z</time></trkpt><trkpt lat="43.8734096" lon="11.1986481"><ele>350.0</ele><time>2026-04-12T06:16:02.973Z</time></trkpt><trkpt lat="43.8733446" lon="11.1985607"><ele>349.1666666666667</ele><time>2026-04-12T06:16:03.982Z</time></trkpt><trkpt lat="43.8732666" lon="11.1984712"><ele>348.33333333333337</ele><time>2026-04-12T06:16:04.986Z</time></trkpt><trkpt lat="43.8732041" lon="11.1983974"><ele>347.5</ele><time>2026-04-12T06:16:05.982Z</time></trkpt><trkpt lat="43.8731549" lon="11.198321"><ele>346.6666666666667</ele><time>2026-04-12T06:16:06.986Z</time></trkpt><trkpt lat="43.8731017" lon="11.1982454"><ele>345.8333333333333</ele><time>2026-04-12T06:16:07.979Z</time></trkpt><trkpt lat="43.8730513" lon="11.19817"><ele>345.0</ele><time>2026-04-12T06:16:08.981Z</time></trkpt><trkpt lat="43.873007" lon="11.1980856"><ele>345.0</ele><time>2026-04-12T06:16:09.977Z</time></trkpt><trkpt lat="43.8729597" lon="11.1980026"><ele>345.0</ele><time>2026-04-12T06:16:10.98Z</time></trkpt><trkpt lat="43.8729115" lon="11.1979255"><ele>345.0</ele><time>2026-04-12T06:16:11.982Z</time></trkpt><trkpt lat="43.8728598" lon="11.197832"><ele>345.0</ele><time>2026-04-12T06:16:12.969Z</time></trkpt><trkpt lat="43.8727959" lon="11.1977633"><ele>345.0</ele><time>2026-04-12T06:16:13.975Z</time></trkpt><trkpt lat="43.8727369" lon="11.1976918"><ele>345.0</ele><time>2026-04-12T06:16:14.976Z</time></trkpt><trkpt lat="43.8726824" lon="11.1976169"><ele>345.0</ele><time>2026-04-12T06:16:15.981Z</time></trkpt><trkpt lat="43.8726223" lon="11.1975358"><ele>345.0</ele><time>2026-04-12T06:16:17.026Z</time></trkpt><trkpt lat="43.8725706" lon="11.197457"><ele>345.0</ele><time>2026-04-12T06:16:18.036Z</time></trkpt><trkpt lat="43.8725175" lon="11.1973697"><ele>345.0</ele><time>2026-04-12T06:16:18.971Z</time></trkpt><trkpt lat="43.8724673" lon="11.1973025"><ele>345.0</ele><time>2026-04-12T06:16:19.99Z</time></trkpt><trkpt lat="43.8724052" lon="11.1972254"><ele>345.0</ele><time>2026-04-12T06:16:20.982Z</time></trkpt><trkpt lat="43.8723372" lon="11.1971424"><ele>342.6</ele><time>2026-04-12T06:16:21.979Z</time></trkpt><trkpt lat="43.8722649" lon="11.1970642"><ele>340.2</ele><time>2026-04-12T06:16:22.981Z</time></trkpt><trkpt lat="43.8721973" lon="11.1969848"><ele>337.79999999999995</ele><time>2026-04-12T06:16:23.98Z</time></trkpt><trkpt lat="43.87213" lon="11.1968981"><ele>335.4</ele><time>2026-04-12T06:16:24.983Z</time></trkpt><trkpt lat="43.872066" lon="11.1968106"><ele>333.0</ele><time>2026-04-12T06:16:25.989Z</time></trkpt><trkpt lat="43.8720045" lon="11.1967192"><ele>333.0</ele><time>2026-04-12T06:16:26.977Z</time></trkpt><trkpt lat="43.8719429" lon="11.1966292"><ele>333.0</ele><time>2026-04-12T06:16:27.971Z</time></trkpt><trkpt lat="43.8718777" lon="11.1965584"><ele>333.0</ele><time>2026-04-12T06:16:28.974Z</time></trkpt><trkpt lat="43.8718164" lon="11.1964783"><ele>333.0</ele><time>2026-04-12T06:16:29.971Z</time></trkpt><trkpt lat="43.8717559" lon="11.1963921"><ele>333.0</ele><time>2026-04-12T06:16:30.983Z</time></trkpt><trkpt lat="43.871694" lon="11.1963055"><ele>333.0</ele><time>2026-04-12T06:16:31.988Z</time></trkpt><trkpt lat="43.8716325" lon="11.1962375"><ele>329.6666666666667</ele><time>2026-04-12T06:16:32.984Z</time></trkpt><trkpt lat="43.8715692" lon="11.196159"><ele>326.3333333333333</ele><time>2026-04-12T06:16:33.985Z</time></trkpt><trkpt lat="43.8715049" lon="11.1960742"><ele>323.0</ele><time>2026-04-12T06:16:34.982Z</time></trkpt><trkpt lat="43.8714463" lon="11.1959939"><ele>319.66666666666663</ele><time>2026-04-12T06:16:35.978Z</time></trkpt><trkpt lat="43.8713943" lon="11.1959231"><ele>316.3333333333333</ele><time>2026-04-12T06:16:36.978Z</time></trkpt><trkpt lat="43.8713337" lon="11.1958472"><ele>313.0</ele><time>2026-04-12T06:16:37.982Z</time></trkpt><trkpt lat="43.8712754" lon="11.1957673"><ele>313.0</ele><time>2026-04-12T06:16:38.983Z</time></trkpt><trkpt lat="43.8712161" lon="11.1956936"><ele>313.0</ele><time>2026-04-12T06:16:39.979Z</time></trkpt><trkpt lat="43.8711605" lon="11.195611"><ele>313.0</ele><time>2026-04-12T06:16:41.046Z</time></trkpt><trkpt lat="43.8711047" lon="11.1955309"><ele>313.0</ele><time>2026-04-12T06:16:42.035Z</time></trkpt><trkpt lat="43.8710549" lon="11.1954584"><ele>313.0</ele><time>2026-04-12T06:16:42.985Z</time></trkpt><trkpt lat="43.8710058" lon="11.1953828"><ele>313.0</ele><time>2026-04-12T06:16:43.959Z</time></trkpt><trkpt lat="43.8709525" lon="11.1953036"><ele>309.16666666666663</ele><time>2026-04-12T06:16:44.961Z</time></trkpt><trkpt lat="43.8709003" lon="11.1952214"><ele>305.3333333333333</ele><time>2026-04-12T06:16:45.97Z</time></trkpt><trkpt lat="43.8708474" lon="11.1951519"><ele>301.5</ele><time>2026-04-12T06:16:46.963Z</time></trkpt><trkpt lat="43.8708057" lon="11.1950787"><ele>297.6666666666667</ele><time>2026-04-12T06:16:47.971Z</time></trkpt><trkpt lat="43.8707685" lon="11.1949886"><ele>293.83333333333337</ele><time>2026-04-12T06:16:48.966Z</time></trkpt><trkpt lat="43.870743" lon="11.1948964"><ele>290.0</ele><time>2026-04-12T06:16:49.962Z</time></trkpt><trkpt lat="43.8707434" lon="11.1947224"><ele>289.57142857142856</ele><time>2026-04-12T06:16:51.97Z</time></trkpt><trkpt lat="43.8707587" lon="11.1946315"><ele>289.14285714285717</ele><time>2026-04-12T06:16:52.967Z</time></trkpt><trkpt lat="43.8707812" lon="11.194487"><ele>288.7142857142857</ele><time>2026-04-12T06:16:54.968Z</time></trkpt><trkpt lat="43.870759" lon="11.1944012"><ele>288.2857142857143</ele><time>2026-04-12T06:16:56.967Z</time></trkpt><trkpt lat="43.8707537" lon="11.1943075"><ele>287.8571428571429</ele><time>2026-04-12T06:17:00.964Z</time></trkpt><trkpt lat="43.870822" lon="11.1942906"><ele>287.42857142857144</ele><time>2026-04-12T06:17:06.962Z</time></trkpt><trkpt lat="43.8708712" lon="11.1942239"><ele>287.0</ele><time>2026-04-12T06:17:16.967Z</time></trkpt><trkpt lat="43.8709376" lon="11.1941287"><ele>291.1666666666667</ele><time>2026-04-12T06:17:19.953Z</time></trkpt><trkpt lat="43.8710048" lon="11.1940189"><ele>295.33333333333337</ele><time>2026-04-12T06:17:21.965Z</time></trkpt><trkpt lat="43.8710418" lon="11.1938815"><ele>299.5</ele><time>2026-04-12T06:17:23.973Z</time></trkpt><trkpt lat="43.8710426" lon="11.1937476"><ele>303.6666666666667</ele><time>2026-04-12T06:17:25.967Z</time></trkpt><trkpt lat="43.8710451" lon="11.1936487"><ele>307.8333333333333</ele><time>2026-04-12T06:17:27.978Z</time></trkpt><trkpt lat="43.8710498" lon="11.1935553"><ele>312.0</ele><time>2026-04-12T06:17:31.964Z</time></trkpt><trkpt lat="43.8710547" lon="11.1934614"><ele>312.0</ele><time>2026-04-12T06:19:37.963Z</time></trkpt><trkpt lat="43.8710086" lon="11.193346"><ele>312.0</ele><time>2026-04-12T06:19:40.966Z</time></trkpt><trkpt lat="43.8709877" lon="11.1932585"><ele>312.0</ele><time>2026-04-12T06:19:42.965Z</time></trkpt><trkpt lat="43.8709858" lon="11.1931683"><ele>312.0</ele><time>2026-04-12T06:19:45.972Z</time></trkpt><trkpt lat="43.8709977" lon="11.1930546"><ele>312.0</ele><time>2026-04-12T06:19:48.963Z</time></trkpt><trkpt lat="43.8710273" lon="11.1929562"><ele>312.0</ele><time>2026-04-12T06:19:50.958Z</time></trkpt><trkpt lat="43.8710635" lon="11.1928468"><ele>311.2857142857143</ele><time>2026-04-12T06:19:52.963Z</time></trkpt><trkpt lat="43.8710925" lon="11.1927577"><ele>310.57142857142856</ele><time>2026-04-12T06:19:54.952Z</time></trkpt><trkpt lat="43.8711318" lon="11.1926733"><ele>309.85714285714283</ele><time>2026-04-12T06:19:56.965Z</time></trkpt><trkpt lat="43.8711734" lon="11.1926058"><ele>309.1428571428571</ele><time>2026-04-12T06:19:59.018Z</time></trkpt><trkpt lat="43.8712149" lon="11.1925327"><ele>308.42857142857144</ele><time>2026-04-12T06:20:00.968Z</time></trkpt><trkpt lat="43.8712706" lon="11.1924549"><ele>307.71428571428567</ele><time>2026-04-12T06:20:02.961Z</time></trkpt><trkpt lat="43.8713382" lon="11.1923829"><ele>307.0</ele><time>2026-04-12T06:20:04.969Z</time></trkpt><trkpt lat="43.871407" lon="11.1923197"><ele>308.3333333333333</ele><time>2026-04-12T06:20:06.966Z</time></trkpt><trkpt lat="43.8714707" lon="11.1922504"><ele>309.66666666666663</ele><time>2026-04-12T06:20:08.974Z</time></trkpt><trkpt lat="43.8715398" lon="11.1921858"><ele>311.0</ele><time>2026-04-12T06:20:10.959Z</time></trkpt><trkpt lat="43.8716026" lon="11.1921272"><ele>312.3333333333333</ele><time>2026-04-12T06:20:12.968Z</time></trkpt><trkpt lat="43.8716639" lon="11.1920397"><ele>313.6666666666667</ele><time>2026-04-12T06:20:15.962Z</time></trkpt><trkpt lat="43.8717359" lon="11.191977"><ele>315.0</ele><time>2026-04-12T06:20:18.031Z</time></trkpt><trkpt lat="43.8717983" lon="11.191918"><ele>315.0</ele><time>2026-04-12T06:20:20.966Z</time></trkpt><trkpt lat="43.8718449" lon="11.1918577"><ele>315.0</ele><time>2026-04-12T06:20:22.967Z</time></trkpt><trkpt lat="43.8718976" lon="11.1917728"><ele>315.0</ele><time>2026-04-12T06:20:26.013Z</time></trkpt><trkpt lat="43.8719384" lon="11.191697"><ele>315.0</ele><time>2026-04-12T06:20:27.96Z</time></trkpt><trkpt lat="43.8719723" lon="11.1916011"><ele>315.0</ele><time>2026-04-12T06:20:29.963Z</time></trkpt><trkpt lat="43.8720037" lon="11.1915066"><ele>315.0</ele><time>2026-04-12T06:20:31.965Z</time></trkpt><trkpt lat="43.8720248" lon="11.1914171"><ele>315.0</ele><time>2026-04-12T06:20:33.971Z</time></trkpt><trkpt lat="43.8720545" lon="11.1913017"><ele>312.4</ele><time>2026-04-12T06:20:35.959Z</time></trkpt><trkpt lat="43.8720761" lon="11.1912036"><ele>309.8</ele><time>2026-04-12T06:20:37.963Z</time></trkpt><trkpt lat="43.8721267" lon="11.1911048"><ele>307.2</ele><time>2026-04-12T06:20:40.969Z</time></trkpt><trkpt lat="43.8721656" lon="11.1910131"><ele>304.6</ele><time>2026-04-12T06:20:42.959Z</time></trkpt><trkpt lat="43.8722355" lon="11.1909294"><ele>302.0</ele><time>2026-04-12T06:20:47.027Z</time></trkpt><trkpt lat="43.8723356" lon="11.1908009"><ele>302.0</ele><time>2026-04-12T06:20:52.974Z</time></trkpt><trkpt lat="43.872396" lon="11.1907366"><ele>302.0</ele><time>2026-04-12T06:20:55.985Z</time></trkpt><trkpt lat="43.8724627" lon="11.1906876"><ele>302.0</ele><time>2026-04-12T06:20:58.963Z</time></trkpt><trkpt lat="43.8725155" lon="11.1906214"><ele>302.0</ele><time>2026-04-12T06:21:02.965Z</time></trkpt><trkpt lat="43.8725918" lon="11.1904635"><ele>302.0</ele><time>2026-04-12T06:21:08.955Z</time></trkpt><trkpt lat="43.8726545" lon="11.190372"><ele>299.4</ele><time>2026-04-12T06:21:11.962Z</time></trkpt><trkpt lat="43.8727218" lon="11.1902447"><ele>296.79999999999995</ele><time>2026-04-12T06:21:13.958Z</time></trkpt><trkpt lat="43.8728067" lon="11.1901023"><ele>294.2</ele><time>2026-04-12T06:21:15.961Z</time></trkpt><trkpt lat="43.8728522" lon="11.1900235"><ele>291.59999999999997</ele><time>2026-04-12T06:21:16.952Z</time></trkpt><trkpt lat="43.8729309" lon="11.1898992"><ele>289.0</ele><time>2026-04-12T06:21:18.968Z</time></trkpt><trkpt lat="43.8729931" lon="11.1898266"><ele>289.0</ele><time>2026-04-12T06:21:19.957Z</time></trkpt><trkpt lat="43.8730549" lon="11.1897431"><ele>289.0</ele><time>2026-04-12T06:21:21.949Z</time></trkpt><trkpt lat="43.8731111" lon="11.1896949"><ele>289.0</ele><time>2026-04-12T06:21:23.98Z</time></trkpt><trkpt lat="43.873171" lon="11.1896259"><ele>289.0</ele><time>2026-04-12T06:21:25.972Z</time></trkpt><trkpt lat="43.8732376" lon="11.1895478"><ele>289.0</ele><time>2026-04-12T06:21:27.958Z</time></trkpt><trkpt lat="43.8733078" lon="11.1894506"><ele>289.0</ele><time>2026-04-12T06:21:29.964Z</time></trkpt><trkpt lat="43.8733848" lon="11.1893471"><ele>289.0</ele><time>2026-04-12T06:21:32.03Z</time></trkpt><trkpt lat="43.8734349" lon="11.1892636"><ele>289.0</ele><time>2026-04-12T06:21:33.976Z</time></trkpt><trkpt lat="43.873489" lon="11.1891775"><ele>289.0</ele><time>2026-04-12T06:21:35.972Z</time></trkpt><trkpt lat="43.8735673" lon="11.1891263"><ele>289.0</ele><time>2026-04-12T06:21:37.97Z</time></trkpt><trkpt lat="43.8736372" lon="11.1890692"><ele>289.0</ele><time>2026-04-12T06:21:39.975Z</time></trkpt><trkpt lat="43.8737091" lon="11.18903"><ele>289.0</ele><time>2026-04-12T06:21:41.993Z</time></trkpt><trkpt lat="43.8737794" lon="11.1889678"><ele>287.5</ele><time>2026-04-12T06:21:44.033Z</time></trkpt><trkpt lat="43.8738414" lon="11.1889071"><ele>286.0</ele><time>2026-04-12T06:21:45.988Z</time></trkpt><trkpt lat="43.8739097" lon="11.1888285"><ele>284.5</ele><time>2026-04-12T06:21:48.979Z</time></trkpt><trkpt lat="43.8739529" lon="11.1887632"><ele>283.0</ele><time>2026-04-12T06:21:51.004Z</time></trkpt><trkpt lat="43.8739923" lon="11.1886505"><ele>281.5</ele><time>2026-04-12T06:21:57.969Z</time></trkpt><trkpt lat="43.8739902" lon="11.1885593"><ele>280.0</ele><time>2026-04-12T06:22:00.963Z</time></trkpt><trkpt lat="43.873992" lon="11.1884529"><ele>280.0</ele><time>2026-04-12T06:22:04.965Z</time></trkpt><trkpt lat="43.8740096" lon="11.1883628"><ele>280.0</ele><time>2026-04-12T06:22:09.963Z</time></trkpt><trkpt lat="43.8739978" lon="11.188245"><ele>280.0</ele><time>2026-04-12T06:22:13.964Z</time></trkpt><trkpt lat="43.8740124" lon="11.1881347"><ele>280.0</ele><time>2026-04-12T06:22:16.967Z</time></trkpt><trkpt lat="43.8740267" lon="11.188034"><ele>280.0</ele><time>2026-04-12T06:22:18.974Z</time></trkpt><trkpt lat="43.8740424" lon="11.1879233"><ele>280.0</ele><time>2026-04-12T06:22:20.958Z</time></trkpt><trkpt lat="43.8740375" lon="11.1878105"><ele>278.5</ele><time>2026-04-12T06:22:22.964Z</time></trkpt><trkpt lat="43.8739757" lon="11.1876898"><ele>277.0</ele><time>2026-04-12T06:22:25.97Z</time></trkpt><trkpt lat="43.873902" lon="11.1876312"><ele>275.5</ele><time>2026-04-12T06:22:28.028Z</time></trkpt><trkpt lat="43.8738292" lon="11.1875763"><ele>274.0</ele><time>2026-04-12T06:22:29.968Z</time></trkpt><trkpt lat="43.873766" lon="11.18752"><ele>272.5</ele><time>2026-04-12T06:22:31.966Z</time></trkpt><trkpt lat="43.8737048" lon="11.187432"><ele>271.0</ele><time>2026-04-12T06:22:34.957Z</time></trkpt><trkpt lat="43.8736305" lon="11.1873657"><ele>271.16666666666663</ele><time>2026-04-12T06:22:37.973Z</time></trkpt><trkpt lat="43.873566" lon="11.1873377"><ele>271.3333333333333</ele><time>2026-04-12T06:22:40.968Z</time></trkpt><trkpt lat="43.8734679" lon="11.1873397"><ele>271.5</ele><time>2026-04-12T06:22:44.94Z</time></trkpt><trkpt lat="43.8733753" lon="11.1873459"><ele>271.6666666666667</ele><time>2026-04-12T06:22:46.957Z</time></trkpt><trkpt lat="43.8732956" lon="11.187339"><ele>271.83333333333337</ele><time>2026-04-12T06:22:48.956Z</time></trkpt><trkpt lat="43.8732201" lon="11.1873335"><ele>272.0</ele><time>2026-04-12T06:22:51.014Z</time></trkpt><trkpt lat="43.8731351" lon="11.1873354"><ele>271.4</ele><time>2026-04-12T06:22:53.01Z</time></trkpt><trkpt lat="43.873046" lon="11.1873489"><ele>270.79999999999995</ele><time>2026-04-12T06:22:54.953Z</time></trkpt><trkpt lat="43.8729531" lon="11.1873744"><ele>270.2</ele><time>2026-04-12T06:22:56.956Z</time></trkpt><trkpt lat="43.8728478" lon="11.1873881"><ele>269.59999999999997</ele><time>2026-04-12T06:22:59.035Z</time></trkpt><trkpt lat="43.87275" lon="11.1874028"><ele>269.0</ele><time>2026-04-12T06:23:00.97Z</time></trkpt><trkpt lat="43.8726821" lon="11.1874231"><ele>269.0</ele><time>2026-04-12T06:23:02.962Z</time></trkpt><trkpt lat="43.8726072" lon="11.1874141"><ele>269.0</ele><time>2026-04-12T06:23:04.956Z</time></trkpt><trkpt lat="43.8725146" lon="11.187421"><ele>269.0</ele><time>2026-04-12T06:23:07.034Z</time></trkpt><trkpt lat="43.8724283" lon="11.1874185"><ele>269.0</ele><time>2026-04-12T06:23:08.958Z</time></trkpt><trkpt lat="43.8723391" lon="11.187425"><ele>269.0</ele><time>2026-04-12T06:23:10.953Z</time></trkpt><trkpt lat="43.8722552" lon="11.187419"><ele>269.0</ele><time>2026-04-12T06:23:12.957Z</time></trkpt><trkpt lat="43.8721829" lon="11.1874259"><ele>266.8</ele><time>2026-04-12T06:23:14.966Z</time></trkpt><trkpt lat="43.8721074" lon="11.1874282"><ele>264.59999999999997</ele><time>2026-04-12T06:23:16.984Z</time></trkpt><trkpt lat="43.872018" lon="11.1874426"><ele>262.4</ele><time>2026-04-12T06:23:18.954Z</time></trkpt><trkpt lat="43.8719141" lon="11.1874635"><ele>260.2</ele><time>2026-04-12T06:23:21.973Z</time></trkpt><trkpt lat="43.871829" lon="11.1874689"><ele>258.0</ele><time>2026-04-12T06:23:23.972Z</time></trkpt><trkpt lat="43.8717134" lon="11.1874827"><ele>255.0</ele><time>2026-04-12T06:23:26.964Z</time></trkpt><trkpt lat="43.8716183" lon="11.1874973"><ele>252.0</ele><time>2026-04-12T06:23:28.97Z</time></trkpt><trkpt lat="43.8715406" lon="11.1875565"><ele>249.0</ele><time>2026-04-12T06:23:30.959Z</time></trkpt><trkpt lat="43.8714577" lon="11.1876045"><ele>246.0</ele><time>2026-04-12T06:23:32.961Z</time></trkpt><trkpt lat="43.8713584" lon="11.1876352"><ele>243.0</ele><time>2026-04-12T06:23:34.957Z</time></trkpt><trkpt lat="43.8712553" lon="11.1875979"><ele>243.0</ele><time>2026-04-12T06:23:36.963Z</time></trkpt><trkpt lat="43.8711839" lon="11.1875579"><ele>243.0</ele><time>2026-04-12T06:23:38.963Z</time></trkpt><trkpt lat="43.8710982" lon="11.1875431"><ele>243.0</ele><time>2026-04-12T06:23:40.966Z</time></trkpt><trkpt lat="43.8710106" lon="11.1873944"><ele>243.0</ele><time>2026-04-12T06:23:44.964Z</time></trkpt><trkpt lat="43.8709754" lon="11.187316"><ele>243.0</ele><time>2026-04-12T06:23:46.953Z</time></trkpt><trkpt lat="43.8709318" lon="11.1872363"><ele>243.0</ele><time>2026-04-12T06:23:48.97Z</time></trkpt><trkpt lat="43.8708782" lon="11.1871759"><ele>237.0</ele><time>2026-04-12T06:23:50.98Z</time></trkpt><trkpt lat="43.8708184" lon="11.18712"><ele>231.0</ele><time>2026-04-12T06:23:52.973Z</time></trkpt><trkpt lat="43.8707666" lon="11.1870638"><ele>225.0</ele><time>2026-04-12T06:23:54.967Z</time></trkpt><trkpt lat="43.8706781" lon="11.187031"><ele>219.0</ele><time>2026-04-12T06:23:58.962Z</time></trkpt><trkpt lat="43.8706033" lon="11.1870044"><ele>213.0</ele><time>2026-04-12T06:24:01.966Z</time></trkpt><trkpt lat="43.8705391" lon="11.1870321"><ele>207.0</ele><time>2026-04-12T06:24:04.964Z</time></trkpt><trkpt lat="43.8704582" lon="11.1870796"><ele>207.0</ele><time>2026-04-12T06:24:07.967Z</time></trkpt><trkpt lat="43.8703733" lon="11.1870899"><ele>207.0</ele><time>2026-04-12T06:24:11.967Z</time></trkpt><trkpt lat="43.8702783" lon="11.1870357"><ele>207.0</ele><time>2026-04-12T06:24:15.972Z</time></trkpt><trkpt lat="43.8701972" lon="11.1869626"><ele>207.0</ele><time>2026-04-12T06:24:17.966Z</time></trkpt><trkpt lat="43.87011" lon="11.1868444"><ele>207.0</ele><time>2026-04-12T06:24:19.959Z</time></trkpt><trkpt lat="43.8700182" lon="11.1867624"><ele>204.2</ele><time>2026-04-12T06:24:21.956Z</time></trkpt><trkpt lat="43.8699597" lon="11.18672"><ele>201.39999999999998</ele><time>2026-04-12T06:24:22.957Z</time></trkpt><trkpt lat="43.8698458" lon="11.186644"><ele>198.60000000000002</ele><time>2026-04-12T06:24:24.971Z</time></trkpt><trkpt lat="43.8697221" lon="11.1866007"><ele>195.8</ele><time>2026-04-12T06:24:26.948Z</time></trkpt><trkpt lat="43.8696497" lon="11.1865958"><ele>193.0</ele><time>2026-04-12T06:24:27.981Z</time></trkpt><trkpt lat="43.8695704" lon="11.1865892"><ele>193.0</ele><time>2026-04-12T06:24:28.948Z</time></trkpt><trkpt lat="43.8694872" lon="11.1865675"><ele>193.0</ele><time>2026-04-12T06:24:29.967Z</time></trkpt><trkpt lat="43.8693966" lon="11.1865405"><ele>193.0</ele><time>2026-04-12T06:24:30.95Z</time></trkpt><trkpt lat="43.8693025" lon="11.1865213"><ele>193.0</ele><time>2026-04-12T06:24:31.951Z</time></trkpt><trkpt lat="43.8692047" lon="11.186522"><ele>193.0</ele><time>2026-04-12T06:24:32.953Z</time></trkpt><trkpt lat="43.8691104" lon="11.1865167"><ele>187.60000000000002</ele><time>2026-04-12T06:24:33.953Z</time></trkpt><trkpt lat="43.8690059" lon="11.1865036"><ele>182.20000000000002</ele><time>2026-04-12T06:24:34.947Z</time></trkpt><trkpt lat="43.8689001" lon="11.1864806"><ele>176.8</ele><time>2026-04-12T06:24:35.966Z</time></trkpt><trkpt lat="43.8687911" lon="11.1864548"><ele>171.4</ele><time>2026-04-12T06:24:36.953Z</time></trkpt><trkpt lat="43.8686922" lon="11.1864359"><ele>166.0</ele><time>2026-04-12T06:24:37.959Z</time></trkpt><trkpt lat="43.8685961" lon="11.1864169"><ele>166.0</ele><time>2026-04-12T06:24:38.946Z</time></trkpt><trkpt lat="43.8685168" lon="11.1863942"><ele>166.0</ele><time>2026-04-12T06:24:39.961Z</time></trkpt><trkpt lat="43.8684495" lon="11.1863606"><ele>166.0</ele><time>2026-04-12T06:24:40.945Z</time></trkpt><trkpt lat="43.8683868" lon="11.1863082"><ele>166.0</ele><time>2026-04-12T06:24:41.947Z</time></trkpt><trkpt lat="43.8683354" lon="11.1862557"><ele>166.0</ele><time>2026-04-12T06:24:42.949Z</time></trkpt><trkpt lat="43.8682585" lon="11.1861645"><ele>166.0</ele><time>2026-04-12T06:24:44.949Z</time></trkpt><trkpt lat="43.8681497" lon="11.1861216"><ele>164.16666666666669</ele><time>2026-04-12T06:24:46.947Z</time></trkpt><trkpt lat="43.8680135" lon="11.1860775"><ele>162.33333333333334</ele><time>2026-04-12T06:24:48.944Z</time></trkpt><trkpt lat="43.867941" lon="11.1860471"><ele>160.5</ele><time>2026-04-12T06:24:49.946Z</time></trkpt><trkpt lat="43.8678789" lon="11.1860193"><ele>158.66666666666666</ele><time>2026-04-12T06:24:50.949Z</time></trkpt><trkpt lat="43.8678128" lon="11.1859863"><ele>156.83333333333331</ele><time>2026-04-12T06:24:51.948Z</time></trkpt><trkpt lat="43.8677551" lon="11.185951"><ele>155.0</ele><time>2026-04-12T06:24:52.952Z</time></trkpt><trkpt lat="43.8676921" lon="11.1859136"><ele>155.0</ele><time>2026-04-12T06:24:54.954Z</time></trkpt><trkpt lat="43.8676311" lon="11.1858599"><ele>155.0</ele><time>2026-04-12T06:24:57.948Z</time></trkpt><trkpt lat="43.8676664" lon="11.1857844"><ele>155.0</ele><time>2026-04-12T06:25:01.941Z</time></trkpt><trkpt lat="43.8677364" lon="11.18574"><ele>155.0</ele><time>2026-04-12T06:25:05.943Z</time></trkpt><trkpt lat="43.8678116" lon="11.185737"><ele>155.0</ele><time>2026-04-12T06:25:08.947Z</time></trkpt><trkpt lat="43.8678767" lon="11.185779"><ele>155.0</ele><time>2026-04-12T06:25:11.942Z</time></trkpt><trkpt lat="43.8679746" lon="11.1857997"><ele>155.0</ele><time>2026-04-12T06:25:14.939Z</time></trkpt><trkpt lat="43.8680455" lon="11.1857928"><ele>155.0</ele><time>2026-04-12T06:25:16.953Z</time></trkpt><trkpt lat="43.8681277" lon="11.1857777"><ele>155.0</ele><time>2026-04-12T06:25:19.954Z</time></trkpt><trkpt lat="43.8681919" lon="11.1857558"><ele>155.0</ele><time>2026-04-12T06:25:21.958Z</time></trkpt><trkpt lat="43.8682872" lon="11.1857361"><ele>155.0</ele><time>2026-04-12T06:25:24.96Z</time></trkpt><trkpt lat="43.8683576" lon="11.1857251"><ele>155.0</ele><time>2026-04-12T06:25:26.967Z</time></trkpt><trkpt lat="43.8684412" lon="11.1856955"><ele>155.0</ele><time>2026-04-12T06:25:28.959Z</time></trkpt><trkpt lat="43.8685028" lon="11.1856745"><ele>155.0</ele><time>2026-04-12T06:25:30.963Z</time></trkpt><trkpt lat="43.868574" lon="11.1856583"><ele>155.0</ele><time>2026-04-12T06:25:32.967Z</time></trkpt><trkpt lat="43.8686419" lon="11.185628"><ele>155.0</ele><time>2026-04-12T06:25:35.969Z</time></trkpt><trkpt lat="43.8687" lon="11.1855938"><ele>155.0</ele><time>2026-04-12T06:25:39.029Z</time></trkpt><trkpt lat="43.8687644" lon="11.1855184"><ele>155.0</ele><time>2026-04-12T06:25:42.976Z</time></trkpt><trkpt lat="43.8688264" lon="11.1854541"><ele>155.0</ele><time>2026-04-12T06:25:44.966Z</time></trkpt><trkpt lat="43.8688312" lon="11.1853591"><ele>155.0</ele><time>2026-04-12T06:25:46.971Z</time></trkpt><trkpt lat="43.8688514" lon="11.1852658"><ele>155.0</ele><time>2026-04-12T06:25:48.965Z</time></trkpt><trkpt lat="43.8688992" lon="11.1851902"><ele>155.0</ele><time>2026-04-12T06:25:50.964Z</time></trkpt><trkpt lat="43.8689501" lon="11.185115"><ele>155.0</ele><time>2026-04-12T06:25:52.958Z</time></trkpt><trkpt lat="43.8690411" lon="11.1850827"><ele>155.0</ele><time>2026-04-12T06:25:53.973Z</time></trkpt><trkpt lat="43.8691118" lon="11.1850144"><ele>155.0</ele><time>2026-04-12T06:25:55.974Z</time></trkpt><trkpt lat="43.8691796" lon="11.1849548"><ele>155.0</ele><time>2026-04-12T06:25:57.975Z</time></trkpt><trkpt lat="43.8692438" lon="11.184896"><ele>155.0</ele><time>2026-04-12T06:25:59.965Z</time></trkpt><trkpt lat="43.8693272" lon="11.1848209"><ele>155.0</ele><time>2026-04-12T06:26:02.966Z</time></trkpt><trkpt lat="43.8693997" lon="11.1847667"><ele>155.0</ele><time>2026-04-12T06:26:04.962Z</time></trkpt><trkpt lat="43.869461" lon="11.1847272"><ele>155.0</ele><time>2026-04-12T06:26:06.962Z</time></trkpt><trkpt lat="43.8695293" lon="11.1846874"><ele>155.0</ele><time>2026-04-12T06:26:08.971Z</time></trkpt><trkpt lat="43.8696147" lon="11.1846539"><ele>158.0</ele><time>2026-04-12T06:26:11.968Z</time></trkpt><trkpt lat="43.8696926" lon="11.1846245"><ele>161.0</ele><time>2026-04-12T06:26:14.975Z</time></trkpt><trkpt lat="43.8697809" lon="11.1845939"><ele>164.0</ele><time>2026-04-12T06:26:17.965Z</time></trkpt><trkpt lat="43.8698553" lon="11.1845467"><ele>167.0</ele><time>2026-04-12T06:26:20.971Z</time></trkpt><trkpt lat="43.8699425" lon="11.1845014"><ele>170.0</ele><time>2026-04-12T06:26:24.963Z</time></trkpt><trkpt lat="43.8700027" lon="11.1844669"><ele>173.0</ele><time>2026-04-12T06:26:26.974Z</time></trkpt><trkpt lat="43.8700809" lon="11.1844407"><ele>177.16666666666666</ele><time>2026-04-12T06:26:29.969Z</time></trkpt><trkpt lat="43.8701562" lon="11.1844219"><ele>181.33333333333331</ele><time>2026-04-12T06:26:32.965Z</time></trkpt><trkpt lat="43.8702291" lon="11.1843953"><ele>185.5</ele><time>2026-04-12T06:26:34.956Z</time></trkpt><trkpt lat="43.8703065" lon="11.1843658"><ele>189.66666666666666</ele><time>2026-04-12T06:26:37.969Z</time></trkpt><trkpt lat="43.8703744" lon="11.1843142"><ele>193.83333333333334</ele><time>2026-04-12T06:26:40.966Z</time></trkpt><trkpt lat="43.8704492" lon="11.184267"><ele>198.0</ele><time>2026-04-12T06:26:44.035Z</time></trkpt><trkpt lat="43.8705287" lon="11.1842083"><ele>198.0</ele><time>2026-04-12T06:26:46.989Z</time></trkpt><trkpt lat="43.8705731" lon="11.1841361"><ele>198.0</ele><time>2026-04-12T06:26:49.961Z</time></trkpt><trkpt lat="43.8706406" lon="11.1840857"><ele>198.0</ele><time>2026-04-12T06:26:51.957Z</time></trkpt><trkpt lat="43.8707076" lon="11.1840372"><ele>198.0</ele><time>2026-04-12T06:26:52.968Z</time></trkpt><trkpt lat="43.870731" lon="11.1839475"><ele>198.0</ele><time>2026-04-12T06:26:54.963Z</time></trkpt><trkpt lat="43.8707641" lon="11.1838436"><ele>198.0</ele><time>2026-04-12T06:26:56.969Z</time></trkpt><trkpt lat="43.8707718" lon="11.1837437"><ele>198.0</ele><time>2026-04-12T06:26:58.958Z</time></trkpt><trkpt lat="43.870771" lon="11.1836327"><ele>197.0</ele><time>2026-04-12T06:27:01.965Z</time></trkpt><trkpt lat="43.8707731" lon="11.1835325"><ele>196.0</ele><time>2026-04-12T06:27:04.958Z</time></trkpt><trkpt lat="43.8707996" lon="11.1834399"><ele>195.0</ele><time>2026-04-12T06:27:07.974Z</time></trkpt><trkpt lat="43.8707368" lon="11.183494"><ele>194.0</ele><time>2026-04-12T06:27:14.968Z</time></trkpt><trkpt lat="43.8707348" lon="11.1833785"><ele>193.0</ele><time>2026-04-12T06:27:19.97Z</time></trkpt><trkpt lat="43.8707329" lon="11.1832609"><ele>192.0</ele><time>2026-04-12T06:27:23.974Z</time></trkpt><trkpt lat="43.8706993" lon="11.1831729"><ele>192.0</ele><time>2026-04-12T06:27:25.974Z</time></trkpt><trkpt lat="43.8706551" lon="11.1831073"><ele>192.0</ele><time>2026-04-12T06:27:27.966Z</time></trkpt><trkpt lat="43.8706064" lon="11.1830301"><ele>192.0</ele><time>2026-04-12T06:27:29.963Z</time></trkpt><trkpt lat="43.870558" lon="11.1829594"><ele>192.0</ele><time>2026-04-12T06:27:31.969Z</time></trkpt><trkpt lat="43.8704994" lon="11.182862"><ele>192.0</ele><time>2026-04-12T06:27:34.047Z</time></trkpt><trkpt lat="43.8704453" lon="11.1828081"><ele>192.0</ele><time>2026-04-12T06:27:35.959Z</time></trkpt><trkpt lat="43.8703689" lon="11.1827476"><ele>192.0</ele><time>2026-04-12T06:27:37.952Z</time></trkpt><trkpt lat="43.8702899" lon="11.1826689"><ele>192.0</ele><time>2026-04-12T06:27:39.959Z</time></trkpt><trkpt lat="43.8702252" lon="11.1825674"><ele>192.0</ele><time>2026-04-12T06:27:42.065Z</time></trkpt><trkpt lat="43.870159" lon="11.1825211"><ele>192.0</ele><time>2026-04-12T06:27:44.017Z</time></trkpt><trkpt lat="43.8700723" lon="11.1825026"><ele>192.0</ele><time>2026-04-12T06:27:46.968Z</time></trkpt><trkpt lat="43.8700066" lon="11.1824672"><ele>192.0</ele><time>2026-04-12T06:27:48.961Z</time></trkpt><trkpt lat="43.8699449" lon="11.1824383"><ele>189.0</ele><time>2026-04-12T06:27:50.977Z</time></trkpt><trkpt lat="43.869879" lon="11.1823949"><ele>186.0</ele><time>2026-04-12T06:27:52.953Z</time></trkpt><trkpt lat="43.8697841" lon="11.1823948"><ele>183.0</ele><time>2026-04-12T06:27:55.965Z</time></trkpt><trkpt lat="43.8697019" lon="11.1824178"><ele>180.0</ele><time>2026-04-12T06:27:58.964Z</time></trkpt><trkpt lat="43.8696338" lon="11.1824813"><ele>177.0</ele><time>2026-04-12T06:28:02.037Z</time></trkpt><trkpt lat="43.8695944" lon="11.1825551"><ele>174.0</ele><time>2026-04-12T06:28:04.025Z</time></trkpt><trkpt lat="43.8695354" lon="11.182601"><ele>174.0</ele><time>2026-04-12T06:28:05.973Z</time></trkpt><trkpt lat="43.8694592" lon="11.1826626"><ele>174.0</ele><time>2026-04-12T06:28:08.972Z</time></trkpt><trkpt lat="43.8693825" lon="11.1826758"><ele>174.0</ele><time>2026-04-12T06:28:10.988Z</time></trkpt><trkpt lat="43.869314" lon="11.1826931"><ele>174.0</ele><time>2026-04-12T06:28:12.972Z</time></trkpt><trkpt lat="43.8692398" lon="11.1827095"><ele>174.0</ele><time>2026-04-12T06:28:14.957Z</time></trkpt><trkpt lat="43.8691605" lon="11.1827547"><ele>174.0</ele><time>2026-04-12T06:28:16.965Z</time></trkpt><trkpt lat="43.8690969" lon="11.1827491"><ele>169.79999999999998</ele><time>2026-04-12T06:28:18.963Z</time></trkpt><trkpt lat="43.8689697" lon="11.1827758"><ele>165.6</ele><time>2026-04-12T06:28:20.963Z</time></trkpt><trkpt lat="43.8688356" lon="11.1827491"><ele>161.4</ele><time>2026-04-12T06:28:23.04Z</time></trkpt><trkpt lat="43.8687686" lon="11.1827225"><ele>157.2</ele><time>2026-04-12T06:28:24.018Z</time></trkpt><trkpt lat="43.8687023" lon="11.182689"><ele>153.0</ele><time>2026-04-12T06:28:24.967Z</time></trkpt><trkpt lat="43.8686374" lon="11.1826472"><ele>153.0</ele><time>2026-04-12T06:28:25.97Z</time></trkpt><trkpt lat="43.8685571" lon="11.1826048"><ele>153.0</ele><time>2026-04-12T06:28:26.959Z</time></trkpt><trkpt lat="43.8684824" lon="11.1825629"><ele>153.0</ele><time>2026-04-12T06:28:27.97Z</time></trkpt><trkpt lat="43.8684147" lon="11.1825231"><ele>153.0</ele><time>2026-04-12T06:28:28.974Z</time></trkpt><trkpt lat="43.8683447" lon="11.182481"><ele>153.0</ele><time>2026-04-12T06:28:29.968Z</time></trkpt><trkpt lat="43.8682778" lon="11.1824376"><ele>153.0</ele><time>2026-04-12T06:28:31.022Z</time></trkpt><trkpt lat="43.8682077" lon="11.1823984"><ele>150.0</ele><time>2026-04-12T06:28:32.042Z</time></trkpt><trkpt lat="43.8681374" lon="11.1823566"><ele>147.0</ele><time>2026-04-12T06:28:33.021Z</time></trkpt><trkpt lat="43.8680738" lon="11.1823072"><ele>144.0</ele><time>2026-04-12T06:28:33.96Z</time></trkpt><trkpt lat="43.868007" lon="11.1822608"><ele>141.0</ele><time>2026-04-12T06:28:34.966Z</time></trkpt><trkpt lat="43.8679427" lon="11.1822132"><ele>138.0</ele><time>2026-04-12T06:28:35.976Z</time></trkpt><trkpt lat="43.8678837" lon="11.1821659"><ele>135.0</ele><time>2026-04-12T06:28:36.971Z</time></trkpt><trkpt lat="43.8677853" lon="11.1820934"><ele>134.25</ele><time>2026-04-12T06:28:38.963Z</time></trkpt><trkpt lat="43.8676733" lon="11.1820146"><ele>133.5</ele><time>2026-04-12T06:28:40.957Z</time></trkpt><trkpt lat="43.867567" lon="11.1819361"><ele>132.75</ele><time>2026-04-12T06:28:42.97Z</time></trkpt><trkpt lat="43.8674693" lon="11.1818644"><ele>132.0</ele><time>2026-04-12T06:28:44.975Z</time></trkpt><trkpt lat="43.8673766" lon="11.1818131"><ele>129.66666666666666</ele><time>2026-04-12T06:28:46.961Z</time></trkpt><trkpt lat="43.8672944" lon="11.1817473"><ele>127.33333333333334</ele><time>2026-04-12T06:28:48.966Z</time></trkpt><trkpt lat="43.8672163" lon="11.181699"><ele>125.0</ele><time>2026-04-12T06:28:50.972Z</time></trkpt><trkpt lat="43.8671509" lon="11.1816498"><ele>122.66666666666667</ele><time>2026-04-12T06:28:53.969Z</time></trkpt><trkpt lat="43.8670996" lon="11.1817158"><ele>120.33333333333334</ele><time>2026-04-12T06:29:18.965Z</time></trkpt><trkpt lat="43.8670456" lon="11.1818617"><ele>118.0</ele><time>2026-04-12T06:29:20.948Z</time></trkpt><trkpt lat="43.8670325" lon="11.1819514"><ele>118.00000000000001</ele><time>2026-04-12T06:29:21.965Z</time></trkpt><trkpt lat="43.8669995" lon="11.1820467"><ele>118.0</ele><time>2026-04-12T06:29:22.954Z</time></trkpt><trkpt lat="43.8669676" lon="11.1821441"><ele>118.0</ele><time>2026-04-12T06:29:23.966Z</time></trkpt><trkpt lat="43.866932" lon="11.1822558"><ele>118.0</ele><time>2026-04-12T06:29:24.965Z</time></trkpt><trkpt lat="43.8668968" lon="11.1823733"><ele>118.00000000000001</ele><time>2026-04-12T06:29:25.968Z</time></trkpt><trkpt lat="43.8668674" lon="11.1824744"><ele>118.0</ele><time>2026-04-12T06:29:26.972Z</time></trkpt><trkpt lat="43.8668351" lon="11.1825707"><ele>118.50000000000001</ele><time>2026-04-12T06:29:27.961Z</time></trkpt><trkpt lat="43.8668054" lon="11.1826597"><ele>119.0</ele><time>2026-04-12T06:29:28.971Z</time></trkpt><trkpt lat="43.8667755" lon="11.1827491"><ele>119.5</ele><time>2026-04-12T06:29:29.973Z</time></trkpt><trkpt lat="43.86673" lon="11.1829055"><ele>120.0</ele><time>2026-04-12T06:29:31.969Z</time></trkpt><trkpt lat="43.8666939" lon="11.1829791"><ele>120.50000000000001</ele><time>2026-04-12T06:29:33.969Z</time></trkpt><trkpt lat="43.866619" lon="11.1829536"><ele>121.0</ele><time>2026-04-12T06:29:35.962Z</time></trkpt><trkpt lat="43.8665576" lon="11.1829016"><ele>119.66666666666667</ele><time>2026-04-12T06:29:36.962Z</time></trkpt><trkpt lat="43.8664868" lon="11.1828496"><ele>118.33333333333334</ele><time>2026-04-12T06:29:37.96Z</time></trkpt><trkpt lat="43.8664172" lon="11.1827982"><ele>117.0</ele><time>2026-04-12T06:29:38.96Z</time></trkpt><trkpt lat="43.8663479" lon="11.182761"><ele>115.66666666666666</ele><time>2026-04-12T06:29:39.969Z</time></trkpt><trkpt lat="43.8662677" lon="11.1827235"><ele>114.33333333333333</ele><time>2026-04-12T06:29:40.97Z</time></trkpt><trkpt lat="43.8661798" lon="11.1826823"><ele>113.0</ele><time>2026-04-12T06:29:41.968Z</time></trkpt><trkpt lat="43.8660953" lon="11.1826443"><ele>112.99999999999999</ele><time>2026-04-12T06:29:42.947Z</time></trkpt><trkpt lat="43.8660175" lon="11.182611"><ele>113.0</ele><time>2026-04-12T06:29:43.961Z</time></trkpt><trkpt lat="43.8659415" lon="11.182574"><ele>113.0</ele><time>2026-04-12T06:29:44.962Z</time></trkpt><trkpt lat="43.8658631" lon="11.1825377"><ele>113.0</ele><time>2026-04-12T06:29:45.951Z</time></trkpt><trkpt lat="43.8657918" lon="11.1825026"><ele>112.99999999999999</ele><time>2026-04-12T06:29:46.966Z</time></trkpt><trkpt lat="43.8657216" lon="11.1824783"><ele>113.0</ele><time>2026-04-12T06:29:47.966Z</time></trkpt><trkpt lat="43.8656493" lon="11.1824592"><ele>111.99999999999999</ele><time>2026-04-12T06:29:48.955Z</time></trkpt><trkpt lat="43.8655747" lon="11.1824328"><ele>111.0</ele><time>2026-04-12T06:29:49.968Z</time></trkpt><trkpt lat="43.8655016" lon="11.1823945"><ele>110.0</ele><time>2026-04-12T06:29:50.968Z</time></trkpt><trkpt lat="43.8654415" lon="11.1823575"><ele>109.0</ele><time>2026-04-12T06:29:51.966Z</time></trkpt><trkpt lat="43.8653637" lon="11.1823244"><ele>107.99999999999999</ele><time>2026-04-12T06:29:53.968Z</time></trkpt><trkpt lat="43.8654076" lon="11.182193"><ele>107.0</ele><time>2026-04-12T06:29:58.033Z</time></trkpt><trkpt lat="43.8654903" lon="11.1820913"><ele>106.66666666666666</ele><time>2026-04-12T06:29:59.966Z</time></trkpt><trkpt lat="43.8655333" lon="11.1820182"><ele>106.33333333333333</ele><time>2026-04-12T06:30:00.961Z</time></trkpt><trkpt lat="43.8655731" lon="11.1819316"><ele>106.0</ele><time>2026-04-12T06:30:01.972Z</time></trkpt><trkpt lat="43.865611" lon="11.1818385"><ele>105.66666666666666</ele><time>2026-04-12T06:30:02.967Z</time></trkpt><trkpt lat="43.8656503" lon="11.1817402"><ele>105.33333333333333</ele><time>2026-04-12T06:30:03.971Z</time></trkpt><trkpt lat="43.8656926" lon="11.1816229"><ele>105.0</ele><time>2026-04-12T06:30:04.993Z</time></trkpt><trkpt lat="43.86574" lon="11.1815055"><ele>105.0</ele><time>2026-04-12T06:30:05.99Z</time></trkpt><trkpt lat="43.8657893" lon="11.1813802"><ele>105.0</ele><time>2026-04-12T06:30:06.966Z</time></trkpt><trkpt lat="43.8658415" lon="11.1812523"><ele>105.0</ele><time>2026-04-12T06:30:07.967Z</time></trkpt><trkpt lat="43.8658878" lon="11.1811036"><ele>105.0</ele><time>2026-04-12T06:30:08.966Z</time></trkpt><trkpt lat="43.8659189" lon="11.1809423"><ele>105.0</ele><time>2026-04-12T06:30:09.969Z</time></trkpt><trkpt lat="43.8659462" lon="11.1807781"><ele>105.0</ele><time>2026-04-12T06:30:10.959Z</time></trkpt><trkpt lat="43.86598" lon="11.180607"><ele>105.0</ele><time>2026-04-12T06:30:11.966Z</time></trkpt><trkpt lat="43.8660246" lon="11.1804307"><ele>105.0</ele><time>2026-04-12T06:30:12.974Z</time></trkpt><trkpt lat="43.8660645" lon="11.1802517"><ele>105.0</ele><time>2026-04-12T06:30:13.966Z</time></trkpt><trkpt lat="43.8661002" lon="11.1800788"><ele>105.0</ele><time>2026-04-12T06:30:14.961Z</time></trkpt><trkpt lat="43.8661381" lon="11.1799197"><ele>105.0</ele><time>2026-04-12T06:30:15.968Z</time></trkpt><trkpt lat="43.866173" lon="11.1797581"><ele>105.0</ele><time>2026-04-12T06:30:16.95Z</time></trkpt><trkpt lat="43.8662021" lon="11.179605"><ele>105.0</ele><time>2026-04-12T06:30:17.965Z</time></trkpt><trkpt lat="43.8662326" lon="11.1794531"><ele>104.2</ele><time>2026-04-12T06:30:18.956Z</time></trkpt><trkpt lat="43.8662625" lon="11.179314"><ele>103.4</ele><time>2026-04-12T06:30:19.969Z</time></trkpt><trkpt lat="43.8662964" lon="11.1791842"><ele>102.6</ele><time>2026-04-12T06:30:20.979Z</time></trkpt><trkpt lat="43.8663291" lon="11.1790545"><ele>101.8</ele><time>2026-04-12T06:30:22.031Z</time></trkpt><trkpt lat="43.8663603" lon="11.1789408"><ele>101.0</ele><time>2026-04-12T06:30:23.028Z</time></trkpt><trkpt lat="43.866388" lon="11.1788255"><ele>100.16666666666666</ele><time>2026-04-12T06:30:24.03Z</time></trkpt><trkpt lat="43.8664149" lon="11.1787122"><ele>99.33333333333333</ele><time>2026-04-12T06:30:24.967Z</time></trkpt><trkpt lat="43.866438" lon="11.1786123"><ele>98.5</ele><time>2026-04-12T06:30:25.961Z</time></trkpt><trkpt lat="43.8664634" lon="11.1784581"><ele>97.66666666666666</ele><time>2026-04-12T06:30:27.98Z</time></trkpt><trkpt lat="43.8664697" lon="11.1783538"><ele>96.83333333333333</ele><time>2026-04-12T06:30:29.952Z</time></trkpt><trkpt lat="43.8664569" lon="11.1782501"><ele>96.0</ele><time>2026-04-12T06:30:54.95Z</time></trkpt><trkpt lat="43.8664509" lon="11.1781409"><ele>95.8</ele><time>2026-04-12T06:30:57.965Z</time></trkpt><trkpt lat="43.8664437" lon="11.1780405"><ele>95.6</ele><time>2026-04-12T06:30:59.953Z</time></trkpt><trkpt lat="43.8664213" lon="11.1779085"><ele>95.4</ele><time>2026-04-12T06:31:01.95Z</time></trkpt><trkpt lat="43.8664044" lon="11.1777286"><ele>95.2</ele><time>2026-04-12T06:31:03.964Z</time></trkpt><trkpt lat="43.866393" lon="11.1776215"><ele>95.0</ele><time>2026-04-12T06:31:04.953Z</time></trkpt><trkpt lat="43.8663753" lon="11.1775018"><ele>95.0</ele><time>2026-04-12T06:31:05.959Z</time></trkpt><trkpt lat="43.8663439" lon="11.1773851"><ele>95.0</ele><time>2026-04-12T06:31:06.946Z</time></trkpt><trkpt lat="43.8663092" lon="11.1772748"><ele>95.0</ele><time>2026-04-12T06:31:07.963Z</time></trkpt><trkpt lat="43.8662797" lon="11.1771639"><ele>95.0</ele><time>2026-04-12T06:31:08.964Z</time></trkpt><trkpt lat="43.8662519" lon="11.177057"><ele>95.0</ele><time>2026-04-12T06:31:09.964Z</time></trkpt><trkpt lat="43.8662298" lon="11.176962"><ele>95.0</ele><time>2026-04-12T06:31:10.953Z</time></trkpt><trkpt lat="43.866203" lon="11.1768634"><ele>95.16666666666667</ele><time>2026-04-12T06:31:11.955Z</time></trkpt><trkpt lat="43.8661788" lon="11.1767632"><ele>95.33333333333334</ele><time>2026-04-12T06:31:12.969Z</time></trkpt><trkpt lat="43.8661566" lon="11.1766572"><ele>95.5</ele><time>2026-04-12T06:31:13.96Z</time></trkpt><trkpt lat="43.8661379" lon="11.1765476"><ele>95.66666666666667</ele><time>2026-04-12T06:31:14.94Z</time></trkpt><trkpt lat="43.8661327" lon="11.1764473"><ele>95.83333333333333</ele><time>2026-04-12T06:31:15.956Z</time></trkpt><trkpt lat="43.8661417" lon="11.1763096"><ele>96.0</ele><time>2026-04-12T06:31:17.967Z</time></trkpt><trkpt lat="43.8661963" lon="11.1762452"><ele>95.5</ele><time>2026-04-12T06:31:22.016Z</time></trkpt><trkpt lat="43.8663094" lon="11.1762386"><ele>95.0</ele><time>2026-04-12T06:31:23.952Z</time></trkpt><trkpt lat="43.8663779" lon="11.1762368"><ele>94.5</ele><time>2026-04-12T06:31:24.969Z</time></trkpt><trkpt lat="43.8664491" lon="11.1762285"><ele>94.0</ele><time>2026-04-12T06:31:25.965Z</time></trkpt><trkpt lat="43.8665129" lon="11.1762208"><ele>93.5</ele><time>2026-04-12T06:31:27.034Z</time></trkpt><trkpt lat="43.8665864" lon="11.1762113"><ele>93.0</ele><time>2026-04-12T06:31:28.029Z</time></trkpt><trkpt lat="43.8666655" lon="11.1761895"><ele>93.0</ele><time>2026-04-12T06:31:29.031Z</time></trkpt><trkpt lat="43.8667398" lon="11.1761825"><ele>93.0</ele><time>2026-04-12T06:31:29.972Z</time></trkpt><trkpt lat="43.8668165" lon="11.1761702"><ele>93.0</ele><time>2026-04-12T06:31:30.963Z</time></trkpt><trkpt lat="43.8669048" lon="11.1761585"><ele>93.0</ele><time>2026-04-12T06:31:31.966Z</time></trkpt><trkpt lat="43.8669922" lon="11.1761388"><ele>93.0</ele><time>2026-04-12T06:31:33.03Z</time></trkpt><trkpt lat="43.8670921" lon="11.1761099"><ele>93.0</ele><time>2026-04-12T06:31:33.939Z</time></trkpt><trkpt lat="43.8671957" lon="11.17607"><ele>94.0</ele><time>2026-04-12T06:31:34.966Z</time></trkpt><trkpt lat="43.8673037" lon="11.1760285"><ele>95.0</ele><time>2026-04-12T06:31:35.964Z</time></trkpt><trkpt lat="43.8674114" lon="11.1759844"><ele>96.0</ele><time>2026-04-12T06:31:37.043Z</time></trkpt><trkpt lat="43.8675263" lon="11.175917"><ele>97.0</ele><time>2026-04-12T06:31:38.031Z</time></trkpt><trkpt lat="43.8676335" lon="11.1758442"><ele>98.0</ele><time>2026-04-12T06:31:38.964Z</time></trkpt><trkpt lat="43.8677374" lon="11.1757653"><ele>99.0</ele><time>2026-04-12T06:31:39.965Z</time></trkpt><trkpt lat="43.8678456" lon="11.1756865"><ele>100.0</ele><time>2026-04-12T06:31:40.965Z</time></trkpt><trkpt lat="43.8679602" lon="11.1756099"><ele>101.0</ele><time>2026-04-12T06:31:41.957Z</time></trkpt><trkpt lat="43.8680686" lon="11.1755338"><ele>103.0</ele><time>2026-04-12T06:31:42.97Z</time></trkpt><trkpt lat="43.868173" lon="11.1754558"><ele>105.0</ele><time>2026-04-12T06:31:43.965Z</time></trkpt><trkpt lat="43.8682827" lon="11.1753774"><ele>107.0</ele><time>2026-04-12T06:31:44.959Z</time></trkpt><trkpt lat="43.868387" lon="11.1753084"><ele>109.0</ele><time>2026-04-12T06:31:45.976Z</time></trkpt><trkpt lat="43.8684948" lon="11.1752352"><ele>111.0</ele><time>2026-04-12T06:31:47.032Z</time></trkpt><trkpt lat="43.868602" lon="11.1751653"><ele>113.0</ele><time>2026-04-12T06:31:48.025Z</time></trkpt><trkpt lat="43.8687141" lon="11.1751068"><ele>115.0</ele><time>2026-04-12T06:31:49.031Z</time></trkpt><trkpt lat="43.8688164" lon="11.1750533"><ele>117.0</ele><time>2026-04-12T06:31:49.94Z</time></trkpt><trkpt lat="43.8689172" lon="11.1750018"><ele>117.0</ele><time>2026-04-12T06:31:50.95Z</time></trkpt><trkpt lat="43.8690208" lon="11.1749483"><ele>116.99999999999999</ele><time>2026-04-12T06:31:51.961Z</time></trkpt><trkpt lat="43.869122" lon="11.1749012"><ele>116.99999999999999</ele><time>2026-04-12T06:31:52.97Z</time></trkpt><trkpt lat="43.8692208" lon="11.1748537"><ele>117.0</ele><time>2026-04-12T06:31:53.973Z</time></trkpt><trkpt lat="43.8693111" lon="11.1748017"><ele>117.0</ele><time>2026-04-12T06:31:54.976Z</time></trkpt><trkpt lat="43.8693914" lon="11.1747655"><ele>116.19999999999999</ele><time>2026-04-12T06:31:56.012Z</time></trkpt><trkpt lat="43.8694541" lon="11.1747425"><ele>115.39999999999999</ele><time>2026-04-12T06:31:57.013Z</time></trkpt><trkpt lat="43.8695585" lon="11.1748068"><ele>114.60000000000001</ele><time>2026-04-12T06:31:58.963Z</time></trkpt><trkpt lat="43.8696349" lon="11.1749063"><ele>113.80000000000001</ele><time>2026-04-12T06:32:00.97Z</time></trkpt><trkpt lat="43.8697395" lon="11.174989"><ele>113.0</ele><time>2026-04-12T06:32:02.973Z</time></trkpt><trkpt lat="43.8698244" lon="11.1750815"><ele>115.4</ele><time>2026-04-12T06:32:04.972Z</time></trkpt><trkpt lat="43.8699237" lon="11.1751393"><ele>117.80000000000001</ele><time>2026-04-12T06:32:06.947Z</time></trkpt><trkpt lat="43.8700059" lon="11.1751395"><ele>120.2</ele><time>2026-04-12T06:32:09.032Z</time></trkpt><trkpt lat="43.8701018" lon="11.1751414"><ele>122.6</ele><time>2026-04-12T06:32:11.986Z</time></trkpt><trkpt lat="43.8701625" lon="11.1751941"><ele>125.0</ele><time>2026-04-12T06:32:14.034Z</time></trkpt><trkpt lat="43.8702529" lon="11.1752374"><ele>125.66666666666666</ele><time>2026-04-12T06:32:16.952Z</time></trkpt><trkpt lat="43.8703333" lon="11.1752466"><ele>126.33333333333333</ele><time>2026-04-12T06:32:19.965Z</time></trkpt><trkpt lat="43.8704245" lon="11.1752882"><ele>127.0</ele><time>2026-04-12T06:32:21.973Z</time></trkpt><trkpt lat="43.8705041" lon="11.1753352"><ele>127.66666666666666</ele><time>2026-04-12T06:32:24.031Z</time></trkpt><trkpt lat="43.8705845" lon="11.175385"><ele>128.33333333333334</ele><time>2026-04-12T06:32:25.956Z</time></trkpt><trkpt lat="43.8706605" lon="11.1754338"><ele>129.0</ele><time>2026-04-12T06:32:27.966Z</time></trkpt><trkpt lat="43.8707535" lon="11.1754766"><ele>129.0</ele><time>2026-04-12T06:32:29.981Z</time></trkpt><trkpt lat="43.8708513" lon="11.1755178"><ele>129.0</ele><time>2026-04-12T06:32:31.965Z</time></trkpt><trkpt lat="43.8709851" lon="11.175557"><ele>129.0</ele><time>2026-04-12T06:32:33.984Z</time></trkpt><trkpt lat="43.8710573" lon="11.1755576"><ele>129.0</ele><time>2026-04-12T06:32:34.974Z</time></trkpt><trkpt lat="43.8711211" lon="11.1755465"><ele>129.0</ele><time>2026-04-12T06:32:35.964Z</time></trkpt><trkpt lat="43.8712325" lon="11.1754925"><ele>130.0</ele><time>2026-04-12T06:32:37.975Z</time></trkpt><trkpt lat="43.8713531" lon="11.175426"><ele>131.0</ele><time>2026-04-12T06:32:39.968Z</time></trkpt><trkpt lat="43.8714189" lon="11.1754001"><ele>132.0</ele><time>2026-04-12T06:32:40.967Z</time></trkpt><trkpt lat="43.8714883" lon="11.1753779"><ele>133.0</ele><time>2026-04-12T06:32:41.979Z</time></trkpt><trkpt lat="43.8715533" lon="11.1753549"><ele>134.0</ele><time>2026-04-12T06:32:42.958Z</time></trkpt><trkpt lat="43.8716202" lon="11.1753335"><ele>135.0</ele><time>2026-04-12T06:32:43.975Z</time></trkpt><trkpt lat="43.8716834" lon="11.1753116"><ele>137.16666666666666</ele><time>2026-04-12T06:32:44.965Z</time></trkpt><trkpt lat="43.8718061" lon="11.1752681"><ele>139.33333333333334</ele><time>2026-04-12T06:32:46.965Z</time></trkpt><trkpt lat="43.8718723" lon="11.1752408"><ele>141.5</ele><time>2026-04-12T06:32:47.976Z</time></trkpt><trkpt lat="43.8719375" lon="11.1752118"><ele>143.66666666666669</ele><time>2026-04-12T06:32:48.971Z</time></trkpt><trkpt lat="43.8720002" lon="11.1751794"><ele>145.83333333333334</ele><time>2026-04-12T06:32:49.977Z</time></trkpt><trkpt lat="43.8720626" lon="11.1751494"><ele>148.0</ele><time>2026-04-12T06:32:50.974Z</time></trkpt><trkpt lat="43.8721276" lon="11.1751307"><ele>148.0</ele><time>2026-04-12T06:32:51.974Z</time></trkpt><trkpt lat="43.8722473" lon="11.175141"><ele>148.0</ele><time>2026-04-12T06:32:53.962Z</time></trkpt><trkpt lat="43.872314" lon="11.1751704"><ele>148.0</ele><time>2026-04-12T06:32:54.952Z</time></trkpt><trkpt lat="43.8723738" lon="11.1751985"><ele>148.0</ele><time>2026-04-12T06:32:55.973Z</time></trkpt><trkpt lat="43.8724625" lon="11.1752559"><ele>148.0</ele><time>2026-04-12T06:32:57.973Z</time></trkpt><trkpt lat="43.8725394" lon="11.1753009"><ele>148.0</ele><time>2026-04-12T06:32:59.969Z</time></trkpt><trkpt lat="43.872602" lon="11.1753601"><ele>147.83333333333334</ele><time>2026-04-12T06:33:01.961Z</time></trkpt><trkpt lat="43.8726563" lon="11.175428"><ele>147.66666666666669</ele><time>2026-04-12T06:33:03.965Z</time></trkpt><trkpt lat="43.8727154" lon="11.1754826"><ele>147.5</ele><time>2026-04-12T06:33:05.978Z</time></trkpt><trkpt lat="43.8727711" lon="11.1755245"><ele>147.33333333333334</ele><time>2026-04-12T06:33:07.972Z</time></trkpt><trkpt lat="43.8728385" lon="11.1755915"><ele>147.16666666666666</ele><time>2026-04-12T06:33:09.96Z</time></trkpt><trkpt lat="43.8729042" lon="11.1756836"><ele>147.0</ele><time>2026-04-12T06:33:12.031Z</time></trkpt><trkpt lat="43.8729689" lon="11.1757728"><ele>151.39999999999998</ele><time>2026-04-12T06:33:13.961Z</time></trkpt><trkpt lat="43.8730455" lon="11.175818"><ele>155.79999999999998</ele><time>2026-04-12T06:33:15.96Z</time></trkpt><trkpt lat="43.8731238" lon="11.17585"><ele>160.2</ele><time>2026-04-12T06:33:17.964Z</time></trkpt><trkpt lat="43.8732024" lon="11.1759048"><ele>164.6</ele><time>2026-04-12T06:33:19.973Z</time></trkpt><trkpt lat="43.8732878" lon="11.1759679"><ele>169.0</ele><time>2026-04-12T06:33:21.977Z</time></trkpt><trkpt lat="43.873398" lon="11.1760418"><ele>169.85714285714286</ele><time>2026-04-12T06:33:23.947Z</time></trkpt><trkpt lat="43.8734574" lon="11.1760865"><ele>170.71428571428572</ele><time>2026-04-12T06:33:24.951Z</time></trkpt><trkpt lat="43.873522" lon="11.1761879"><ele>171.57142857142856</ele><time>2026-04-12T06:33:26.965Z</time></trkpt><trkpt lat="43.8735306" lon="11.1762854"><ele>172.42857142857144</ele><time>2026-04-12T06:33:28.961Z</time></trkpt><trkpt lat="43.8735168" lon="11.1763789"><ele>173.28571428571428</ele><time>2026-04-12T06:33:30.971Z</time></trkpt><trkpt lat="43.8734812" lon="11.1764734"><ele>174.14285714285714</ele><time>2026-04-12T06:33:33.976Z</time></trkpt><trkpt lat="43.8734409" lon="11.1765475"><ele>175.0</ele><time>2026-04-12T06:33:36.97Z</time></trkpt><trkpt lat="43.8733719" lon="11.1766427"><ele>175.0</ele><time>2026-04-12T06:33:39.973Z</time></trkpt><trkpt lat="43.8732774" lon="11.1767283"><ele>175.0</ele><time>2026-04-12T06:33:43.971Z</time></trkpt><trkpt lat="43.8732943" lon="11.1768392"><ele>175.0</ele><time>2026-04-12T06:33:47.965Z</time></trkpt><trkpt lat="43.8733396" lon="11.1769172"><ele>175.0</ele><time>2026-04-12T06:33:50.965Z</time></trkpt><trkpt lat="43.8734047" lon="11.1769671"><ele>175.0</ele><time>2026-04-12T06:33:53.958Z</time></trkpt><trkpt lat="43.8734731" lon="11.1769952"><ele>175.0</ele><time>2026-04-12T06:33:56.962Z</time></trkpt><trkpt lat="43.87352" lon="11.1770552"><ele>175.0</ele><time>2026-04-12T06:33:58.973Z</time></trkpt><trkpt lat="43.8735514" lon="11.1771613"><ele>175.0</ele><time>2026-04-12T06:34:01.952Z</time></trkpt><trkpt lat="43.8735548" lon="11.1772585"><ele>175.0</ele><time>2026-04-12T06:34:04.96Z</time></trkpt><trkpt lat="43.8735707" lon="11.1773535"><ele>175.0</ele><time>2026-04-12T06:34:07.952Z</time></trkpt><trkpt lat="43.8734998" lon="11.1774131"><ele>175.0</ele><time>2026-04-12T06:34:10.961Z</time></trkpt><trkpt lat="43.8734224" lon="11.177426"><ele>175.0</ele><time>2026-04-12T06:34:12.956Z</time></trkpt><trkpt lat="43.8733553" lon="11.1774307"><ele>177.57142857142858</ele><time>2026-04-12T06:34:14.968Z</time></trkpt><trkpt lat="43.8733241" lon="11.1775252"><ele>180.14285714285714</ele><time>2026-04-12T06:34:19.969Z</time></trkpt><trkpt lat="43.8733192" lon="11.1776162"><ele>182.71428571428572</ele><time>2026-04-12T06:34:23.974Z</time></trkpt><trkpt lat="43.8733061" lon="11.177709"><ele>185.28571428571428</ele><time>2026-04-12T06:34:27.973Z</time></trkpt><trkpt lat="43.8733699" lon="11.177789"><ele>187.85714285714286</ele><time>2026-04-12T06:34:31.975Z</time></trkpt><trkpt lat="43.8734261" lon="11.1778425"><ele>190.42857142857144</ele><time>2026-04-12T06:34:33.964Z</time></trkpt><trkpt lat="43.8734766" lon="11.1779086"><ele>193.0</ele><time>2026-04-12T06:34:35.963Z</time></trkpt><trkpt lat="43.8735288" lon="11.177967"><ele>192.99999999999997</ele><time>2026-04-12T06:34:37.961Z</time></trkpt><trkpt lat="43.8735979" lon="11.1780388"><ele>193.0</ele><time>2026-04-12T06:34:40.959Z</time></trkpt><trkpt lat="43.8736475" lon="11.1781294"><ele>193.0</ele><time>2026-04-12T06:34:43.974Z</time></trkpt><trkpt lat="43.8736324" lon="11.1782256"><ele>193.0</ele><time>2026-04-12T06:34:45.971Z</time></trkpt><trkpt lat="43.8736303" lon="11.1783213"><ele>192.99999999999997</ele><time>2026-04-12T06:34:47.953Z</time></trkpt><trkpt lat="43.8736401" lon="11.1784149"><ele>193.0</ele><time>2026-04-12T06:34:50.965Z</time></trkpt><trkpt lat="43.8736572" lon="11.1785221"><ele>196.60000000000002</ele><time>2026-04-12T06:36:34.97Z</time></trkpt><trkpt lat="43.8737341" lon="11.1786066"><ele>200.20000000000002</ele><time>2026-04-12T06:36:37.976Z</time></trkpt><trkpt lat="43.8738152" lon="11.1786875"><ele>203.8</ele><time>2026-04-12T06:36:39.961Z</time></trkpt><trkpt lat="43.8738837" lon="11.1787735"><ele>207.4</ele><time>2026-04-12T06:36:41.988Z</time></trkpt><trkpt lat="43.873968" lon="11.1788763"><ele>211.0</ele><time>2026-04-12T06:36:43.963Z</time></trkpt><trkpt lat="43.8740408" lon="11.1789854"><ele>213.49999999999997</ele><time>2026-04-12T06:36:45.974Z</time></trkpt><trkpt lat="43.8741188" lon="11.1790874"><ele>216.0</ele><time>2026-04-12T06:36:48.027Z</time></trkpt><trkpt lat="43.8741714" lon="11.1791785"><ele>218.5</ele><time>2026-04-12T06:36:49.969Z</time></trkpt><trkpt lat="43.8741568" lon="11.17931"><ele>221.0</ele><time>2026-04-12T06:36:53.018Z</time></trkpt><trkpt lat="43.8741306" lon="11.1794095"><ele>223.49999999999997</ele><time>2026-04-12T06:36:54.981Z</time></trkpt><trkpt lat="43.8741128" lon="11.1794983"><ele>226.0</ele><time>2026-04-12T06:36:56.979Z</time></trkpt><trkpt lat="43.8740969" lon="11.1796051"><ele>225.99999999999997</ele><time>2026-04-12T06:37:14.964Z</time></trkpt><trkpt lat="43.8740508" lon="11.1797002"><ele>226.0</ele><time>2026-04-12T06:37:17.98Z</time></trkpt><trkpt lat="43.8740211" lon="11.1797928"><ele>226.0</ele><time>2026-04-12T06:37:19.977Z</time></trkpt><trkpt lat="43.873988" lon="11.1798992"><ele>226.0</ele><time>2026-04-12T06:37:21.969Z</time></trkpt><trkpt lat="43.8739577" lon="11.1800195"><ele>225.99999999999997</ele><time>2026-04-12T06:37:23.982Z</time></trkpt><trkpt lat="43.8739418" lon="11.1801354"><ele>226.0</ele><time>2026-04-12T06:37:25.972Z</time></trkpt><trkpt lat="43.8739278" lon="11.1802574"><ele>227.60000000000002</ele><time>2026-04-12T06:37:28.026Z</time></trkpt><trkpt lat="43.8739027" lon="11.1804206"><ele>229.20000000000002</ele><time>2026-04-12T06:37:29.982Z</time></trkpt><trkpt lat="43.8738708" lon="11.1805924"><ele>230.79999999999998</ele><time>2026-04-12T06:37:31.975Z</time></trkpt><trkpt lat="43.8738113" lon="11.1807121"><ele>232.39999999999998</ele><time>2026-04-12T06:37:33.981Z</time></trkpt><trkpt lat="43.8737603" lon="11.1807748"><ele>234.0</ele><time>2026-04-12T06:37:34.982Z</time></trkpt><trkpt lat="43.8737123" lon="11.1808507"><ele>234.83333333333334</ele><time>2026-04-12T06:37:35.982Z</time></trkpt><trkpt lat="43.8736609" lon="11.1809064"><ele>235.66666666666669</ele><time>2026-04-12T06:37:37.005Z</time></trkpt><trkpt lat="43.8735977" lon="11.1809886"><ele>236.5</ele><time>2026-04-12T06:37:37.994Z</time></trkpt><trkpt lat="43.8735364" lon="11.1810708"><ele>237.33333333333334</ele><time>2026-04-12T06:37:38.969Z</time></trkpt><trkpt lat="43.8734675" lon="11.1811361"><ele>238.16666666666669</ele><time>2026-04-12T06:37:39.965Z</time></trkpt><trkpt lat="43.8734114" lon="11.1811946"><ele>239.0</ele><time>2026-04-12T06:37:40.98Z</time></trkpt><trkpt lat="43.8733531" lon="11.1812773"><ele>236.39999999999998</ele><time>2026-04-12T06:37:41.967Z</time></trkpt><trkpt lat="43.8733085" lon="11.1813512"><ele>233.79999999999998</ele><time>2026-04-12T06:37:42.979Z</time></trkpt><trkpt lat="43.8732429" lon="11.1814609"><ele>231.20000000000002</ele><time>2026-04-12T06:37:44.972Z</time></trkpt><trkpt lat="43.8731568" lon="11.1815363"><ele>228.60000000000002</ele><time>2026-04-12T06:37:47.021Z</time></trkpt><trkpt lat="43.8730943" lon="11.1816466"><ele>226.0</ele><time>2026-04-12T06:37:49.026Z</time></trkpt><trkpt lat="43.87305" lon="11.1817527"><ele>225.99999999999997</ele><time>2026-04-12T06:37:50.964Z</time></trkpt><trkpt lat="43.8730048" lon="11.1818361"><ele>226.0</ele><time>2026-04-12T06:37:52.971Z</time></trkpt><trkpt lat="43.8729901" lon="11.1819226"><ele>226.0</ele><time>2026-04-12T06:37:54.978Z</time></trkpt><trkpt lat="43.8729399" lon="11.182014"><ele>226.0</ele><time>2026-04-12T06:37:57.011Z</time></trkpt><trkpt lat="43.8728637" lon="11.1820931"><ele>225.99999999999997</ele><time>2026-04-12T06:37:58.977Z</time></trkpt><trkpt lat="43.8727599" lon="11.1821774"><ele>226.0</ele><time>2026-04-12T06:38:00.97Z</time></trkpt><trkpt lat="43.8726976" lon="11.1822188"><ele>226.0</ele><time>2026-04-12T06:38:02.061Z</time></trkpt><trkpt lat="43.8726285" lon="11.1822695"><ele>226.00000000000003</ele><time>2026-04-12T06:38:03.027Z</time></trkpt><trkpt lat="43.8725464" lon="11.1823311"><ele>226.00000000000003</ele><time>2026-04-12T06:38:04.038Z</time></trkpt><trkpt lat="43.8724038" lon="11.1824138"><ele>226.0</ele><time>2026-04-12T06:38:05.969Z</time></trkpt><trkpt lat="43.8723038" lon="11.182433"><ele>226.0</ele><time>2026-04-12T06:38:07.964Z</time></trkpt><trkpt lat="43.8722025" lon="11.1824623"><ele>224.4</ele><time>2026-04-12T06:38:09.97Z</time></trkpt><trkpt lat="43.8721023" lon="11.1825051"><ele>222.8</ele><time>2026-04-12T06:38:11.991Z</time></trkpt><trkpt lat="43.8719827" lon="11.1825427"><ele>221.20000000000002</ele><time>2026-04-12T06:38:13.961Z</time></trkpt><trkpt lat="43.8718885" lon="11.182581"><ele>219.60000000000002</ele><time>2026-04-12T06:38:15.953Z</time></trkpt><trkpt lat="43.871797" lon="11.1826054"><ele>218.0</ele><time>2026-04-12T06:38:17.97Z</time></trkpt><trkpt lat="43.8716884" lon="11.1826403"><ele>215.8</ele><time>2026-04-12T06:38:19.957Z</time></trkpt><trkpt lat="43.8715834" lon="11.1826703"><ele>213.60000000000002</ele><time>2026-04-12T06:38:21.966Z</time></trkpt><trkpt lat="43.8714767" lon="11.1827044"><ele>211.39999999999998</ele><time>2026-04-12T06:38:23.968Z</time></trkpt><trkpt lat="43.8713663" lon="11.1827284"><ele>209.2</ele><time>2026-04-12T06:38:25.968Z</time></trkpt><trkpt lat="43.8712809" lon="11.1827629"><ele>207.0</ele><time>2026-04-12T06:38:28.034Z</time></trkpt><trkpt lat="43.871216" lon="11.182807"><ele>207.0</ele><time>2026-04-12T06:38:29.97Z</time></trkpt><trkpt lat="43.8711648" lon="11.1828988"><ele>207.0</ele><time>2026-04-12T06:38:32.964Z</time></trkpt><trkpt lat="43.871117" lon="11.1829651"><ele>207.0</ele><time>2026-04-12T06:38:36Z</time></trkpt><trkpt lat="43.8710542" lon="11.1829905"><ele>207.0</ele><time>2026-04-12T06:38:37.956Z</time></trkpt><trkpt lat="43.8709666" lon="11.1830021"><ele>207.0</ele><time>2026-04-12T06:38:39.968Z</time></trkpt><trkpt lat="43.8708739" lon="11.1829835"><ele>207.0</ele><time>2026-04-12T06:38:41.961Z</time></trkpt><trkpt lat="43.8707975" lon="11.1829606"><ele>204.0</ele><time>2026-04-12T06:38:43.97Z</time></trkpt><trkpt lat="43.8707242" lon="11.1829217"><ele>201.0</ele><time>2026-04-12T06:38:45.967Z</time></trkpt><trkpt lat="43.8706521" lon="11.1829044"><ele>198.0</ele><time>2026-04-12T06:38:48.043Z</time></trkpt><trkpt lat="43.8705852" lon="11.1828275"><ele>195.0</ele><time>2026-04-12T06:38:49.977Z</time></trkpt><trkpt lat="43.8705101" lon="11.1827322"><ele>192.0</ele><time>2026-04-12T06:38:51.955Z</time></trkpt><trkpt lat="43.8704106" lon="11.1826458"><ele>192.0</ele><time>2026-04-12T06:38:53.98Z</time></trkpt><trkpt lat="43.8703258" lon="11.1825676"><ele>192.0</ele><time>2026-04-12T06:38:55.986Z</time></trkpt><trkpt lat="43.8702567" lon="11.1824992"><ele>192.0</ele><time>2026-04-12T06:38:57.989Z</time></trkpt><trkpt lat="43.8701926" lon="11.1824331"><ele>192.0</ele><time>2026-04-12T06:38:59.967Z</time></trkpt><trkpt lat="43.8701272" lon="11.1823859"><ele>192.0</ele><time>2026-04-12T06:39:01.981Z</time></trkpt><trkpt lat="43.8700384" lon="11.1823568"><ele>192.0</ele><time>2026-04-12T06:39:04.986Z</time></trkpt><trkpt lat="43.8699426" lon="11.1823704"><ele>189.0</ele><time>2026-04-12T06:39:08.036Z</time></trkpt><trkpt lat="43.869871" lon="11.1823955"><ele>186.0</ele><time>2026-04-12T06:39:09.972Z</time></trkpt><trkpt lat="43.8697932" lon="11.1824419"><ele>183.0</ele><time>2026-04-12T06:39:11.974Z</time></trkpt><trkpt lat="43.8697209" lon="11.1824768"><ele>180.0</ele><time>2026-04-12T06:39:13.965Z</time></trkpt><trkpt lat="43.8696598" lon="11.1825175"><ele>177.0</ele><time>2026-04-12T06:39:16.035Z</time></trkpt><trkpt lat="43.8696087" lon="11.1825703"><ele>174.0</ele><time>2026-04-12T06:39:18.04Z</time></trkpt><trkpt lat="43.8695446" lon="11.1826491"><ele>174.0</ele><time>2026-04-12T06:39:19.967Z</time></trkpt><trkpt lat="43.869413" lon="11.1827154"><ele>174.0</ele><time>2026-04-12T06:39:25.963Z</time></trkpt><trkpt lat="43.8693338" lon="11.1827341"><ele>174.0</ele><time>2026-04-12T06:39:27.961Z</time></trkpt><trkpt lat="43.8692624" lon="11.1827386"><ele>174.0</ele><time>2026-04-12T06:39:29.96Z</time></trkpt><trkpt lat="43.8691168" lon="11.1827415"><ele>174.0</ele><time>2026-04-12T06:39:34.96Z</time></trkpt><trkpt lat="43.8690387" lon="11.1827437"><ele>169.79999999999998</ele><time>2026-04-12T06:39:35.96Z</time></trkpt><trkpt lat="43.8689433" lon="11.1827237"><ele>165.6</ele><time>2026-04-12T06:39:36.974Z</time></trkpt><trkpt lat="43.8688414" lon="11.1827167"><ele>161.4</ele><time>2026-04-12T06:39:37.97Z</time></trkpt><trkpt lat="43.8687492" lon="11.1826887"><ele>157.2</ele><time>2026-04-12T06:39:38.955Z</time></trkpt><trkpt lat="43.8686688" lon="11.1826506"><ele>153.0</ele><time>2026-04-12T06:39:39.965Z</time></trkpt><trkpt lat="43.8685866" lon="11.1826092"><ele>153.0</ele><time>2026-04-12T06:39:40.99Z</time></trkpt><trkpt lat="43.8685128" lon="11.1825597"><ele>153.0</ele><time>2026-04-12T06:39:41.966Z</time></trkpt><trkpt lat="43.8684417" lon="11.1825183"><ele>153.0</ele><time>2026-04-12T06:39:42.968Z</time></trkpt><trkpt lat="43.8683708" lon="11.1824654"><ele>153.0</ele><time>2026-04-12T06:39:43.963Z</time></trkpt><trkpt lat="43.8682934" lon="11.1824143"><ele>153.0</ele><time>2026-04-12T06:39:44.97Z</time></trkpt><trkpt lat="43.868216" lon="11.1823658"><ele>153.0</ele><time>2026-04-12T06:39:45.967Z</time></trkpt><trkpt lat="43.8681287" lon="11.1823263"><ele>149.5</ele><time>2026-04-12T06:39:46.964Z</time></trkpt><trkpt lat="43.8680489" lon="11.1822773"><ele>146.0</ele><time>2026-04-12T06:39:47.97Z</time></trkpt><trkpt lat="43.8679702" lon="11.1822237"><ele>142.5</ele><time>2026-04-12T06:39:48.971Z</time></trkpt><trkpt lat="43.8678869" lon="11.1821635"><ele>139.0</ele><time>2026-04-12T06:39:49.977Z</time></trkpt><trkpt lat="43.8678126" lon="11.1821177"><ele>135.5</ele><time>2026-04-12T06:39:50.966Z</time></trkpt><trkpt lat="43.8677446" lon="11.1820721"><ele>132.0</ele><time>2026-04-12T06:39:51.963Z</time></trkpt><trkpt lat="43.8676741" lon="11.1820225"><ele>129.66666666666666</ele><time>2026-04-12T06:39:52.971Z</time></trkpt><trkpt lat="43.8676044" lon="11.1819798"><ele>127.33333333333334</ele><time>2026-04-12T06:39:53.97Z</time></trkpt><trkpt lat="43.867529" lon="11.1819385"><ele>125.0</ele><time>2026-04-12T06:39:54.969Z</time></trkpt><trkpt lat="43.8674511" lon="11.1818904"><ele>122.66666666666667</ele><time>2026-04-12T06:39:55.974Z</time></trkpt><trkpt lat="43.8673735" lon="11.1818449"><ele>120.33333333333334</ele><time>2026-04-12T06:39:56.966Z</time></trkpt><trkpt lat="43.8673021" lon="11.1817888"><ele>118.0</ele><time>2026-04-12T06:39:57.959Z</time></trkpt><trkpt lat="43.8672479" lon="11.1817415"><ele>118.0</ele><time>2026-04-12T06:39:58.971Z</time></trkpt><trkpt lat="43.8671495" lon="11.181695"><ele>118.00000000000001</ele><time>2026-04-12T06:40:00.966Z</time></trkpt><trkpt lat="43.8670838" lon="11.1817162"><ele>118.00000000000001</ele><time>2026-04-12T06:40:02.98Z</time></trkpt><trkpt lat="43.8670521" lon="11.1818324"><ele>118.0</ele><time>2026-04-12T06:40:04.951Z</time></trkpt><trkpt lat="43.8670067" lon="11.1819969"><ele>118.0</ele><time>2026-04-12T06:40:06.959Z</time></trkpt><trkpt lat="43.8669822" lon="11.1820915"><ele>118.0</ele><time>2026-04-12T06:40:07.976Z</time></trkpt><trkpt lat="43.8669552" lon="11.1821938"><ele>118.0</ele><time>2026-04-12T06:40:08.96Z</time></trkpt><trkpt lat="43.8669266" lon="11.1822946"><ele>118.0</ele><time>2026-04-12T06:40:09.974Z</time></trkpt><trkpt lat="43.8668981" lon="11.1823946"><ele>118.0</ele><time>2026-04-12T06:40:10.959Z</time></trkpt><trkpt lat="43.8668736" lon="11.1824919"><ele>118.0</ele><time>2026-04-12T06:40:12.021Z</time></trkpt><trkpt lat="43.8668452" lon="11.1825833"><ele>118.0</ele><time>2026-04-12T06:40:12.965Z</time></trkpt><trkpt lat="43.8668213" lon="11.1826683"><ele>118.0</ele><time>2026-04-12T06:40:14.014Z</time></trkpt><trkpt lat="43.8667747" lon="11.1828035"><ele>117.0</ele><time>2026-04-12T06:40:15.965Z</time></trkpt><trkpt lat="43.8667341" lon="11.1829225"><ele>116.00000000000001</ele><time>2026-04-12T06:40:17.964Z</time></trkpt><trkpt lat="43.8666585" lon="11.1829599"><ele>115.00000000000001</ele><time>2026-04-12T06:40:20.971Z</time></trkpt><trkpt lat="43.8665731" lon="11.1829148"><ele>114.0</ele><time>2026-04-12T06:40:22.968Z</time></trkpt><trkpt lat="43.8664655" lon="11.1828551"><ele>113.0</ele><time>2026-04-12T06:40:24.957Z</time></trkpt><trkpt lat="43.8664043" lon="11.1828106"><ele>112.99999999999999</ele><time>2026-04-12T06:40:25.969Z</time></trkpt><trkpt lat="43.8663358" lon="11.1827741"><ele>113.0</ele><time>2026-04-12T06:40:26.96Z</time></trkpt><trkpt lat="43.8662603" lon="11.1827431"><ele>113.0</ele><time>2026-04-12T06:40:27.967Z</time></trkpt><trkpt lat="43.8661826" lon="11.1827182"><ele>113.0</ele><time>2026-04-12T06:40:28.968Z</time></trkpt><trkpt lat="43.8661061" lon="11.1826871"><ele>112.99999999999999</ele><time>2026-04-12T06:40:29.979Z</time></trkpt><trkpt lat="43.8660343" lon="11.1826452"><ele>113.0</ele><time>2026-04-12T06:40:31.039Z</time></trkpt><trkpt lat="43.8659678" lon="11.1826031"><ele>111.99999999999999</ele><time>2026-04-12T06:40:32.029Z</time></trkpt><trkpt lat="43.8658905" lon="11.1825668"><ele>111.0</ele><time>2026-04-12T06:40:33.049Z</time></trkpt><trkpt lat="43.8658174" lon="11.1825316"><ele>110.0</ele><time>2026-04-12T06:40:33.972Z</time></trkpt><trkpt lat="43.8657417" lon="11.1825085"><ele>109.0</ele><time>2026-04-12T06:40:34.984Z</time></trkpt><trkpt lat="43.8656659" lon="11.1824862"><ele>107.99999999999999</ele><time>2026-04-12T06:40:35.972Z</time></trkpt><trkpt lat="43.8655923" lon="11.1824526"><ele>107.0</ele><time>2026-04-12T06:40:36.979Z</time></trkpt><trkpt lat="43.8655244" lon="11.1824192"><ele>106.99999999999999</ele><time>2026-04-12T06:40:37.976Z</time></trkpt><trkpt lat="43.8654581" lon="11.1823927"><ele>107.0</ele><time>2026-04-12T06:40:38.979Z</time></trkpt><trkpt lat="43.8653698" lon="11.1823442"><ele>107.0</ele><time>2026-04-12T06:40:40.978Z</time></trkpt><trkpt lat="43.8653095" lon="11.1823963"><ele>107.0</ele><time>2026-04-12T06:40:43.983Z</time></trkpt><trkpt lat="43.8652359" lon="11.1825282"><ele>106.99999999999999</ele><time>2026-04-12T06:40:45.971Z</time></trkpt><trkpt lat="43.8651906" lon="11.1826177"><ele>107.0</ele><time>2026-04-12T06:40:46.971Z</time></trkpt><trkpt lat="43.8651629" lon="11.1827251"><ele>107.0</ele><time>2026-04-12T06:40:47.972Z</time></trkpt><trkpt lat="43.8651409" lon="11.1828589"><ele>106.99999999999999</ele><time>2026-04-12T06:40:48.987Z</time></trkpt><trkpt lat="43.8651153" lon="11.1829873"><ele>106.99999999999999</ele><time>2026-04-12T06:40:49.981Z</time></trkpt><trkpt lat="43.8650917" lon="11.1831174"><ele>107.0</ele><time>2026-04-12T06:40:50.972Z</time></trkpt><trkpt lat="43.8650671" lon="11.1832526"><ele>107.0</ele><time>2026-04-12T06:40:51.973Z</time></trkpt><trkpt lat="43.8650458" lon="11.1833894"><ele>107.0</ele><time>2026-04-12T06:40:52.977Z</time></trkpt><trkpt lat="43.8650197" lon="11.1835318"><ele>106.99999999999999</ele><time>2026-04-12T06:40:53.977Z</time></trkpt><trkpt lat="43.8649947" lon="11.1836743"><ele>106.99999999999999</ele><time>2026-04-12T06:40:54.983Z</time></trkpt><trkpt lat="43.8649711" lon="11.1838239"><ele>107.0</ele><time>2026-04-12T06:40:55.975Z</time></trkpt><trkpt lat="43.8649448" lon="11.183976"><ele>107.0</ele><time>2026-04-12T06:40:56.991Z</time></trkpt><trkpt lat="43.8649136" lon="11.1841353"><ele>107.0</ele><time>2026-04-12T06:40:57.978Z</time></trkpt><trkpt lat="43.8648912" lon="11.1842947"><ele>106.99999999999999</ele><time>2026-04-12T06:40:58.974Z</time></trkpt><trkpt lat="43.8648695" lon="11.1844451"><ele>106.99999999999999</ele><time>2026-04-12T06:40:59.98Z</time></trkpt><trkpt lat="43.8648483" lon="11.1845873"><ele>107.0</ele><time>2026-04-12T06:41:00.979Z</time></trkpt><trkpt lat="43.8648356" lon="11.1847316"><ele>107.0</ele><time>2026-04-12T06:41:01.978Z</time></trkpt><trkpt lat="43.8648303" lon="11.1848744"><ele>107.5</ele><time>2026-04-12T06:41:02.978Z</time></trkpt><trkpt lat="43.8648324" lon="11.1850221"><ele>108.0</ele><time>2026-04-12T06:41:03.971Z</time></trkpt><trkpt lat="43.864833" lon="11.185176"><ele>108.5</ele><time>2026-04-12T06:41:04.976Z</time></trkpt><trkpt lat="43.8648321" lon="11.1853411"><ele>109.0</ele><time>2026-04-12T06:41:05.975Z</time></trkpt><trkpt lat="43.8648246" lon="11.1855186"><ele>109.0</ele><time>2026-04-12T06:41:06.974Z</time></trkpt><trkpt lat="43.8648119" lon="11.185698"><ele>109.0</ele><time>2026-04-12T06:41:07.956Z</time></trkpt><trkpt lat="43.8648116" lon="11.1858849"><ele>109.0</ele><time>2026-04-12T06:41:08.952Z</time></trkpt><trkpt lat="43.8648141" lon="11.1860764"><ele>109.0</ele><time>2026-04-12T06:41:09.95Z</time></trkpt><trkpt lat="43.8648213" lon="11.1862767"><ele>109.0</ele><time>2026-04-12T06:41:10.954Z</time></trkpt><trkpt lat="43.8648275" lon="11.1864843"><ele>109.0</ele><time>2026-04-12T06:41:11.956Z</time></trkpt><trkpt lat="43.8648385" lon="11.1866893"><ele>109.0</ele><time>2026-04-12T06:41:12.959Z</time></trkpt><trkpt lat="43.8648526" lon="11.1868916"><ele>109.0</ele><time>2026-04-12T06:41:13.976Z</time></trkpt><trkpt lat="43.8648609" lon="11.1870935"><ele>109.0</ele><time>2026-04-12T06:41:14.978Z</time></trkpt><trkpt lat="43.8648655" lon="11.1872967"><ele>109.0</ele><time>2026-04-12T06:41:15.969Z</time></trkpt><trkpt lat="43.8648697" lon="11.1874963"><ele>109.0</ele><time>2026-04-12T06:41:16.975Z</time></trkpt><trkpt lat="43.8648763" lon="11.1876925"><ele>109.0</ele><time>2026-04-12T06:41:17.987Z</time></trkpt><trkpt lat="43.8648821" lon="11.1878754"><ele>109.4</ele><time>2026-04-12T06:41:18.975Z</time></trkpt><trkpt lat="43.8648824" lon="11.1880333"><ele>109.80000000000001</ele><time>2026-04-12T06:41:19.983Z</time></trkpt><trkpt lat="43.8648831" lon="11.1881608"><ele>110.19999999999999</ele><time>2026-04-12T06:41:20.972Z</time></trkpt><trkpt lat="43.8648835" lon="11.1882641"><ele>110.6</ele><time>2026-04-12T06:41:21.979Z</time></trkpt><trkpt lat="43.864806" lon="11.1884057"><ele>111.0</ele><time>2026-04-12T06:41:23.973Z</time></trkpt><trkpt lat="43.8647142" lon="11.1884638"><ele>111.75</ele><time>2026-04-12T06:41:24.969Z</time></trkpt><trkpt lat="43.8646099" lon="11.1885294"><ele>112.5</ele><time>2026-04-12T06:41:25.976Z</time></trkpt><trkpt lat="43.8644897" lon="11.1885969"><ele>113.25</ele><time>2026-04-12T06:41:26.952Z</time></trkpt><trkpt lat="43.8643643" lon="11.1886207"><ele>114.0</ele><time>2026-04-12T06:41:27.982Z</time></trkpt><trkpt lat="43.8642327" lon="11.1886477"><ele>112.25</ele><time>2026-04-12T06:41:28.975Z</time></trkpt><trkpt lat="43.8641018" lon="11.1886815"><ele>110.5</ele><time>2026-04-12T06:41:29.966Z</time></trkpt><trkpt lat="43.8639664" lon="11.1887088"><ele>108.75</ele><time>2026-04-12T06:41:30.975Z</time></trkpt><trkpt lat="43.8638462" lon="11.1887404"><ele>107.0</ele><time>2026-04-12T06:41:31.974Z</time></trkpt><trkpt lat="43.8637339" lon="11.1887642"><ele>107.0</ele><time>2026-04-12T06:41:32.973Z</time></trkpt><trkpt lat="43.8636215" lon="11.188788"><ele>106.99999999999999</ele><time>2026-04-12T06:41:33.972Z</time></trkpt><trkpt lat="43.8635281" lon="11.1888046"><ele>106.99999999999999</ele><time>2026-04-12T06:41:34.969Z</time></trkpt><trkpt lat="43.8634464" lon="11.1888373"><ele>107.0</ele><time>2026-04-12T06:41:35.975Z</time></trkpt><trkpt lat="43.8633886" lon="11.1889067"><ele>107.0</ele><time>2026-04-12T06:41:36.971Z</time></trkpt><trkpt lat="43.8633616" lon="11.1890175"><ele>106.83333333333333</ele><time>2026-04-12T06:41:37.974Z</time></trkpt><trkpt lat="43.863343" lon="11.1891124"><ele>106.66666666666666</ele><time>2026-04-12T06:41:38.972Z</time></trkpt><trkpt lat="43.8632876" lon="11.1891828"><ele>106.5</ele><time>2026-04-12T06:41:39.979Z</time></trkpt><trkpt lat="43.8632224" lon="11.189197"><ele>106.33333333333334</ele><time>2026-04-12T06:41:40.979Z</time></trkpt><trkpt lat="43.8631141" lon="11.1891885"><ele>106.16666666666667</ele><time>2026-04-12T06:41:41.983Z</time></trkpt><trkpt lat="43.8630085" lon="11.1891635"><ele>106.0</ele><time>2026-04-12T06:41:42.978Z</time></trkpt><trkpt lat="43.8628979" lon="11.189133"><ele>106.0</ele><time>2026-04-12T06:41:43.975Z</time></trkpt><trkpt lat="43.8627784" lon="11.1891164"><ele>106.0</ele><time>2026-04-12T06:41:44.988Z</time></trkpt><trkpt lat="43.8626653" lon="11.1890836"><ele>106.0</ele><time>2026-04-12T06:41:45.982Z</time></trkpt><trkpt lat="43.8625588" lon="11.1890418"><ele>106.0</ele><time>2026-04-12T06:41:46.975Z</time></trkpt><trkpt lat="43.8624673" lon="11.1889814"><ele>106.0</ele><time>2026-04-12T06:41:47.98Z</time></trkpt><trkpt lat="43.8623813" lon="11.1889215"><ele>106.0</ele><time>2026-04-12T06:41:48.977Z</time></trkpt><trkpt lat="43.8623027" lon="11.1888466"><ele>106.0</ele><time>2026-04-12T06:41:49.986Z</time></trkpt><trkpt lat="43.8622322" lon="11.1887655"><ele>106.0</ele><time>2026-04-12T06:41:50.971Z</time></trkpt><trkpt lat="43.8621688" lon="11.1886732"><ele>106.0</ele><time>2026-04-12T06:41:51.974Z</time></trkpt><trkpt lat="43.8621159" lon="11.1885564"><ele>106.0</ele><time>2026-04-12T06:41:52.97Z</time></trkpt><trkpt lat="43.8620767" lon="11.1884276"><ele>106.0</ele><time>2026-04-12T06:41:53.976Z</time></trkpt><trkpt lat="43.8620521" lon="11.1882861"><ele>106.0</ele><time>2026-04-12T06:41:54.981Z</time></trkpt><trkpt lat="43.8620363" lon="11.1881423"><ele>106.0</ele><time>2026-04-12T06:41:55.983Z</time></trkpt><trkpt lat="43.8619844" lon="11.1879845"><ele>106.0</ele><time>2026-04-12T06:41:56.984Z</time></trkpt><trkpt lat="43.861909" lon="11.1878278"><ele>106.0</ele><time>2026-04-12T06:41:57.971Z</time></trkpt><trkpt lat="43.8618246" lon="11.1876769"><ele>106.0</ele><time>2026-04-12T06:41:58.976Z</time></trkpt><trkpt lat="43.8617401" lon="11.1875232"><ele>106.0</ele><time>2026-04-12T06:41:59.983Z</time></trkpt><trkpt lat="43.8616578" lon="11.18736"><ele>106.0</ele><time>2026-04-12T06:42:00.965Z</time></trkpt><trkpt lat="43.8615692" lon="11.1872069"><ele>104.75</ele><time>2026-04-12T06:42:01.981Z</time></trkpt><trkpt lat="43.8614878" lon="11.1870628"><ele>103.5</ele><time>2026-04-12T06:42:02.978Z</time></trkpt><trkpt lat="43.8613989" lon="11.186925"><ele>102.25</ele><time>2026-04-12T06:42:03.971Z</time></trkpt><trkpt lat="43.8613144" lon="11.1867879"><ele>101.0</ele><time>2026-04-12T06:42:04.978Z</time></trkpt><trkpt lat="43.8612283" lon="11.186645"><ele>101.0</ele><time>2026-04-12T06:42:05.96Z</time></trkpt><trkpt lat="43.8611404" lon="11.1865089"><ele>101.0</ele><time>2026-04-12T06:42:06.982Z</time></trkpt><trkpt lat="43.8610571" lon="11.1863754"><ele>101.0</ele><time>2026-04-12T06:42:07.974Z</time></trkpt><trkpt lat="43.8609803" lon="11.186242"><ele>101.0</ele><time>2026-04-12T06:42:08.976Z</time></trkpt><trkpt lat="43.8609128" lon="11.186108"><ele>101.0</ele><time>2026-04-12T06:42:09.971Z</time></trkpt><trkpt lat="43.860858" lon="11.1859696"><ele>101.0</ele><time>2026-04-12T06:42:10.979Z</time></trkpt><trkpt lat="43.8608149" lon="11.1858265"><ele>101.0</ele><time>2026-04-12T06:42:11.975Z</time></trkpt><trkpt lat="43.8607722" lon="11.185679"><ele>101.0</ele><time>2026-04-12T06:42:12.979Z</time></trkpt><trkpt lat="43.8607144" lon="11.1855407"><ele>100.5</ele><time>2026-04-12T06:42:13.975Z</time></trkpt><trkpt lat="43.8606448" lon="11.185402"><ele>100.0</ele><time>2026-04-12T06:42:14.955Z</time></trkpt><trkpt lat="43.8605737" lon="11.1852545"><ele>99.5</ele><time>2026-04-12T06:42:15.981Z</time></trkpt><trkpt lat="43.8605008" lon="11.1850925"><ele>99.0</ele><time>2026-04-12T06:42:16.98Z</time></trkpt><trkpt lat="43.8604236" lon="11.1849475"><ele>98.5</ele><time>2026-04-12T06:42:17.968Z</time></trkpt><trkpt lat="43.8603337" lon="11.1847983"><ele>98.0</ele><time>2026-04-12T06:42:18.979Z</time></trkpt><trkpt lat="43.8602197" lon="11.1846652"><ele>97.5</ele><time>2026-04-12T06:42:19.965Z</time></trkpt><trkpt lat="43.8600978" lon="11.1845475"><ele>97.0</ele><time>2026-04-12T06:42:20.969Z</time></trkpt><trkpt lat="43.8599718" lon="11.184437"><ele>97.0</ele><time>2026-04-12T06:42:21.975Z</time></trkpt><trkpt lat="43.8598457" lon="11.1843177"><ele>97.0</ele><time>2026-04-12T06:42:22.978Z</time></trkpt><trkpt lat="43.8597338" lon="11.184192"><ele>97.0</ele><time>2026-04-12T06:42:23.979Z</time></trkpt><trkpt lat="43.8596163" lon="11.1840608"><ele>97.0</ele><time>2026-04-12T06:42:24.979Z</time></trkpt><trkpt lat="43.8594951" lon="11.183936"><ele>96.0</ele><time>2026-04-12T06:42:25.97Z</time></trkpt><trkpt lat="43.8593759" lon="11.183809"><ele>95.0</ele><time>2026-04-12T06:42:26.955Z</time></trkpt><trkpt lat="43.8592544" lon="11.1836881"><ele>94.0</ele><time>2026-04-12T06:42:27.972Z</time></trkpt><trkpt lat="43.8591318" lon="11.1835581"><ele>94.0</ele><time>2026-04-12T06:42:29.022Z</time></trkpt><trkpt lat="43.8590093" lon="11.1834235"><ele>94.0</ele><time>2026-04-12T06:42:29.968Z</time></trkpt><trkpt lat="43.8588789" lon="11.1833023"><ele>94.0</ele><time>2026-04-12T06:42:30.982Z</time></trkpt><trkpt lat="43.858759" lon="11.1831774"><ele>92.75</ele><time>2026-04-12T06:42:31.976Z</time></trkpt><trkpt lat="43.8586406" lon="11.1830689"><ele>91.5</ele><time>2026-04-12T06:42:33.033Z</time></trkpt><trkpt lat="43.8585286" lon="11.1829632"><ele>90.25</ele><time>2026-04-12T06:42:34.02Z</time></trkpt><trkpt lat="43.8584188" lon="11.1828573"><ele>89.0</ele><time>2026-04-12T06:42:34.967Z</time></trkpt><trkpt lat="43.8583096" lon="11.1827574"><ele>89.0</ele><time>2026-04-12T06:42:35.957Z</time></trkpt><trkpt lat="43.8581889" lon="11.1826652"><ele>89.0</ele><time>2026-04-12T06:42:36.977Z</time></trkpt><trkpt lat="43.8580621" lon="11.1825789"><ele>89.0</ele><time>2026-04-12T06:42:38.034Z</time></trkpt><trkpt lat="43.8579303" lon="11.1824835"><ele>89.0</ele><time>2026-04-12T06:42:39.032Z</time></trkpt><trkpt lat="43.8578097" lon="11.1823963"><ele>88.75</ele><time>2026-04-12T06:42:39.965Z</time></trkpt><trkpt lat="43.8576917" lon="11.1823081"><ele>88.5</ele><time>2026-04-12T06:42:40.975Z</time></trkpt><trkpt lat="43.8575785" lon="11.1822033"><ele>88.25</ele><time>2026-04-12T06:42:41.976Z</time></trkpt><trkpt lat="43.8574708" lon="11.1820796"><ele>88.0</ele><time>2026-04-12T06:42:43.03Z</time></trkpt><trkpt lat="43.8573751" lon="11.181941"><ele>88.0</ele><time>2026-04-12T06:42:44.03Z</time></trkpt><trkpt lat="43.8572873" lon="11.1818063"><ele>88.0</ele><time>2026-04-12T06:42:44.966Z</time></trkpt><trkpt lat="43.8572031" lon="11.1816681"><ele>88.0</ele><time>2026-04-12T06:42:45.966Z</time></trkpt><trkpt lat="43.8571495" lon="11.1815263"><ele>88.0</ele><time>2026-04-12T06:42:46.982Z</time></trkpt><trkpt lat="43.8571284" lon="11.1813639"><ele>86.5</ele><time>2026-04-12T06:42:47.962Z</time></trkpt><trkpt lat="43.8571197" lon="11.1811863"><ele>85.0</ele><time>2026-04-12T06:42:48.963Z</time></trkpt><trkpt lat="43.8571187" lon="11.1809949"><ele>83.5</ele><time>2026-04-12T06:42:49.969Z</time></trkpt><trkpt lat="43.8571146" lon="11.1807871"><ele>82.0</ele><time>2026-04-12T06:42:51.031Z</time></trkpt><trkpt lat="43.8571047" lon="11.1805766"><ele>82.0</ele><time>2026-04-12T06:42:52.026Z</time></trkpt><trkpt lat="43.8570982" lon="11.1803512"><ele>82.0</ele><time>2026-04-12T06:42:53.029Z</time></trkpt><trkpt lat="43.8570965" lon="11.1801355"><ele>82.0</ele><time>2026-04-12T06:42:53.945Z</time></trkpt><trkpt lat="43.8570935" lon="11.1799218"><ele>81.25</ele><time>2026-04-12T06:42:54.962Z</time></trkpt><trkpt lat="43.8570858" lon="11.1797211"><ele>80.5</ele><time>2026-04-12T06:42:55.967Z</time></trkpt><trkpt lat="43.8570852" lon="11.1795366"><ele>79.75</ele><time>2026-04-12T06:42:56.976Z</time></trkpt><trkpt lat="43.8570868" lon="11.179363"><ele>79.0</ele><time>2026-04-12T06:42:57.973Z</time></trkpt><trkpt lat="43.8570831" lon="11.1792193"><ele>79.0</ele><time>2026-04-12T06:42:58.971Z</time></trkpt><trkpt lat="43.857082" lon="11.1790908"><ele>79.0</ele><time>2026-04-12T06:42:59.964Z</time></trkpt><trkpt lat="43.8570807" lon="11.1789965"><ele>79.0</ele><time>2026-04-12T06:43:00.967Z</time></trkpt><trkpt lat="43.8570237" lon="11.178935"><ele>79.0</ele><time>2026-04-12T06:43:02.973Z</time></trkpt><trkpt lat="43.8569306" lon="11.178922"><ele>79.0</ele><time>2026-04-12T06:43:04.958Z</time></trkpt><trkpt lat="43.8568635" lon="11.1789098"><ele>79.0</ele><time>2026-04-12T06:43:06.97Z</time></trkpt><trkpt lat="43.8568193" lon="11.1789775"><ele>78.4</ele><time>2026-04-12T06:44:54.957Z</time></trkpt><trkpt lat="43.8567325" lon="11.1789946"><ele>77.80000000000001</ele><time>2026-04-12T06:45:41.966Z</time></trkpt><trkpt lat="43.8568094" lon="11.1789925"><ele>77.19999999999999</ele><time>2026-04-12T06:47:55.959Z</time></trkpt><trkpt lat="43.8569095" lon="11.1789528"><ele>76.6</ele><time>2026-04-12T06:47:56.937Z</time></trkpt><trkpt lat="43.8570263" lon="11.1789223"><ele>76.0</ele><time>2026-04-12T06:47:58.957Z</time></trkpt><trkpt lat="43.8571046" lon="11.1788834"><ele>76.0</ele><time>2026-04-12T06:48:01.952Z</time></trkpt><trkpt lat="43.8571485" lon="11.1787996"><ele>76.0</ele><time>2026-04-12T06:48:03.963Z</time></trkpt><trkpt lat="43.8571363" lon="11.1787012"><ele>76.0</ele><time>2026-04-12T06:48:05.998Z</time></trkpt><trkpt lat="43.8571169" lon="11.1785962"><ele>76.0</ele><time>2026-04-12T06:48:08.965Z</time></trkpt><trkpt lat="43.8570214" lon="11.1785874"><ele>76.0</ele><time>2026-04-12T06:48:10.961Z</time></trkpt><trkpt lat="43.8569494" lon="11.178609"><ele>76.0</ele><time>2026-04-12T06:48:11.96Z</time></trkpt><trkpt lat="43.8568746" lon="11.1786399"><ele>76.0</ele><time>2026-04-12T06:48:12.943Z</time></trkpt><trkpt lat="43.8567999" lon="11.1786667"><ele>76.0</ele><time>2026-04-12T06:48:14.046Z</time></trkpt><trkpt lat="43.8567295" lon="11.1786981"><ele>76.0</ele><time>2026-04-12T06:48:15.063Z</time></trkpt><trkpt lat="43.8566553" lon="11.1787247"><ele>76.0</ele><time>2026-04-12T06:48:15.97Z</time></trkpt><trkpt lat="43.8565703" lon="11.1787542"><ele>76.0</ele><time>2026-04-12T06:48:17.03Z</time></trkpt><trkpt lat="43.8564842" lon="11.1787888"><ele>76.0</ele><time>2026-04-12T06:48:17.965Z</time></trkpt><trkpt lat="43.8563954" lon="11.1788254"><ele>75.6</ele><time>2026-04-12T06:48:18.965Z</time></trkpt><trkpt lat="43.8563036" lon="11.1788604"><ele>75.19999999999999</ele><time>2026-04-12T06:48:19.969Z</time></trkpt><trkpt lat="43.8562103" lon="11.1788989"><ele>74.80000000000001</ele><time>2026-04-12T06:48:20.972Z</time></trkpt><trkpt lat="43.8561093" lon="11.178935"><ele>74.4</ele><time>2026-04-12T06:48:21.945Z</time></trkpt><trkpt lat="43.8560084" lon="11.1789733"><ele>74.0</ele><time>2026-04-12T06:48:23.031Z</time></trkpt><trkpt lat="43.8558979" lon="11.1789962"><ele>74.0</ele><time>2026-04-12T06:48:24.034Z</time></trkpt><trkpt lat="43.855777" lon="11.1790163"><ele>74.0</ele><time>2026-04-12T06:48:25.028Z</time></trkpt><trkpt lat="43.8556535" lon="11.1790111"><ele>74.0</ele><time>2026-04-12T06:48:25.98Z</time></trkpt><trkpt lat="43.855528" lon="11.1790017"><ele>74.0</ele><time>2026-04-12T06:48:26.956Z</time></trkpt><trkpt lat="43.8554033" lon="11.1790104"><ele>74.0</ele><time>2026-04-12T06:48:27.958Z</time></trkpt><trkpt lat="43.8552821" lon="11.1790277"><ele>74.0</ele><time>2026-04-12T06:48:28.968Z</time></trkpt><trkpt lat="43.8551708" lon="11.1790473"><ele>74.0</ele><time>2026-04-12T06:48:29.964Z</time></trkpt><trkpt lat="43.8550746" lon="11.1790555"><ele>74.0</ele><time>2026-04-12T06:48:30.96Z</time></trkpt><trkpt lat="43.8549996" lon="11.1790711"><ele>74.0</ele><time>2026-04-12T06:48:31.973Z</time></trkpt><trkpt lat="43.8548994" lon="11.17918"><ele>73.83333333333334</ele><time>2026-04-12T06:48:34.04Z</time></trkpt><trkpt lat="43.8548743" lon="11.1792702"><ele>73.66666666666667</ele><time>2026-04-12T06:48:34.969Z</time></trkpt><trkpt lat="43.8548529" lon="11.1793787"><ele>73.5</ele><time>2026-04-12T06:48:35.962Z</time></trkpt><trkpt lat="43.8548187" lon="11.1794727"><ele>73.33333333333333</ele><time>2026-04-12T06:48:36.973Z</time></trkpt><trkpt lat="43.854764" lon="11.1795393"><ele>73.16666666666666</ele><time>2026-04-12T06:48:37.962Z</time></trkpt><trkpt lat="43.8546904" lon="11.1795649"><ele>73.0</ele><time>2026-04-12T06:48:38.964Z</time></trkpt><trkpt lat="43.8545932" lon="11.179573"><ele>73.0</ele><time>2026-04-12T06:48:40.018Z</time></trkpt><trkpt lat="43.8544859" lon="11.1795864"><ele>73.0</ele><time>2026-04-12T06:48:40.957Z</time></trkpt><trkpt lat="43.8543861" lon="11.1796192"><ele>73.0</ele><time>2026-04-12T06:48:41.967Z</time></trkpt><trkpt lat="43.8542877" lon="11.1796776"><ele>73.0</ele><time>2026-04-12T06:48:42.974Z</time></trkpt><trkpt lat="43.8542073" lon="11.1797594"><ele>73.0</ele><time>2026-04-12T06:48:43.965Z</time></trkpt><trkpt lat="43.8541213" lon="11.179841"><ele>75.0</ele><time>2026-04-12T06:48:44.968Z</time></trkpt><trkpt lat="43.8540446" lon="11.1799337"><ele>77.0</ele><time>2026-04-12T06:48:45.971Z</time></trkpt><trkpt lat="43.8539683" lon="11.1800225"><ele>79.0</ele><time>2026-04-12T06:48:47.028Z</time></trkpt><trkpt lat="43.853906" lon="11.1801038"><ele>81.0</ele><time>2026-04-12T06:48:47.965Z</time></trkpt><trkpt lat="43.8538459" lon="11.1801984"><ele>83.0</ele><time>2026-04-12T06:48:49.019Z</time></trkpt><trkpt lat="43.8537872" lon="11.1803027"><ele>83.0</ele><time>2026-04-12T06:48:50.034Z</time></trkpt><trkpt lat="43.8537242" lon="11.1804077"><ele>83.0</ele><time>2026-04-12T06:48:50.942Z</time></trkpt><trkpt lat="43.853654" lon="11.180516"><ele>83.0</ele><time>2026-04-12T06:48:51.959Z</time></trkpt><trkpt lat="43.8535839" lon="11.1806135"><ele>83.0</ele><time>2026-04-12T06:48:52.966Z</time></trkpt><trkpt lat="43.8535206" lon="11.1807206"><ele>83.0</ele><time>2026-04-12T06:48:53.966Z</time></trkpt><trkpt lat="43.8534615" lon="11.1808361"><ele>83.80000000000001</ele><time>2026-04-12T06:48:54.959Z</time></trkpt><trkpt lat="43.8534116" lon="11.1809646"><ele>84.6</ele><time>2026-04-12T06:48:55.964Z</time></trkpt><trkpt lat="43.8533614" lon="11.1810803"><ele>85.4</ele><time>2026-04-12T06:48:57.031Z</time></trkpt><trkpt lat="43.8533126" lon="11.1811954"><ele>86.19999999999999</ele><time>2026-04-12T06:48:57.991Z</time></trkpt><trkpt lat="43.853267" lon="11.1813052"><ele>87.0</ele><time>2026-04-12T06:48:59.035Z</time></trkpt><trkpt lat="43.8532055" lon="11.1813918"><ele>87.0</ele><time>2026-04-12T06:49:00.045Z</time></trkpt><trkpt lat="43.8531434" lon="11.1814758"><ele>87.0</ele><time>2026-04-12T06:49:00.967Z</time></trkpt><trkpt lat="43.8530821" lon="11.1815546"><ele>87.0</ele><time>2026-04-12T06:49:01.967Z</time></trkpt><trkpt lat="43.8530228" lon="11.181637"><ele>87.0</ele><time>2026-04-12T06:49:02.986Z</time></trkpt><trkpt lat="43.8529734" lon="11.1817202"><ele>87.0</ele><time>2026-04-12T06:49:03.958Z</time></trkpt><trkpt lat="43.8529384" lon="11.1818104"><ele>87.0</ele><time>2026-04-12T06:49:04.943Z</time></trkpt><trkpt lat="43.8528902" lon="11.1819257"><ele>86.8</ele><time>2026-04-12T06:49:06.967Z</time></trkpt><trkpt lat="43.8528293" lon="11.1819655"><ele>86.6</ele><time>2026-04-12T06:49:08.967Z</time></trkpt><trkpt lat="43.8527413" lon="11.1820135"><ele>86.39999999999999</ele><time>2026-04-12T06:49:10.97Z</time></trkpt><trkpt lat="43.852639" lon="11.1820898"><ele>86.19999999999999</ele><time>2026-04-12T06:49:13.03Z</time></trkpt><trkpt lat="43.8525492" lon="11.1821666"><ele>86.0</ele><time>2026-04-12T06:49:15.03Z</time></trkpt><trkpt lat="43.8524704" lon="11.1822348"><ele>86.0</ele><time>2026-04-12T06:49:16.955Z</time></trkpt><trkpt lat="43.8523679" lon="11.1822949"><ele>86.0</ele><time>2026-04-12T06:49:18.963Z</time></trkpt><trkpt lat="43.8522927" lon="11.1823791"><ele>86.0</ele><time>2026-04-12T06:49:20.941Z</time></trkpt><trkpt lat="43.852209" lon="11.1823886"><ele>86.0</ele><time>2026-04-12T06:49:23.963Z</time></trkpt><trkpt lat="43.8521382" lon="11.1822578"><ele>86.0</ele><time>2026-04-12T06:49:25.955Z</time></trkpt><trkpt lat="43.8520601" lon="11.1821415"><ele>86.0</ele><time>2026-04-12T06:49:27.954Z</time></trkpt><trkpt lat="43.8519906" lon="11.1819972"><ele>86.0</ele><time>2026-04-12T06:49:29.96Z</time></trkpt><trkpt lat="43.8519393" lon="11.1819394"><ele>86.0</ele><time>2026-04-12T06:49:30.964Z</time></trkpt><trkpt lat="43.8518373" lon="11.1819932"><ele>86.0</ele><time>2026-04-12T06:49:32.955Z</time></trkpt><trkpt lat="43.8517695" lon="11.182077"><ele>86.0</ele><time>2026-04-12T06:49:35.031Z</time></trkpt><trkpt lat="43.8517437" lon="11.18199"><ele>78.0</ele><time>2026-04-12T06:51:10.964Z</time></trkpt></trkseg></trk></gpx>